<?xml version="1.0" encoding="UTF-8" standalone="no" ?>
<gpx xmlns="http://www.topografix.com/GPX/1/1" xmlns:xsi="http://www.w3.org/2001/XMLSchema-instance" xsi:schemaLocation="http://www.topografix.com/GPX/1/1 http://www.topografix.com/GPX/1/1/gpx.xsd" version="1.1" creator="VisuGPX - https://www.visugpx.com">
  <metadata>
    <name>Pornichet C09/01/2022</name>
    <desc><![CDATA[Sortie vtt dimanche 09 janvier 2022]]></desc>
  </metadata>
  <trk>
    <name><![CDATA[Pornichet Cyclisme]]></name>
    <trkseg>
      <trkpt lat="47.26412" lon="-2.31554">
        <ele>2.4000000953674</ele>
        <time>2022-01-09T07:58:21.000Z</time>
      </trkpt>
      <trkpt lat="47.26413" lon="-2.31569">
        <ele>2.4000000953674</ele>
        <time>2022-01-09T07:58:24.000Z</time>
      </trkpt>
      <trkpt lat="47.26413" lon="-2.31574">
        <ele>3.2000000476837</ele>
        <time>2022-01-09T07:58:25.000Z</time>
      </trkpt>
      <trkpt lat="47.26412" lon="-2.31585">
        <ele>3.2000000476837</ele>
        <time>2022-01-09T07:58:27.000Z</time>
      </trkpt>
      <trkpt lat="47.26409" lon="-2.31636">
        <ele>3.2000000476837</ele>
        <time>2022-01-09T07:58:36.000Z</time>
      </trkpt>
      <trkpt lat="47.26407" lon="-2.31645">
        <ele>3.2000000476837</ele>
        <time>2022-01-09T07:58:38.000Z</time>
      </trkpt>
      <trkpt lat="47.26404" lon="-2.31648">
        <ele>3.2000000476837</ele>
        <time>2022-01-09T07:58:39.000Z</time>
      </trkpt>
      <trkpt lat="47.26388" lon="-2.31657">
        <ele>3.2000000476837</ele>
        <time>2022-01-09T07:58:43.000Z</time>
      </trkpt>
      <trkpt lat="47.26368" lon="-2.31669">
        <ele>2.7999999523163</ele>
        <time>2022-01-09T07:58:47.000Z</time>
      </trkpt>
      <trkpt lat="47.26363" lon="-2.31672">
        <ele>2.4000000953674</ele>
        <time>2022-01-09T07:58:48.000Z</time>
      </trkpt>
      <trkpt lat="47.26358" lon="-2.31676">
        <ele>2</ele>
        <time>2022-01-09T07:58:49.000Z</time>
      </trkpt>
      <trkpt lat="47.26353" lon="-2.31678">
        <ele>1.2000000476837</ele>
        <time>2022-01-09T07:58:50.000Z</time>
      </trkpt>
      <trkpt lat="47.26332" lon="-2.31689">
        <ele>1.2000000476837</ele>
        <time>2022-01-09T07:58:54.000Z</time>
      </trkpt>
      <trkpt lat="47.26321" lon="-2.31695">
        <ele>1.2000000476837</ele>
        <time>2022-01-09T07:58:56.000Z</time>
      </trkpt>
      <trkpt lat="47.26307" lon="-2.31703">
        <ele>0.80000001192093</ele>
        <time>2022-01-09T07:58:59.000Z</time>
      </trkpt>
      <trkpt lat="47.26304" lon="-2.31706">
        <ele>0.20000000298023</ele>
        <time>2022-01-09T07:59:00.000Z</time>
      </trkpt>
      <trkpt lat="47.26301" lon="-2.3171">
        <ele>-0.20000000298023</ele>
        <time>2022-01-09T07:59:01.000Z</time>
      </trkpt>
      <trkpt lat="47.263" lon="-2.31714">
        <ele>-0.60000002384186</ele>
        <time>2022-01-09T07:59:02.000Z</time>
      </trkpt>
      <trkpt lat="47.26301" lon="-2.31719">
        <ele>-1.2000000476837</ele>
        <time>2022-01-09T07:59:03.000Z</time>
      </trkpt>
      <trkpt lat="47.26303" lon="-2.31729">
        <ele>-1.2000000476837</ele>
        <time>2022-01-09T07:59:05.000Z</time>
      </trkpt>
      <trkpt lat="47.26305" lon="-2.31758">
        <ele>-1.2000000476837</ele>
        <time>2022-01-09T07:59:11.000Z</time>
      </trkpt>
      <trkpt lat="47.26305" lon="-2.3179">
        <ele>-1.2000000476837</ele>
        <time>2022-01-09T07:59:17.000Z</time>
      </trkpt>
      <trkpt lat="47.26302" lon="-2.31815">
        <ele>-1.2000000476837</ele>
        <time>2022-01-09T07:59:22.000Z</time>
      </trkpt>
      <trkpt lat="47.263" lon="-2.31846">
        <ele>-1.2000000476837</ele>
        <time>2022-01-09T07:59:28.000Z</time>
      </trkpt>
      <trkpt lat="47.26298" lon="-2.31858">
        <ele>-1.2000000476837</ele>
        <time>2022-01-09T07:59:31.000Z</time>
      </trkpt>
      <trkpt lat="47.26294" lon="-2.31864">
        <ele>-1.2000000476837</ele>
        <time>2022-01-09T07:59:33.000Z</time>
      </trkpt>
      <trkpt lat="47.26277" lon="-2.31882">
        <ele>-1.2000000476837</ele>
        <time>2022-01-09T07:59:39.000Z</time>
      </trkpt>
      <trkpt lat="47.26263" lon="-2.31905">
        <ele>-1.2000000476837</ele>
        <time>2022-01-09T07:59:45.000Z</time>
      </trkpt>
      <trkpt lat="47.26252" lon="-2.31923">
        <ele>-1.6000000238419</ele>
        <time>2022-01-09T07:59:50.000Z</time>
      </trkpt>
      <trkpt lat="47.2625" lon="-2.31927">
        <ele>-2</ele>
        <time>2022-01-09T07:59:51.000Z</time>
      </trkpt>
      <trkpt lat="47.26248" lon="-2.31931">
        <ele>-2.4000000953674</ele>
        <time>2022-01-09T07:59:52.000Z</time>
      </trkpt>
      <trkpt lat="47.26246" lon="-2.31936">
        <ele>-2.7999999523163</ele>
        <time>2022-01-09T07:59:53.000Z</time>
      </trkpt>
      <trkpt lat="47.26245" lon="-2.31939">
        <ele>-3.2000000476837</ele>
        <time>2022-01-09T07:59:54.000Z</time>
      </trkpt>
      <trkpt lat="47.26241" lon="-2.31943">
        <ele>-3.2000000476837</ele>
        <time>2022-01-09T07:59:56.000Z</time>
      </trkpt>
      <trkpt lat="47.26235" lon="-2.31945">
        <ele>-3.2000000476837</ele>
        <time>2022-01-09T08:00:00.000Z</time>
      </trkpt>
      <trkpt lat="47.26232" lon="-2.31948">
        <ele>-3.2000000476837</ele>
        <time>2022-01-09T08:00:02.000Z</time>
      </trkpt>
      <trkpt lat="47.26222" lon="-2.31962">
        <ele>-3.2000000476837</ele>
        <time>2022-01-09T08:00:07.000Z</time>
      </trkpt>
      <trkpt lat="47.26219" lon="-2.31965">
        <ele>-3.2000000476837</ele>
        <time>2022-01-09T08:00:08.000Z</time>
      </trkpt>
      <trkpt lat="47.26209" lon="-2.31973">
        <ele>-3.2000000476837</ele>
        <time>2022-01-09T08:00:12.000Z</time>
      </trkpt>
      <trkpt lat="47.26207" lon="-2.31979">
        <ele>-3.2000000476837</ele>
        <time>2022-01-09T08:00:14.000Z</time>
      </trkpt>
      <trkpt lat="47.26203" lon="-2.31988">
        <ele>-3.2000000476837</ele>
        <time>2022-01-09T08:00:17.000Z</time>
      </trkpt>
      <trkpt lat="47.26195" lon="-2.31991">
        <ele>-3.2000000476837</ele>
        <time>2022-01-09T08:00:22.000Z</time>
      </trkpt>
      <trkpt lat="47.26179" lon="-2.31993">
        <ele>-3.2000000476837</ele>
        <time>2022-01-09T08:00:28.000Z</time>
      </trkpt>
      <trkpt lat="47.26162" lon="-2.32008">
        <ele>-3.2000000476837</ele>
        <time>2022-01-09T08:00:33.000Z</time>
      </trkpt>
      <trkpt lat="47.26149" lon="-2.32042">
        <ele>-3.2000000476837</ele>
        <time>2022-01-09T08:00:39.000Z</time>
      </trkpt>
      <trkpt lat="47.26141" lon="-2.32073">
        <ele>-3.2000000476837</ele>
        <time>2022-01-09T08:00:44.000Z</time>
      </trkpt>
      <trkpt lat="47.26139" lon="-2.32079">
        <ele>-3.2000000476837</ele>
        <time>2022-01-09T08:00:45.000Z</time>
      </trkpt>
      <trkpt lat="47.26126" lon="-2.32121">
        <ele>-3.2000000476837</ele>
        <time>2022-01-09T08:00:52.000Z</time>
      </trkpt>
      <trkpt lat="47.26119" lon="-2.32138">
        <ele>-3.2000000476837</ele>
        <time>2022-01-09T08:00:55.000Z</time>
      </trkpt>
      <trkpt lat="47.26114" lon="-2.3215">
        <ele>-3.2000000476837</ele>
        <time>2022-01-09T08:00:57.000Z</time>
      </trkpt>
      <trkpt lat="47.26093" lon="-2.32189">
        <ele>-3.2000000476837</ele>
        <time>2022-01-09T08:01:04.000Z</time>
      </trkpt>
      <trkpt lat="47.26067" lon="-2.32223">
        <ele>-3.2000000476837</ele>
        <time>2022-01-09T08:01:11.000Z</time>
      </trkpt>
      <trkpt lat="47.2604" lon="-2.32254">
        <ele>-3.2000000476837</ele>
        <time>2022-01-09T08:01:18.000Z</time>
      </trkpt>
      <trkpt lat="47.26011" lon="-2.32288">
        <ele>-3.2000000476837</ele>
        <time>2022-01-09T08:01:26.000Z</time>
      </trkpt>
      <trkpt lat="47.25989" lon="-2.32316">
        <ele>-3.2000000476837</ele>
        <time>2022-01-09T08:01:32.000Z</time>
      </trkpt>
      <trkpt lat="47.25964" lon="-2.32348">
        <ele>-3.2000000476837</ele>
        <time>2022-01-09T08:01:39.000Z</time>
      </trkpt>
      <trkpt lat="47.25933" lon="-2.3239">
        <ele>-3.2000000476837</ele>
        <time>2022-01-09T08:01:48.000Z</time>
      </trkpt>
      <trkpt lat="47.25929" lon="-2.32394">
        <ele>-3.2000000476837</ele>
        <time>2022-01-09T08:01:49.000Z</time>
      </trkpt>
      <trkpt lat="47.25905" lon="-2.32425">
        <ele>-3.2000000476837</ele>
        <time>2022-01-09T08:01:56.000Z</time>
      </trkpt>
      <trkpt lat="47.25899" lon="-2.32436">
        <ele>-3.2000000476837</ele>
        <time>2022-01-09T08:01:58.000Z</time>
      </trkpt>
      <trkpt lat="47.25885" lon="-2.32453">
        <ele>-3.2000000476837</ele>
        <time>2022-01-09T08:02:02.000Z</time>
      </trkpt>
      <trkpt lat="47.25881" lon="-2.32455">
        <ele>-3.2000000476837</ele>
        <time>2022-01-09T08:02:03.000Z</time>
      </trkpt>
      <trkpt lat="47.25854" lon="-2.32461">
        <ele>-3.2000000476837</ele>
        <time>2022-01-09T08:02:09.000Z</time>
      </trkpt>
      <trkpt lat="47.25825" lon="-2.32453">
        <ele>-3.2000000476837</ele>
        <time>2022-01-09T08:02:15.000Z</time>
      </trkpt>
      <trkpt lat="47.25804" lon="-2.32444">
        <ele>-3.2000000476837</ele>
        <time>2022-01-09T08:02:20.000Z</time>
      </trkpt>
      <trkpt lat="47.25795" lon="-2.32443">
        <ele>-3.2000000476837</ele>
        <time>2022-01-09T08:02:22.000Z</time>
      </trkpt>
      <trkpt lat="47.25779" lon="-2.32439">
        <ele>-3.2000000476837</ele>
        <time>2022-01-09T08:02:26.000Z</time>
      </trkpt>
      <trkpt lat="47.25771" lon="-2.32422">
        <ele>-3.2000000476837</ele>
        <time>2022-01-09T08:02:30.000Z</time>
      </trkpt>
      <trkpt lat="47.25767" lon="-2.32419">
        <ele>-3.2000000476837</ele>
        <time>2022-01-09T08:02:31.000Z</time>
      </trkpt>
      <trkpt lat="47.25749" lon="-2.32415">
        <ele>-3.2000000476837</ele>
        <time>2022-01-09T08:02:35.000Z</time>
      </trkpt>
      <trkpt lat="47.2571" lon="-2.32415">
        <ele>-3.2000000476837</ele>
        <time>2022-01-09T08:02:43.000Z</time>
      </trkpt>
      <trkpt lat="47.25674" lon="-2.32413">
        <ele>-3.2000000476837</ele>
        <time>2022-01-09T08:02:51.000Z</time>
      </trkpt>
      <trkpt lat="47.2567" lon="-2.32414">
        <ele>-3.2000000476837</ele>
        <time>2022-01-09T08:02:52.000Z</time>
      </trkpt>
      <trkpt lat="47.25664" lon="-2.32422">
        <ele>-3.2000000476837</ele>
        <time>2022-01-09T08:02:54.000Z</time>
      </trkpt>
      <trkpt lat="47.25665" lon="-2.3244">
        <ele>-3.2000000476837</ele>
        <time>2022-01-09T08:02:57.000Z</time>
      </trkpt>
      <trkpt lat="47.25668" lon="-2.32451">
        <ele>-3.2000000476837</ele>
        <time>2022-01-09T08:02:59.000Z</time>
      </trkpt>
      <trkpt lat="47.25669" lon="-2.32457">
        <ele>-2.7999999523163</ele>
        <time>2022-01-09T08:03:00.000Z</time>
      </trkpt>
      <trkpt lat="47.25671" lon="-2.32462">
        <ele>-2.4000000953674</ele>
        <time>2022-01-09T08:03:01.000Z</time>
      </trkpt>
      <trkpt lat="47.25673" lon="-2.32467">
        <ele>-2</ele>
        <time>2022-01-09T08:03:02.000Z</time>
      </trkpt>
      <trkpt lat="47.25674" lon="-2.32472">
        <ele>-1.6000000238419</ele>
        <time>2022-01-09T08:03:03.000Z</time>
      </trkpt>
      <trkpt lat="47.25676" lon="-2.32478">
        <ele>-1</ele>
        <time>2022-01-09T08:03:04.000Z</time>
      </trkpt>
      <trkpt lat="47.25688" lon="-2.32519">
        <ele>-1</ele>
        <time>2022-01-09T08:03:12.000Z</time>
      </trkpt>
      <trkpt lat="47.25695" lon="-2.32537">
        <ele>-0.60000002384186</ele>
        <time>2022-01-09T08:03:16.000Z</time>
      </trkpt>
      <trkpt lat="47.25697" lon="-2.32542">
        <ele>-0.20000000298023</ele>
        <time>2022-01-09T08:03:17.000Z</time>
      </trkpt>
      <trkpt lat="47.25699" lon="-2.32547">
        <ele>0.20000000298023</ele>
        <time>2022-01-09T08:03:18.000Z</time>
      </trkpt>
      <trkpt lat="47.257" lon="-2.32552">
        <ele>0.60000002384186</ele>
        <time>2022-01-09T08:03:19.000Z</time>
      </trkpt>
      <trkpt lat="47.25702" lon="-2.32556">
        <ele>1</ele>
        <time>2022-01-09T08:03:20.000Z</time>
      </trkpt>
      <trkpt lat="47.25711" lon="-2.32594">
        <ele>1</ele>
        <time>2022-01-09T08:03:27.000Z</time>
      </trkpt>
      <trkpt lat="47.25705" lon="-2.32615">
        <ele>1</ele>
        <time>2022-01-09T08:03:31.000Z</time>
      </trkpt>
      <trkpt lat="47.2569" lon="-2.32624">
        <ele>1.3999999761581</ele>
        <time>2022-01-09T08:03:35.000Z</time>
      </trkpt>
      <trkpt lat="47.25686" lon="-2.32625">
        <ele>1.7999999523163</ele>
        <time>2022-01-09T08:03:36.000Z</time>
      </trkpt>
      <trkpt lat="47.25682" lon="-2.32626">
        <ele>2.2000000476837</ele>
        <time>2022-01-09T08:03:37.000Z</time>
      </trkpt>
      <trkpt lat="47.25679" lon="-2.32628">
        <ele>2.5999999046326</ele>
        <time>2022-01-09T08:03:38.000Z</time>
      </trkpt>
      <trkpt lat="47.25675" lon="-2.3263">
        <ele>3</ele>
        <time>2022-01-09T08:03:39.000Z</time>
      </trkpt>
      <trkpt lat="47.25662" lon="-2.32637">
        <ele>3</ele>
        <time>2022-01-09T08:03:43.000Z</time>
      </trkpt>
      <trkpt lat="47.25641" lon="-2.32646">
        <ele>3.4000000953674</ele>
        <time>2022-01-09T08:03:49.000Z</time>
      </trkpt>
      <trkpt lat="47.25637" lon="-2.32647">
        <ele>3.7999999523163</ele>
        <time>2022-01-09T08:03:50.000Z</time>
      </trkpt>
      <trkpt lat="47.25634" lon="-2.32648">
        <ele>4.1999998092651</ele>
        <time>2022-01-09T08:03:51.000Z</time>
      </trkpt>
      <trkpt lat="47.2563" lon="-2.3265">
        <ele>4.5999999046326</ele>
        <time>2022-01-09T08:03:52.000Z</time>
      </trkpt>
      <trkpt lat="47.25627" lon="-2.32652">
        <ele>5</ele>
        <time>2022-01-09T08:03:53.000Z</time>
      </trkpt>
      <trkpt lat="47.25613" lon="-2.32659">
        <ele>5</ele>
        <time>2022-01-09T08:03:57.000Z</time>
      </trkpt>
      <trkpt lat="47.25587" lon="-2.32672">
        <ele>5</ele>
        <time>2022-01-09T08:04:04.000Z</time>
      </trkpt>
      <trkpt lat="47.25583" lon="-2.32674">
        <ele>5</ele>
        <time>2022-01-09T08:04:05.000Z</time>
      </trkpt>
      <trkpt lat="47.25551" lon="-2.32688">
        <ele>5</ele>
        <time>2022-01-09T08:04:13.000Z</time>
      </trkpt>
      <trkpt lat="47.25518" lon="-2.32696">
        <ele>5</ele>
        <time>2022-01-09T08:04:21.000Z</time>
      </trkpt>
      <trkpt lat="47.25505" lon="-2.32698">
        <ele>5</ele>
        <time>2022-01-09T08:04:24.000Z</time>
      </trkpt>
      <trkpt lat="47.25497" lon="-2.327">
        <ele>5</ele>
        <time>2022-01-09T08:04:26.000Z</time>
      </trkpt>
      <trkpt lat="47.25493" lon="-2.32702">
        <ele>5</ele>
        <time>2022-01-09T08:04:27.000Z</time>
      </trkpt>
      <trkpt lat="47.25485" lon="-2.32706">
        <ele>5</ele>
        <time>2022-01-09T08:04:29.000Z</time>
      </trkpt>
      <trkpt lat="47.25475" lon="-2.32717">
        <ele>5</ele>
        <time>2022-01-09T08:04:32.000Z</time>
      </trkpt>
      <trkpt lat="47.25472" lon="-2.32721">
        <ele>5</ele>
        <time>2022-01-09T08:04:33.000Z</time>
      </trkpt>
      <trkpt lat="47.25454" lon="-2.32747">
        <ele>5</ele>
        <time>2022-01-09T08:04:39.000Z</time>
      </trkpt>
      <trkpt lat="47.2544" lon="-2.32771">
        <ele>5</ele>
        <time>2022-01-09T08:04:44.000Z</time>
      </trkpt>
      <trkpt lat="47.25439" lon="-2.32777">
        <ele>5</ele>
        <time>2022-01-09T08:04:45.000Z</time>
      </trkpt>
      <trkpt lat="47.25426" lon="-2.32795">
        <ele>5</ele>
        <time>2022-01-09T08:04:49.000Z</time>
      </trkpt>
      <trkpt lat="47.254" lon="-2.3283">
        <ele>5</ele>
        <time>2022-01-09T08:04:56.000Z</time>
      </trkpt>
      <trkpt lat="47.25386" lon="-2.32847">
        <ele>5</ele>
        <time>2022-01-09T08:05:00.000Z</time>
      </trkpt>
      <trkpt lat="47.25373" lon="-2.32862">
        <ele>5</ele>
        <time>2022-01-09T08:05:04.000Z</time>
      </trkpt>
      <trkpt lat="47.2535" lon="-2.32885">
        <ele>5</ele>
        <time>2022-01-09T08:05:10.000Z</time>
      </trkpt>
      <trkpt lat="47.25323" lon="-2.32911">
        <ele>5</ele>
        <time>2022-01-09T08:05:17.000Z</time>
      </trkpt>
      <trkpt lat="47.25319" lon="-2.32914">
        <ele>5</ele>
        <time>2022-01-09T08:05:18.000Z</time>
      </trkpt>
      <trkpt lat="47.25312" lon="-2.32922">
        <ele>5</ele>
        <time>2022-01-09T08:05:20.000Z</time>
      </trkpt>
      <trkpt lat="47.25308" lon="-2.32933">
        <ele>5</ele>
        <time>2022-01-09T08:05:22.000Z</time>
      </trkpt>
      <trkpt lat="47.25311" lon="-2.32958">
        <ele>5</ele>
        <time>2022-01-09T08:05:26.000Z</time>
      </trkpt>
      <trkpt lat="47.25315" lon="-2.32969">
        <ele>5</ele>
        <time>2022-01-09T08:05:28.000Z</time>
      </trkpt>
      <trkpt lat="47.25322" lon="-2.32986">
        <ele>4.5999999046326</ele>
        <time>2022-01-09T08:05:31.000Z</time>
      </trkpt>
      <trkpt lat="47.25324" lon="-2.32992">
        <ele>4.1999998092651</ele>
        <time>2022-01-09T08:05:32.000Z</time>
      </trkpt>
      <trkpt lat="47.25327" lon="-2.32997">
        <ele>3.7999999523163</ele>
        <time>2022-01-09T08:05:33.000Z</time>
      </trkpt>
      <trkpt lat="47.25329" lon="-2.33003">
        <ele>3.4000000953674</ele>
        <time>2022-01-09T08:05:34.000Z</time>
      </trkpt>
      <trkpt lat="47.25331" lon="-2.33009">
        <ele>3</ele>
        <time>2022-01-09T08:05:35.000Z</time>
      </trkpt>
      <trkpt lat="47.2534" lon="-2.33037">
        <ele>3</ele>
        <time>2022-01-09T08:05:40.000Z</time>
      </trkpt>
      <trkpt lat="47.25358" lon="-2.33075">
        <ele>3</ele>
        <time>2022-01-09T08:05:48.000Z</time>
      </trkpt>
      <trkpt lat="47.25366" lon="-2.33098">
        <ele>3</ele>
        <time>2022-01-09T08:05:54.000Z</time>
      </trkpt>
      <trkpt lat="47.25366" lon="-2.33099">
        <ele>3</ele>
        <time>2022-01-09T08:05:58.000Z</time>
      </trkpt>
      <trkpt lat="47.2537" lon="-2.33104">
        <ele>5</ele>
        <time>2022-01-09T08:11:18.000Z</time>
      </trkpt>
      <trkpt lat="47.25373" lon="-2.33111">
        <ele>5</ele>
        <time>2022-01-09T08:11:21.000Z</time>
      </trkpt>
      <trkpt lat="47.25378" lon="-2.33128">
        <ele>5</ele>
        <time>2022-01-09T08:11:27.000Z</time>
      </trkpt>
      <trkpt lat="47.25384" lon="-2.33138">
        <ele>5</ele>
        <time>2022-01-09T08:11:34.000Z</time>
      </trkpt>
      <trkpt lat="47.25393" lon="-2.33135">
        <ele>5</ele>
        <time>2022-01-09T08:11:39.000Z</time>
      </trkpt>
      <trkpt lat="47.25414" lon="-2.33123">
        <ele>5</ele>
        <time>2022-01-09T08:11:47.000Z</time>
      </trkpt>
      <trkpt lat="47.25439" lon="-2.33113">
        <ele>5</ele>
        <time>2022-01-09T08:11:55.000Z</time>
      </trkpt>
      <trkpt lat="47.25459" lon="-2.33103">
        <ele>5</ele>
        <time>2022-01-09T08:12:02.000Z</time>
      </trkpt>
      <trkpt lat="47.25485" lon="-2.33088">
        <ele>5</ele>
        <time>2022-01-09T08:12:11.000Z</time>
      </trkpt>
      <trkpt lat="47.255" lon="-2.33071">
        <ele>5</ele>
        <time>2022-01-09T08:12:17.000Z</time>
      </trkpt>
      <trkpt lat="47.25523" lon="-2.33048">
        <ele>5</ele>
        <time>2022-01-09T08:12:25.000Z</time>
      </trkpt>
      <trkpt lat="47.25547" lon="-2.3304">
        <ele>5</ele>
        <time>2022-01-09T08:12:32.000Z</time>
      </trkpt>
      <trkpt lat="47.25551" lon="-2.33039">
        <ele>5.4000000953674</ele>
        <time>2022-01-09T08:12:33.000Z</time>
      </trkpt>
      <trkpt lat="47.25555" lon="-2.33038">
        <ele>5.8000001907349</ele>
        <time>2022-01-09T08:12:34.000Z</time>
      </trkpt>
      <trkpt lat="47.25558" lon="-2.33036">
        <ele>6.1999998092651</ele>
        <time>2022-01-09T08:12:35.000Z</time>
      </trkpt>
      <trkpt lat="47.25561" lon="-2.33035">
        <ele>6.5999999046326</ele>
        <time>2022-01-09T08:12:36.000Z</time>
      </trkpt>
      <trkpt lat="47.25564" lon="-2.33033">
        <ele>7</ele>
        <time>2022-01-09T08:12:37.000Z</time>
      </trkpt>
      <trkpt lat="47.25571" lon="-2.33032">
        <ele>7</ele>
        <time>2022-01-09T08:12:39.000Z</time>
      </trkpt>
      <trkpt lat="47.25596" lon="-2.33028">
        <ele>7</ele>
        <time>2022-01-09T08:12:46.000Z</time>
      </trkpt>
      <trkpt lat="47.25611" lon="-2.33021">
        <ele>7</ele>
        <time>2022-01-09T08:12:51.000Z</time>
      </trkpt>
      <trkpt lat="47.25614" lon="-2.33013">
        <ele>7</ele>
        <time>2022-01-09T08:12:53.000Z</time>
      </trkpt>
      <trkpt lat="47.25614" lon="-2.33008">
        <ele>7.4000000953674</ele>
        <time>2022-01-09T08:12:54.000Z</time>
      </trkpt>
      <trkpt lat="47.25614" lon="-2.33004">
        <ele>7.8000001907349</ele>
        <time>2022-01-09T08:12:55.000Z</time>
      </trkpt>
      <trkpt lat="47.25613" lon="-2.32999">
        <ele>8.1999998092651</ele>
        <time>2022-01-09T08:12:56.000Z</time>
      </trkpt>
      <trkpt lat="47.25613" lon="-2.32995">
        <ele>8.6000003814697</ele>
        <time>2022-01-09T08:12:57.000Z</time>
      </trkpt>
      <trkpt lat="47.25612" lon="-2.3299">
        <ele>9</ele>
        <time>2022-01-09T08:12:58.000Z</time>
      </trkpt>
      <trkpt lat="47.25608" lon="-2.32963">
        <ele>9</ele>
        <time>2022-01-09T08:13:04.000Z</time>
      </trkpt>
      <trkpt lat="47.25605" lon="-2.32947">
        <ele>9</ele>
        <time>2022-01-09T08:13:10.000Z</time>
      </trkpt>
      <trkpt lat="47.25604" lon="-2.32935">
        <ele>9</ele>
        <time>2022-01-09T08:13:17.000Z</time>
      </trkpt>
      <trkpt lat="47.25603" lon="-2.32931">
        <ele>9</ele>
        <time>2022-01-09T08:13:21.000Z</time>
      </trkpt>
      <trkpt lat="47.25599" lon="-2.32901">
        <ele>11.199999809265</ele>
        <time>2022-01-09T08:15:58.000Z</time>
      </trkpt>
      <trkpt lat="47.256" lon="-2.32885">
        <ele>11.199999809265</ele>
        <time>2022-01-09T08:16:06.000Z</time>
      </trkpt>
      <trkpt lat="47.25598" lon="-2.3287">
        <ele>11.199999809265</ele>
        <time>2022-01-09T08:16:13.000Z</time>
      </trkpt>
      <trkpt lat="47.25593" lon="-2.32848">
        <ele>11.199999809265</ele>
        <time>2022-01-09T08:16:19.000Z</time>
      </trkpt>
      <trkpt lat="47.25592" lon="-2.32825">
        <ele>11.199999809265</ele>
        <time>2022-01-09T08:16:23.000Z</time>
      </trkpt>
      <trkpt lat="47.25594" lon="-2.32813">
        <ele>11.199999809265</ele>
        <time>2022-01-09T08:16:25.000Z</time>
      </trkpt>
      <trkpt lat="47.256" lon="-2.32769">
        <ele>11.199999809265</ele>
        <time>2022-01-09T08:16:32.000Z</time>
      </trkpt>
      <trkpt lat="47.25603" lon="-2.32739">
        <ele>11.60000038147</ele>
        <time>2022-01-09T08:16:37.000Z</time>
      </trkpt>
      <trkpt lat="47.25603" lon="-2.32733">
        <ele>12</ele>
        <time>2022-01-09T08:16:38.000Z</time>
      </trkpt>
      <trkpt lat="47.25604" lon="-2.32727">
        <ele>12.39999961853</ele>
        <time>2022-01-09T08:16:39.000Z</time>
      </trkpt>
      <trkpt lat="47.25604" lon="-2.32721">
        <ele>12.800000190735</ele>
        <time>2022-01-09T08:16:40.000Z</time>
      </trkpt>
      <trkpt lat="47.25604" lon="-2.32716">
        <ele>13.199999809265</ele>
        <time>2022-01-09T08:16:41.000Z</time>
      </trkpt>
      <trkpt lat="47.25604" lon="-2.32691">
        <ele>13.199999809265</ele>
        <time>2022-01-09T08:16:45.000Z</time>
      </trkpt>
      <trkpt lat="47.25608" lon="-2.32665">
        <ele>13.199999809265</ele>
        <time>2022-01-09T08:16:50.000Z</time>
      </trkpt>
      <trkpt lat="47.25619" lon="-2.32658">
        <ele>13.199999809265</ele>
        <time>2022-01-09T08:16:53.000Z</time>
      </trkpt>
      <trkpt lat="47.25658" lon="-2.32642">
        <ele>13.199999809265</ele>
        <time>2022-01-09T08:17:02.000Z</time>
      </trkpt>
      <trkpt lat="47.25693" lon="-2.32625">
        <ele>12.800000190735</ele>
        <time>2022-01-09T08:17:09.000Z</time>
      </trkpt>
      <trkpt lat="47.25698" lon="-2.32622">
        <ele>12.39999961853</ele>
        <time>2022-01-09T08:17:10.000Z</time>
      </trkpt>
      <trkpt lat="47.25703" lon="-2.32619">
        <ele>12</ele>
        <time>2022-01-09T08:17:11.000Z</time>
      </trkpt>
      <trkpt lat="47.25706" lon="-2.32614">
        <ele>11.39999961853</ele>
        <time>2022-01-09T08:17:12.000Z</time>
      </trkpt>
      <trkpt lat="47.25708" lon="-2.32608">
        <ele>11</ele>
        <time>2022-01-09T08:17:13.000Z</time>
      </trkpt>
      <trkpt lat="47.25706" lon="-2.32588">
        <ele>11</ele>
        <time>2022-01-09T08:17:16.000Z</time>
      </trkpt>
      <trkpt lat="47.25705" lon="-2.32582">
        <ele>11</ele>
        <time>2022-01-09T08:17:17.000Z</time>
      </trkpt>
      <trkpt lat="47.25692" lon="-2.32541">
        <ele>10.60000038147</ele>
        <time>2022-01-09T08:17:23.000Z</time>
      </trkpt>
      <trkpt lat="47.2569" lon="-2.32534">
        <ele>10.199999809265</ele>
        <time>2022-01-09T08:17:24.000Z</time>
      </trkpt>
      <trkpt lat="47.25688" lon="-2.32527">
        <ele>9.8000001907349</ele>
        <time>2022-01-09T08:17:25.000Z</time>
      </trkpt>
      <trkpt lat="47.25686" lon="-2.32519">
        <ele>9.1999998092651</ele>
        <time>2022-01-09T08:17:26.000Z</time>
      </trkpt>
      <trkpt lat="47.25683" lon="-2.32511">
        <ele>8.8000001907349</ele>
        <time>2022-01-09T08:17:27.000Z</time>
      </trkpt>
      <trkpt lat="47.25672" lon="-2.32479">
        <ele>8.8000001907349</ele>
        <time>2022-01-09T08:17:31.000Z</time>
      </trkpt>
      <trkpt lat="47.25662" lon="-2.32436">
        <ele>8.3999996185303</ele>
        <time>2022-01-09T08:17:36.000Z</time>
      </trkpt>
      <trkpt lat="47.25661" lon="-2.32429">
        <ele>8</ele>
        <time>2022-01-09T08:17:37.000Z</time>
      </trkpt>
      <trkpt lat="47.25662" lon="-2.32422">
        <ele>7.5999999046326</ele>
        <time>2022-01-09T08:17:38.000Z</time>
      </trkpt>
      <trkpt lat="47.25664" lon="-2.32417">
        <ele>7.1999998092651</ele>
        <time>2022-01-09T08:17:39.000Z</time>
      </trkpt>
      <trkpt lat="47.25667" lon="-2.32414">
        <ele>6.8000001907349</ele>
        <time>2022-01-09T08:17:40.000Z</time>
      </trkpt>
      <trkpt lat="47.25681" lon="-2.32417">
        <ele>6.8000001907349</ele>
        <time>2022-01-09T08:17:43.000Z</time>
      </trkpt>
      <trkpt lat="47.25715" lon="-2.32421">
        <ele>6.8000001907349</ele>
        <time>2022-01-09T08:17:49.000Z</time>
      </trkpt>
      <trkpt lat="47.25726" lon="-2.32421">
        <ele>6.8000001907349</ele>
        <time>2022-01-09T08:17:51.000Z</time>
      </trkpt>
      <trkpt lat="47.25742" lon="-2.32422">
        <ele>6.8000001907349</ele>
        <time>2022-01-09T08:17:54.000Z</time>
      </trkpt>
      <trkpt lat="47.25756" lon="-2.3242">
        <ele>6.8000001907349</ele>
        <time>2022-01-09T08:17:57.000Z</time>
      </trkpt>
      <trkpt lat="47.25768" lon="-2.32414">
        <ele>6.8000001907349</ele>
        <time>2022-01-09T08:18:00.000Z</time>
      </trkpt>
      <trkpt lat="47.25779" lon="-2.32411">
        <ele>6.8000001907349</ele>
        <time>2022-01-09T08:18:03.000Z</time>
      </trkpt>
      <trkpt lat="47.25782" lon="-2.32414">
        <ele>6.8000001907349</ele>
        <time>2022-01-09T08:18:04.000Z</time>
      </trkpt>
      <trkpt lat="47.25791" lon="-2.32429">
        <ele>6.8000001907349</ele>
        <time>2022-01-09T08:18:07.000Z</time>
      </trkpt>
      <trkpt lat="47.25794" lon="-2.32436">
        <ele>6.8000001907349</ele>
        <time>2022-01-09T08:18:08.000Z</time>
      </trkpt>
      <trkpt lat="47.25809" lon="-2.32469">
        <ele>6.8000001907349</ele>
        <time>2022-01-09T08:18:13.000Z</time>
      </trkpt>
      <trkpt lat="47.25813" lon="-2.32476">
        <ele>6.8000001907349</ele>
        <time>2022-01-09T08:18:14.000Z</time>
      </trkpt>
      <trkpt lat="47.25841" lon="-2.32514">
        <ele>6.8000001907349</ele>
        <time>2022-01-09T08:18:21.000Z</time>
      </trkpt>
      <trkpt lat="47.25866" lon="-2.32552">
        <ele>6.8000001907349</ele>
        <time>2022-01-09T08:18:28.000Z</time>
      </trkpt>
      <trkpt lat="47.25892" lon="-2.3259">
        <ele>6.8000001907349</ele>
        <time>2022-01-09T08:18:35.000Z</time>
      </trkpt>
      <trkpt lat="47.25902" lon="-2.32598">
        <ele>6.8000001907349</ele>
        <time>2022-01-09T08:18:37.000Z</time>
      </trkpt>
      <trkpt lat="47.25914" lon="-2.32614">
        <ele>6.8000001907349</ele>
        <time>2022-01-09T08:18:40.000Z</time>
      </trkpt>
      <trkpt lat="47.25945" lon="-2.32654">
        <ele>6.8000001907349</ele>
        <time>2022-01-09T08:18:48.000Z</time>
      </trkpt>
      <trkpt lat="47.2595" lon="-2.32657">
        <ele>6.8000001907349</ele>
        <time>2022-01-09T08:18:49.000Z</time>
      </trkpt>
      <trkpt lat="47.25966" lon="-2.3266">
        <ele>6.8000001907349</ele>
        <time>2022-01-09T08:18:52.000Z</time>
      </trkpt>
      <trkpt lat="47.25972" lon="-2.32659">
        <ele>6.8000001907349</ele>
        <time>2022-01-09T08:18:53.000Z</time>
      </trkpt>
      <trkpt lat="47.25977" lon="-2.32659">
        <ele>6.8000001907349</ele>
        <time>2022-01-09T08:18:54.000Z</time>
      </trkpt>
      <trkpt lat="47.25988" lon="-2.32659">
        <ele>6.8000001907349</ele>
        <time>2022-01-09T08:18:56.000Z</time>
      </trkpt>
      <trkpt lat="47.25993" lon="-2.32659">
        <ele>6.8000001907349</ele>
        <time>2022-01-09T08:18:57.000Z</time>
      </trkpt>
      <trkpt lat="47.26029" lon="-2.32652">
        <ele>6.8000001907349</ele>
        <time>2022-01-09T08:19:04.000Z</time>
      </trkpt>
      <trkpt lat="47.26044" lon="-2.3265">
        <ele>6.8000001907349</ele>
        <time>2022-01-09T08:19:07.000Z</time>
      </trkpt>
      <trkpt lat="47.26063" lon="-2.32645">
        <ele>6.8000001907349</ele>
        <time>2022-01-09T08:19:11.000Z</time>
      </trkpt>
      <trkpt lat="47.26077" lon="-2.32642">
        <ele>6.8000001907349</ele>
        <time>2022-01-09T08:19:14.000Z</time>
      </trkpt>
      <trkpt lat="47.26096" lon="-2.32639">
        <ele>6.8000001907349</ele>
        <time>2022-01-09T08:19:18.000Z</time>
      </trkpt>
      <trkpt lat="47.26134" lon="-2.32638">
        <ele>6.8000001907349</ele>
        <time>2022-01-09T08:19:26.000Z</time>
      </trkpt>
      <trkpt lat="47.26139" lon="-2.3264">
        <ele>6.8000001907349</ele>
        <time>2022-01-09T08:19:27.000Z</time>
      </trkpt>
      <trkpt lat="47.26163" lon="-2.32649">
        <ele>6.8000001907349</ele>
        <time>2022-01-09T08:19:32.000Z</time>
      </trkpt>
      <trkpt lat="47.26189" lon="-2.32668">
        <ele>6.8000001907349</ele>
        <time>2022-01-09T08:19:38.000Z</time>
      </trkpt>
      <trkpt lat="47.26193" lon="-2.32672">
        <ele>6.8000001907349</ele>
        <time>2022-01-09T08:19:39.000Z</time>
      </trkpt>
      <trkpt lat="47.26221" lon="-2.32704">
        <ele>6.8000001907349</ele>
        <time>2022-01-09T08:19:46.000Z</time>
      </trkpt>
      <trkpt lat="47.26246" lon="-2.3274">
        <ele>6.8000001907349</ele>
        <time>2022-01-09T08:19:52.000Z</time>
      </trkpt>
      <trkpt lat="47.26276" lon="-2.32793">
        <ele>6.8000001907349</ele>
        <time>2022-01-09T08:20:00.000Z</time>
      </trkpt>
      <trkpt lat="47.26286" lon="-2.32833">
        <ele>6.8000001907349</ele>
        <time>2022-01-09T08:20:05.000Z</time>
      </trkpt>
      <trkpt lat="47.26289" lon="-2.32848">
        <ele>6.8000001907349</ele>
        <time>2022-01-09T08:20:07.000Z</time>
      </trkpt>
      <trkpt lat="47.26296" lon="-2.32859">
        <ele>6.8000001907349</ele>
        <time>2022-01-09T08:20:09.000Z</time>
      </trkpt>
      <trkpt lat="47.26311" lon="-2.32868">
        <ele>6.8000001907349</ele>
        <time>2022-01-09T08:20:12.000Z</time>
      </trkpt>
      <trkpt lat="47.26322" lon="-2.32885">
        <ele>6.8000001907349</ele>
        <time>2022-01-09T08:20:15.000Z</time>
      </trkpt>
      <trkpt lat="47.26326" lon="-2.32899">
        <ele>6.8000001907349</ele>
        <time>2022-01-09T08:20:17.000Z</time>
      </trkpt>
      <trkpt lat="47.26335" lon="-2.32927">
        <ele>6.8000001907349</ele>
        <time>2022-01-09T08:20:21.000Z</time>
      </trkpt>
      <trkpt lat="47.2635" lon="-2.32969">
        <ele>6.8000001907349</ele>
        <time>2022-01-09T08:20:27.000Z</time>
      </trkpt>
      <trkpt lat="47.26364" lon="-2.32991">
        <ele>6.8000001907349</ele>
        <time>2022-01-09T08:20:31.000Z</time>
      </trkpt>
      <trkpt lat="47.26367" lon="-2.33013">
        <ele>6.8000001907349</ele>
        <time>2022-01-09T08:20:34.000Z</time>
      </trkpt>
      <trkpt lat="47.26368" lon="-2.3302">
        <ele>6.8000001907349</ele>
        <time>2022-01-09T08:20:35.000Z</time>
      </trkpt>
      <trkpt lat="47.26369" lon="-2.33051">
        <ele>6.8000001907349</ele>
        <time>2022-01-09T08:20:39.000Z</time>
      </trkpt>
      <trkpt lat="47.2637" lon="-2.33067">
        <ele>6.8000001907349</ele>
        <time>2022-01-09T08:20:41.000Z</time>
      </trkpt>
      <trkpt lat="47.26374" lon="-2.33128">
        <ele>6.8000001907349</ele>
        <time>2022-01-09T08:20:49.000Z</time>
      </trkpt>
      <trkpt lat="47.26378" lon="-2.33194">
        <ele>6.8000001907349</ele>
        <time>2022-01-09T08:20:58.000Z</time>
      </trkpt>
      <trkpt lat="47.26381" lon="-2.33242">
        <ele>6.8000001907349</ele>
        <time>2022-01-09T08:21:05.000Z</time>
      </trkpt>
      <trkpt lat="47.26382" lon="-2.33248">
        <ele>6.8000001907349</ele>
        <time>2022-01-09T08:21:06.000Z</time>
      </trkpt>
      <trkpt lat="47.26393" lon="-2.33265">
        <ele>6.8000001907349</ele>
        <time>2022-01-09T08:21:10.000Z</time>
      </trkpt>
      <trkpt lat="47.26406" lon="-2.33268">
        <ele>6.8000001907349</ele>
        <time>2022-01-09T08:21:13.000Z</time>
      </trkpt>
      <trkpt lat="47.26415" lon="-2.33269">
        <ele>6.8000001907349</ele>
        <time>2022-01-09T08:21:15.000Z</time>
      </trkpt>
      <trkpt lat="47.26449" lon="-2.33272">
        <ele>6.8000001907349</ele>
        <time>2022-01-09T08:21:23.000Z</time>
      </trkpt>
      <trkpt lat="47.26453" lon="-2.33273">
        <ele>6.8000001907349</ele>
        <time>2022-01-09T08:21:24.000Z</time>
      </trkpt>
      <trkpt lat="47.26465" lon="-2.33277">
        <ele>6.8000001907349</ele>
        <time>2022-01-09T08:21:27.000Z</time>
      </trkpt>
      <trkpt lat="47.26474" lon="-2.33277">
        <ele>6.8000001907349</ele>
        <time>2022-01-09T08:21:29.000Z</time>
      </trkpt>
      <trkpt lat="47.26488" lon="-2.33263">
        <ele>6.8000001907349</ele>
        <time>2022-01-09T08:21:33.000Z</time>
      </trkpt>
      <trkpt lat="47.265" lon="-2.33242">
        <ele>6.8000001907349</ele>
        <time>2022-01-09T08:21:37.000Z</time>
      </trkpt>
      <trkpt lat="47.26508" lon="-2.33234">
        <ele>6.8000001907349</ele>
        <time>2022-01-09T08:21:39.000Z</time>
      </trkpt>
      <trkpt lat="47.26517" lon="-2.33228">
        <ele>6.8000001907349</ele>
        <time>2022-01-09T08:21:41.000Z</time>
      </trkpt>
      <trkpt lat="47.26535" lon="-2.33216">
        <ele>6.8000001907349</ele>
        <time>2022-01-09T08:21:45.000Z</time>
      </trkpt>
      <trkpt lat="47.26563" lon="-2.33199">
        <ele>6.8000001907349</ele>
        <time>2022-01-09T08:21:51.000Z</time>
      </trkpt>
      <trkpt lat="47.26567" lon="-2.33197">
        <ele>6.8000001907349</ele>
        <time>2022-01-09T08:21:52.000Z</time>
      </trkpt>
      <trkpt lat="47.26584" lon="-2.33174">
        <ele>6.8000001907349</ele>
        <time>2022-01-09T08:21:57.000Z</time>
      </trkpt>
      <trkpt lat="47.26587" lon="-2.33168">
        <ele>6.8000001907349</ele>
        <time>2022-01-09T08:21:58.000Z</time>
      </trkpt>
      <trkpt lat="47.26594" lon="-2.33152">
        <ele>6.8000001907349</ele>
        <time>2022-01-09T08:22:01.000Z</time>
      </trkpt>
      <trkpt lat="47.26601" lon="-2.33146">
        <ele>6.8000001907349</ele>
        <time>2022-01-09T08:22:03.000Z</time>
      </trkpt>
      <trkpt lat="47.26614" lon="-2.33147">
        <ele>6.8000001907349</ele>
        <time>2022-01-09T08:22:06.000Z</time>
      </trkpt>
      <trkpt lat="47.26618" lon="-2.33148">
        <ele>6.8000001907349</ele>
        <time>2022-01-09T08:22:07.000Z</time>
      </trkpt>
      <trkpt lat="47.26627" lon="-2.33148">
        <ele>6.8000001907349</ele>
        <time>2022-01-09T08:22:09.000Z</time>
      </trkpt>
      <trkpt lat="47.26637" lon="-2.33144">
        <ele>6.8000001907349</ele>
        <time>2022-01-09T08:22:11.000Z</time>
      </trkpt>
      <trkpt lat="47.2665" lon="-2.33134">
        <ele>6.8000001907349</ele>
        <time>2022-01-09T08:22:14.000Z</time>
      </trkpt>
      <trkpt lat="47.26658" lon="-2.33127">
        <ele>6.8000001907349</ele>
        <time>2022-01-09T08:22:16.000Z</time>
      </trkpt>
      <trkpt lat="47.26663" lon="-2.33124">
        <ele>6.8000001907349</ele>
        <time>2022-01-09T08:22:17.000Z</time>
      </trkpt>
      <trkpt lat="47.26683" lon="-2.33107">
        <ele>6.8000001907349</ele>
        <time>2022-01-09T08:22:22.000Z</time>
      </trkpt>
      <trkpt lat="47.26692" lon="-2.33099">
        <ele>6.8000001907349</ele>
        <time>2022-01-09T08:22:24.000Z</time>
      </trkpt>
      <trkpt lat="47.2672" lon="-2.33068">
        <ele>6.8000001907349</ele>
        <time>2022-01-09T08:22:31.000Z</time>
      </trkpt>
      <trkpt lat="47.26734" lon="-2.33042">
        <ele>6.8000001907349</ele>
        <time>2022-01-09T08:22:36.000Z</time>
      </trkpt>
      <trkpt lat="47.26735" lon="-2.33035">
        <ele>6.8000001907349</ele>
        <time>2022-01-09T08:22:37.000Z</time>
      </trkpt>
      <trkpt lat="47.26735" lon="-2.33016">
        <ele>6.8000001907349</ele>
        <time>2022-01-09T08:22:40.000Z</time>
      </trkpt>
      <trkpt lat="47.26734" lon="-2.33003">
        <ele>6.8000001907349</ele>
        <time>2022-01-09T08:22:42.000Z</time>
      </trkpt>
      <trkpt lat="47.2674" lon="-2.3298">
        <ele>6.8000001907349</ele>
        <time>2022-01-09T08:22:46.000Z</time>
      </trkpt>
      <trkpt lat="47.26754" lon="-2.32965">
        <ele>6.8000001907349</ele>
        <time>2022-01-09T08:22:50.000Z</time>
      </trkpt>
      <trkpt lat="47.26758" lon="-2.32963">
        <ele>6.8000001907349</ele>
        <time>2022-01-09T08:22:51.000Z</time>
      </trkpt>
      <trkpt lat="47.26761" lon="-2.3296">
        <ele>6.8000001907349</ele>
        <time>2022-01-09T08:22:52.000Z</time>
      </trkpt>
      <trkpt lat="47.26766" lon="-2.3295">
        <ele>6.8000001907349</ele>
        <time>2022-01-09T08:22:54.000Z</time>
      </trkpt>
      <trkpt lat="47.2678" lon="-2.32929">
        <ele>6.8000001907349</ele>
        <time>2022-01-09T08:22:58.000Z</time>
      </trkpt>
      <trkpt lat="47.26803" lon="-2.32911">
        <ele>6.8000001907349</ele>
        <time>2022-01-09T08:23:03.000Z</time>
      </trkpt>
      <trkpt lat="47.26808" lon="-2.32907">
        <ele>6.8000001907349</ele>
        <time>2022-01-09T08:23:04.000Z</time>
      </trkpt>
      <trkpt lat="47.26824" lon="-2.3289">
        <ele>6.8000001907349</ele>
        <time>2022-01-09T08:23:08.000Z</time>
      </trkpt>
      <trkpt lat="47.26832" lon="-2.32882">
        <ele>6.8000001907349</ele>
        <time>2022-01-09T08:23:10.000Z</time>
      </trkpt>
      <trkpt lat="47.26846" lon="-2.32877">
        <ele>6.8000001907349</ele>
        <time>2022-01-09T08:23:13.000Z</time>
      </trkpt>
      <trkpt lat="47.26851" lon="-2.32876">
        <ele>6.8000001907349</ele>
        <time>2022-01-09T08:23:14.000Z</time>
      </trkpt>
      <trkpt lat="47.26856" lon="-2.32874">
        <ele>6.8000001907349</ele>
        <time>2022-01-09T08:23:15.000Z</time>
      </trkpt>
      <trkpt lat="47.2686" lon="-2.32865">
        <ele>6.8000001907349</ele>
        <time>2022-01-09T08:23:17.000Z</time>
      </trkpt>
      <trkpt lat="47.26859" lon="-2.32854">
        <ele>7.1999998092651</ele>
        <time>2022-01-09T08:23:19.000Z</time>
      </trkpt>
      <trkpt lat="47.26858" lon="-2.32849">
        <ele>7.5999999046326</ele>
        <time>2022-01-09T08:23:20.000Z</time>
      </trkpt>
      <trkpt lat="47.26856" lon="-2.32844">
        <ele>8</ele>
        <time>2022-01-09T08:23:21.000Z</time>
      </trkpt>
      <trkpt lat="47.26854" lon="-2.3284">
        <ele>8.3999996185303</ele>
        <time>2022-01-09T08:23:22.000Z</time>
      </trkpt>
      <trkpt lat="47.26852" lon="-2.32835">
        <ele>8.8000001907349</ele>
        <time>2022-01-09T08:23:23.000Z</time>
      </trkpt>
      <trkpt lat="47.26848" lon="-2.32827">
        <ele>9.1999998092651</ele>
        <time>2022-01-09T08:23:25.000Z</time>
      </trkpt>
      <trkpt lat="47.26846" lon="-2.32823">
        <ele>9.6000003814697</ele>
        <time>2022-01-09T08:23:26.000Z</time>
      </trkpt>
      <trkpt lat="47.26845" lon="-2.32819">
        <ele>10</ele>
        <time>2022-01-09T08:23:27.000Z</time>
      </trkpt>
      <trkpt lat="47.26844" lon="-2.32815">
        <ele>10.39999961853</ele>
        <time>2022-01-09T08:23:28.000Z</time>
      </trkpt>
      <trkpt lat="47.26842" lon="-2.32811">
        <ele>11</ele>
        <time>2022-01-09T08:23:29.000Z</time>
      </trkpt>
      <trkpt lat="47.26839" lon="-2.32802">
        <ele>11.39999961853</ele>
        <time>2022-01-09T08:23:31.000Z</time>
      </trkpt>
      <trkpt lat="47.26838" lon="-2.32797">
        <ele>12.199999809265</ele>
        <time>2022-01-09T08:23:32.000Z</time>
      </trkpt>
      <trkpt lat="47.26837" lon="-2.32792">
        <ele>12.60000038147</ele>
        <time>2022-01-09T08:23:33.000Z</time>
      </trkpt>
      <trkpt lat="47.26836" lon="-2.32787">
        <ele>13.199999809265</ele>
        <time>2022-01-09T08:23:34.000Z</time>
      </trkpt>
      <trkpt lat="47.26835" lon="-2.32782">
        <ele>13.60000038147</ele>
        <time>2022-01-09T08:23:35.000Z</time>
      </trkpt>
      <trkpt lat="47.26834" lon="-2.32777">
        <ele>14</ele>
        <time>2022-01-09T08:23:36.000Z</time>
      </trkpt>
      <trkpt lat="47.26833" lon="-2.32773">
        <ele>14.39999961853</ele>
        <time>2022-01-09T08:23:37.000Z</time>
      </trkpt>
      <trkpt lat="47.26832" lon="-2.32768">
        <ele>14.800000190735</ele>
        <time>2022-01-09T08:23:38.000Z</time>
      </trkpt>
      <trkpt lat="47.26831" lon="-2.32764">
        <ele>15.199999809265</ele>
        <time>2022-01-09T08:23:39.000Z</time>
      </trkpt>
      <trkpt lat="47.26829" lon="-2.32755">
        <ele>15.60000038147</ele>
        <time>2022-01-09T08:23:41.000Z</time>
      </trkpt>
      <trkpt lat="47.26827" lon="-2.32751">
        <ele>16.200000762939</ele>
        <time>2022-01-09T08:23:42.000Z</time>
      </trkpt>
      <trkpt lat="47.26826" lon="-2.32747">
        <ele>16.60000038147</ele>
        <time>2022-01-09T08:23:43.000Z</time>
      </trkpt>
      <trkpt lat="47.26824" lon="-2.32743">
        <ele>17</ele>
        <time>2022-01-09T08:23:44.000Z</time>
      </trkpt>
      <trkpt lat="47.26822" lon="-2.32739">
        <ele>17.60000038147</ele>
        <time>2022-01-09T08:23:45.000Z</time>
      </trkpt>
      <trkpt lat="47.26817" lon="-2.32727">
        <ele>18</ele>
        <time>2022-01-09T08:23:48.000Z</time>
      </trkpt>
      <trkpt lat="47.26815" lon="-2.32723">
        <ele>18.39999961853</ele>
        <time>2022-01-09T08:23:49.000Z</time>
      </trkpt>
      <trkpt lat="47.26813" lon="-2.32719">
        <ele>18.799999237061</ele>
        <time>2022-01-09T08:23:50.000Z</time>
      </trkpt>
      <trkpt lat="47.26811" lon="-2.32715">
        <ele>19.39999961853</ele>
        <time>2022-01-09T08:23:51.000Z</time>
      </trkpt>
      <trkpt lat="47.26809" lon="-2.32711">
        <ele>19.799999237061</ele>
        <time>2022-01-09T08:23:52.000Z</time>
      </trkpt>
      <trkpt lat="47.26802" lon="-2.32697">
        <ele>19.799999237061</ele>
        <time>2022-01-09T08:23:55.000Z</time>
      </trkpt>
      <trkpt lat="47.268" lon="-2.3267">
        <ele>19.799999237061</ele>
        <time>2022-01-09T08:24:00.000Z</time>
      </trkpt>
      <trkpt lat="47.26802" lon="-2.32665">
        <ele>19.799999237061</ele>
        <time>2022-01-09T08:24:01.000Z</time>
      </trkpt>
      <trkpt lat="47.26806" lon="-2.32646">
        <ele>19.799999237061</ele>
        <time>2022-01-09T08:24:04.000Z</time>
      </trkpt>
      <trkpt lat="47.26805" lon="-2.32639">
        <ele>19.799999237061</ele>
        <time>2022-01-09T08:24:05.000Z</time>
      </trkpt>
      <trkpt lat="47.268" lon="-2.32597">
        <ele>19.799999237061</ele>
        <time>2022-01-09T08:24:11.000Z</time>
      </trkpt>
      <trkpt lat="47.26796" lon="-2.3255">
        <ele>19.799999237061</ele>
        <time>2022-01-09T08:24:18.000Z</time>
      </trkpt>
      <trkpt lat="47.26794" lon="-2.32509">
        <ele>19.799999237061</ele>
        <time>2022-01-09T08:24:25.000Z</time>
      </trkpt>
      <trkpt lat="47.26793" lon="-2.32485">
        <ele>19.799999237061</ele>
        <time>2022-01-09T08:24:30.000Z</time>
      </trkpt>
      <trkpt lat="47.26792" lon="-2.32474">
        <ele>20.200000762939</ele>
        <time>2022-01-09T08:24:32.000Z</time>
      </trkpt>
      <trkpt lat="47.26792" lon="-2.32469">
        <ele>20.60000038147</ele>
        <time>2022-01-09T08:24:33.000Z</time>
      </trkpt>
      <trkpt lat="47.26792" lon="-2.32463">
        <ele>21</ele>
        <time>2022-01-09T08:24:34.000Z</time>
      </trkpt>
      <trkpt lat="47.26791" lon="-2.32457">
        <ele>21.39999961853</ele>
        <time>2022-01-09T08:24:35.000Z</time>
      </trkpt>
      <trkpt lat="47.2679" lon="-2.32452">
        <ele>21.799999237061</ele>
        <time>2022-01-09T08:24:36.000Z</time>
      </trkpt>
      <trkpt lat="47.26787" lon="-2.32425">
        <ele>21.799999237061</ele>
        <time>2022-01-09T08:24:41.000Z</time>
      </trkpt>
      <trkpt lat="47.26781" lon="-2.32391">
        <ele>21.799999237061</ele>
        <time>2022-01-09T08:24:48.000Z</time>
      </trkpt>
      <trkpt lat="47.26782" lon="-2.32368">
        <ele>21.799999237061</ele>
        <time>2022-01-09T08:24:53.000Z</time>
      </trkpt>
      <trkpt lat="47.26798" lon="-2.3236">
        <ele>21.799999237061</ele>
        <time>2022-01-09T08:24:57.000Z</time>
      </trkpt>
      <trkpt lat="47.26827" lon="-2.32352">
        <ele>21.799999237061</ele>
        <time>2022-01-09T08:25:02.000Z</time>
      </trkpt>
      <trkpt lat="47.26842" lon="-2.32349">
        <ele>21.39999961853</ele>
        <time>2022-01-09T08:25:04.000Z</time>
      </trkpt>
      <trkpt lat="47.2685" lon="-2.32348">
        <ele>20.799999237061</ele>
        <time>2022-01-09T08:25:05.000Z</time>
      </trkpt>
      <trkpt lat="47.26858" lon="-2.32346">
        <ele>20.39999961853</ele>
        <time>2022-01-09T08:25:06.000Z</time>
      </trkpt>
      <trkpt lat="47.26866" lon="-2.32345">
        <ele>20</ele>
        <time>2022-01-09T08:25:07.000Z</time>
      </trkpt>
      <trkpt lat="47.26873" lon="-2.32343">
        <ele>19.39999961853</ele>
        <time>2022-01-09T08:25:08.000Z</time>
      </trkpt>
      <trkpt lat="47.26881" lon="-2.32341">
        <ele>19</ele>
        <time>2022-01-09T08:25:09.000Z</time>
      </trkpt>
      <trkpt lat="47.26888" lon="-2.3234">
        <ele>18.39999961853</ele>
        <time>2022-01-09T08:25:10.000Z</time>
      </trkpt>
      <trkpt lat="47.26895" lon="-2.32338">
        <ele>17.39999961853</ele>
        <time>2022-01-09T08:25:11.000Z</time>
      </trkpt>
      <trkpt lat="47.26901" lon="-2.32337">
        <ele>16.799999237061</ele>
        <time>2022-01-09T08:25:12.000Z</time>
      </trkpt>
      <trkpt lat="47.26906" lon="-2.32336">
        <ele>16.200000762939</ele>
        <time>2022-01-09T08:25:13.000Z</time>
      </trkpt>
      <trkpt lat="47.26911" lon="-2.32334">
        <ele>15.60000038147</ele>
        <time>2022-01-09T08:25:14.000Z</time>
      </trkpt>
      <trkpt lat="47.26915" lon="-2.32332">
        <ele>15</ele>
        <time>2022-01-09T08:25:15.000Z</time>
      </trkpt>
      <trkpt lat="47.26918" lon="-2.32329">
        <ele>14.60000038147</ele>
        <time>2022-01-09T08:25:16.000Z</time>
      </trkpt>
      <trkpt lat="47.26919" lon="-2.32324">
        <ele>14.199999809265</ele>
        <time>2022-01-09T08:25:17.000Z</time>
      </trkpt>
      <trkpt lat="47.2692" lon="-2.32318">
        <ele>13.60000038147</ele>
        <time>2022-01-09T08:25:18.000Z</time>
      </trkpt>
      <trkpt lat="47.2692" lon="-2.32313">
        <ele>13.199999809265</ele>
        <time>2022-01-09T08:25:19.000Z</time>
      </trkpt>
      <trkpt lat="47.26919" lon="-2.32308">
        <ele>12.800000190735</ele>
        <time>2022-01-09T08:25:20.000Z</time>
      </trkpt>
      <trkpt lat="47.26914" lon="-2.32296">
        <ele>12.800000190735</ele>
        <time>2022-01-09T08:25:22.000Z</time>
      </trkpt>
      <trkpt lat="47.26908" lon="-2.32286">
        <ele>12.800000190735</ele>
        <time>2022-01-09T08:25:24.000Z</time>
      </trkpt>
      <trkpt lat="47.26897" lon="-2.32263">
        <ele>12.800000190735</ele>
        <time>2022-01-09T08:25:28.000Z</time>
      </trkpt>
      <trkpt lat="47.26881" lon="-2.32234">
        <ele>12.800000190735</ele>
        <time>2022-01-09T08:25:34.000Z</time>
      </trkpt>
      <trkpt lat="47.26879" lon="-2.3223">
        <ele>13.199999809265</ele>
        <time>2022-01-09T08:25:35.000Z</time>
      </trkpt>
      <trkpt lat="47.26876" lon="-2.32225">
        <ele>14</ele>
        <time>2022-01-09T08:25:36.000Z</time>
      </trkpt>
      <trkpt lat="47.26874" lon="-2.32221">
        <ele>14.39999961853</ele>
        <time>2022-01-09T08:25:37.000Z</time>
      </trkpt>
      <trkpt lat="47.26871" lon="-2.32216">
        <ele>14.800000190735</ele>
        <time>2022-01-09T08:25:38.000Z</time>
      </trkpt>
      <trkpt lat="47.26863" lon="-2.322">
        <ele>14.800000190735</ele>
        <time>2022-01-09T08:25:41.000Z</time>
      </trkpt>
      <trkpt lat="47.26855" lon="-2.32184">
        <ele>15.199999809265</ele>
        <time>2022-01-09T08:25:44.000Z</time>
      </trkpt>
      <trkpt lat="47.26853" lon="-2.32179">
        <ele>15.60000038147</ele>
        <time>2022-01-09T08:25:45.000Z</time>
      </trkpt>
      <trkpt lat="47.2685" lon="-2.32173">
        <ele>16</ele>
        <time>2022-01-09T08:25:46.000Z</time>
      </trkpt>
      <trkpt lat="47.26848" lon="-2.32167">
        <ele>16.60000038147</ele>
        <time>2022-01-09T08:25:47.000Z</time>
      </trkpt>
      <trkpt lat="47.26846" lon="-2.32161">
        <ele>17</ele>
        <time>2022-01-09T08:25:48.000Z</time>
      </trkpt>
      <trkpt lat="47.26841" lon="-2.32143">
        <ele>17</ele>
        <time>2022-01-09T08:25:51.000Z</time>
      </trkpt>
      <trkpt lat="47.26832" lon="-2.32109">
        <ele>17</ele>
        <time>2022-01-09T08:25:56.000Z</time>
      </trkpt>
      <trkpt lat="47.26825" lon="-2.32082">
        <ele>17.39999961853</ele>
        <time>2022-01-09T08:26:00.000Z</time>
      </trkpt>
      <trkpt lat="47.26823" lon="-2.32075">
        <ele>18.200000762939</ele>
        <time>2022-01-09T08:26:01.000Z</time>
      </trkpt>
      <trkpt lat="47.26821" lon="-2.32068">
        <ele>18.60000038147</ele>
        <time>2022-01-09T08:26:02.000Z</time>
      </trkpt>
      <trkpt lat="47.26818" lon="-2.32061">
        <ele>19</ele>
        <time>2022-01-09T08:26:03.000Z</time>
      </trkpt>
      <trkpt lat="47.26805" lon="-2.32017">
        <ele>19</ele>
        <time>2022-01-09T08:26:09.000Z</time>
      </trkpt>
      <trkpt lat="47.26791" lon="-2.3199">
        <ele>19.39999961853</ele>
        <time>2022-01-09T08:26:14.000Z</time>
      </trkpt>
      <trkpt lat="47.26788" lon="-2.31984">
        <ele>19.799999237061</ele>
        <time>2022-01-09T08:26:15.000Z</time>
      </trkpt>
      <trkpt lat="47.26785" lon="-2.3198">
        <ele>20.200000762939</ele>
        <time>2022-01-09T08:26:16.000Z</time>
      </trkpt>
      <trkpt lat="47.26782" lon="-2.31974">
        <ele>20.60000038147</ele>
        <time>2022-01-09T08:26:17.000Z</time>
      </trkpt>
      <trkpt lat="47.26779" lon="-2.31969">
        <ele>21</ele>
        <time>2022-01-09T08:26:18.000Z</time>
      </trkpt>
      <trkpt lat="47.26765" lon="-2.3194">
        <ele>21</ele>
        <time>2022-01-09T08:26:24.000Z</time>
      </trkpt>
      <trkpt lat="47.26763" lon="-2.31935">
        <ele>21.60000038147</ele>
        <time>2022-01-09T08:26:25.000Z</time>
      </trkpt>
      <trkpt lat="47.26761" lon="-2.31931">
        <ele>22</ele>
        <time>2022-01-09T08:26:26.000Z</time>
      </trkpt>
      <trkpt lat="47.26759" lon="-2.31927">
        <ele>22.39999961853</ele>
        <time>2022-01-09T08:26:27.000Z</time>
      </trkpt>
      <trkpt lat="47.26756" lon="-2.31922">
        <ele>22.799999237061</ele>
        <time>2022-01-09T08:26:28.000Z</time>
      </trkpt>
      <trkpt lat="47.26755" lon="-2.31917">
        <ele>23.200000762939</ele>
        <time>2022-01-09T08:26:29.000Z</time>
      </trkpt>
      <trkpt lat="47.26748" lon="-2.31903">
        <ele>23.200000762939</ele>
        <time>2022-01-09T08:26:32.000Z</time>
      </trkpt>
      <trkpt lat="47.26746" lon="-2.31899">
        <ele>23.60000038147</ele>
        <time>2022-01-09T08:26:33.000Z</time>
      </trkpt>
      <trkpt lat="47.26745" lon="-2.31894">
        <ele>24</ele>
        <time>2022-01-09T08:26:34.000Z</time>
      </trkpt>
      <trkpt lat="47.26743" lon="-2.31889">
        <ele>24.39999961853</ele>
        <time>2022-01-09T08:26:35.000Z</time>
      </trkpt>
      <trkpt lat="47.2674" lon="-2.31884">
        <ele>24.799999237061</ele>
        <time>2022-01-09T08:26:36.000Z</time>
      </trkpt>
      <trkpt lat="47.26738" lon="-2.3188">
        <ele>25.200000762939</ele>
        <time>2022-01-09T08:26:37.000Z</time>
      </trkpt>
      <trkpt lat="47.26737" lon="-2.31875">
        <ele>25.200000762939</ele>
        <time>2022-01-09T08:26:38.000Z</time>
      </trkpt>
      <trkpt lat="47.26731" lon="-2.31857">
        <ele>25.200000762939</ele>
        <time>2022-01-09T08:26:43.000Z</time>
      </trkpt>
      <trkpt lat="47.2673" lon="-2.31849">
        <ele>25.60000038147</ele>
        <time>2022-01-09T08:26:45.000Z</time>
      </trkpt>
      <trkpt lat="47.26729" lon="-2.31844">
        <ele>26</ele>
        <time>2022-01-09T08:26:46.000Z</time>
      </trkpt>
      <trkpt lat="47.26728" lon="-2.3184">
        <ele>26.60000038147</ele>
        <time>2022-01-09T08:26:47.000Z</time>
      </trkpt>
      <trkpt lat="47.26727" lon="-2.31835">
        <ele>27</ele>
        <time>2022-01-09T08:26:48.000Z</time>
      </trkpt>
      <trkpt lat="47.26725" lon="-2.3183">
        <ele>27.39999961853</ele>
        <time>2022-01-09T08:26:49.000Z</time>
      </trkpt>
      <trkpt lat="47.26716" lon="-2.31795">
        <ele>27.39999961853</ele>
        <time>2022-01-09T08:26:56.000Z</time>
      </trkpt>
      <trkpt lat="47.26705" lon="-2.31754">
        <ele>27.39999961853</ele>
        <time>2022-01-09T08:27:04.000Z</time>
      </trkpt>
      <trkpt lat="47.26694" lon="-2.31712">
        <ele>27.39999961853</ele>
        <time>2022-01-09T08:27:12.000Z</time>
      </trkpt>
      <trkpt lat="47.26682" lon="-2.31667">
        <ele>27.39999961853</ele>
        <time>2022-01-09T08:27:19.000Z</time>
      </trkpt>
      <trkpt lat="47.26662" lon="-2.31614">
        <ele>27.39999961853</ele>
        <time>2022-01-09T08:27:27.000Z</time>
      </trkpt>
      <trkpt lat="47.26645" lon="-2.31574">
        <ele>27.39999961853</ele>
        <time>2022-01-09T08:27:33.000Z</time>
      </trkpt>
      <trkpt lat="47.26629" lon="-2.31532">
        <ele>27.39999961853</ele>
        <time>2022-01-09T08:27:39.000Z</time>
      </trkpt>
      <trkpt lat="47.26614" lon="-2.31496">
        <ele>27.39999961853</ele>
        <time>2022-01-09T08:27:45.000Z</time>
      </trkpt>
      <trkpt lat="47.26612" lon="-2.31489">
        <ele>27.39999961853</ele>
        <time>2022-01-09T08:27:46.000Z</time>
      </trkpt>
      <trkpt lat="47.26614" lon="-2.31478">
        <ele>27.39999961853</ele>
        <time>2022-01-09T08:27:48.000Z</time>
      </trkpt>
      <trkpt lat="47.26618" lon="-2.31474">
        <ele>27.39999961853</ele>
        <time>2022-01-09T08:27:49.000Z</time>
      </trkpt>
      <trkpt lat="47.26624" lon="-2.31469">
        <ele>27.39999961853</ele>
        <time>2022-01-09T08:27:51.000Z</time>
      </trkpt>
      <trkpt lat="47.26627" lon="-2.31465">
        <ele>27.799999237061</ele>
        <time>2022-01-09T08:27:52.000Z</time>
      </trkpt>
      <trkpt lat="47.26632" lon="-2.31461">
        <ele>28.200000762939</ele>
        <time>2022-01-09T08:27:53.000Z</time>
      </trkpt>
      <trkpt lat="47.26635" lon="-2.31458">
        <ele>28.60000038147</ele>
        <time>2022-01-09T08:27:54.000Z</time>
      </trkpt>
      <trkpt lat="47.26639" lon="-2.31455">
        <ele>29</ele>
        <time>2022-01-09T08:27:55.000Z</time>
      </trkpt>
      <trkpt lat="47.26643" lon="-2.31452">
        <ele>29.39999961853</ele>
        <time>2022-01-09T08:27:56.000Z</time>
      </trkpt>
      <trkpt lat="47.26663" lon="-2.31433">
        <ele>29.799999237061</ele>
        <time>2022-01-09T08:28:02.000Z</time>
      </trkpt>
      <trkpt lat="47.26668" lon="-2.31431">
        <ele>30.39999961853</ele>
        <time>2022-01-09T08:28:03.000Z</time>
      </trkpt>
      <trkpt lat="47.26672" lon="-2.31429">
        <ele>30.799999237061</ele>
        <time>2022-01-09T08:28:04.000Z</time>
      </trkpt>
      <trkpt lat="47.26676" lon="-2.31427">
        <ele>31.200000762939</ele>
        <time>2022-01-09T08:28:05.000Z</time>
      </trkpt>
      <trkpt lat="47.2668" lon="-2.31425">
        <ele>31.60000038147</ele>
        <time>2022-01-09T08:28:06.000Z</time>
      </trkpt>
      <trkpt lat="47.26701" lon="-2.31415">
        <ele>31.60000038147</ele>
        <time>2022-01-09T08:28:11.000Z</time>
      </trkpt>
      <trkpt lat="47.26723" lon="-2.314">
        <ele>32</ele>
        <time>2022-01-09T08:28:17.000Z</time>
      </trkpt>
      <trkpt lat="47.26726" lon="-2.31398">
        <ele>32.400001525879</ele>
        <time>2022-01-09T08:28:18.000Z</time>
      </trkpt>
      <trkpt lat="47.26729" lon="-2.31395">
        <ele>32.799999237061</ele>
        <time>2022-01-09T08:28:19.000Z</time>
      </trkpt>
      <trkpt lat="47.26732" lon="-2.31394">
        <ele>33.200000762939</ele>
        <time>2022-01-09T08:28:20.000Z</time>
      </trkpt>
      <trkpt lat="47.26736" lon="-2.31392">
        <ele>33.599998474121</ele>
        <time>2022-01-09T08:28:21.000Z</time>
      </trkpt>
      <trkpt lat="47.26747" lon="-2.31386">
        <ele>33.599998474121</ele>
        <time>2022-01-09T08:28:24.000Z</time>
      </trkpt>
      <trkpt lat="47.26768" lon="-2.31374">
        <ele>33.599998474121</ele>
        <time>2022-01-09T08:28:30.000Z</time>
      </trkpt>
      <trkpt lat="47.26799" lon="-2.31355">
        <ele>33.599998474121</ele>
        <time>2022-01-09T08:28:39.000Z</time>
      </trkpt>
      <trkpt lat="47.26817" lon="-2.31341">
        <ele>34.200000762939</ele>
        <time>2022-01-09T08:28:44.000Z</time>
      </trkpt>
      <trkpt lat="47.2682" lon="-2.31339">
        <ele>34.599998474121</ele>
        <time>2022-01-09T08:28:45.000Z</time>
      </trkpt>
      <trkpt lat="47.26822" lon="-2.31337">
        <ele>35</ele>
        <time>2022-01-09T08:28:46.000Z</time>
      </trkpt>
      <trkpt lat="47.26826" lon="-2.31338">
        <ele>35.400001525879</ele>
        <time>2022-01-09T08:28:47.000Z</time>
      </trkpt>
      <trkpt lat="47.26828" lon="-2.3134">
        <ele>35.799999237061</ele>
        <time>2022-01-09T08:28:48.000Z</time>
      </trkpt>
      <trkpt lat="47.26831" lon="-2.31356">
        <ele>35.799999237061</ele>
        <time>2022-01-09T08:28:52.000Z</time>
      </trkpt>
      <trkpt lat="47.26831" lon="-2.31362">
        <ele>35.799999237061</ele>
        <time>2022-01-09T08:28:53.000Z</time>
      </trkpt>
      <trkpt lat="47.26833" lon="-2.31383">
        <ele>35.799999237061</ele>
        <time>2022-01-09T08:28:56.000Z</time>
      </trkpt>
      <trkpt lat="47.26834" lon="-2.31389">
        <ele>35.799999237061</ele>
        <time>2022-01-09T08:28:57.000Z</time>
      </trkpt>
      <trkpt lat="47.26838" lon="-2.31407">
        <ele>35.799999237061</ele>
        <time>2022-01-09T08:29:00.000Z</time>
      </trkpt>
      <trkpt lat="47.26842" lon="-2.31418">
        <ele>35.799999237061</ele>
        <time>2022-01-09T08:29:02.000Z</time>
      </trkpt>
      <trkpt lat="47.26858" lon="-2.31468">
        <ele>35.799999237061</ele>
        <time>2022-01-09T08:29:09.000Z</time>
      </trkpt>
      <trkpt lat="47.26866" lon="-2.31519">
        <ele>35.799999237061</ele>
        <time>2022-01-09T08:29:15.000Z</time>
      </trkpt>
      <trkpt lat="47.26867" lon="-2.31529">
        <ele>35.400001525879</ele>
        <time>2022-01-09T08:29:16.000Z</time>
      </trkpt>
      <trkpt lat="47.26868" lon="-2.31538">
        <ele>35</ele>
        <time>2022-01-09T08:29:17.000Z</time>
      </trkpt>
      <trkpt lat="47.2687" lon="-2.31548">
        <ele>34.599998474121</ele>
        <time>2022-01-09T08:29:18.000Z</time>
      </trkpt>
      <trkpt lat="47.26871" lon="-2.31557">
        <ele>34.200000762939</ele>
        <time>2022-01-09T08:29:19.000Z</time>
      </trkpt>
      <trkpt lat="47.26872" lon="-2.31566">
        <ele>33.599998474121</ele>
        <time>2022-01-09T08:29:20.000Z</time>
      </trkpt>
      <trkpt lat="47.26875" lon="-2.31584">
        <ele>33.599998474121</ele>
        <time>2022-01-09T08:29:22.000Z</time>
      </trkpt>
      <trkpt lat="47.26878" lon="-2.31602">
        <ele>33.200000762939</ele>
        <time>2022-01-09T08:29:24.000Z</time>
      </trkpt>
      <trkpt lat="47.26878" lon="-2.3161">
        <ele>32.799999237061</ele>
        <time>2022-01-09T08:29:25.000Z</time>
      </trkpt>
      <trkpt lat="47.2688" lon="-2.31618">
        <ele>32.400001525879</ele>
        <time>2022-01-09T08:29:26.000Z</time>
      </trkpt>
      <trkpt lat="47.26882" lon="-2.31624">
        <ele>32</ele>
        <time>2022-01-09T08:29:27.000Z</time>
      </trkpt>
      <trkpt lat="47.26886" lon="-2.31629">
        <ele>31.39999961853</ele>
        <time>2022-01-09T08:29:28.000Z</time>
      </trkpt>
      <trkpt lat="47.26897" lon="-2.31634">
        <ele>31.39999961853</ele>
        <time>2022-01-09T08:29:30.000Z</time>
      </trkpt>
      <trkpt lat="47.26903" lon="-2.31635">
        <ele>31</ele>
        <time>2022-01-09T08:29:31.000Z</time>
      </trkpt>
      <trkpt lat="47.26908" lon="-2.31636">
        <ele>30.60000038147</ele>
        <time>2022-01-09T08:29:32.000Z</time>
      </trkpt>
      <trkpt lat="47.26915" lon="-2.31637">
        <ele>30.200000762939</ele>
        <time>2022-01-09T08:29:33.000Z</time>
      </trkpt>
      <trkpt lat="47.26921" lon="-2.3164">
        <ele>29.799999237061</ele>
        <time>2022-01-09T08:29:34.000Z</time>
      </trkpt>
      <trkpt lat="47.26928" lon="-2.31644">
        <ele>29.39999961853</ele>
        <time>2022-01-09T08:29:35.000Z</time>
      </trkpt>
      <trkpt lat="47.26941" lon="-2.31653">
        <ele>29</ele>
        <time>2022-01-09T08:29:37.000Z</time>
      </trkpt>
      <trkpt lat="47.26948" lon="-2.31657">
        <ele>28.60000038147</ele>
        <time>2022-01-09T08:29:38.000Z</time>
      </trkpt>
      <trkpt lat="47.26955" lon="-2.31662">
        <ele>28.200000762939</ele>
        <time>2022-01-09T08:29:39.000Z</time>
      </trkpt>
      <trkpt lat="47.26962" lon="-2.31667">
        <ele>27.799999237061</ele>
        <time>2022-01-09T08:29:40.000Z</time>
      </trkpt>
      <trkpt lat="47.26969" lon="-2.31672">
        <ele>27.39999961853</ele>
        <time>2022-01-09T08:29:41.000Z</time>
      </trkpt>
      <trkpt lat="47.26977" lon="-2.31677">
        <ele>27</ele>
        <time>2022-01-09T08:29:42.000Z</time>
      </trkpt>
      <trkpt lat="47.26984" lon="-2.31682">
        <ele>26.39999961853</ele>
        <time>2022-01-09T08:29:43.000Z</time>
      </trkpt>
      <trkpt lat="47.2699" lon="-2.31687">
        <ele>26</ele>
        <time>2022-01-09T08:29:44.000Z</time>
      </trkpt>
      <trkpt lat="47.26996" lon="-2.31691">
        <ele>25.39999961853</ele>
        <time>2022-01-09T08:29:45.000Z</time>
      </trkpt>
      <trkpt lat="47.27" lon="-2.31694">
        <ele>24.799999237061</ele>
        <time>2022-01-09T08:29:46.000Z</time>
      </trkpt>
      <trkpt lat="47.27004" lon="-2.31697">
        <ele>24.200000762939</ele>
        <time>2022-01-09T08:29:47.000Z</time>
      </trkpt>
      <trkpt lat="47.27008" lon="-2.317">
        <ele>23.60000038147</ele>
        <time>2022-01-09T08:29:48.000Z</time>
      </trkpt>
      <trkpt lat="47.27012" lon="-2.31703">
        <ele>23.200000762939</ele>
        <time>2022-01-09T08:29:49.000Z</time>
      </trkpt>
      <trkpt lat="47.27015" lon="-2.31705">
        <ele>22.60000038147</ele>
        <time>2022-01-09T08:29:50.000Z</time>
      </trkpt>
      <trkpt lat="47.27017" lon="-2.31707">
        <ele>22.60000038147</ele>
        <time>2022-01-09T08:29:51.000Z</time>
      </trkpt>
      <trkpt lat="47.27021" lon="-2.3171">
        <ele>22.60000038147</ele>
        <time>2022-01-09T08:29:53.000Z</time>
      </trkpt>
      <trkpt lat="47.27024" lon="-2.31708">
        <ele>22.60000038147</ele>
        <time>2022-01-09T08:29:55.000Z</time>
      </trkpt>
      <trkpt lat="47.27026" lon="-2.31704">
        <ele>22.60000038147</ele>
        <time>2022-01-09T08:29:57.000Z</time>
      </trkpt>
      <trkpt lat="47.27029" lon="-2.31695">
        <ele>22.60000038147</ele>
        <time>2022-01-09T08:30:00.000Z</time>
      </trkpt>
      <trkpt lat="47.27032" lon="-2.31667">
        <ele>22.60000038147</ele>
        <time>2022-01-09T08:30:06.000Z</time>
      </trkpt>
      <trkpt lat="47.27029" lon="-2.31645">
        <ele>22.60000038147</ele>
        <time>2022-01-09T08:30:10.000Z</time>
      </trkpt>
      <trkpt lat="47.27026" lon="-2.31619">
        <ele>22.60000038147</ele>
        <time>2022-01-09T08:30:15.000Z</time>
      </trkpt>
      <trkpt lat="47.27026" lon="-2.31614">
        <ele>23</ele>
        <time>2022-01-09T08:30:16.000Z</time>
      </trkpt>
      <trkpt lat="47.27026" lon="-2.3161">
        <ele>23.39999961853</ele>
        <time>2022-01-09T08:30:17.000Z</time>
      </trkpt>
      <trkpt lat="47.27025" lon="-2.31605">
        <ele>23.799999237061</ele>
        <time>2022-01-09T08:30:18.000Z</time>
      </trkpt>
      <trkpt lat="47.27023" lon="-2.316">
        <ele>24.60000038147</ele>
        <time>2022-01-09T08:30:19.000Z</time>
      </trkpt>
      <trkpt lat="47.27018" lon="-2.31586">
        <ele>25</ele>
        <time>2022-01-09T08:30:22.000Z</time>
      </trkpt>
      <trkpt lat="47.27016" lon="-2.31581">
        <ele>25.39999961853</ele>
        <time>2022-01-09T08:30:23.000Z</time>
      </trkpt>
      <trkpt lat="47.27014" lon="-2.31577">
        <ele>25.799999237061</ele>
        <time>2022-01-09T08:30:24.000Z</time>
      </trkpt>
      <trkpt lat="47.27012" lon="-2.31572">
        <ele>26.39999961853</ele>
        <time>2022-01-09T08:30:25.000Z</time>
      </trkpt>
      <trkpt lat="47.2701" lon="-2.31566">
        <ele>26.799999237061</ele>
        <time>2022-01-09T08:30:26.000Z</time>
      </trkpt>
      <trkpt lat="47.27001" lon="-2.3154">
        <ele>27.200000762939</ele>
        <time>2022-01-09T08:30:31.000Z</time>
      </trkpt>
      <trkpt lat="47.27001" lon="-2.31534">
        <ele>27.60000038147</ele>
        <time>2022-01-09T08:30:32.000Z</time>
      </trkpt>
      <trkpt lat="47.27001" lon="-2.31528">
        <ele>28</ele>
        <time>2022-01-09T08:30:33.000Z</time>
      </trkpt>
      <trkpt lat="47.26999" lon="-2.31523">
        <ele>28.60000038147</ele>
        <time>2022-01-09T08:30:34.000Z</time>
      </trkpt>
      <trkpt lat="47.26998" lon="-2.31517">
        <ele>29</ele>
        <time>2022-01-09T08:30:35.000Z</time>
      </trkpt>
      <trkpt lat="47.26996" lon="-2.31507">
        <ele>29</ele>
        <time>2022-01-09T08:30:37.000Z</time>
      </trkpt>
      <trkpt lat="47.26992" lon="-2.31489">
        <ele>29.39999961853</ele>
        <time>2022-01-09T08:30:41.000Z</time>
      </trkpt>
      <trkpt lat="47.26991" lon="-2.31484">
        <ele>29.799999237061</ele>
        <time>2022-01-09T08:30:42.000Z</time>
      </trkpt>
      <trkpt lat="47.26991" lon="-2.31479">
        <ele>30.200000762939</ele>
        <time>2022-01-09T08:30:43.000Z</time>
      </trkpt>
      <trkpt lat="47.2699" lon="-2.31475">
        <ele>31</ele>
        <time>2022-01-09T08:30:44.000Z</time>
      </trkpt>
      <trkpt lat="47.2699" lon="-2.3147">
        <ele>31</ele>
        <time>2022-01-09T08:30:45.000Z</time>
      </trkpt>
      <trkpt lat="47.26989" lon="-2.31435">
        <ele>31</ele>
        <time>2022-01-09T08:30:50.000Z</time>
      </trkpt>
      <trkpt lat="47.26987" lon="-2.31401">
        <ele>31.60000038147</ele>
        <time>2022-01-09T08:30:56.000Z</time>
      </trkpt>
      <trkpt lat="47.26987" lon="-2.31395">
        <ele>32</ele>
        <time>2022-01-09T08:30:57.000Z</time>
      </trkpt>
      <trkpt lat="47.26987" lon="-2.31389">
        <ele>32.400001525879</ele>
        <time>2022-01-09T08:30:58.000Z</time>
      </trkpt>
      <trkpt lat="47.26987" lon="-2.31384">
        <ele>32.799999237061</ele>
        <time>2022-01-09T08:30:59.000Z</time>
      </trkpt>
      <trkpt lat="47.26986" lon="-2.31379">
        <ele>33.200000762939</ele>
        <time>2022-01-09T08:31:00.000Z</time>
      </trkpt>
      <trkpt lat="47.26986" lon="-2.31369">
        <ele>33.200000762939</ele>
        <time>2022-01-09T08:31:02.000Z</time>
      </trkpt>
      <trkpt lat="47.26984" lon="-2.31351">
        <ele>33.599998474121</ele>
        <time>2022-01-09T08:31:06.000Z</time>
      </trkpt>
      <trkpt lat="47.26983" lon="-2.31346">
        <ele>34</ele>
        <time>2022-01-09T08:31:07.000Z</time>
      </trkpt>
      <trkpt lat="47.26982" lon="-2.31342">
        <ele>34.400001525879</ele>
        <time>2022-01-09T08:31:08.000Z</time>
      </trkpt>
      <trkpt lat="47.26981" lon="-2.31338">
        <ele>35.400001525879</ele>
        <time>2022-01-09T08:31:09.000Z</time>
      </trkpt>
      <trkpt lat="47.26977" lon="-2.31307">
        <ele>35.400001525879</ele>
        <time>2022-01-09T08:31:16.000Z</time>
      </trkpt>
      <trkpt lat="47.26977" lon="-2.3128">
        <ele>35.400001525879</ele>
        <time>2022-01-09T08:31:22.000Z</time>
      </trkpt>
      <trkpt lat="47.26975" lon="-2.31268">
        <ele>35.400001525879</ele>
        <time>2022-01-09T08:31:24.000Z</time>
      </trkpt>
      <trkpt lat="47.26974" lon="-2.31254">
        <ele>35.400001525879</ele>
        <time>2022-01-09T08:31:26.000Z</time>
      </trkpt>
      <trkpt lat="47.26979" lon="-2.31223">
        <ele>35.400001525879</ele>
        <time>2022-01-09T08:31:31.000Z</time>
      </trkpt>
      <trkpt lat="47.26985" lon="-2.31178">
        <ele>35.400001525879</ele>
        <time>2022-01-09T08:31:37.000Z</time>
      </trkpt>
      <trkpt lat="47.26992" lon="-2.31134">
        <ele>35</ele>
        <time>2022-01-09T08:31:42.000Z</time>
      </trkpt>
      <trkpt lat="47.26992" lon="-2.31125">
        <ele>34.400001525879</ele>
        <time>2022-01-09T08:31:43.000Z</time>
      </trkpt>
      <trkpt lat="47.26993" lon="-2.31116">
        <ele>34</ele>
        <time>2022-01-09T08:31:44.000Z</time>
      </trkpt>
      <trkpt lat="47.26993" lon="-2.31108">
        <ele>33.599998474121</ele>
        <time>2022-01-09T08:31:45.000Z</time>
      </trkpt>
      <trkpt lat="47.26992" lon="-2.311">
        <ele>33.200000762939</ele>
        <time>2022-01-09T08:31:46.000Z</time>
      </trkpt>
      <trkpt lat="47.2699" lon="-2.31079">
        <ele>33.200000762939</ele>
        <time>2022-01-09T08:31:49.000Z</time>
      </trkpt>
      <trkpt lat="47.26993" lon="-2.31059">
        <ele>32.799999237061</ele>
        <time>2022-01-09T08:31:53.000Z</time>
      </trkpt>
      <trkpt lat="47.26995" lon="-2.31056">
        <ele>32.200000762939</ele>
        <time>2022-01-09T08:31:54.000Z</time>
      </trkpt>
      <trkpt lat="47.26998" lon="-2.31053">
        <ele>31.799999237061</ele>
        <time>2022-01-09T08:31:55.000Z</time>
      </trkpt>
      <trkpt lat="47.27001" lon="-2.3105">
        <ele>31.39999961853</ele>
        <time>2022-01-09T08:31:56.000Z</time>
      </trkpt>
      <trkpt lat="47.27005" lon="-2.31047">
        <ele>31</ele>
        <time>2022-01-09T08:31:57.000Z</time>
      </trkpt>
      <trkpt lat="47.27028" lon="-2.31027">
        <ele>30.39999961853</ele>
        <time>2022-01-09T08:32:03.000Z</time>
      </trkpt>
      <trkpt lat="47.27032" lon="-2.31023">
        <ele>30</ele>
        <time>2022-01-09T08:32:04.000Z</time>
      </trkpt>
      <trkpt lat="47.27036" lon="-2.3102">
        <ele>29.60000038147</ele>
        <time>2022-01-09T08:32:05.000Z</time>
      </trkpt>
      <trkpt lat="47.2704" lon="-2.31015">
        <ele>29.200000762939</ele>
        <time>2022-01-09T08:32:06.000Z</time>
      </trkpt>
      <trkpt lat="47.27043" lon="-2.31011">
        <ele>28.799999237061</ele>
        <time>2022-01-09T08:32:07.000Z</time>
      </trkpt>
      <trkpt lat="47.27046" lon="-2.31001">
        <ele>28.799999237061</ele>
        <time>2022-01-09T08:32:09.000Z</time>
      </trkpt>
      <trkpt lat="47.27044" lon="-2.30978">
        <ele>28.799999237061</ele>
        <time>2022-01-09T08:32:14.000Z</time>
      </trkpt>
      <trkpt lat="47.27045" lon="-2.30955">
        <ele>28.799999237061</ele>
        <time>2022-01-09T08:32:19.000Z</time>
      </trkpt>
      <trkpt lat="47.27042" lon="-2.30934">
        <ele>28.799999237061</ele>
        <time>2022-01-09T08:32:25.000Z</time>
      </trkpt>
      <trkpt lat="47.2704" lon="-2.30914">
        <ele>28.799999237061</ele>
        <time>2022-01-09T08:32:30.000Z</time>
      </trkpt>
      <trkpt lat="47.27034" lon="-2.30888">
        <ele>28.799999237061</ele>
        <time>2022-01-09T08:32:35.000Z</time>
      </trkpt>
      <trkpt lat="47.27025" lon="-2.30865">
        <ele>28.799999237061</ele>
        <time>2022-01-09T08:32:40.000Z</time>
      </trkpt>
      <trkpt lat="47.27013" lon="-2.30839">
        <ele>28.799999237061</ele>
        <time>2022-01-09T08:32:46.000Z</time>
      </trkpt>
      <trkpt lat="47.27011" lon="-2.30834">
        <ele>29.200000762939</ele>
        <time>2022-01-09T08:32:47.000Z</time>
      </trkpt>
      <trkpt lat="47.27008" lon="-2.3083">
        <ele>30</ele>
        <time>2022-01-09T08:32:48.000Z</time>
      </trkpt>
      <trkpt lat="47.27005" lon="-2.30826">
        <ele>30.39999961853</ele>
        <time>2022-01-09T08:32:49.000Z</time>
      </trkpt>
      <trkpt lat="47.27002" lon="-2.30822">
        <ele>30.799999237061</ele>
        <time>2022-01-09T08:32:50.000Z</time>
      </trkpt>
      <trkpt lat="47.26997" lon="-2.30814">
        <ele>30.799999237061</ele>
        <time>2022-01-09T08:32:52.000Z</time>
      </trkpt>
      <trkpt lat="47.26983" lon="-2.3079">
        <ele>30.799999237061</ele>
        <time>2022-01-09T08:32:58.000Z</time>
      </trkpt>
      <trkpt lat="47.2698" lon="-2.30786">
        <ele>31.200000762939</ele>
        <time>2022-01-09T08:32:59.000Z</time>
      </trkpt>
      <trkpt lat="47.26978" lon="-2.30782">
        <ele>31.60000038147</ele>
        <time>2022-01-09T08:33:00.000Z</time>
      </trkpt>
      <trkpt lat="47.26975" lon="-2.30778">
        <ele>32</ele>
        <time>2022-01-09T08:33:01.000Z</time>
      </trkpt>
      <trkpt lat="47.26972" lon="-2.30773">
        <ele>32.400001525879</ele>
        <time>2022-01-09T08:33:02.000Z</time>
      </trkpt>
      <trkpt lat="47.26969" lon="-2.30769">
        <ele>32.799999237061</ele>
        <time>2022-01-09T08:33:03.000Z</time>
      </trkpt>
      <trkpt lat="47.26966" lon="-2.30765">
        <ele>32.799999237061</ele>
        <time>2022-01-09T08:33:04.000Z</time>
      </trkpt>
      <trkpt lat="47.26952" lon="-2.30742">
        <ele>32.799999237061</ele>
        <time>2022-01-09T08:33:11.000Z</time>
      </trkpt>
      <trkpt lat="47.26949" lon="-2.30737">
        <ele>33.200000762939</ele>
        <time>2022-01-09T08:33:12.000Z</time>
      </trkpt>
      <trkpt lat="47.26947" lon="-2.30733">
        <ele>33.599998474121</ele>
        <time>2022-01-09T08:33:13.000Z</time>
      </trkpt>
      <trkpt lat="47.26944" lon="-2.30729">
        <ele>34</ele>
        <time>2022-01-09T08:33:14.000Z</time>
      </trkpt>
      <trkpt lat="47.26942" lon="-2.30726">
        <ele>34.599998474121</ele>
        <time>2022-01-09T08:33:15.000Z</time>
      </trkpt>
      <trkpt lat="47.2694" lon="-2.30722">
        <ele>35</ele>
        <time>2022-01-09T08:33:16.000Z</time>
      </trkpt>
      <trkpt lat="47.26925" lon="-2.307">
        <ele>35</ele>
        <time>2022-01-09T08:33:22.000Z</time>
      </trkpt>
      <trkpt lat="47.2691" lon="-2.30681">
        <ele>35</ele>
        <time>2022-01-09T08:33:28.000Z</time>
      </trkpt>
      <trkpt lat="47.26902" lon="-2.30669">
        <ele>35</ele>
        <time>2022-01-09T08:33:34.000Z</time>
      </trkpt>
      <trkpt lat="47.26902" lon="-2.30668">
        <ele>35</ele>
        <time>2022-01-09T08:33:35.000Z</time>
      </trkpt>
      <trkpt lat="47.269" lon="-2.30665">
        <ele>35</ele>
        <time>2022-01-09T08:33:53.000Z</time>
      </trkpt>
      <trkpt lat="47.269" lon="-2.30663">
        <ele>35.400001525879</ele>
        <time>2022-01-09T08:33:54.000Z</time>
      </trkpt>
      <trkpt lat="47.26899" lon="-2.30661">
        <ele>35.799999237061</ele>
        <time>2022-01-09T08:33:55.000Z</time>
      </trkpt>
      <trkpt lat="47.26898" lon="-2.30659">
        <ele>36.200000762939</ele>
        <time>2022-01-09T08:33:56.000Z</time>
      </trkpt>
      <trkpt lat="47.26897" lon="-2.30658">
        <ele>36.599998474121</ele>
        <time>2022-01-09T08:33:57.000Z</time>
      </trkpt>
      <trkpt lat="47.26896" lon="-2.30656">
        <ele>37</ele>
        <time>2022-01-09T08:33:58.000Z</time>
      </trkpt>
      <trkpt lat="47.26895" lon="-2.30656">
        <ele>37</ele>
        <time>2022-01-09T08:33:59.000Z</time>
      </trkpt>
      <trkpt lat="47.26894" lon="-2.30657">
        <ele>37</ele>
        <time>2022-01-09T08:34:01.000Z</time>
      </trkpt>
      <trkpt lat="47.26893" lon="-2.30658">
        <ele>37</ele>
        <time>2022-01-09T08:34:05.000Z</time>
      </trkpt>
      <trkpt lat="47.2689" lon="-2.30664">
        <ele>37</ele>
        <time>2022-01-09T08:34:08.000Z</time>
      </trkpt>
      <trkpt lat="47.26883" lon="-2.30679">
        <ele>37</ele>
        <time>2022-01-09T08:34:13.000Z</time>
      </trkpt>
      <trkpt lat="47.26865" lon="-2.30708">
        <ele>37</ele>
        <time>2022-01-09T08:34:21.000Z</time>
      </trkpt>
      <trkpt lat="47.26848" lon="-2.30744">
        <ele>37</ele>
        <time>2022-01-09T08:34:29.000Z</time>
      </trkpt>
      <trkpt lat="47.26837" lon="-2.30775">
        <ele>37</ele>
        <time>2022-01-09T08:34:36.000Z</time>
      </trkpt>
      <trkpt lat="47.26826" lon="-2.30793">
        <ele>37</ele>
        <time>2022-01-09T08:34:41.000Z</time>
      </trkpt>
      <trkpt lat="47.26805" lon="-2.30807">
        <ele>37</ele>
        <time>2022-01-09T08:34:47.000Z</time>
      </trkpt>
      <trkpt lat="47.26781" lon="-2.30833">
        <ele>37</ele>
        <time>2022-01-09T08:34:54.000Z</time>
      </trkpt>
      <trkpt lat="47.26771" lon="-2.30842">
        <ele>37</ele>
        <time>2022-01-09T08:34:57.000Z</time>
      </trkpt>
      <trkpt lat="47.26764" lon="-2.3085">
        <ele>37</ele>
        <time>2022-01-09T08:34:59.000Z</time>
      </trkpt>
      <trkpt lat="47.2676" lon="-2.30853">
        <ele>37</ele>
        <time>2022-01-09T08:35:00.000Z</time>
      </trkpt>
      <trkpt lat="47.26739" lon="-2.30868">
        <ele>37</ele>
        <time>2022-01-09T08:35:06.000Z</time>
      </trkpt>
      <trkpt lat="47.26725" lon="-2.30853">
        <ele>37</ele>
        <time>2022-01-09T08:35:10.000Z</time>
      </trkpt>
      <trkpt lat="47.26722" lon="-2.30848">
        <ele>37</ele>
        <time>2022-01-09T08:35:11.000Z</time>
      </trkpt>
      <trkpt lat="47.2671" lon="-2.30822">
        <ele>37</ele>
        <time>2022-01-09T08:35:16.000Z</time>
      </trkpt>
      <trkpt lat="47.26708" lon="-2.30816">
        <ele>37</ele>
        <time>2022-01-09T08:35:17.000Z</time>
      </trkpt>
      <trkpt lat="47.26695" lon="-2.30781">
        <ele>37</ele>
        <time>2022-01-09T08:35:22.000Z</time>
      </trkpt>
      <trkpt lat="47.26673" lon="-2.30728">
        <ele>37</ele>
        <time>2022-01-09T08:35:29.000Z</time>
      </trkpt>
      <trkpt lat="47.26667" lon="-2.30714">
        <ele>36.400001525879</ele>
        <time>2022-01-09T08:35:31.000Z</time>
      </trkpt>
      <trkpt lat="47.26664" lon="-2.30707">
        <ele>36</ele>
        <time>2022-01-09T08:35:32.000Z</time>
      </trkpt>
      <trkpt lat="47.26661" lon="-2.30703">
        <ele>35.400001525879</ele>
        <time>2022-01-09T08:35:33.000Z</time>
      </trkpt>
      <trkpt lat="47.26659" lon="-2.307">
        <ele>35</ele>
        <time>2022-01-09T08:35:34.000Z</time>
      </trkpt>
      <trkpt lat="47.26657" lon="-2.30698">
        <ele>34.599998474121</ele>
        <time>2022-01-09T08:35:35.000Z</time>
      </trkpt>
      <trkpt lat="47.26653" lon="-2.30696">
        <ele>34.599998474121</ele>
        <time>2022-01-09T08:35:37.000Z</time>
      </trkpt>
      <trkpt lat="47.26649" lon="-2.30704">
        <ele>34.599998474121</ele>
        <time>2022-01-09T08:35:41.000Z</time>
      </trkpt>
      <trkpt lat="47.26648" lon="-2.30708">
        <ele>34.599998474121</ele>
        <time>2022-01-09T08:35:42.000Z</time>
      </trkpt>
      <trkpt lat="47.26644" lon="-2.30721">
        <ele>34</ele>
        <time>2022-01-09T08:35:46.000Z</time>
      </trkpt>
      <trkpt lat="47.26643" lon="-2.30723">
        <ele>33.599998474121</ele>
        <time>2022-01-09T08:35:47.000Z</time>
      </trkpt>
      <trkpt lat="47.26641" lon="-2.30725">
        <ele>33.200000762939</ele>
        <time>2022-01-09T08:35:48.000Z</time>
      </trkpt>
      <trkpt lat="47.26639" lon="-2.30726">
        <ele>32.799999237061</ele>
        <time>2022-01-09T08:35:49.000Z</time>
      </trkpt>
      <trkpt lat="47.26636" lon="-2.30728">
        <ele>32.400001525879</ele>
        <time>2022-01-09T08:35:50.000Z</time>
      </trkpt>
      <trkpt lat="47.26626" lon="-2.30741">
        <ele>32.400001525879</ele>
        <time>2022-01-09T08:35:54.000Z</time>
      </trkpt>
      <trkpt lat="47.26622" lon="-2.30755">
        <ele>32.400001525879</ele>
        <time>2022-01-09T08:35:58.000Z</time>
      </trkpt>
      <trkpt lat="47.26617" lon="-2.30769">
        <ele>32.400001525879</ele>
        <time>2022-01-09T08:36:03.000Z</time>
      </trkpt>
      <trkpt lat="47.26608" lon="-2.30782">
        <ele>32.400001525879</ele>
        <time>2022-01-09T08:36:07.000Z</time>
      </trkpt>
      <trkpt lat="47.26598" lon="-2.30792">
        <ele>32</ele>
        <time>2022-01-09T08:36:11.000Z</time>
      </trkpt>
      <trkpt lat="47.26596" lon="-2.30796">
        <ele>31.60000038147</ele>
        <time>2022-01-09T08:36:12.000Z</time>
      </trkpt>
      <trkpt lat="47.26593" lon="-2.308">
        <ele>31.200000762939</ele>
        <time>2022-01-09T08:36:13.000Z</time>
      </trkpt>
      <trkpt lat="47.26591" lon="-2.30805">
        <ele>30.799999237061</ele>
        <time>2022-01-09T08:36:14.000Z</time>
      </trkpt>
      <trkpt lat="47.26588" lon="-2.3081">
        <ele>30.39999961853</ele>
        <time>2022-01-09T08:36:15.000Z</time>
      </trkpt>
      <trkpt lat="47.26581" lon="-2.30822">
        <ele>30.39999961853</ele>
        <time>2022-01-09T08:36:18.000Z</time>
      </trkpt>
      <trkpt lat="47.26568" lon="-2.30835">
        <ele>30.39999961853</ele>
        <time>2022-01-09T08:36:23.000Z</time>
      </trkpt>
      <trkpt lat="47.26562" lon="-2.3084">
        <ele>30</ele>
        <time>2022-01-09T08:36:25.000Z</time>
      </trkpt>
      <trkpt lat="47.26559" lon="-2.30843">
        <ele>29.39999961853</ele>
        <time>2022-01-09T08:36:26.000Z</time>
      </trkpt>
      <trkpt lat="47.26557" lon="-2.30847">
        <ele>29</ele>
        <time>2022-01-09T08:36:27.000Z</time>
      </trkpt>
      <trkpt lat="47.26554" lon="-2.30851">
        <ele>28.60000038147</ele>
        <time>2022-01-09T08:36:28.000Z</time>
      </trkpt>
      <trkpt lat="47.26551" lon="-2.30855">
        <ele>28.200000762939</ele>
        <time>2022-01-09T08:36:29.000Z</time>
      </trkpt>
      <trkpt lat="47.2654" lon="-2.30869">
        <ele>28.200000762939</ele>
        <time>2022-01-09T08:36:33.000Z</time>
      </trkpt>
      <trkpt lat="47.26518" lon="-2.30885">
        <ele>28.200000762939</ele>
        <time>2022-01-09T08:36:39.000Z</time>
      </trkpt>
      <trkpt lat="47.26512" lon="-2.30884">
        <ele>28.200000762939</ele>
        <time>2022-01-09T08:36:41.000Z</time>
      </trkpt>
      <trkpt lat="47.26506" lon="-2.30879">
        <ele>28.200000762939</ele>
        <time>2022-01-09T08:36:44.000Z</time>
      </trkpt>
      <trkpt lat="47.26503" lon="-2.30875">
        <ele>28.200000762939</ele>
        <time>2022-01-09T08:36:46.000Z</time>
      </trkpt>
      <trkpt lat="47.26496" lon="-2.30866">
        <ele>28.200000762939</ele>
        <time>2022-01-09T08:36:51.000Z</time>
      </trkpt>
      <trkpt lat="47.26493" lon="-2.3086">
        <ele>28.799999237061</ele>
        <time>2022-01-09T08:36:53.000Z</time>
      </trkpt>
      <trkpt lat="47.26491" lon="-2.30858">
        <ele>29.200000762939</ele>
        <time>2022-01-09T08:36:54.000Z</time>
      </trkpt>
      <trkpt lat="47.26488" lon="-2.30855">
        <ele>30</ele>
        <time>2022-01-09T08:36:55.000Z</time>
      </trkpt>
      <trkpt lat="47.26486" lon="-2.30851">
        <ele>30.39999961853</ele>
        <time>2022-01-09T08:36:56.000Z</time>
      </trkpt>
      <trkpt lat="47.26485" lon="-2.30847">
        <ele>30.39999961853</ele>
        <time>2022-01-09T08:36:57.000Z</time>
      </trkpt>
      <trkpt lat="47.26476" lon="-2.30822">
        <ele>30.799999237061</ele>
        <time>2022-01-09T08:37:02.000Z</time>
      </trkpt>
      <trkpt lat="47.26475" lon="-2.30817">
        <ele>31.200000762939</ele>
        <time>2022-01-09T08:37:03.000Z</time>
      </trkpt>
      <trkpt lat="47.26473" lon="-2.30813">
        <ele>31.60000038147</ele>
        <time>2022-01-09T08:37:04.000Z</time>
      </trkpt>
      <trkpt lat="47.26472" lon="-2.30809">
        <ele>32</ele>
        <time>2022-01-09T08:37:05.000Z</time>
      </trkpt>
      <trkpt lat="47.2647" lon="-2.30805">
        <ele>32.400001525879</ele>
        <time>2022-01-09T08:37:06.000Z</time>
      </trkpt>
      <trkpt lat="47.26464" lon="-2.30789">
        <ele>32.400001525879</ele>
        <time>2022-01-09T08:37:09.000Z</time>
      </trkpt>
      <trkpt lat="47.26453" lon="-2.30766">
        <ele>32.400001525879</ele>
        <time>2022-01-09T08:37:14.000Z</time>
      </trkpt>
      <trkpt lat="47.26452" lon="-2.30762">
        <ele>32.799999237061</ele>
        <time>2022-01-09T08:37:15.000Z</time>
      </trkpt>
      <trkpt lat="47.26451" lon="-2.30757">
        <ele>33.400001525879</ele>
        <time>2022-01-09T08:37:16.000Z</time>
      </trkpt>
      <trkpt lat="47.26449" lon="-2.30753">
        <ele>33.799999237061</ele>
        <time>2022-01-09T08:37:17.000Z</time>
      </trkpt>
      <trkpt lat="47.26447" lon="-2.30748">
        <ele>34.200000762939</ele>
        <time>2022-01-09T08:37:18.000Z</time>
      </trkpt>
      <trkpt lat="47.26445" lon="-2.30742">
        <ele>34.599998474121</ele>
        <time>2022-01-09T08:37:19.000Z</time>
      </trkpt>
      <trkpt lat="47.26443" lon="-2.30737">
        <ele>34.599998474121</ele>
        <time>2022-01-09T08:37:20.000Z</time>
      </trkpt>
      <trkpt lat="47.26433" lon="-2.30713">
        <ele>34.599998474121</ele>
        <time>2022-01-09T08:37:26.000Z</time>
      </trkpt>
      <trkpt lat="47.26422" lon="-2.30692">
        <ele>34.599998474121</ele>
        <time>2022-01-09T08:37:32.000Z</time>
      </trkpt>
      <trkpt lat="47.26409" lon="-2.3068">
        <ele>34.599998474121</ele>
        <time>2022-01-09T08:37:37.000Z</time>
      </trkpt>
      <trkpt lat="47.26388" lon="-2.30661">
        <ele>34.599998474121</ele>
        <time>2022-01-09T08:37:43.000Z</time>
      </trkpt>
      <trkpt lat="47.26378" lon="-2.30648">
        <ele>34.599998474121</ele>
        <time>2022-01-09T08:37:47.000Z</time>
      </trkpt>
      <trkpt lat="47.26375" lon="-2.30644">
        <ele>35</ele>
        <time>2022-01-09T08:37:48.000Z</time>
      </trkpt>
      <trkpt lat="47.26372" lon="-2.3064">
        <ele>35.400001525879</ele>
        <time>2022-01-09T08:37:49.000Z</time>
      </trkpt>
      <trkpt lat="47.2637" lon="-2.30635">
        <ele>35.799999237061</ele>
        <time>2022-01-09T08:37:50.000Z</time>
      </trkpt>
      <trkpt lat="47.26368" lon="-2.30631">
        <ele>36.200000762939</ele>
        <time>2022-01-09T08:37:51.000Z</time>
      </trkpt>
      <trkpt lat="47.26366" lon="-2.30626">
        <ele>36.599998474121</ele>
        <time>2022-01-09T08:37:52.000Z</time>
      </trkpt>
      <trkpt lat="47.26365" lon="-2.30622">
        <ele>36.599998474121</ele>
        <time>2022-01-09T08:37:53.000Z</time>
      </trkpt>
      <trkpt lat="47.26351" lon="-2.30593">
        <ele>36.599998474121</ele>
        <time>2022-01-09T08:38:00.000Z</time>
      </trkpt>
      <trkpt lat="47.26347" lon="-2.30583">
        <ele>36.599998474121</ele>
        <time>2022-01-09T08:38:05.000Z</time>
      </trkpt>
      <trkpt lat="47.26347" lon="-2.30573">
        <ele>36.599998474121</ele>
        <time>2022-01-09T08:39:23.000Z</time>
      </trkpt>
      <trkpt lat="47.26347" lon="-2.30565">
        <ele>36.599998474121</ele>
        <time>2022-01-09T08:39:25.000Z</time>
      </trkpt>
      <trkpt lat="47.26346" lon="-2.30546">
        <ele>36.599998474121</ele>
        <time>2022-01-09T08:39:30.000Z</time>
      </trkpt>
      <trkpt lat="47.26338" lon="-2.30517">
        <ele>36.599998474121</ele>
        <time>2022-01-09T08:39:36.000Z</time>
      </trkpt>
      <trkpt lat="47.26333" lon="-2.30498">
        <ele>37</ele>
        <time>2022-01-09T08:39:39.000Z</time>
      </trkpt>
      <trkpt lat="47.26332" lon="-2.30492">
        <ele>37.400001525879</ele>
        <time>2022-01-09T08:39:40.000Z</time>
      </trkpt>
      <trkpt lat="47.2633" lon="-2.30485">
        <ele>37.799999237061</ele>
        <time>2022-01-09T08:39:41.000Z</time>
      </trkpt>
      <trkpt lat="47.26328" lon="-2.30478">
        <ele>38.200000762939</ele>
        <time>2022-01-09T08:39:42.000Z</time>
      </trkpt>
      <trkpt lat="47.26327" lon="-2.30472">
        <ele>38.599998474121</ele>
        <time>2022-01-09T08:39:43.000Z</time>
      </trkpt>
      <trkpt lat="47.26325" lon="-2.30459">
        <ele>38.599998474121</ele>
        <time>2022-01-09T08:39:45.000Z</time>
      </trkpt>
      <trkpt lat="47.26322" lon="-2.30446">
        <ele>38.599998474121</ele>
        <time>2022-01-09T08:39:47.000Z</time>
      </trkpt>
      <trkpt lat="47.26312" lon="-2.30397">
        <ele>38.599998474121</ele>
        <time>2022-01-09T08:39:55.000Z</time>
      </trkpt>
      <trkpt lat="47.26307" lon="-2.30369">
        <ele>38.599998474121</ele>
        <time>2022-01-09T08:39:59.000Z</time>
      </trkpt>
      <trkpt lat="47.26305" lon="-2.30353">
        <ele>38.599998474121</ele>
        <time>2022-01-09T08:40:01.000Z</time>
      </trkpt>
      <trkpt lat="47.26301" lon="-2.3033">
        <ele>38.599998474121</ele>
        <time>2022-01-09T08:40:04.000Z</time>
      </trkpt>
      <trkpt lat="47.26296" lon="-2.30316">
        <ele>38.599998474121</ele>
        <time>2022-01-09T08:40:06.000Z</time>
      </trkpt>
      <trkpt lat="47.26285" lon="-2.30282">
        <ele>38.599998474121</ele>
        <time>2022-01-09T08:40:11.000Z</time>
      </trkpt>
      <trkpt lat="47.26282" lon="-2.30266">
        <ele>38.599998474121</ele>
        <time>2022-01-09T08:40:13.000Z</time>
      </trkpt>
      <trkpt lat="47.26274" lon="-2.30221">
        <ele>38.599998474121</ele>
        <time>2022-01-09T08:40:19.000Z</time>
      </trkpt>
      <trkpt lat="47.26267" lon="-2.30181">
        <ele>38.599998474121</ele>
        <time>2022-01-09T08:40:25.000Z</time>
      </trkpt>
      <trkpt lat="47.26263" lon="-2.30168">
        <ele>38.599998474121</ele>
        <time>2022-01-09T08:40:27.000Z</time>
      </trkpt>
      <trkpt lat="47.26259" lon="-2.30158">
        <ele>39</ele>
        <time>2022-01-09T08:40:29.000Z</time>
      </trkpt>
      <trkpt lat="47.26257" lon="-2.30152">
        <ele>39.400001525879</ele>
        <time>2022-01-09T08:40:30.000Z</time>
      </trkpt>
      <trkpt lat="47.26255" lon="-2.30146">
        <ele>39.799999237061</ele>
        <time>2022-01-09T08:40:31.000Z</time>
      </trkpt>
      <trkpt lat="47.26254" lon="-2.30141">
        <ele>40.200000762939</ele>
        <time>2022-01-09T08:40:32.000Z</time>
      </trkpt>
      <trkpt lat="47.26252" lon="-2.30137">
        <ele>40.599998474121</ele>
        <time>2022-01-09T08:40:33.000Z</time>
      </trkpt>
      <trkpt lat="47.26249" lon="-2.30134">
        <ele>40.599998474121</ele>
        <time>2022-01-09T08:40:34.000Z</time>
      </trkpt>
      <trkpt lat="47.26246" lon="-2.30133">
        <ele>40.599998474121</ele>
        <time>2022-01-09T08:40:35.000Z</time>
      </trkpt>
      <trkpt lat="47.26235" lon="-2.30138">
        <ele>40.599998474121</ele>
        <time>2022-01-09T08:40:38.000Z</time>
      </trkpt>
      <trkpt lat="47.26231" lon="-2.30139">
        <ele>40.599998474121</ele>
        <time>2022-01-09T08:40:39.000Z</time>
      </trkpt>
      <trkpt lat="47.26202" lon="-2.3015">
        <ele>40.599998474121</ele>
        <time>2022-01-09T08:40:45.000Z</time>
      </trkpt>
      <trkpt lat="47.26189" lon="-2.30154">
        <ele>40.599998474121</ele>
        <time>2022-01-09T08:40:48.000Z</time>
      </trkpt>
      <trkpt lat="47.26182" lon="-2.30158">
        <ele>40.599998474121</ele>
        <time>2022-01-09T08:40:50.000Z</time>
      </trkpt>
      <trkpt lat="47.26179" lon="-2.30157">
        <ele>40.599998474121</ele>
        <time>2022-01-09T08:40:51.000Z</time>
      </trkpt>
      <trkpt lat="47.26175" lon="-2.30152">
        <ele>40.599998474121</ele>
        <time>2022-01-09T08:40:53.000Z</time>
      </trkpt>
      <trkpt lat="47.2617" lon="-2.30146">
        <ele>40.599998474121</ele>
        <time>2022-01-09T08:40:57.000Z</time>
      </trkpt>
      <trkpt lat="47.26165" lon="-2.30148">
        <ele>40.200000762939</ele>
        <time>2022-01-09T08:40:59.000Z</time>
      </trkpt>
      <trkpt lat="47.26161" lon="-2.3015">
        <ele>39.799999237061</ele>
        <time>2022-01-09T08:41:00.000Z</time>
      </trkpt>
      <trkpt lat="47.26157" lon="-2.30151">
        <ele>39.400001525879</ele>
        <time>2022-01-09T08:41:01.000Z</time>
      </trkpt>
      <trkpt lat="47.26153" lon="-2.30152">
        <ele>38.599998474121</ele>
        <time>2022-01-09T08:41:02.000Z</time>
      </trkpt>
      <trkpt lat="47.26123" lon="-2.30162">
        <ele>38.200000762939</ele>
        <time>2022-01-09T08:41:08.000Z</time>
      </trkpt>
      <trkpt lat="47.26119" lon="-2.30163">
        <ele>37.799999237061</ele>
        <time>2022-01-09T08:41:09.000Z</time>
      </trkpt>
      <trkpt lat="47.26116" lon="-2.30164">
        <ele>37.400001525879</ele>
        <time>2022-01-09T08:41:10.000Z</time>
      </trkpt>
      <trkpt lat="47.26112" lon="-2.30165">
        <ele>37</ele>
        <time>2022-01-09T08:41:11.000Z</time>
      </trkpt>
      <trkpt lat="47.26111" lon="-2.30166">
        <ele>36.599998474121</ele>
        <time>2022-01-09T08:41:12.000Z</time>
      </trkpt>
      <trkpt lat="47.26109" lon="-2.30166">
        <ele>36.599998474121</ele>
        <time>2022-01-09T08:41:13.000Z</time>
      </trkpt>
      <trkpt lat="47.26102" lon="-2.30159">
        <ele>36</ele>
        <time>2022-01-09T08:41:16.000Z</time>
      </trkpt>
      <trkpt lat="47.26101" lon="-2.30158">
        <ele>35.599998474121</ele>
        <time>2022-01-09T08:41:17.000Z</time>
      </trkpt>
      <trkpt lat="47.261" lon="-2.30157">
        <ele>35.200000762939</ele>
        <time>2022-01-09T08:41:18.000Z</time>
      </trkpt>
      <trkpt lat="47.26098" lon="-2.30156">
        <ele>34.799999237061</ele>
        <time>2022-01-09T08:41:19.000Z</time>
      </trkpt>
      <trkpt lat="47.26096" lon="-2.30156">
        <ele>34.400001525879</ele>
        <time>2022-01-09T08:41:20.000Z</time>
      </trkpt>
      <trkpt lat="47.26082" lon="-2.30157">
        <ele>34.400001525879</ele>
        <time>2022-01-09T08:41:25.000Z</time>
      </trkpt>
      <trkpt lat="47.26079" lon="-2.30155">
        <ele>34.400001525879</ele>
        <time>2022-01-09T08:41:26.000Z</time>
      </trkpt>
      <trkpt lat="47.26073" lon="-2.30148">
        <ele>34</ele>
        <time>2022-01-09T08:41:28.000Z</time>
      </trkpt>
      <trkpt lat="47.2607" lon="-2.30145">
        <ele>33.599998474121</ele>
        <time>2022-01-09T08:41:29.000Z</time>
      </trkpt>
      <trkpt lat="47.26066" lon="-2.30142">
        <ele>33.200000762939</ele>
        <time>2022-01-09T08:41:30.000Z</time>
      </trkpt>
      <trkpt lat="47.26061" lon="-2.30141">
        <ele>32.799999237061</ele>
        <time>2022-01-09T08:41:31.000Z</time>
      </trkpt>
      <trkpt lat="47.26057" lon="-2.30142">
        <ele>32.400001525879</ele>
        <time>2022-01-09T08:41:32.000Z</time>
      </trkpt>
      <trkpt lat="47.26032" lon="-2.3014">
        <ele>32.400001525879</ele>
        <time>2022-01-09T08:41:38.000Z</time>
      </trkpt>
      <trkpt lat="47.2602" lon="-2.30135">
        <ele>32.400001525879</ele>
        <time>2022-01-09T08:41:42.000Z</time>
      </trkpt>
      <trkpt lat="47.2601" lon="-2.30134">
        <ele>32</ele>
        <time>2022-01-09T08:41:45.000Z</time>
      </trkpt>
      <trkpt lat="47.26007" lon="-2.30135">
        <ele>31.60000038147</ele>
        <time>2022-01-09T08:41:46.000Z</time>
      </trkpt>
      <trkpt lat="47.26003" lon="-2.30136">
        <ele>31.200000762939</ele>
        <time>2022-01-09T08:41:47.000Z</time>
      </trkpt>
      <trkpt lat="47.26" lon="-2.30135">
        <ele>30.799999237061</ele>
        <time>2022-01-09T08:41:48.000Z</time>
      </trkpt>
      <trkpt lat="47.25996" lon="-2.30135">
        <ele>30.39999961853</ele>
        <time>2022-01-09T08:41:49.000Z</time>
      </trkpt>
      <trkpt lat="47.25992" lon="-2.30137">
        <ele>30.39999961853</ele>
        <time>2022-01-09T08:41:50.000Z</time>
      </trkpt>
      <trkpt lat="47.25988" lon="-2.30137">
        <ele>30.39999961853</ele>
        <time>2022-01-09T08:41:51.000Z</time>
      </trkpt>
      <trkpt lat="47.25983" lon="-2.30139">
        <ele>30.39999961853</ele>
        <time>2022-01-09T08:41:52.000Z</time>
      </trkpt>
      <trkpt lat="47.25974" lon="-2.30146">
        <ele>30.39999961853</ele>
        <time>2022-01-09T08:41:54.000Z</time>
      </trkpt>
      <trkpt lat="47.25967" lon="-2.30156">
        <ele>30.39999961853</ele>
        <time>2022-01-09T08:41:56.000Z</time>
      </trkpt>
      <trkpt lat="47.25963" lon="-2.30161">
        <ele>30.39999961853</ele>
        <time>2022-01-09T08:41:57.000Z</time>
      </trkpt>
      <trkpt lat="47.25958" lon="-2.30164">
        <ele>30.39999961853</ele>
        <time>2022-01-09T08:41:58.000Z</time>
      </trkpt>
      <trkpt lat="47.25943" lon="-2.30172">
        <ele>30.39999961853</ele>
        <time>2022-01-09T08:42:01.000Z</time>
      </trkpt>
      <trkpt lat="47.25933" lon="-2.30175">
        <ele>30.39999961853</ele>
        <time>2022-01-09T08:42:03.000Z</time>
      </trkpt>
      <trkpt lat="47.25906" lon="-2.30181">
        <ele>30.39999961853</ele>
        <time>2022-01-09T08:42:09.000Z</time>
      </trkpt>
      <trkpt lat="47.25898" lon="-2.30186">
        <ele>30.39999961853</ele>
        <time>2022-01-09T08:42:11.000Z</time>
      </trkpt>
      <trkpt lat="47.25892" lon="-2.30195">
        <ele>30.39999961853</ele>
        <time>2022-01-09T08:42:13.000Z</time>
      </trkpt>
      <trkpt lat="47.25891" lon="-2.30212">
        <ele>30.39999961853</ele>
        <time>2022-01-09T08:42:16.000Z</time>
      </trkpt>
      <trkpt lat="47.25892" lon="-2.30218">
        <ele>30.39999961853</ele>
        <time>2022-01-09T08:42:17.000Z</time>
      </trkpt>
      <trkpt lat="47.25895" lon="-2.3024">
        <ele>30.39999961853</ele>
        <time>2022-01-09T08:42:22.000Z</time>
      </trkpt>
      <trkpt lat="47.25895" lon="-2.30261">
        <ele>30.39999961853</ele>
        <time>2022-01-09T08:42:30.000Z</time>
      </trkpt>
      <trkpt lat="47.25895" lon="-2.30266">
        <ele>30.39999961853</ele>
        <time>2022-01-09T08:43:24.000Z</time>
      </trkpt>
      <trkpt lat="47.25895" lon="-2.30277">
        <ele>30.39999961853</ele>
        <time>2022-01-09T08:43:28.000Z</time>
      </trkpt>
      <trkpt lat="47.25897" lon="-2.30285">
        <ele>30.39999961853</ele>
        <time>2022-01-09T08:43:30.000Z</time>
      </trkpt>
      <trkpt lat="47.25895" lon="-2.30298">
        <ele>30.39999961853</ele>
        <time>2022-01-09T08:43:33.000Z</time>
      </trkpt>
      <trkpt lat="47.25887" lon="-2.30308">
        <ele>30.799999237061</ele>
        <time>2022-01-09T08:43:36.000Z</time>
      </trkpt>
      <trkpt lat="47.25883" lon="-2.30309">
        <ele>31.200000762939</ele>
        <time>2022-01-09T08:43:37.000Z</time>
      </trkpt>
      <trkpt lat="47.25878" lon="-2.3031">
        <ele>31.60000038147</ele>
        <time>2022-01-09T08:43:38.000Z</time>
      </trkpt>
      <trkpt lat="47.25874" lon="-2.3031">
        <ele>32</ele>
        <time>2022-01-09T08:43:39.000Z</time>
      </trkpt>
      <trkpt lat="47.25869" lon="-2.30311">
        <ele>32.400001525879</ele>
        <time>2022-01-09T08:43:40.000Z</time>
      </trkpt>
      <trkpt lat="47.25866" lon="-2.30309">
        <ele>32.400001525879</ele>
        <time>2022-01-09T08:43:41.000Z</time>
      </trkpt>
      <trkpt lat="47.25862" lon="-2.30306">
        <ele>32.400001525879</ele>
        <time>2022-01-09T08:43:42.000Z</time>
      </trkpt>
      <trkpt lat="47.25851" lon="-2.30284">
        <ele>32.400001525879</ele>
        <time>2022-01-09T08:43:46.000Z</time>
      </trkpt>
      <trkpt lat="47.25832" lon="-2.30273">
        <ele>32.400001525879</ele>
        <time>2022-01-09T08:43:50.000Z</time>
      </trkpt>
      <trkpt lat="47.25821" lon="-2.30267">
        <ele>32</ele>
        <time>2022-01-09T08:43:52.000Z</time>
      </trkpt>
      <trkpt lat="47.25815" lon="-2.30263">
        <ele>31.60000038147</ele>
        <time>2022-01-09T08:43:53.000Z</time>
      </trkpt>
      <trkpt lat="47.25809" lon="-2.3026">
        <ele>30.799999237061</ele>
        <time>2022-01-09T08:43:54.000Z</time>
      </trkpt>
      <trkpt lat="47.25803" lon="-2.30257">
        <ele>30.200000762939</ele>
        <time>2022-01-09T08:43:55.000Z</time>
      </trkpt>
      <trkpt lat="47.25797" lon="-2.30254">
        <ele>30.200000762939</ele>
        <time>2022-01-09T08:43:56.000Z</time>
      </trkpt>
      <trkpt lat="47.2576" lon="-2.30238">
        <ele>30.200000762939</ele>
        <time>2022-01-09T08:44:02.000Z</time>
      </trkpt>
      <trkpt lat="47.2573" lon="-2.30223">
        <ele>30.200000762939</ele>
        <time>2022-01-09T08:44:08.000Z</time>
      </trkpt>
      <trkpt lat="47.25725" lon="-2.30222">
        <ele>30.200000762939</ele>
        <time>2022-01-09T08:44:09.000Z</time>
      </trkpt>
      <trkpt lat="47.25707" lon="-2.30227">
        <ele>30.200000762939</ele>
        <time>2022-01-09T08:44:13.000Z</time>
      </trkpt>
      <trkpt lat="47.25703" lon="-2.30231">
        <ele>30.799999237061</ele>
        <time>2022-01-09T08:44:14.000Z</time>
      </trkpt>
      <trkpt lat="47.257" lon="-2.30236">
        <ele>31.200000762939</ele>
        <time>2022-01-09T08:44:15.000Z</time>
      </trkpt>
      <trkpt lat="47.25698" lon="-2.30241">
        <ele>31.60000038147</ele>
        <time>2022-01-09T08:44:16.000Z</time>
      </trkpt>
      <trkpt lat="47.25696" lon="-2.30247">
        <ele>32</ele>
        <time>2022-01-09T08:44:17.000Z</time>
      </trkpt>
      <trkpt lat="47.25694" lon="-2.30253">
        <ele>32.400001525879</ele>
        <time>2022-01-09T08:44:18.000Z</time>
      </trkpt>
      <trkpt lat="47.25696" lon="-2.3027">
        <ele>32.400001525879</ele>
        <time>2022-01-09T08:44:21.000Z</time>
      </trkpt>
      <trkpt lat="47.25695" lon="-2.30281">
        <ele>32.400001525879</ele>
        <time>2022-01-09T08:44:24.000Z</time>
      </trkpt>
      <trkpt lat="47.25694" lon="-2.30283">
        <ele>32.400001525879</ele>
        <time>2022-01-09T08:44:25.000Z</time>
      </trkpt>
      <trkpt lat="47.25693" lon="-2.30286">
        <ele>32.400001525879</ele>
        <time>2022-01-09T08:44:26.000Z</time>
      </trkpt>
      <trkpt lat="47.25692" lon="-2.30294">
        <ele>32.400001525879</ele>
        <time>2022-01-09T08:44:28.000Z</time>
      </trkpt>
      <trkpt lat="47.25686" lon="-2.30309">
        <ele>32.400001525879</ele>
        <time>2022-01-09T08:44:31.000Z</time>
      </trkpt>
      <trkpt lat="47.25683" lon="-2.30313">
        <ele>32.400001525879</ele>
        <time>2022-01-09T08:44:32.000Z</time>
      </trkpt>
      <trkpt lat="47.25672" lon="-2.3032">
        <ele>32.400001525879</ele>
        <time>2022-01-09T08:44:35.000Z</time>
      </trkpt>
      <trkpt lat="47.25668" lon="-2.30323">
        <ele>32.400001525879</ele>
        <time>2022-01-09T08:44:36.000Z</time>
      </trkpt>
      <trkpt lat="47.25663" lon="-2.30326">
        <ele>32.400001525879</ele>
        <time>2022-01-09T08:44:37.000Z</time>
      </trkpt>
      <trkpt lat="47.25642" lon="-2.30344">
        <ele>32.400001525879</ele>
        <time>2022-01-09T08:44:42.000Z</time>
      </trkpt>
      <trkpt lat="47.25631" lon="-2.30337">
        <ele>32.400001525879</ele>
        <time>2022-01-09T08:44:45.000Z</time>
      </trkpt>
      <trkpt lat="47.25628" lon="-2.30317">
        <ele>32.400001525879</ele>
        <time>2022-01-09T08:44:48.000Z</time>
      </trkpt>
      <trkpt lat="47.25627" lon="-2.30298">
        <ele>32.400001525879</ele>
        <time>2022-01-09T08:44:51.000Z</time>
      </trkpt>
      <trkpt lat="47.25625" lon="-2.30278">
        <ele>32.400001525879</ele>
        <time>2022-01-09T08:44:54.000Z</time>
      </trkpt>
      <trkpt lat="47.25618" lon="-2.30236">
        <ele>32.400001525879</ele>
        <time>2022-01-09T08:45:00.000Z</time>
      </trkpt>
      <trkpt lat="47.25605" lon="-2.30207">
        <ele>32.400001525879</ele>
        <time>2022-01-09T08:45:05.000Z</time>
      </trkpt>
      <trkpt lat="47.25588" lon="-2.30193">
        <ele>32.400001525879</ele>
        <time>2022-01-09T08:45:09.000Z</time>
      </trkpt>
      <trkpt lat="47.25583" lon="-2.3019">
        <ele>32.799999237061</ele>
        <time>2022-01-09T08:45:10.000Z</time>
      </trkpt>
      <trkpt lat="47.25579" lon="-2.30187">
        <ele>33.200000762939</ele>
        <time>2022-01-09T08:45:11.000Z</time>
      </trkpt>
      <trkpt lat="47.25575" lon="-2.30185">
        <ele>33.599998474121</ele>
        <time>2022-01-09T08:45:12.000Z</time>
      </trkpt>
      <trkpt lat="47.25571" lon="-2.30184">
        <ele>34</ele>
        <time>2022-01-09T08:45:13.000Z</time>
      </trkpt>
      <trkpt lat="47.25567" lon="-2.30183">
        <ele>34.400001525879</ele>
        <time>2022-01-09T08:45:14.000Z</time>
      </trkpt>
      <trkpt lat="47.25551" lon="-2.30189">
        <ele>34.400001525879</ele>
        <time>2022-01-09T08:45:18.000Z</time>
      </trkpt>
      <trkpt lat="47.25547" lon="-2.30191">
        <ele>34.400001525879</ele>
        <time>2022-01-09T08:45:19.000Z</time>
      </trkpt>
      <trkpt lat="47.25531" lon="-2.302">
        <ele>34.400001525879</ele>
        <time>2022-01-09T08:45:23.000Z</time>
      </trkpt>
      <trkpt lat="47.25517" lon="-2.30199">
        <ele>34.400001525879</ele>
        <time>2022-01-09T08:45:27.000Z</time>
      </trkpt>
      <trkpt lat="47.25506" lon="-2.30203">
        <ele>34.400001525879</ele>
        <time>2022-01-09T08:45:30.000Z</time>
      </trkpt>
      <trkpt lat="47.25504" lon="-2.30207">
        <ele>34.400001525879</ele>
        <time>2022-01-09T08:45:31.000Z</time>
      </trkpt>
      <trkpt lat="47.25489" lon="-2.30226">
        <ele>34.400001525879</ele>
        <time>2022-01-09T08:45:36.000Z</time>
      </trkpt>
      <trkpt lat="47.25482" lon="-2.30246">
        <ele>34.400001525879</ele>
        <time>2022-01-09T08:45:40.000Z</time>
      </trkpt>
      <trkpt lat="47.25478" lon="-2.3025">
        <ele>34.400001525879</ele>
        <time>2022-01-09T08:45:42.000Z</time>
      </trkpt>
      <trkpt lat="47.25475" lon="-2.30249">
        <ele>34.400001525879</ele>
        <time>2022-01-09T08:45:43.000Z</time>
      </trkpt>
      <trkpt lat="47.25469" lon="-2.30244">
        <ele>34.799999237061</ele>
        <time>2022-01-09T08:45:45.000Z</time>
      </trkpt>
      <trkpt lat="47.25465" lon="-2.30243">
        <ele>35.200000762939</ele>
        <time>2022-01-09T08:45:46.000Z</time>
      </trkpt>
      <trkpt lat="47.25461" lon="-2.30241">
        <ele>35.599998474121</ele>
        <time>2022-01-09T08:45:47.000Z</time>
      </trkpt>
      <trkpt lat="47.25456" lon="-2.3024">
        <ele>36</ele>
        <time>2022-01-09T08:45:48.000Z</time>
      </trkpt>
      <trkpt lat="47.25453" lon="-2.30239">
        <ele>36.400001525879</ele>
        <time>2022-01-09T08:45:49.000Z</time>
      </trkpt>
      <trkpt lat="47.25437" lon="-2.30234">
        <ele>36.400001525879</ele>
        <time>2022-01-09T08:45:53.000Z</time>
      </trkpt>
      <trkpt lat="47.25417" lon="-2.30227">
        <ele>36.400001525879</ele>
        <time>2022-01-09T08:45:58.000Z</time>
      </trkpt>
      <trkpt lat="47.25398" lon="-2.30217">
        <ele>36.400001525879</ele>
        <time>2022-01-09T08:46:03.000Z</time>
      </trkpt>
      <trkpt lat="47.25383" lon="-2.30211">
        <ele>36.400001525879</ele>
        <time>2022-01-09T08:46:09.000Z</time>
      </trkpt>
      <trkpt lat="47.25366" lon="-2.30211">
        <ele>36.799999237061</ele>
        <time>2022-01-09T08:46:13.000Z</time>
      </trkpt>
      <trkpt lat="47.25361" lon="-2.30211">
        <ele>37.200000762939</ele>
        <time>2022-01-09T08:46:14.000Z</time>
      </trkpt>
      <trkpt lat="47.25356" lon="-2.30211">
        <ele>37.599998474121</ele>
        <time>2022-01-09T08:46:15.000Z</time>
      </trkpt>
      <trkpt lat="47.25352" lon="-2.30211">
        <ele>38</ele>
        <time>2022-01-09T08:46:16.000Z</time>
      </trkpt>
      <trkpt lat="47.25347" lon="-2.30211">
        <ele>38.400001525879</ele>
        <time>2022-01-09T08:46:17.000Z</time>
      </trkpt>
      <trkpt lat="47.25333" lon="-2.30211">
        <ele>38.400001525879</ele>
        <time>2022-01-09T08:46:20.000Z</time>
      </trkpt>
      <trkpt lat="47.2531" lon="-2.30208">
        <ele>38.400001525879</ele>
        <time>2022-01-09T08:46:26.000Z</time>
      </trkpt>
      <trkpt lat="47.25307" lon="-2.30212">
        <ele>38.400001525879</ele>
        <time>2022-01-09T08:46:29.000Z</time>
      </trkpt>
      <trkpt lat="47.25298" lon="-2.30208">
        <ele>38.400001525879</ele>
        <time>2022-01-09T08:46:33.000Z</time>
      </trkpt>
      <trkpt lat="47.25285" lon="-2.30203">
        <ele>38.400001525879</ele>
        <time>2022-01-09T08:46:37.000Z</time>
      </trkpt>
      <trkpt lat="47.25275" lon="-2.30198">
        <ele>38.799999237061</ele>
        <time>2022-01-09T08:46:40.000Z</time>
      </trkpt>
      <trkpt lat="47.25271" lon="-2.30196">
        <ele>39.200000762939</ele>
        <time>2022-01-09T08:46:41.000Z</time>
      </trkpt>
      <trkpt lat="47.25267" lon="-2.30193">
        <ele>39.599998474121</ele>
        <time>2022-01-09T08:46:42.000Z</time>
      </trkpt>
      <trkpt lat="47.25263" lon="-2.30191">
        <ele>40</ele>
        <time>2022-01-09T08:46:43.000Z</time>
      </trkpt>
      <trkpt lat="47.25259" lon="-2.30189">
        <ele>40.400001525879</ele>
        <time>2022-01-09T08:46:44.000Z</time>
      </trkpt>
      <trkpt lat="47.25241" lon="-2.30181">
        <ele>40.400001525879</ele>
        <time>2022-01-09T08:46:49.000Z</time>
      </trkpt>
      <trkpt lat="47.25222" lon="-2.30171">
        <ele>40.400001525879</ele>
        <time>2022-01-09T08:46:55.000Z</time>
      </trkpt>
      <trkpt lat="47.25215" lon="-2.30162">
        <ele>40.799999237061</ele>
        <time>2022-01-09T08:46:57.000Z</time>
      </trkpt>
      <trkpt lat="47.25211" lon="-2.30157">
        <ele>41.200000762939</ele>
        <time>2022-01-09T08:46:58.000Z</time>
      </trkpt>
      <trkpt lat="47.25207" lon="-2.30153">
        <ele>41.799999237061</ele>
        <time>2022-01-09T08:46:59.000Z</time>
      </trkpt>
      <trkpt lat="47.25204" lon="-2.3015">
        <ele>42.200000762939</ele>
        <time>2022-01-09T08:47:00.000Z</time>
      </trkpt>
      <trkpt lat="47.25201" lon="-2.30145">
        <ele>42.599998474121</ele>
        <time>2022-01-09T08:47:01.000Z</time>
      </trkpt>
      <trkpt lat="47.25194" lon="-2.3013">
        <ele>42.599998474121</ele>
        <time>2022-01-09T08:47:04.000Z</time>
      </trkpt>
      <trkpt lat="47.25185" lon="-2.3012">
        <ele>42.599998474121</ele>
        <time>2022-01-09T08:47:07.000Z</time>
      </trkpt>
      <trkpt lat="47.25182" lon="-2.30119">
        <ele>42.599998474121</ele>
        <time>2022-01-09T08:47:08.000Z</time>
      </trkpt>
      <trkpt lat="47.25171" lon="-2.30122">
        <ele>42.599998474121</ele>
        <time>2022-01-09T08:47:11.000Z</time>
      </trkpt>
      <trkpt lat="47.25166" lon="-2.30123">
        <ele>42.599998474121</ele>
        <time>2022-01-09T08:47:12.000Z</time>
      </trkpt>
      <trkpt lat="47.25163" lon="-2.30124">
        <ele>43</ele>
        <time>2022-01-09T08:47:13.000Z</time>
      </trkpt>
      <trkpt lat="47.25159" lon="-2.30126">
        <ele>43.400001525879</ele>
        <time>2022-01-09T08:47:14.000Z</time>
      </trkpt>
      <trkpt lat="47.25155" lon="-2.30127">
        <ele>43.799999237061</ele>
        <time>2022-01-09T08:47:15.000Z</time>
      </trkpt>
      <trkpt lat="47.25152" lon="-2.30129">
        <ele>44.200000762939</ele>
        <time>2022-01-09T08:47:16.000Z</time>
      </trkpt>
      <trkpt lat="47.25148" lon="-2.3013">
        <ele>44.599998474121</ele>
        <time>2022-01-09T08:47:17.000Z</time>
      </trkpt>
      <trkpt lat="47.25145" lon="-2.3013">
        <ele>44.599998474121</ele>
        <time>2022-01-09T08:47:18.000Z</time>
      </trkpt>
      <trkpt lat="47.25121" lon="-2.30132">
        <ele>44.599998474121</ele>
        <time>2022-01-09T08:47:24.000Z</time>
      </trkpt>
      <trkpt lat="47.25097" lon="-2.30138">
        <ele>44.599998474121</ele>
        <time>2022-01-09T08:47:30.000Z</time>
      </trkpt>
      <trkpt lat="47.25075" lon="-2.30136">
        <ele>44.599998474121</ele>
        <time>2022-01-09T08:47:36.000Z</time>
      </trkpt>
      <trkpt lat="47.25067" lon="-2.30133">
        <ele>44.599998474121</ele>
        <time>2022-01-09T08:47:40.000Z</time>
      </trkpt>
      <trkpt lat="47.25066" lon="-2.30131">
        <ele>44.599998474121</ele>
        <time>2022-01-09T08:47:41.000Z</time>
      </trkpt>
      <trkpt lat="47.25067" lon="-2.30128">
        <ele>44.599998474121</ele>
        <time>2022-01-09T08:47:45.000Z</time>
      </trkpt>
      <trkpt lat="47.25067" lon="-2.30127">
        <ele>44.599998474121</ele>
        <time>2022-01-09T08:49:06.000Z</time>
      </trkpt>
      <trkpt lat="47.25068" lon="-2.30118">
        <ele>44.599998474121</ele>
        <time>2022-01-09T08:49:09.000Z</time>
      </trkpt>
      <trkpt lat="47.25069" lon="-2.30114">
        <ele>45.200000762939</ele>
        <time>2022-01-09T08:49:10.000Z</time>
      </trkpt>
      <trkpt lat="47.25069" lon="-2.30109">
        <ele>45.599998474121</ele>
        <time>2022-01-09T08:49:11.000Z</time>
      </trkpt>
      <trkpt lat="47.25069" lon="-2.30103">
        <ele>46</ele>
        <time>2022-01-09T08:49:12.000Z</time>
      </trkpt>
      <trkpt lat="47.25069" lon="-2.30098">
        <ele>46.400001525879</ele>
        <time>2022-01-09T08:49:13.000Z</time>
      </trkpt>
      <trkpt lat="47.2507" lon="-2.30093">
        <ele>46.799999237061</ele>
        <time>2022-01-09T08:49:14.000Z</time>
      </trkpt>
      <trkpt lat="47.25073" lon="-2.30066">
        <ele>46.799999237061</ele>
        <time>2022-01-09T08:49:20.000Z</time>
      </trkpt>
      <trkpt lat="47.25069" lon="-2.30056">
        <ele>46.799999237061</ele>
        <time>2022-01-09T08:49:24.000Z</time>
      </trkpt>
      <trkpt lat="47.25052" lon="-2.30055">
        <ele>46.799999237061</ele>
        <time>2022-01-09T08:49:30.000Z</time>
      </trkpt>
      <trkpt lat="47.25026" lon="-2.30052">
        <ele>46.799999237061</ele>
        <time>2022-01-09T08:49:37.000Z</time>
      </trkpt>
      <trkpt lat="47.25003" lon="-2.30052">
        <ele>47.200000762939</ele>
        <time>2022-01-09T08:49:43.000Z</time>
      </trkpt>
      <trkpt lat="47.25" lon="-2.30053">
        <ele>47.599998474121</ele>
        <time>2022-01-09T08:49:44.000Z</time>
      </trkpt>
      <trkpt lat="47.24996" lon="-2.30053">
        <ele>48</ele>
        <time>2022-01-09T08:49:45.000Z</time>
      </trkpt>
      <trkpt lat="47.24992" lon="-2.30054">
        <ele>48.400001525879</ele>
        <time>2022-01-09T08:49:46.000Z</time>
      </trkpt>
      <trkpt lat="47.24989" lon="-2.30055">
        <ele>48.799999237061</ele>
        <time>2022-01-09T08:49:47.000Z</time>
      </trkpt>
      <trkpt lat="47.24982" lon="-2.30055">
        <ele>48.799999237061</ele>
        <time>2022-01-09T08:49:49.000Z</time>
      </trkpt>
      <trkpt lat="47.24954" lon="-2.30055">
        <ele>48.799999237061</ele>
        <time>2022-01-09T08:49:56.000Z</time>
      </trkpt>
      <trkpt lat="47.24927" lon="-2.30056">
        <ele>48.799999237061</ele>
        <time>2022-01-09T08:50:03.000Z</time>
      </trkpt>
      <trkpt lat="47.24904" lon="-2.30051">
        <ele>48.799999237061</ele>
        <time>2022-01-09T08:50:09.000Z</time>
      </trkpt>
      <trkpt lat="47.24903" lon="-2.30036">
        <ele>48.799999237061</ele>
        <time>2022-01-09T08:50:12.000Z</time>
      </trkpt>
      <trkpt lat="47.249" lon="-2.30005">
        <ele>48.799999237061</ele>
        <time>2022-01-09T08:50:17.000Z</time>
      </trkpt>
      <trkpt lat="47.24898" lon="-2.29998">
        <ele>48.799999237061</ele>
        <time>2022-01-09T08:50:18.000Z</time>
      </trkpt>
      <trkpt lat="47.24887" lon="-2.29952">
        <ele>48.799999237061</ele>
        <time>2022-01-09T08:50:25.000Z</time>
      </trkpt>
      <trkpt lat="47.2488" lon="-2.29919">
        <ele>48.799999237061</ele>
        <time>2022-01-09T08:50:30.000Z</time>
      </trkpt>
      <trkpt lat="47.24879" lon="-2.29912">
        <ele>48.799999237061</ele>
        <time>2022-01-09T08:50:31.000Z</time>
      </trkpt>
      <trkpt lat="47.24875" lon="-2.29867">
        <ele>48.799999237061</ele>
        <time>2022-01-09T08:50:38.000Z</time>
      </trkpt>
      <trkpt lat="47.24873" lon="-2.2986">
        <ele>48.799999237061</ele>
        <time>2022-01-09T08:50:39.000Z</time>
      </trkpt>
      <trkpt lat="47.2487" lon="-2.29842">
        <ele>49.200000762939</ele>
        <time>2022-01-09T08:50:42.000Z</time>
      </trkpt>
      <trkpt lat="47.24869" lon="-2.29838">
        <ele>49.599998474121</ele>
        <time>2022-01-09T08:50:43.000Z</time>
      </trkpt>
      <trkpt lat="47.24868" lon="-2.29835">
        <ele>50</ele>
        <time>2022-01-09T08:50:44.000Z</time>
      </trkpt>
      <trkpt lat="47.24867" lon="-2.29832">
        <ele>50.400001525879</ele>
        <time>2022-01-09T08:50:45.000Z</time>
      </trkpt>
      <trkpt lat="47.24864" lon="-2.29831">
        <ele>50.799999237061</ele>
        <time>2022-01-09T08:50:46.000Z</time>
      </trkpt>
      <trkpt lat="47.24861" lon="-2.29832">
        <ele>50.799999237061</ele>
        <time>2022-01-09T08:50:47.000Z</time>
      </trkpt>
      <trkpt lat="47.24854" lon="-2.29837">
        <ele>50.799999237061</ele>
        <time>2022-01-09T08:50:49.000Z</time>
      </trkpt>
      <trkpt lat="47.24845" lon="-2.29842">
        <ele>50.799999237061</ele>
        <time>2022-01-09T08:50:51.000Z</time>
      </trkpt>
      <trkpt lat="47.2484" lon="-2.29844">
        <ele>50.799999237061</ele>
        <time>2022-01-09T08:50:52.000Z</time>
      </trkpt>
      <trkpt lat="47.24826" lon="-2.29849">
        <ele>50.799999237061</ele>
        <time>2022-01-09T08:50:55.000Z</time>
      </trkpt>
      <trkpt lat="47.24805" lon="-2.29856">
        <ele>50.799999237061</ele>
        <time>2022-01-09T08:50:59.000Z</time>
      </trkpt>
      <trkpt lat="47.24789" lon="-2.29865">
        <ele>50.799999237061</ele>
        <time>2022-01-09T08:51:02.000Z</time>
      </trkpt>
      <trkpt lat="47.24762" lon="-2.29885">
        <ele>50.799999237061</ele>
        <time>2022-01-09T08:51:08.000Z</time>
      </trkpt>
      <trkpt lat="47.24751" lon="-2.29897">
        <ele>50.799999237061</ele>
        <time>2022-01-09T08:51:11.000Z</time>
      </trkpt>
      <trkpt lat="47.24748" lon="-2.2991">
        <ele>50.799999237061</ele>
        <time>2022-01-09T08:51:13.000Z</time>
      </trkpt>
      <trkpt lat="47.24748" lon="-2.29924">
        <ele>50.799999237061</ele>
        <time>2022-01-09T08:51:15.000Z</time>
      </trkpt>
      <trkpt lat="47.24747" lon="-2.29947">
        <ele>50.799999237061</ele>
        <time>2022-01-09T08:51:18.000Z</time>
      </trkpt>
      <trkpt lat="47.24746" lon="-2.29963">
        <ele>50.799999237061</ele>
        <time>2022-01-09T08:51:20.000Z</time>
      </trkpt>
      <trkpt lat="47.24742" lon="-2.29987">
        <ele>50.799999237061</ele>
        <time>2022-01-09T08:51:23.000Z</time>
      </trkpt>
      <trkpt lat="47.24729" lon="-2.30012">
        <ele>50.799999237061</ele>
        <time>2022-01-09T08:51:27.000Z</time>
      </trkpt>
      <trkpt lat="47.24725" lon="-2.30017">
        <ele>50.400001525879</ele>
        <time>2022-01-09T08:51:28.000Z</time>
      </trkpt>
      <trkpt lat="47.2472" lon="-2.30022">
        <ele>50</ele>
        <time>2022-01-09T08:51:29.000Z</time>
      </trkpt>
      <trkpt lat="47.24716" lon="-2.30026">
        <ele>49.599998474121</ele>
        <time>2022-01-09T08:51:30.000Z</time>
      </trkpt>
      <trkpt lat="47.24712" lon="-2.30031">
        <ele>49.200000762939</ele>
        <time>2022-01-09T08:51:31.000Z</time>
      </trkpt>
      <trkpt lat="47.24708" lon="-2.30036">
        <ele>48.799999237061</ele>
        <time>2022-01-09T08:51:32.000Z</time>
      </trkpt>
      <trkpt lat="47.24699" lon="-2.30044">
        <ele>48.799999237061</ele>
        <time>2022-01-09T08:51:34.000Z</time>
      </trkpt>
      <trkpt lat="47.24684" lon="-2.30054">
        <ele>48.799999237061</ele>
        <time>2022-01-09T08:51:37.000Z</time>
      </trkpt>
      <trkpt lat="47.24679" lon="-2.30058">
        <ele>48.799999237061</ele>
        <time>2022-01-09T08:51:38.000Z</time>
      </trkpt>
      <trkpt lat="47.24669" lon="-2.30065">
        <ele>48.799999237061</ele>
        <time>2022-01-09T08:51:40.000Z</time>
      </trkpt>
      <trkpt lat="47.24658" lon="-2.30075">
        <ele>48.799999237061</ele>
        <time>2022-01-09T08:51:43.000Z</time>
      </trkpt>
      <trkpt lat="47.24652" lon="-2.30081">
        <ele>48.200000762939</ele>
        <time>2022-01-09T08:51:45.000Z</time>
      </trkpt>
      <trkpt lat="47.2465" lon="-2.30085">
        <ele>47.799999237061</ele>
        <time>2022-01-09T08:51:46.000Z</time>
      </trkpt>
      <trkpt lat="47.24648" lon="-2.30088">
        <ele>47.400001525879</ele>
        <time>2022-01-09T08:51:47.000Z</time>
      </trkpt>
      <trkpt lat="47.24645" lon="-2.30091">
        <ele>47</ele>
        <time>2022-01-09T08:51:48.000Z</time>
      </trkpt>
      <trkpt lat="47.24641" lon="-2.30094">
        <ele>46.599998474121</ele>
        <time>2022-01-09T08:51:49.000Z</time>
      </trkpt>
      <trkpt lat="47.2462" lon="-2.30115">
        <ele>46.599998474121</ele>
        <time>2022-01-09T08:51:55.000Z</time>
      </trkpt>
      <trkpt lat="47.24594" lon="-2.30144">
        <ele>46.599998474121</ele>
        <time>2022-01-09T08:52:02.000Z</time>
      </trkpt>
      <trkpt lat="47.24569" lon="-2.30183">
        <ele>46.599998474121</ele>
        <time>2022-01-09T08:52:09.000Z</time>
      </trkpt>
      <trkpt lat="47.24543" lon="-2.30213">
        <ele>46.599998474121</ele>
        <time>2022-01-09T08:52:15.000Z</time>
      </trkpt>
      <trkpt lat="47.24539" lon="-2.30218">
        <ele>46.599998474121</ele>
        <time>2022-01-09T08:52:16.000Z</time>
      </trkpt>
      <trkpt lat="47.24504" lon="-2.3025">
        <ele>46.200000762939</ele>
        <time>2022-01-09T08:52:23.000Z</time>
      </trkpt>
      <trkpt lat="47.24498" lon="-2.30254">
        <ele>45.599998474121</ele>
        <time>2022-01-09T08:52:24.000Z</time>
      </trkpt>
      <trkpt lat="47.24492" lon="-2.30259">
        <ele>45.200000762939</ele>
        <time>2022-01-09T08:52:25.000Z</time>
      </trkpt>
      <trkpt lat="47.24487" lon="-2.30265">
        <ele>44.799999237061</ele>
        <time>2022-01-09T08:52:26.000Z</time>
      </trkpt>
      <trkpt lat="47.24482" lon="-2.30271">
        <ele>44.400001525879</ele>
        <time>2022-01-09T08:52:27.000Z</time>
      </trkpt>
      <trkpt lat="47.24478" lon="-2.30277">
        <ele>44.400001525879</ele>
        <time>2022-01-09T08:52:28.000Z</time>
      </trkpt>
      <trkpt lat="47.24469" lon="-2.30303">
        <ele>44</ele>
        <time>2022-01-09T08:52:31.000Z</time>
      </trkpt>
      <trkpt lat="47.24468" lon="-2.30313">
        <ele>43.599998474121</ele>
        <time>2022-01-09T08:52:32.000Z</time>
      </trkpt>
      <trkpt lat="47.24467" lon="-2.30323">
        <ele>43.200000762939</ele>
        <time>2022-01-09T08:52:33.000Z</time>
      </trkpt>
      <trkpt lat="47.24466" lon="-2.30333">
        <ele>42.799999237061</ele>
        <time>2022-01-09T08:52:34.000Z</time>
      </trkpt>
      <trkpt lat="47.24466" lon="-2.30342">
        <ele>42.400001525879</ele>
        <time>2022-01-09T08:52:35.000Z</time>
      </trkpt>
      <trkpt lat="47.24466" lon="-2.3035">
        <ele>42.400001525879</ele>
        <time>2022-01-09T08:52:36.000Z</time>
      </trkpt>
      <trkpt lat="47.24465" lon="-2.3036">
        <ele>42.400001525879</ele>
        <time>2022-01-09T08:52:37.000Z</time>
      </trkpt>
      <trkpt lat="47.24463" lon="-2.30397">
        <ele>41.799999237061</ele>
        <time>2022-01-09T08:52:41.000Z</time>
      </trkpt>
      <trkpt lat="47.24462" lon="-2.30407">
        <ele>41.400001525879</ele>
        <time>2022-01-09T08:52:42.000Z</time>
      </trkpt>
      <trkpt lat="47.24462" lon="-2.30417">
        <ele>41</ele>
        <time>2022-01-09T08:52:43.000Z</time>
      </trkpt>
      <trkpt lat="47.24462" lon="-2.30428">
        <ele>40.599998474121</ele>
        <time>2022-01-09T08:52:44.000Z</time>
      </trkpt>
      <trkpt lat="47.24462" lon="-2.30439">
        <ele>40.200000762939</ele>
        <time>2022-01-09T08:52:45.000Z</time>
      </trkpt>
      <trkpt lat="47.24464" lon="-2.3046">
        <ele>39.599998474121</ele>
        <time>2022-01-09T08:52:47.000Z</time>
      </trkpt>
      <trkpt lat="47.24467" lon="-2.30469">
        <ele>39.200000762939</ele>
        <time>2022-01-09T08:52:48.000Z</time>
      </trkpt>
      <trkpt lat="47.2447" lon="-2.30476">
        <ele>38.799999237061</ele>
        <time>2022-01-09T08:52:49.000Z</time>
      </trkpt>
      <trkpt lat="47.24473" lon="-2.30483">
        <ele>38.200000762939</ele>
        <time>2022-01-09T08:52:50.000Z</time>
      </trkpt>
      <trkpt lat="47.24476" lon="-2.30491">
        <ele>37.799999237061</ele>
        <time>2022-01-09T08:52:51.000Z</time>
      </trkpt>
      <trkpt lat="47.24479" lon="-2.305">
        <ele>37.799999237061</ele>
        <time>2022-01-09T08:52:52.000Z</time>
      </trkpt>
      <trkpt lat="47.24478" lon="-2.30524">
        <ele>37.799999237061</ele>
        <time>2022-01-09T08:52:55.000Z</time>
      </trkpt>
      <trkpt lat="47.24475" lon="-2.3054">
        <ele>37.799999237061</ele>
        <time>2022-01-09T08:52:57.000Z</time>
      </trkpt>
      <trkpt lat="47.2447" lon="-2.30562">
        <ele>37.799999237061</ele>
        <time>2022-01-09T08:53:00.000Z</time>
      </trkpt>
      <trkpt lat="47.24468" lon="-2.30569">
        <ele>37.799999237061</ele>
        <time>2022-01-09T08:53:01.000Z</time>
      </trkpt>
      <trkpt lat="47.24462" lon="-2.30588">
        <ele>37.799999237061</ele>
        <time>2022-01-09T08:53:04.000Z</time>
      </trkpt>
      <trkpt lat="47.24456" lon="-2.30598">
        <ele>37.799999237061</ele>
        <time>2022-01-09T08:53:06.000Z</time>
      </trkpt>
      <trkpt lat="47.24453" lon="-2.30602">
        <ele>37.799999237061</ele>
        <time>2022-01-09T08:53:07.000Z</time>
      </trkpt>
      <trkpt lat="47.24441" lon="-2.30617">
        <ele>37.799999237061</ele>
        <time>2022-01-09T08:53:11.000Z</time>
      </trkpt>
      <trkpt lat="47.24437" lon="-2.3062">
        <ele>37.799999237061</ele>
        <time>2022-01-09T08:53:12.000Z</time>
      </trkpt>
      <trkpt lat="47.24429" lon="-2.30628">
        <ele>37.799999237061</ele>
        <time>2022-01-09T08:53:14.000Z</time>
      </trkpt>
      <trkpt lat="47.24426" lon="-2.30633">
        <ele>38.200000762939</ele>
        <time>2022-01-09T08:53:15.000Z</time>
      </trkpt>
      <trkpt lat="47.24424" lon="-2.30638">
        <ele>38.599998474121</ele>
        <time>2022-01-09T08:53:16.000Z</time>
      </trkpt>
      <trkpt lat="47.24422" lon="-2.30644">
        <ele>39</ele>
        <time>2022-01-09T08:53:17.000Z</time>
      </trkpt>
      <trkpt lat="47.2442" lon="-2.3065">
        <ele>39.400001525879</ele>
        <time>2022-01-09T08:53:18.000Z</time>
      </trkpt>
      <trkpt lat="47.24419" lon="-2.30656">
        <ele>39.799999237061</ele>
        <time>2022-01-09T08:53:19.000Z</time>
      </trkpt>
      <trkpt lat="47.24415" lon="-2.30669">
        <ele>39.799999237061</ele>
        <time>2022-01-09T08:53:21.000Z</time>
      </trkpt>
      <trkpt lat="47.24409" lon="-2.3069">
        <ele>39.799999237061</ele>
        <time>2022-01-09T08:53:24.000Z</time>
      </trkpt>
      <trkpt lat="47.24404" lon="-2.30704">
        <ele>39.799999237061</ele>
        <time>2022-01-09T08:53:26.000Z</time>
      </trkpt>
      <trkpt lat="47.24399" lon="-2.30731">
        <ele>39.799999237061</ele>
        <time>2022-01-09T08:53:30.000Z</time>
      </trkpt>
      <trkpt lat="47.244" lon="-2.30746">
        <ele>39.799999237061</ele>
        <time>2022-01-09T08:53:32.000Z</time>
      </trkpt>
      <trkpt lat="47.24399" lon="-2.30753">
        <ele>39.799999237061</ele>
        <time>2022-01-09T08:53:33.000Z</time>
      </trkpt>
      <trkpt lat="47.24399" lon="-2.30767">
        <ele>39.799999237061</ele>
        <time>2022-01-09T08:53:35.000Z</time>
      </trkpt>
      <trkpt lat="47.24398" lon="-2.308">
        <ele>39.799999237061</ele>
        <time>2022-01-09T08:53:39.000Z</time>
      </trkpt>
      <trkpt lat="47.24399" lon="-2.30817">
        <ele>39.799999237061</ele>
        <time>2022-01-09T08:53:41.000Z</time>
      </trkpt>
      <trkpt lat="47.24395" lon="-2.30864">
        <ele>39.799999237061</ele>
        <time>2022-01-09T08:53:46.000Z</time>
      </trkpt>
      <trkpt lat="47.24392" lon="-2.30872">
        <ele>39.799999237061</ele>
        <time>2022-01-09T08:53:47.000Z</time>
      </trkpt>
      <trkpt lat="47.2438" lon="-2.30892">
        <ele>39.400001525879</ele>
        <time>2022-01-09T08:53:50.000Z</time>
      </trkpt>
      <trkpt lat="47.24374" lon="-2.30897">
        <ele>38.799999237061</ele>
        <time>2022-01-09T08:53:51.000Z</time>
      </trkpt>
      <trkpt lat="47.24368" lon="-2.30901">
        <ele>38.400001525879</ele>
        <time>2022-01-09T08:53:52.000Z</time>
      </trkpt>
      <trkpt lat="47.24363" lon="-2.30906">
        <ele>37.599998474121</ele>
        <time>2022-01-09T08:53:53.000Z</time>
      </trkpt>
      <trkpt lat="47.24359" lon="-2.30913">
        <ele>37</ele>
        <time>2022-01-09T08:53:54.000Z</time>
      </trkpt>
      <trkpt lat="47.24356" lon="-2.3092">
        <ele>36.400001525879</ele>
        <time>2022-01-09T08:53:55.000Z</time>
      </trkpt>
      <trkpt lat="47.24355" lon="-2.30927">
        <ele>35.599998474121</ele>
        <time>2022-01-09T08:53:56.000Z</time>
      </trkpt>
      <trkpt lat="47.24357" lon="-2.30933">
        <ele>35</ele>
        <time>2022-01-09T08:53:57.000Z</time>
      </trkpt>
      <trkpt lat="47.24369" lon="-2.30954">
        <ele>35</ele>
        <time>2022-01-09T08:54:01.000Z</time>
      </trkpt>
      <trkpt lat="47.24384" lon="-2.30961">
        <ele>35</ele>
        <time>2022-01-09T08:54:04.000Z</time>
      </trkpt>
      <trkpt lat="47.24388" lon="-2.30962">
        <ele>35</ele>
        <time>2022-01-09T08:54:05.000Z</time>
      </trkpt>
      <trkpt lat="47.244" lon="-2.30969">
        <ele>35</ele>
        <time>2022-01-09T08:54:09.000Z</time>
      </trkpt>
      <trkpt lat="47.24401" lon="-2.30973">
        <ele>35</ele>
        <time>2022-01-09T08:54:10.000Z</time>
      </trkpt>
      <trkpt lat="47.24405" lon="-2.30987">
        <ele>35</ele>
        <time>2022-01-09T08:54:13.000Z</time>
      </trkpt>
      <trkpt lat="47.24406" lon="-2.30993">
        <ele>35</ele>
        <time>2022-01-09T08:54:14.000Z</time>
      </trkpt>
      <trkpt lat="47.24408" lon="-2.31033">
        <ele>35</ele>
        <time>2022-01-09T08:54:21.000Z</time>
      </trkpt>
      <trkpt lat="47.24409" lon="-2.31071">
        <ele>35</ele>
        <time>2022-01-09T08:54:27.000Z</time>
      </trkpt>
      <trkpt lat="47.24409" lon="-2.31085">
        <ele>35</ele>
        <time>2022-01-09T08:54:29.000Z</time>
      </trkpt>
      <trkpt lat="47.24409" lon="-2.31115">
        <ele>35</ele>
        <time>2022-01-09T08:54:33.000Z</time>
      </trkpt>
      <trkpt lat="47.24408" lon="-2.31157">
        <ele>34.599998474121</ele>
        <time>2022-01-09T08:54:38.000Z</time>
      </trkpt>
      <trkpt lat="47.24408" lon="-2.31166">
        <ele>34</ele>
        <time>2022-01-09T08:54:39.000Z</time>
      </trkpt>
      <trkpt lat="47.24408" lon="-2.31173">
        <ele>33.599998474121</ele>
        <time>2022-01-09T08:54:40.000Z</time>
      </trkpt>
      <trkpt lat="47.24407" lon="-2.31178">
        <ele>33</ele>
        <time>2022-01-09T08:54:41.000Z</time>
      </trkpt>
      <trkpt lat="47.24408" lon="-2.31183">
        <ele>32.400001525879</ele>
        <time>2022-01-09T08:54:42.000Z</time>
      </trkpt>
      <trkpt lat="47.24409" lon="-2.31187">
        <ele>31.799999237061</ele>
        <time>2022-01-09T08:54:43.000Z</time>
      </trkpt>
      <trkpt lat="47.2441" lon="-2.31189">
        <ele>31</ele>
        <time>2022-01-09T08:54:44.000Z</time>
      </trkpt>
      <trkpt lat="47.24411" lon="-2.31191">
        <ele>30.39999961853</ele>
        <time>2022-01-09T08:54:45.000Z</time>
      </trkpt>
      <trkpt lat="47.24412" lon="-2.31194">
        <ele>29.799999237061</ele>
        <time>2022-01-09T08:54:46.000Z</time>
      </trkpt>
      <trkpt lat="47.24415" lon="-2.31201">
        <ele>29.200000762939</ele>
        <time>2022-01-09T08:54:48.000Z</time>
      </trkpt>
      <trkpt lat="47.24418" lon="-2.31205">
        <ele>28.799999237061</ele>
        <time>2022-01-09T08:54:49.000Z</time>
      </trkpt>
      <trkpt lat="47.2442" lon="-2.31209">
        <ele>28.39999961853</ele>
        <time>2022-01-09T08:54:50.000Z</time>
      </trkpt>
      <trkpt lat="47.24423" lon="-2.31214">
        <ele>27.799999237061</ele>
        <time>2022-01-09T08:54:51.000Z</time>
      </trkpt>
      <trkpt lat="47.24427" lon="-2.31218">
        <ele>27.39999961853</ele>
        <time>2022-01-09T08:54:52.000Z</time>
      </trkpt>
      <trkpt lat="47.24435" lon="-2.3122">
        <ele>27</ele>
        <time>2022-01-09T08:54:54.000Z</time>
      </trkpt>
      <trkpt lat="47.24438" lon="-2.3122">
        <ele>26.60000038147</ele>
        <time>2022-01-09T08:54:55.000Z</time>
      </trkpt>
      <trkpt lat="47.2444" lon="-2.3122">
        <ele>26.200000762939</ele>
        <time>2022-01-09T08:54:56.000Z</time>
      </trkpt>
      <trkpt lat="47.24441" lon="-2.31219">
        <ele>25.799999237061</ele>
        <time>2022-01-09T08:54:57.000Z</time>
      </trkpt>
      <trkpt lat="47.24443" lon="-2.31218">
        <ele>25.39999961853</ele>
        <time>2022-01-09T08:54:58.000Z</time>
      </trkpt>
      <trkpt lat="47.24446" lon="-2.31218">
        <ele>25.799999237061</ele>
        <time>2022-01-09T08:55:00.000Z</time>
      </trkpt>
      <trkpt lat="47.24446" lon="-2.31221">
        <ele>26.200000762939</ele>
        <time>2022-01-09T08:55:01.000Z</time>
      </trkpt>
      <trkpt lat="47.24446" lon="-2.31222">
        <ele>26.60000038147</ele>
        <time>2022-01-09T08:55:02.000Z</time>
      </trkpt>
      <trkpt lat="47.24446" lon="-2.31222">
        <ele>27</ele>
        <time>2022-01-09T08:55:03.000Z</time>
      </trkpt>
      <trkpt lat="47.24446" lon="-2.31223">
        <ele>27.39999961853</ele>
        <time>2022-01-09T08:55:04.000Z</time>
      </trkpt>
      <trkpt lat="47.24452" lon="-2.31227">
        <ele>27.39999961853</ele>
        <time>2022-01-09T08:55:11.000Z</time>
      </trkpt>
      <trkpt lat="47.24455" lon="-2.31231">
        <ele>27.39999961853</ele>
        <time>2022-01-09T08:55:13.000Z</time>
      </trkpt>
      <trkpt lat="47.24461" lon="-2.3125">
        <ele>27.39999961853</ele>
        <time>2022-01-09T08:55:18.000Z</time>
      </trkpt>
      <trkpt lat="47.24461" lon="-2.31259">
        <ele>27.799999237061</ele>
        <time>2022-01-09T08:55:20.000Z</time>
      </trkpt>
      <trkpt lat="47.24461" lon="-2.31263">
        <ele>28.200000762939</ele>
        <time>2022-01-09T08:55:21.000Z</time>
      </trkpt>
      <trkpt lat="47.24459" lon="-2.31266">
        <ele>28.60000038147</ele>
        <time>2022-01-09T08:55:22.000Z</time>
      </trkpt>
      <trkpt lat="47.24456" lon="-2.31269">
        <ele>29</ele>
        <time>2022-01-09T08:55:23.000Z</time>
      </trkpt>
      <trkpt lat="47.24452" lon="-2.31272">
        <ele>29.39999961853</ele>
        <time>2022-01-09T08:55:24.000Z</time>
      </trkpt>
      <trkpt lat="47.24449" lon="-2.31276">
        <ele>29.39999961853</ele>
        <time>2022-01-09T08:55:25.000Z</time>
      </trkpt>
      <trkpt lat="47.24445" lon="-2.31281">
        <ele>29.39999961853</ele>
        <time>2022-01-09T08:55:26.000Z</time>
      </trkpt>
      <trkpt lat="47.24441" lon="-2.31284">
        <ele>29.39999961853</ele>
        <time>2022-01-09T08:55:27.000Z</time>
      </trkpt>
      <trkpt lat="47.24431" lon="-2.3129">
        <ele>29</ele>
        <time>2022-01-09T08:55:29.000Z</time>
      </trkpt>
      <trkpt lat="47.24426" lon="-2.31293">
        <ele>28.60000038147</ele>
        <time>2022-01-09T08:55:30.000Z</time>
      </trkpt>
      <trkpt lat="47.24421" lon="-2.31297">
        <ele>28.200000762939</ele>
        <time>2022-01-09T08:55:31.000Z</time>
      </trkpt>
      <trkpt lat="47.24417" lon="-2.31302">
        <ele>27.60000038147</ele>
        <time>2022-01-09T08:55:32.000Z</time>
      </trkpt>
      <trkpt lat="47.24412" lon="-2.31306">
        <ele>27.200000762939</ele>
        <time>2022-01-09T08:55:33.000Z</time>
      </trkpt>
      <trkpt lat="47.24402" lon="-2.31314">
        <ele>27.200000762939</ele>
        <time>2022-01-09T08:55:35.000Z</time>
      </trkpt>
      <trkpt lat="47.2438" lon="-2.31331">
        <ele>26.799999237061</ele>
        <time>2022-01-09T08:55:39.000Z</time>
      </trkpt>
      <trkpt lat="47.24376" lon="-2.31335">
        <ele>26.39999961853</ele>
        <time>2022-01-09T08:55:40.000Z</time>
      </trkpt>
      <trkpt lat="47.24372" lon="-2.31338">
        <ele>25.799999237061</ele>
        <time>2022-01-09T08:55:41.000Z</time>
      </trkpt>
      <trkpt lat="47.24368" lon="-2.3134">
        <ele>25.39999961853</ele>
        <time>2022-01-09T08:55:42.000Z</time>
      </trkpt>
      <trkpt lat="47.24365" lon="-2.3134">
        <ele>25</ele>
        <time>2022-01-09T08:55:43.000Z</time>
      </trkpt>
      <trkpt lat="47.24364" lon="-2.3134">
        <ele>25</ele>
        <time>2022-01-09T08:55:44.000Z</time>
      </trkpt>
      <trkpt lat="47.24363" lon="-2.31339">
        <ele>24.60000038147</ele>
        <time>2022-01-09T08:55:45.000Z</time>
      </trkpt>
      <trkpt lat="47.24364" lon="-2.31339">
        <ele>24.200000762939</ele>
        <time>2022-01-09T08:55:46.000Z</time>
      </trkpt>
      <trkpt lat="47.2436" lon="-2.31336">
        <ele>22.799999237061</ele>
        <time>2022-01-09T08:55:50.000Z</time>
      </trkpt>
      <trkpt lat="47.24358" lon="-2.31333">
        <ele>22.799999237061</ele>
        <time>2022-01-09T08:55:51.000Z</time>
      </trkpt>
      <trkpt lat="47.2435" lon="-2.31314">
        <ele>22.799999237061</ele>
        <time>2022-01-09T08:55:55.000Z</time>
      </trkpt>
      <trkpt lat="47.24335" lon="-2.31273">
        <ele>22.799999237061</ele>
        <time>2022-01-09T08:56:03.000Z</time>
      </trkpt>
      <trkpt lat="47.24325" lon="-2.31244">
        <ele>22.799999237061</ele>
        <time>2022-01-09T08:56:10.000Z</time>
      </trkpt>
      <trkpt lat="47.24318" lon="-2.31237">
        <ele>22.799999237061</ele>
        <time>2022-01-09T08:56:13.000Z</time>
      </trkpt>
      <trkpt lat="47.24314" lon="-2.31236">
        <ele>22.799999237061</ele>
        <time>2022-01-09T08:56:14.000Z</time>
      </trkpt>
      <trkpt lat="47.24301" lon="-2.31241">
        <ele>22.799999237061</ele>
        <time>2022-01-09T08:56:17.000Z</time>
      </trkpt>
      <trkpt lat="47.24296" lon="-2.31244">
        <ele>22.799999237061</ele>
        <time>2022-01-09T08:56:18.000Z</time>
      </trkpt>
      <trkpt lat="47.24284" lon="-2.3125">
        <ele>22.799999237061</ele>
        <time>2022-01-09T08:56:21.000Z</time>
      </trkpt>
      <trkpt lat="47.24255" lon="-2.31264">
        <ele>22.799999237061</ele>
        <time>2022-01-09T08:56:27.000Z</time>
      </trkpt>
      <trkpt lat="47.2425" lon="-2.31262">
        <ele>22.799999237061</ele>
        <time>2022-01-09T08:56:28.000Z</time>
      </trkpt>
      <trkpt lat="47.2424" lon="-2.31245">
        <ele>22.799999237061</ele>
        <time>2022-01-09T08:56:31.000Z</time>
      </trkpt>
      <trkpt lat="47.24222" lon="-2.31208">
        <ele>22.39999961853</ele>
        <time>2022-01-09T08:56:37.000Z</time>
      </trkpt>
      <trkpt lat="47.24219" lon="-2.31202">
        <ele>21.60000038147</ele>
        <time>2022-01-09T08:56:38.000Z</time>
      </trkpt>
      <trkpt lat="47.24216" lon="-2.31195">
        <ele>21.200000762939</ele>
        <time>2022-01-09T08:56:39.000Z</time>
      </trkpt>
      <trkpt lat="47.24213" lon="-2.31189">
        <ele>20.799999237061</ele>
        <time>2022-01-09T08:56:40.000Z</time>
      </trkpt>
      <trkpt lat="47.24188" lon="-2.31142">
        <ele>20.799999237061</ele>
        <time>2022-01-09T08:56:48.000Z</time>
      </trkpt>
      <trkpt lat="47.24167" lon="-2.31105">
        <ele>20.799999237061</ele>
        <time>2022-01-09T08:56:55.000Z</time>
      </trkpt>
      <trkpt lat="47.24146" lon="-2.31069">
        <ele>20.799999237061</ele>
        <time>2022-01-09T08:57:01.000Z</time>
      </trkpt>
      <trkpt lat="47.24126" lon="-2.31032">
        <ele>20.799999237061</ele>
        <time>2022-01-09T08:57:07.000Z</time>
      </trkpt>
      <trkpt lat="47.24123" lon="-2.31014">
        <ele>20.799999237061</ele>
        <time>2022-01-09T08:57:10.000Z</time>
      </trkpt>
      <trkpt lat="47.24132" lon="-2.30999">
        <ele>20.799999237061</ele>
        <time>2022-01-09T08:57:13.000Z</time>
      </trkpt>
      <trkpt lat="47.2415" lon="-2.30965">
        <ele>20.799999237061</ele>
        <time>2022-01-09T08:57:19.000Z</time>
      </trkpt>
      <trkpt lat="47.24152" lon="-2.30959">
        <ele>20.799999237061</ele>
        <time>2022-01-09T08:57:20.000Z</time>
      </trkpt>
      <trkpt lat="47.24167" lon="-2.30932">
        <ele>20.799999237061</ele>
        <time>2022-01-09T08:57:25.000Z</time>
      </trkpt>
      <trkpt lat="47.24173" lon="-2.30921">
        <ele>21.200000762939</ele>
        <time>2022-01-09T08:57:27.000Z</time>
      </trkpt>
      <trkpt lat="47.24175" lon="-2.30916">
        <ele>21.60000038147</ele>
        <time>2022-01-09T08:57:28.000Z</time>
      </trkpt>
      <trkpt lat="47.24178" lon="-2.3091">
        <ele>22.200000762939</ele>
        <time>2022-01-09T08:57:29.000Z</time>
      </trkpt>
      <trkpt lat="47.2418" lon="-2.30904">
        <ele>22.60000038147</ele>
        <time>2022-01-09T08:57:30.000Z</time>
      </trkpt>
      <trkpt lat="47.24184" lon="-2.30898">
        <ele>23</ele>
        <time>2022-01-09T08:57:31.000Z</time>
      </trkpt>
      <trkpt lat="47.24187" lon="-2.30893">
        <ele>23</ele>
        <time>2022-01-09T08:57:32.000Z</time>
      </trkpt>
      <trkpt lat="47.24197" lon="-2.30873">
        <ele>23</ele>
        <time>2022-01-09T08:57:36.000Z</time>
      </trkpt>
      <trkpt lat="47.242" lon="-2.30868">
        <ele>23.39999961853</ele>
        <time>2022-01-09T08:57:37.000Z</time>
      </trkpt>
      <trkpt lat="47.24202" lon="-2.30863">
        <ele>23.799999237061</ele>
        <time>2022-01-09T08:57:38.000Z</time>
      </trkpt>
      <trkpt lat="47.24205" lon="-2.30859">
        <ele>24.200000762939</ele>
        <time>2022-01-09T08:57:39.000Z</time>
      </trkpt>
      <trkpt lat="47.24208" lon="-2.30854">
        <ele>24.60000038147</ele>
        <time>2022-01-09T08:57:40.000Z</time>
      </trkpt>
      <trkpt lat="47.2421" lon="-2.30849">
        <ele>25</ele>
        <time>2022-01-09T08:57:41.000Z</time>
      </trkpt>
      <trkpt lat="47.24215" lon="-2.3084">
        <ele>25.39999961853</ele>
        <time>2022-01-09T08:57:43.000Z</time>
      </trkpt>
      <trkpt lat="47.24218" lon="-2.30836">
        <ele>25.799999237061</ele>
        <time>2022-01-09T08:57:44.000Z</time>
      </trkpt>
      <trkpt lat="47.2422" lon="-2.30831">
        <ele>26.39999961853</ele>
        <time>2022-01-09T08:57:45.000Z</time>
      </trkpt>
      <trkpt lat="47.24222" lon="-2.30827">
        <ele>26.799999237061</ele>
        <time>2022-01-09T08:57:46.000Z</time>
      </trkpt>
      <trkpt lat="47.24224" lon="-2.30822">
        <ele>27.39999961853</ele>
        <time>2022-01-09T08:57:47.000Z</time>
      </trkpt>
      <trkpt lat="47.24229" lon="-2.30812">
        <ele>27.799999237061</ele>
        <time>2022-01-09T08:57:49.000Z</time>
      </trkpt>
      <trkpt lat="47.24232" lon="-2.30808">
        <ele>28.200000762939</ele>
        <time>2022-01-09T08:57:50.000Z</time>
      </trkpt>
      <trkpt lat="47.24234" lon="-2.30803">
        <ele>29</ele>
        <time>2022-01-09T08:57:51.000Z</time>
      </trkpt>
      <trkpt lat="47.24236" lon="-2.308">
        <ele>29.39999961853</ele>
        <time>2022-01-09T08:57:52.000Z</time>
      </trkpt>
      <trkpt lat="47.24241" lon="-2.30798">
        <ele>29.39999961853</ele>
        <time>2022-01-09T08:57:54.000Z</time>
      </trkpt>
      <trkpt lat="47.24243" lon="-2.308">
        <ele>29.39999961853</ele>
        <time>2022-01-09T08:57:55.000Z</time>
      </trkpt>
      <trkpt lat="47.24247" lon="-2.30808">
        <ele>29.799999237061</ele>
        <time>2022-01-09T08:57:57.000Z</time>
      </trkpt>
      <trkpt lat="47.24249" lon="-2.30813">
        <ele>30.200000762939</ele>
        <time>2022-01-09T08:57:58.000Z</time>
      </trkpt>
      <trkpt lat="47.2425" lon="-2.30817">
        <ele>30.60000038147</ele>
        <time>2022-01-09T08:57:59.000Z</time>
      </trkpt>
      <trkpt lat="47.24252" lon="-2.30822">
        <ele>31</ele>
        <time>2022-01-09T08:58:00.000Z</time>
      </trkpt>
      <trkpt lat="47.24253" lon="-2.30827">
        <ele>31.39999961853</ele>
        <time>2022-01-09T08:58:01.000Z</time>
      </trkpt>
      <trkpt lat="47.24262" lon="-2.30846">
        <ele>31.39999961853</ele>
        <time>2022-01-09T08:58:05.000Z</time>
      </trkpt>
      <trkpt lat="47.24277" lon="-2.30863">
        <ele>31.39999961853</ele>
        <time>2022-01-09T08:58:10.000Z</time>
      </trkpt>
      <trkpt lat="47.24289" lon="-2.30861">
        <ele>31.39999961853</ele>
        <time>2022-01-09T08:58:15.000Z</time>
      </trkpt>
      <trkpt lat="47.24289" lon="-2.30857">
        <ele>31.799999237061</ele>
        <time>2022-01-09T08:58:16.000Z</time>
      </trkpt>
      <trkpt lat="47.24289" lon="-2.30854">
        <ele>32.200000762939</ele>
        <time>2022-01-09T08:58:17.000Z</time>
      </trkpt>
      <trkpt lat="47.24289" lon="-2.30849">
        <ele>32.799999237061</ele>
        <time>2022-01-09T08:58:18.000Z</time>
      </trkpt>
      <trkpt lat="47.24289" lon="-2.30844">
        <ele>33.200000762939</ele>
        <time>2022-01-09T08:58:19.000Z</time>
      </trkpt>
      <trkpt lat="47.2429" lon="-2.30841">
        <ele>33.599998474121</ele>
        <time>2022-01-09T08:58:20.000Z</time>
      </trkpt>
      <trkpt lat="47.24298" lon="-2.3082">
        <ele>33.599998474121</ele>
        <time>2022-01-09T08:58:25.000Z</time>
      </trkpt>
      <trkpt lat="47.24312" lon="-2.30807">
        <ele>33.599998474121</ele>
        <time>2022-01-09T08:58:30.000Z</time>
      </trkpt>
      <trkpt lat="47.24315" lon="-2.30805">
        <ele>34</ele>
        <time>2022-01-09T08:58:31.000Z</time>
      </trkpt>
      <trkpt lat="47.24319" lon="-2.30803">
        <ele>34.400001525879</ele>
        <time>2022-01-09T08:58:32.000Z</time>
      </trkpt>
      <trkpt lat="47.24323" lon="-2.30801">
        <ele>34.799999237061</ele>
        <time>2022-01-09T08:58:33.000Z</time>
      </trkpt>
      <trkpt lat="47.24327" lon="-2.308">
        <ele>35.200000762939</ele>
        <time>2022-01-09T08:58:34.000Z</time>
      </trkpt>
      <trkpt lat="47.24331" lon="-2.30798">
        <ele>35.599998474121</ele>
        <time>2022-01-09T08:58:35.000Z</time>
      </trkpt>
      <trkpt lat="47.24338" lon="-2.30797">
        <ele>35.599998474121</ele>
        <time>2022-01-09T08:58:37.000Z</time>
      </trkpt>
      <trkpt lat="47.24357" lon="-2.30792">
        <ele>35.599998474121</ele>
        <time>2022-01-09T08:58:43.000Z</time>
      </trkpt>
      <trkpt lat="47.24371" lon="-2.30782">
        <ele>36</ele>
        <time>2022-01-09T08:58:47.000Z</time>
      </trkpt>
      <trkpt lat="47.24374" lon="-2.30779">
        <ele>36.400001525879</ele>
        <time>2022-01-09T08:58:48.000Z</time>
      </trkpt>
      <trkpt lat="47.24377" lon="-2.30776">
        <ele>36.799999237061</ele>
        <time>2022-01-09T08:58:49.000Z</time>
      </trkpt>
      <trkpt lat="47.24379" lon="-2.30772">
        <ele>37.200000762939</ele>
        <time>2022-01-09T08:58:50.000Z</time>
      </trkpt>
      <trkpt lat="47.24381" lon="-2.30767">
        <ele>37.599998474121</ele>
        <time>2022-01-09T08:58:51.000Z</time>
      </trkpt>
      <trkpt lat="47.24387" lon="-2.30761">
        <ele>37.599998474121</ele>
        <time>2022-01-09T08:58:53.000Z</time>
      </trkpt>
      <trkpt lat="47.24392" lon="-2.30755">
        <ele>38</ele>
        <time>2022-01-09T08:58:55.000Z</time>
      </trkpt>
      <trkpt lat="47.24395" lon="-2.30753">
        <ele>38.400001525879</ele>
        <time>2022-01-09T08:58:56.000Z</time>
      </trkpt>
      <trkpt lat="47.24397" lon="-2.30751">
        <ele>38.799999237061</ele>
        <time>2022-01-09T08:58:57.000Z</time>
      </trkpt>
      <trkpt lat="47.24399" lon="-2.30747">
        <ele>39.400001525879</ele>
        <time>2022-01-09T08:58:58.000Z</time>
      </trkpt>
      <trkpt lat="47.244" lon="-2.30744">
        <ele>39.799999237061</ele>
        <time>2022-01-09T08:58:59.000Z</time>
      </trkpt>
      <trkpt lat="47.24402" lon="-2.30734">
        <ele>39.799999237061</ele>
        <time>2022-01-09T08:59:01.000Z</time>
      </trkpt>
      <trkpt lat="47.24402" lon="-2.30728">
        <ele>39.799999237061</ele>
        <time>2022-01-09T08:59:02.000Z</time>
      </trkpt>
      <trkpt lat="47.24405" lon="-2.30699">
        <ele>39.799999237061</ele>
        <time>2022-01-09T08:59:07.000Z</time>
      </trkpt>
      <trkpt lat="47.24407" lon="-2.30694">
        <ele>39.799999237061</ele>
        <time>2022-01-09T08:59:08.000Z</time>
      </trkpt>
      <trkpt lat="47.24413" lon="-2.3067">
        <ele>39.799999237061</ele>
        <time>2022-01-09T08:59:12.000Z</time>
      </trkpt>
      <trkpt lat="47.24413" lon="-2.30664">
        <ele>39.799999237061</ele>
        <time>2022-01-09T08:59:13.000Z</time>
      </trkpt>
      <trkpt lat="47.24423" lon="-2.30629">
        <ele>39.799999237061</ele>
        <time>2022-01-09T08:59:19.000Z</time>
      </trkpt>
      <trkpt lat="47.24436" lon="-2.30613">
        <ele>39.799999237061</ele>
        <time>2022-01-09T08:59:23.000Z</time>
      </trkpt>
      <trkpt lat="47.2444" lon="-2.3061">
        <ele>39.799999237061</ele>
        <time>2022-01-09T08:59:24.000Z</time>
      </trkpt>
      <trkpt lat="47.24455" lon="-2.3059">
        <ele>39.799999237061</ele>
        <time>2022-01-09T08:59:29.000Z</time>
      </trkpt>
      <trkpt lat="47.24461" lon="-2.30581">
        <ele>39.799999237061</ele>
        <time>2022-01-09T08:59:31.000Z</time>
      </trkpt>
      <trkpt lat="47.2447" lon="-2.30559">
        <ele>39.799999237061</ele>
        <time>2022-01-09T08:59:34.000Z</time>
      </trkpt>
      <trkpt lat="47.24471" lon="-2.30553">
        <ele>39.200000762939</ele>
        <time>2022-01-09T08:59:35.000Z</time>
      </trkpt>
      <trkpt lat="47.24471" lon="-2.30548">
        <ele>38.799999237061</ele>
        <time>2022-01-09T08:59:36.000Z</time>
      </trkpt>
      <trkpt lat="47.2447" lon="-2.30544">
        <ele>38.400001525879</ele>
        <time>2022-01-09T08:59:37.000Z</time>
      </trkpt>
      <trkpt lat="47.24469" lon="-2.30543">
        <ele>38</ele>
        <time>2022-01-09T08:59:38.000Z</time>
      </trkpt>
      <trkpt lat="47.24467" lon="-2.30543">
        <ele>37.599998474121</ele>
        <time>2022-01-09T08:59:39.000Z</time>
      </trkpt>
      <trkpt lat="47.24464" lon="-2.30544">
        <ele>37.599998474121</ele>
        <time>2022-01-09T08:59:40.000Z</time>
      </trkpt>
      <trkpt lat="47.24456" lon="-2.30555">
        <ele>37.599998474121</ele>
        <time>2022-01-09T08:59:43.000Z</time>
      </trkpt>
      <trkpt lat="47.24454" lon="-2.30559">
        <ele>37.599998474121</ele>
        <time>2022-01-09T08:59:44.000Z</time>
      </trkpt>
      <trkpt lat="47.24451" lon="-2.30562">
        <ele>37.200000762939</ele>
        <time>2022-01-09T08:59:45.000Z</time>
      </trkpt>
      <trkpt lat="47.24447" lon="-2.30565">
        <ele>36.799999237061</ele>
        <time>2022-01-09T08:59:46.000Z</time>
      </trkpt>
      <trkpt lat="47.24444" lon="-2.30567">
        <ele>36.200000762939</ele>
        <time>2022-01-09T08:59:47.000Z</time>
      </trkpt>
      <trkpt lat="47.2444" lon="-2.3057">
        <ele>35.799999237061</ele>
        <time>2022-01-09T08:59:48.000Z</time>
      </trkpt>
      <trkpt lat="47.24436" lon="-2.30572">
        <ele>35.400001525879</ele>
        <time>2022-01-09T08:59:49.000Z</time>
      </trkpt>
      <trkpt lat="47.24414" lon="-2.3058">
        <ele>34.599998474121</ele>
        <time>2022-01-09T08:59:54.000Z</time>
      </trkpt>
      <trkpt lat="47.24409" lon="-2.3058">
        <ele>34.200000762939</ele>
        <time>2022-01-09T08:59:55.000Z</time>
      </trkpt>
      <trkpt lat="47.24404" lon="-2.30579">
        <ele>33.799999237061</ele>
        <time>2022-01-09T08:59:56.000Z</time>
      </trkpt>
      <trkpt lat="47.244" lon="-2.30578">
        <ele>33.400001525879</ele>
        <time>2022-01-09T08:59:57.000Z</time>
      </trkpt>
      <trkpt lat="47.24388" lon="-2.30571">
        <ele>33.400001525879</ele>
        <time>2022-01-09T09:00:00.000Z</time>
      </trkpt>
      <trkpt lat="47.24384" lon="-2.30567">
        <ele>33.400001525879</ele>
        <time>2022-01-09T09:00:01.000Z</time>
      </trkpt>
      <trkpt lat="47.24371" lon="-2.30546">
        <ele>33.400001525879</ele>
        <time>2022-01-09T09:00:06.000Z</time>
      </trkpt>
      <trkpt lat="47.24367" lon="-2.30522">
        <ele>33.400001525879</ele>
        <time>2022-01-09T09:00:10.000Z</time>
      </trkpt>
      <trkpt lat="47.24368" lon="-2.30501">
        <ele>33.400001525879</ele>
        <time>2022-01-09T09:00:15.000Z</time>
      </trkpt>
      <trkpt lat="47.24371" lon="-2.30492">
        <ele>33.799999237061</ele>
        <time>2022-01-09T09:00:17.000Z</time>
      </trkpt>
      <trkpt lat="47.24373" lon="-2.30487">
        <ele>34.200000762939</ele>
        <time>2022-01-09T09:00:18.000Z</time>
      </trkpt>
      <trkpt lat="47.24374" lon="-2.30483">
        <ele>35.200000762939</ele>
        <time>2022-01-09T09:00:19.000Z</time>
      </trkpt>
      <trkpt lat="47.24375" lon="-2.30478">
        <ele>35.599998474121</ele>
        <time>2022-01-09T09:00:20.000Z</time>
      </trkpt>
      <trkpt lat="47.24379" lon="-2.30458">
        <ele>36</ele>
        <time>2022-01-09T09:00:24.000Z</time>
      </trkpt>
      <trkpt lat="47.24379" lon="-2.30454">
        <ele>36.599998474121</ele>
        <time>2022-01-09T09:00:25.000Z</time>
      </trkpt>
      <trkpt lat="47.24379" lon="-2.30451">
        <ele>37</ele>
        <time>2022-01-09T09:00:26.000Z</time>
      </trkpt>
      <trkpt lat="47.24378" lon="-2.30449">
        <ele>37.400001525879</ele>
        <time>2022-01-09T09:00:27.000Z</time>
      </trkpt>
      <trkpt lat="47.24376" lon="-2.30448">
        <ele>37.799999237061</ele>
        <time>2022-01-09T09:00:28.000Z</time>
      </trkpt>
      <trkpt lat="47.24373" lon="-2.30448">
        <ele>37.799999237061</ele>
        <time>2022-01-09T09:00:29.000Z</time>
      </trkpt>
      <trkpt lat="47.24363" lon="-2.3045">
        <ele>37.799999237061</ele>
        <time>2022-01-09T09:00:32.000Z</time>
      </trkpt>
      <trkpt lat="47.24354" lon="-2.30448">
        <ele>37.799999237061</ele>
        <time>2022-01-09T09:00:35.000Z</time>
      </trkpt>
      <trkpt lat="47.24342" lon="-2.30442">
        <ele>37.799999237061</ele>
        <time>2022-01-09T09:00:40.000Z</time>
      </trkpt>
      <trkpt lat="47.24333" lon="-2.30436">
        <ele>38.599998474121</ele>
        <time>2022-01-09T09:00:44.000Z</time>
      </trkpt>
      <trkpt lat="47.24329" lon="-2.30433">
        <ele>39</ele>
        <time>2022-01-09T09:00:45.000Z</time>
      </trkpt>
      <trkpt lat="47.24326" lon="-2.30431">
        <ele>39.400001525879</ele>
        <time>2022-01-09T09:00:46.000Z</time>
      </trkpt>
      <trkpt lat="47.24323" lon="-2.30429">
        <ele>39.799999237061</ele>
        <time>2022-01-09T09:00:47.000Z</time>
      </trkpt>
      <trkpt lat="47.24306" lon="-2.3042">
        <ele>39.799999237061</ele>
        <time>2022-01-09T09:00:53.000Z</time>
      </trkpt>
      <trkpt lat="47.24283" lon="-2.30395">
        <ele>39.799999237061</ele>
        <time>2022-01-09T09:00:59.000Z</time>
      </trkpt>
      <trkpt lat="47.24258" lon="-2.30358">
        <ele>39.799999237061</ele>
        <time>2022-01-09T09:01:06.000Z</time>
      </trkpt>
      <trkpt lat="47.24239" lon="-2.30325">
        <ele>39.799999237061</ele>
        <time>2022-01-09T09:01:12.000Z</time>
      </trkpt>
      <trkpt lat="47.24226" lon="-2.30329">
        <ele>39.799999237061</ele>
        <time>2022-01-09T09:01:15.000Z</time>
      </trkpt>
      <trkpt lat="47.24218" lon="-2.30334">
        <ele>39.799999237061</ele>
        <time>2022-01-09T09:01:17.000Z</time>
      </trkpt>
      <trkpt lat="47.24213" lon="-2.30332">
        <ele>39.799999237061</ele>
        <time>2022-01-09T09:01:18.000Z</time>
      </trkpt>
      <trkpt lat="47.24209" lon="-2.3033">
        <ele>39.400001525879</ele>
        <time>2022-01-09T09:01:19.000Z</time>
      </trkpt>
      <trkpt lat="47.24205" lon="-2.30327">
        <ele>39</ele>
        <time>2022-01-09T09:01:20.000Z</time>
      </trkpt>
      <trkpt lat="47.24203" lon="-2.30321">
        <ele>38.400001525879</ele>
        <time>2022-01-09T09:01:21.000Z</time>
      </trkpt>
      <trkpt lat="47.24201" lon="-2.30315">
        <ele>38</ele>
        <time>2022-01-09T09:01:22.000Z</time>
      </trkpt>
      <trkpt lat="47.24198" lon="-2.30307">
        <ele>37.400001525879</ele>
        <time>2022-01-09T09:01:23.000Z</time>
      </trkpt>
      <trkpt lat="47.24194" lon="-2.30283">
        <ele>37.400001525879</ele>
        <time>2022-01-09T09:01:26.000Z</time>
      </trkpt>
      <trkpt lat="47.24194" lon="-2.30275">
        <ele>37.400001525879</ele>
        <time>2022-01-09T09:01:27.000Z</time>
      </trkpt>
      <trkpt lat="47.24192" lon="-2.30268">
        <ele>37</ele>
        <time>2022-01-09T09:01:28.000Z</time>
      </trkpt>
      <trkpt lat="47.24191" lon="-2.3026">
        <ele>36.599998474121</ele>
        <time>2022-01-09T09:01:29.000Z</time>
      </trkpt>
      <trkpt lat="47.24191" lon="-2.30253">
        <ele>36.200000762939</ele>
        <time>2022-01-09T09:01:30.000Z</time>
      </trkpt>
      <trkpt lat="47.2419" lon="-2.30247">
        <ele>35.799999237061</ele>
        <time>2022-01-09T09:01:31.000Z</time>
      </trkpt>
      <trkpt lat="47.24189" lon="-2.30241">
        <ele>35.400001525879</ele>
        <time>2022-01-09T09:01:32.000Z</time>
      </trkpt>
      <trkpt lat="47.24187" lon="-2.30239">
        <ele>35.400001525879</ele>
        <time>2022-01-09T09:01:33.000Z</time>
      </trkpt>
      <trkpt lat="47.24177" lon="-2.30245">
        <ele>35.400001525879</ele>
        <time>2022-01-09T09:01:36.000Z</time>
      </trkpt>
      <trkpt lat="47.24166" lon="-2.30242">
        <ele>35.400001525879</ele>
        <time>2022-01-09T09:01:40.000Z</time>
      </trkpt>
      <trkpt lat="47.24155" lon="-2.30224">
        <ele>35.400001525879</ele>
        <time>2022-01-09T09:01:45.000Z</time>
      </trkpt>
      <trkpt lat="47.2415" lon="-2.30208">
        <ele>35.799999237061</ele>
        <time>2022-01-09T09:01:49.000Z</time>
      </trkpt>
      <trkpt lat="47.24149" lon="-2.30204">
        <ele>36.200000762939</ele>
        <time>2022-01-09T09:01:50.000Z</time>
      </trkpt>
      <trkpt lat="47.24148" lon="-2.302">
        <ele>36.599998474121</ele>
        <time>2022-01-09T09:01:51.000Z</time>
      </trkpt>
      <trkpt lat="47.24146" lon="-2.30197">
        <ele>37</ele>
        <time>2022-01-09T09:01:52.000Z</time>
      </trkpt>
      <trkpt lat="47.24146" lon="-2.30193">
        <ele>37.400001525879</ele>
        <time>2022-01-09T09:01:53.000Z</time>
      </trkpt>
      <trkpt lat="47.24145" lon="-2.30188">
        <ele>37.400001525879</ele>
        <time>2022-01-09T09:01:55.000Z</time>
      </trkpt>
      <trkpt lat="47.24138" lon="-2.3017">
        <ele>37.400001525879</ele>
        <time>2022-01-09T09:02:01.000Z</time>
      </trkpt>
      <trkpt lat="47.24137" lon="-2.30167">
        <ele>38</ele>
        <time>2022-01-09T09:02:02.000Z</time>
      </trkpt>
      <trkpt lat="47.24136" lon="-2.30166">
        <ele>38.400001525879</ele>
        <time>2022-01-09T09:02:03.000Z</time>
      </trkpt>
      <trkpt lat="47.24135" lon="-2.30165">
        <ele>38.799999237061</ele>
        <time>2022-01-09T09:02:04.000Z</time>
      </trkpt>
      <trkpt lat="47.24135" lon="-2.30163">
        <ele>39.200000762939</ele>
        <time>2022-01-09T09:02:05.000Z</time>
      </trkpt>
      <trkpt lat="47.24134" lon="-2.30162">
        <ele>39.799999237061</ele>
        <time>2022-01-09T09:02:06.000Z</time>
      </trkpt>
      <trkpt lat="47.24134" lon="-2.3016">
        <ele>40.200000762939</ele>
        <time>2022-01-09T09:02:07.000Z</time>
      </trkpt>
      <trkpt lat="47.24134" lon="-2.30158">
        <ele>40.799999237061</ele>
        <time>2022-01-09T09:02:08.000Z</time>
      </trkpt>
      <trkpt lat="47.24133" lon="-2.30157">
        <ele>41.200000762939</ele>
        <time>2022-01-09T09:02:09.000Z</time>
      </trkpt>
      <trkpt lat="47.24133" lon="-2.30155">
        <ele>41.799999237061</ele>
        <time>2022-01-09T09:02:10.000Z</time>
      </trkpt>
      <trkpt lat="47.24132" lon="-2.3015">
        <ele>41.799999237061</ele>
        <time>2022-01-09T09:02:13.000Z</time>
      </trkpt>
      <trkpt lat="47.24138" lon="-2.30081">
        <ele>43.799999237061</ele>
        <time>2022-01-09T09:05:12.000Z</time>
      </trkpt>
      <trkpt lat="47.2414" lon="-2.3008">
        <ele>43.799999237061</ele>
        <time>2022-01-09T09:05:13.000Z</time>
      </trkpt>
      <trkpt lat="47.24147" lon="-2.30084">
        <ele>43.799999237061</ele>
        <time>2022-01-09T09:05:17.000Z</time>
      </trkpt>
      <trkpt lat="47.24148" lon="-2.30085">
        <ele>43.799999237061</ele>
        <time>2022-01-09T09:05:18.000Z</time>
      </trkpt>
      <trkpt lat="47.24152" lon="-2.30088">
        <ele>43.799999237061</ele>
        <time>2022-01-09T09:05:23.000Z</time>
      </trkpt>
      <trkpt lat="47.24154" lon="-2.30073">
        <ele>43.799999237061</ele>
        <time>2022-01-09T09:05:39.000Z</time>
      </trkpt>
      <trkpt lat="47.24155" lon="-2.30071">
        <ele>43.799999237061</ele>
        <time>2022-01-09T09:05:40.000Z</time>
      </trkpt>
      <trkpt lat="47.24157" lon="-2.30061">
        <ele>43.799999237061</ele>
        <time>2022-01-09T09:05:46.000Z</time>
      </trkpt>
      <trkpt lat="47.24157" lon="-2.30059">
        <ele>43.799999237061</ele>
        <time>2022-01-09T09:05:47.000Z</time>
      </trkpt>
      <trkpt lat="47.24156" lon="-2.30048">
        <ele>43.799999237061</ele>
        <time>2022-01-09T09:05:51.000Z</time>
      </trkpt>
      <trkpt lat="47.24152" lon="-2.30034">
        <ele>43.799999237061</ele>
        <time>2022-01-09T09:05:57.000Z</time>
      </trkpt>
      <trkpt lat="47.24152" lon="-2.30019">
        <ele>44.200000762939</ele>
        <time>2022-01-09T09:06:05.000Z</time>
      </trkpt>
      <trkpt lat="47.24153" lon="-2.30016">
        <ele>44.599998474121</ele>
        <time>2022-01-09T09:06:06.000Z</time>
      </trkpt>
      <trkpt lat="47.24154" lon="-2.30014">
        <ele>45.400001525879</ele>
        <time>2022-01-09T09:06:07.000Z</time>
      </trkpt>
      <trkpt lat="47.24154" lon="-2.30011">
        <ele>45.799999237061</ele>
        <time>2022-01-09T09:06:08.000Z</time>
      </trkpt>
      <trkpt lat="47.24157" lon="-2.29995">
        <ele>45.799999237061</ele>
        <time>2022-01-09T09:06:13.000Z</time>
      </trkpt>
      <trkpt lat="47.24155" lon="-2.29977">
        <ele>45.799999237061</ele>
        <time>2022-01-09T09:06:54.000Z</time>
      </trkpt>
      <trkpt lat="47.24155" lon="-2.29972">
        <ele>45.799999237061</ele>
        <time>2022-01-09T09:06:56.000Z</time>
      </trkpt>
      <trkpt lat="47.24156" lon="-2.29967">
        <ele>45.799999237061</ele>
        <time>2022-01-09T09:06:58.000Z</time>
      </trkpt>
      <trkpt lat="47.24157" lon="-2.29959">
        <ele>45.799999237061</ele>
        <time>2022-01-09T09:07:01.000Z</time>
      </trkpt>
      <trkpt lat="47.24158" lon="-2.29953">
        <ele>45.799999237061</ele>
        <time>2022-01-09T09:07:03.000Z</time>
      </trkpt>
      <trkpt lat="47.24163" lon="-2.29933">
        <ele>45.799999237061</ele>
        <time>2022-01-09T09:07:08.000Z</time>
      </trkpt>
      <trkpt lat="47.24173" lon="-2.29908">
        <ele>45.799999237061</ele>
        <time>2022-01-09T09:07:15.000Z</time>
      </trkpt>
      <trkpt lat="47.24179" lon="-2.29895">
        <ele>45.799999237061</ele>
        <time>2022-01-09T09:07:20.000Z</time>
      </trkpt>
      <trkpt lat="47.2418" lon="-2.29886">
        <ele>45.799999237061</ele>
        <time>2022-01-09T09:07:23.000Z</time>
      </trkpt>
      <trkpt lat="47.24181" lon="-2.29879">
        <ele>45.799999237061</ele>
        <time>2022-01-09T09:07:25.000Z</time>
      </trkpt>
      <trkpt lat="47.2418" lon="-2.29874">
        <ele>45.799999237061</ele>
        <time>2022-01-09T09:07:27.000Z</time>
      </trkpt>
      <trkpt lat="47.2418" lon="-2.2987">
        <ele>45.799999237061</ele>
        <time>2022-01-09T09:07:28.000Z</time>
      </trkpt>
      <trkpt lat="47.24181" lon="-2.29862">
        <ele>45.799999237061</ele>
        <time>2022-01-09T09:07:30.000Z</time>
      </trkpt>
      <trkpt lat="47.2418" lon="-2.29844">
        <ele>45.799999237061</ele>
        <time>2022-01-09T09:07:34.000Z</time>
      </trkpt>
      <trkpt lat="47.24176" lon="-2.2984">
        <ele>45.799999237061</ele>
        <time>2022-01-09T09:07:36.000Z</time>
      </trkpt>
      <trkpt lat="47.24173" lon="-2.29841">
        <ele>45.799999237061</ele>
        <time>2022-01-09T09:07:37.000Z</time>
      </trkpt>
      <trkpt lat="47.24155" lon="-2.29843">
        <ele>45.799999237061</ele>
        <time>2022-01-09T09:07:42.000Z</time>
      </trkpt>
      <trkpt lat="47.24134" lon="-2.29846">
        <ele>45.799999237061</ele>
        <time>2022-01-09T09:07:47.000Z</time>
      </trkpt>
      <trkpt lat="47.24118" lon="-2.29852">
        <ele>45.799999237061</ele>
        <time>2022-01-09T09:07:52.000Z</time>
      </trkpt>
      <trkpt lat="47.24105" lon="-2.29852">
        <ele>46.200000762939</ele>
        <time>2022-01-09T09:07:57.000Z</time>
      </trkpt>
      <trkpt lat="47.24103" lon="-2.29852">
        <ele>46.599998474121</ele>
        <time>2022-01-09T09:07:58.000Z</time>
      </trkpt>
      <trkpt lat="47.241" lon="-2.29852">
        <ele>47</ele>
        <time>2022-01-09T09:07:59.000Z</time>
      </trkpt>
      <trkpt lat="47.24097" lon="-2.29852">
        <ele>47.400001525879</ele>
        <time>2022-01-09T09:08:00.000Z</time>
      </trkpt>
      <trkpt lat="47.24095" lon="-2.29853">
        <ele>47.799999237061</ele>
        <time>2022-01-09T09:08:01.000Z</time>
      </trkpt>
      <trkpt lat="47.24091" lon="-2.29855">
        <ele>47.799999237061</ele>
        <time>2022-01-09T09:08:03.000Z</time>
      </trkpt>
      <trkpt lat="47.24089" lon="-2.29859">
        <ele>47.799999237061</ele>
        <time>2022-01-09T09:08:05.000Z</time>
      </trkpt>
      <trkpt lat="47.24087" lon="-2.29866">
        <ele>47.799999237061</ele>
        <time>2022-01-09T09:08:07.000Z</time>
      </trkpt>
      <trkpt lat="47.2408" lon="-2.29901">
        <ele>47.799999237061</ele>
        <time>2022-01-09T09:08:13.000Z</time>
      </trkpt>
      <trkpt lat="47.24071" lon="-2.29937">
        <ele>47.799999237061</ele>
        <time>2022-01-09T09:08:19.000Z</time>
      </trkpt>
      <trkpt lat="47.2407" lon="-2.29944">
        <ele>47.799999237061</ele>
        <time>2022-01-09T09:08:23.000Z</time>
      </trkpt>
      <trkpt lat="47.24082" lon="-2.29942">
        <ele>47.799999237061</ele>
        <time>2022-01-09T09:09:12.000Z</time>
      </trkpt>
      <trkpt lat="47.24085" lon="-2.29938">
        <ele>47.799999237061</ele>
        <time>2022-01-09T09:09:15.000Z</time>
      </trkpt>
      <trkpt lat="47.24093" lon="-2.29926">
        <ele>47.799999237061</ele>
        <time>2022-01-09T09:09:20.000Z</time>
      </trkpt>
      <trkpt lat="47.24107" lon="-2.29907">
        <ele>47.799999237061</ele>
        <time>2022-01-09T09:09:27.000Z</time>
      </trkpt>
      <trkpt lat="47.24114" lon="-2.29889">
        <ele>47.799999237061</ele>
        <time>2022-01-09T09:09:33.000Z</time>
      </trkpt>
      <trkpt lat="47.24118" lon="-2.29874">
        <ele>47.799999237061</ele>
        <time>2022-01-09T09:09:39.000Z</time>
      </trkpt>
      <trkpt lat="47.24115" lon="-2.29861">
        <ele>47.799999237061</ele>
        <time>2022-01-09T09:09:44.000Z</time>
      </trkpt>
      <trkpt lat="47.24113" lon="-2.29859">
        <ele>47.799999237061</ele>
        <time>2022-01-09T09:09:45.000Z</time>
      </trkpt>
      <trkpt lat="47.24096" lon="-2.29853">
        <ele>47.799999237061</ele>
        <time>2022-01-09T09:09:51.000Z</time>
      </trkpt>
      <trkpt lat="47.24079" lon="-2.29845">
        <ele>47.799999237061</ele>
        <time>2022-01-09T09:09:56.000Z</time>
      </trkpt>
      <trkpt lat="47.24066" lon="-2.29829">
        <ele>47.799999237061</ele>
        <time>2022-01-09T09:10:02.000Z</time>
      </trkpt>
      <trkpt lat="47.24063" lon="-2.29826">
        <ele>47.799999237061</ele>
        <time>2022-01-09T09:10:03.000Z</time>
      </trkpt>
      <trkpt lat="47.24049" lon="-2.29821">
        <ele>47.799999237061</ele>
        <time>2022-01-09T09:10:07.000Z</time>
      </trkpt>
      <trkpt lat="47.24045" lon="-2.2982">
        <ele>47.799999237061</ele>
        <time>2022-01-09T09:10:08.000Z</time>
      </trkpt>
      <trkpt lat="47.24032" lon="-2.2981">
        <ele>47.799999237061</ele>
        <time>2022-01-09T09:10:11.000Z</time>
      </trkpt>
      <trkpt lat="47.24026" lon="-2.29807">
        <ele>47.799999237061</ele>
        <time>2022-01-09T09:10:13.000Z</time>
      </trkpt>
      <trkpt lat="47.24024" lon="-2.29806">
        <ele>47.799999237061</ele>
        <time>2022-01-09T09:10:16.000Z</time>
      </trkpt>
      <trkpt lat="47.24022" lon="-2.29803">
        <ele>47.799999237061</ele>
        <time>2022-01-09T09:10:17.000Z</time>
      </trkpt>
      <trkpt lat="47.24021" lon="-2.298">
        <ele>47.799999237061</ele>
        <time>2022-01-09T09:10:18.000Z</time>
      </trkpt>
      <trkpt lat="47.24018" lon="-2.29785">
        <ele>47.799999237061</ele>
        <time>2022-01-09T09:10:23.000Z</time>
      </trkpt>
      <trkpt lat="47.24017" lon="-2.29782">
        <ele>48.200000762939</ele>
        <time>2022-01-09T09:10:24.000Z</time>
      </trkpt>
      <trkpt lat="47.24016" lon="-2.29778">
        <ele>48.599998474121</ele>
        <time>2022-01-09T09:10:25.000Z</time>
      </trkpt>
      <trkpt lat="47.24016" lon="-2.29775">
        <ele>49</ele>
        <time>2022-01-09T09:10:26.000Z</time>
      </trkpt>
      <trkpt lat="47.24015" lon="-2.29771">
        <ele>49.400001525879</ele>
        <time>2022-01-09T09:10:27.000Z</time>
      </trkpt>
      <trkpt lat="47.24014" lon="-2.29766">
        <ele>49.799999237061</ele>
        <time>2022-01-09T09:10:28.000Z</time>
      </trkpt>
      <trkpt lat="47.24013" lon="-2.29755">
        <ele>49.799999237061</ele>
        <time>2022-01-09T09:10:30.000Z</time>
      </trkpt>
      <trkpt lat="47.2401" lon="-2.29713">
        <ele>49.799999237061</ele>
        <time>2022-01-09T09:10:36.000Z</time>
      </trkpt>
      <trkpt lat="47.24008" lon="-2.29669">
        <ele>49.799999237061</ele>
        <time>2022-01-09T09:10:42.000Z</time>
      </trkpt>
      <trkpt lat="47.24005" lon="-2.29612">
        <ele>49.799999237061</ele>
        <time>2022-01-09T09:10:49.000Z</time>
      </trkpt>
      <trkpt lat="47.24004" lon="-2.29604">
        <ele>49.799999237061</ele>
        <time>2022-01-09T09:10:50.000Z</time>
      </trkpt>
      <trkpt lat="47.24002" lon="-2.29571">
        <ele>49.799999237061</ele>
        <time>2022-01-09T09:10:54.000Z</time>
      </trkpt>
      <trkpt lat="47.23997" lon="-2.29504">
        <ele>49.799999237061</ele>
        <time>2022-01-09T09:11:02.000Z</time>
      </trkpt>
      <trkpt lat="47.23996" lon="-2.29497">
        <ele>49.799999237061</ele>
        <time>2022-01-09T09:11:03.000Z</time>
      </trkpt>
      <trkpt lat="47.23986" lon="-2.29476">
        <ele>49.799999237061</ele>
        <time>2022-01-09T09:11:06.000Z</time>
      </trkpt>
      <trkpt lat="47.23966" lon="-2.29439">
        <ele>49.799999237061</ele>
        <time>2022-01-09T09:11:12.000Z</time>
      </trkpt>
      <trkpt lat="47.23945" lon="-2.29395">
        <ele>49.799999237061</ele>
        <time>2022-01-09T09:11:19.000Z</time>
      </trkpt>
      <trkpt lat="47.23924" lon="-2.29356">
        <ele>49.799999237061</ele>
        <time>2022-01-09T09:11:26.000Z</time>
      </trkpt>
      <trkpt lat="47.23916" lon="-2.29341">
        <ele>49</ele>
        <time>2022-01-09T09:11:29.000Z</time>
      </trkpt>
      <trkpt lat="47.23913" lon="-2.29336">
        <ele>48.599998474121</ele>
        <time>2022-01-09T09:11:30.000Z</time>
      </trkpt>
      <trkpt lat="47.2391" lon="-2.29333">
        <ele>48.200000762939</ele>
        <time>2022-01-09T09:11:31.000Z</time>
      </trkpt>
      <trkpt lat="47.23906" lon="-2.29332">
        <ele>47.599998474121</ele>
        <time>2022-01-09T09:11:32.000Z</time>
      </trkpt>
      <trkpt lat="47.23887" lon="-2.29332">
        <ele>47.599998474121</ele>
        <time>2022-01-09T09:11:37.000Z</time>
      </trkpt>
      <trkpt lat="47.23878" lon="-2.29332">
        <ele>47.599998474121</ele>
        <time>2022-01-09T09:11:39.000Z</time>
      </trkpt>
      <trkpt lat="47.23866" lon="-2.29341">
        <ele>47.599998474121</ele>
        <time>2022-01-09T09:11:42.000Z</time>
      </trkpt>
      <trkpt lat="47.23857" lon="-2.29357">
        <ele>47.599998474121</ele>
        <time>2022-01-09T09:11:45.000Z</time>
      </trkpt>
      <trkpt lat="47.23852" lon="-2.29368">
        <ele>47.599998474121</ele>
        <time>2022-01-09T09:11:47.000Z</time>
      </trkpt>
      <trkpt lat="47.23829" lon="-2.29424">
        <ele>47.599998474121</ele>
        <time>2022-01-09T09:11:56.000Z</time>
      </trkpt>
      <trkpt lat="47.23824" lon="-2.29435">
        <ele>47.599998474121</ele>
        <time>2022-01-09T09:11:58.000Z</time>
      </trkpt>
      <trkpt lat="47.23822" lon="-2.29452">
        <ele>47.599998474121</ele>
        <time>2022-01-09T09:12:01.000Z</time>
      </trkpt>
      <trkpt lat="47.23822" lon="-2.29464">
        <ele>47.599998474121</ele>
        <time>2022-01-09T09:12:03.000Z</time>
      </trkpt>
      <trkpt lat="47.23823" lon="-2.29492">
        <ele>47.599998474121</ele>
        <time>2022-01-09T09:12:08.000Z</time>
      </trkpt>
      <trkpt lat="47.23823" lon="-2.29521">
        <ele>47.599998474121</ele>
        <time>2022-01-09T09:12:13.000Z</time>
      </trkpt>
      <trkpt lat="47.23823" lon="-2.29528">
        <ele>47.599998474121</ele>
        <time>2022-01-09T09:12:14.000Z</time>
      </trkpt>
      <trkpt lat="47.23821" lon="-2.29555">
        <ele>47.599998474121</ele>
        <time>2022-01-09T09:12:18.000Z</time>
      </trkpt>
      <trkpt lat="47.23819" lon="-2.2957">
        <ele>47.599998474121</ele>
        <time>2022-01-09T09:12:20.000Z</time>
      </trkpt>
      <trkpt lat="47.23818" lon="-2.2961">
        <ele>47.599998474121</ele>
        <time>2022-01-09T09:12:26.000Z</time>
      </trkpt>
      <trkpt lat="47.23816" lon="-2.29656">
        <ele>47.599998474121</ele>
        <time>2022-01-09T09:12:33.000Z</time>
      </trkpt>
      <trkpt lat="47.23815" lon="-2.29694">
        <ele>47.599998474121</ele>
        <time>2022-01-09T09:12:38.000Z</time>
      </trkpt>
      <trkpt lat="47.23813" lon="-2.29716">
        <ele>47.599998474121</ele>
        <time>2022-01-09T09:12:41.000Z</time>
      </trkpt>
      <trkpt lat="47.23812" lon="-2.29729">
        <ele>47.599998474121</ele>
        <time>2022-01-09T09:12:43.000Z</time>
      </trkpt>
      <trkpt lat="47.23812" lon="-2.29748">
        <ele>47.599998474121</ele>
        <time>2022-01-09T09:12:46.000Z</time>
      </trkpt>
      <trkpt lat="47.23812" lon="-2.29754">
        <ele>47.599998474121</ele>
        <time>2022-01-09T09:12:47.000Z</time>
      </trkpt>
      <trkpt lat="47.23812" lon="-2.29787">
        <ele>47.599998474121</ele>
        <time>2022-01-09T09:12:53.000Z</time>
      </trkpt>
      <trkpt lat="47.23812" lon="-2.29805">
        <ele>47.599998474121</ele>
        <time>2022-01-09T09:12:59.000Z</time>
      </trkpt>
      <trkpt lat="47.23812" lon="-2.29807">
        <ele>47.599998474121</ele>
        <time>2022-01-09T09:13:01.000Z</time>
      </trkpt>
      <trkpt lat="47.23812" lon="-2.29813">
        <ele>47.599998474121</ele>
        <time>2022-01-09T09:13:08.000Z</time>
      </trkpt>
      <trkpt lat="47.23811" lon="-2.29815">
        <ele>47.599998474121</ele>
        <time>2022-01-09T09:13:09.000Z</time>
      </trkpt>
      <trkpt lat="47.23811" lon="-2.29836">
        <ele>47.599998474121</ele>
        <time>2022-01-09T09:13:16.000Z</time>
      </trkpt>
      <trkpt lat="47.23815" lon="-2.29858">
        <ele>47.599998474121</ele>
        <time>2022-01-09T09:13:21.000Z</time>
      </trkpt>
      <trkpt lat="47.23821" lon="-2.29893">
        <ele>47.599998474121</ele>
        <time>2022-01-09T09:13:28.000Z</time>
      </trkpt>
      <trkpt lat="47.23827" lon="-2.29931">
        <ele>47.599998474121</ele>
        <time>2022-01-09T09:13:34.000Z</time>
      </trkpt>
      <trkpt lat="47.23834" lon="-2.29967">
        <ele>47.599998474121</ele>
        <time>2022-01-09T09:13:40.000Z</time>
      </trkpt>
      <trkpt lat="47.23836" lon="-2.29973">
        <ele>47.599998474121</ele>
        <time>2022-01-09T09:13:41.000Z</time>
      </trkpt>
      <trkpt lat="47.23844" lon="-2.30021">
        <ele>47.599998474121</ele>
        <time>2022-01-09T09:13:48.000Z</time>
      </trkpt>
      <trkpt lat="47.23848" lon="-2.30042">
        <ele>47.200000762939</ele>
        <time>2022-01-09T09:13:51.000Z</time>
      </trkpt>
      <trkpt lat="47.2385" lon="-2.30049">
        <ele>46.799999237061</ele>
        <time>2022-01-09T09:13:52.000Z</time>
      </trkpt>
      <trkpt lat="47.23853" lon="-2.30054">
        <ele>46.400001525879</ele>
        <time>2022-01-09T09:13:53.000Z</time>
      </trkpt>
      <trkpt lat="47.23857" lon="-2.30057">
        <ele>46</ele>
        <time>2022-01-09T09:13:54.000Z</time>
      </trkpt>
      <trkpt lat="47.23861" lon="-2.3006">
        <ele>45.599998474121</ele>
        <time>2022-01-09T09:13:55.000Z</time>
      </trkpt>
      <trkpt lat="47.23865" lon="-2.30062">
        <ele>45.599998474121</ele>
        <time>2022-01-09T09:13:56.000Z</time>
      </trkpt>
      <trkpt lat="47.23883" lon="-2.30073">
        <ele>45</ele>
        <time>2022-01-09T09:14:00.000Z</time>
      </trkpt>
      <trkpt lat="47.23888" lon="-2.30076">
        <ele>44.599998474121</ele>
        <time>2022-01-09T09:14:01.000Z</time>
      </trkpt>
      <trkpt lat="47.23892" lon="-2.30078">
        <ele>44.200000762939</ele>
        <time>2022-01-09T09:14:02.000Z</time>
      </trkpt>
      <trkpt lat="47.23895" lon="-2.30079">
        <ele>43.799999237061</ele>
        <time>2022-01-09T09:14:03.000Z</time>
      </trkpt>
      <trkpt lat="47.23898" lon="-2.30081">
        <ele>43.400001525879</ele>
        <time>2022-01-09T09:14:04.000Z</time>
      </trkpt>
      <trkpt lat="47.23909" lon="-2.3009">
        <ele>43.400001525879</ele>
        <time>2022-01-09T09:14:08.000Z</time>
      </trkpt>
      <trkpt lat="47.23911" lon="-2.30095">
        <ele>43.400001525879</ele>
        <time>2022-01-09T09:14:10.000Z</time>
      </trkpt>
      <trkpt lat="47.23914" lon="-2.30107">
        <ele>43.400001525879</ele>
        <time>2022-01-09T09:14:13.000Z</time>
      </trkpt>
      <trkpt lat="47.23915" lon="-2.30111">
        <ele>43.400001525879</ele>
        <time>2022-01-09T09:14:14.000Z</time>
      </trkpt>
      <trkpt lat="47.2392" lon="-2.30125">
        <ele>43.400001525879</ele>
        <time>2022-01-09T09:14:17.000Z</time>
      </trkpt>
      <trkpt lat="47.23923" lon="-2.30127">
        <ele>43.400001525879</ele>
        <time>2022-01-09T09:14:18.000Z</time>
      </trkpt>
      <trkpt lat="47.23933" lon="-2.30129">
        <ele>43.400001525879</ele>
        <time>2022-01-09T09:14:22.000Z</time>
      </trkpt>
      <trkpt lat="47.23936" lon="-2.30128">
        <ele>43.400001525879</ele>
        <time>2022-01-09T09:14:23.000Z</time>
      </trkpt>
      <trkpt lat="47.23951" lon="-2.30127">
        <ele>43.400001525879</ele>
        <time>2022-01-09T09:14:27.000Z</time>
      </trkpt>
      <trkpt lat="47.23969" lon="-2.30133">
        <ele>43.400001525879</ele>
        <time>2022-01-09T09:14:33.000Z</time>
      </trkpt>
      <trkpt lat="47.23972" lon="-2.30134">
        <ele>43.799999237061</ele>
        <time>2022-01-09T09:14:34.000Z</time>
      </trkpt>
      <trkpt lat="47.23975" lon="-2.30137">
        <ele>44.200000762939</ele>
        <time>2022-01-09T09:14:35.000Z</time>
      </trkpt>
      <trkpt lat="47.23977" lon="-2.3014">
        <ele>44.599998474121</ele>
        <time>2022-01-09T09:14:36.000Z</time>
      </trkpt>
      <trkpt lat="47.23979" lon="-2.30142">
        <ele>45</ele>
        <time>2022-01-09T09:14:37.000Z</time>
      </trkpt>
      <trkpt lat="47.23982" lon="-2.30144">
        <ele>45.400001525879</ele>
        <time>2022-01-09T09:14:38.000Z</time>
      </trkpt>
      <trkpt lat="47.23984" lon="-2.30145">
        <ele>45.400001525879</ele>
        <time>2022-01-09T09:14:39.000Z</time>
      </trkpt>
      <trkpt lat="47.24002" lon="-2.30158">
        <ele>45.400001525879</ele>
        <time>2022-01-09T09:14:46.000Z</time>
      </trkpt>
      <trkpt lat="47.24016" lon="-2.30164">
        <ele>45.400001525879</ele>
        <time>2022-01-09T09:14:51.000Z</time>
      </trkpt>
      <trkpt lat="47.24029" lon="-2.30178">
        <ele>45.400001525879</ele>
        <time>2022-01-09T09:14:57.000Z</time>
      </trkpt>
      <trkpt lat="47.24042" lon="-2.30181">
        <ele>45.400001525879</ele>
        <time>2022-01-09T09:15:01.000Z</time>
      </trkpt>
      <trkpt lat="47.24069" lon="-2.3017">
        <ele>45.400001525879</ele>
        <time>2022-01-09T09:15:08.000Z</time>
      </trkpt>
      <trkpt lat="47.24083" lon="-2.30161">
        <ele>45.400001525879</ele>
        <time>2022-01-09T09:15:12.000Z</time>
      </trkpt>
      <trkpt lat="47.24095" lon="-2.30163">
        <ele>45.400001525879</ele>
        <time>2022-01-09T09:15:16.000Z</time>
      </trkpt>
      <trkpt lat="47.24099" lon="-2.30164">
        <ele>45.400001525879</ele>
        <time>2022-01-09T09:15:17.000Z</time>
      </trkpt>
      <trkpt lat="47.24112" lon="-2.30163">
        <ele>45.400001525879</ele>
        <time>2022-01-09T09:15:21.000Z</time>
      </trkpt>
      <trkpt lat="47.2412" lon="-2.3016">
        <ele>45.400001525879</ele>
        <time>2022-01-09T09:15:25.000Z</time>
      </trkpt>
      <trkpt lat="47.24122" lon="-2.30159">
        <ele>45.400001525879</ele>
        <time>2022-01-09T09:15:26.000Z</time>
      </trkpt>
      <trkpt lat="47.24124" lon="-2.30158">
        <ele>44.799999237061</ele>
        <time>2022-01-09T09:15:27.000Z</time>
      </trkpt>
      <trkpt lat="47.24125" lon="-2.30156">
        <ele>44.400001525879</ele>
        <time>2022-01-09T09:15:28.000Z</time>
      </trkpt>
      <trkpt lat="47.24126" lon="-2.30153">
        <ele>43.799999237061</ele>
        <time>2022-01-09T09:15:29.000Z</time>
      </trkpt>
      <trkpt lat="47.24127" lon="-2.3015">
        <ele>43.400001525879</ele>
        <time>2022-01-09T09:15:30.000Z</time>
      </trkpt>
      <trkpt lat="47.24127" lon="-2.30147">
        <ele>42.799999237061</ele>
        <time>2022-01-09T09:15:31.000Z</time>
      </trkpt>
      <trkpt lat="47.24127" lon="-2.3014">
        <ele>42.799999237061</ele>
        <time>2022-01-09T09:15:34.000Z</time>
      </trkpt>
      <trkpt lat="47.24126" lon="-2.30139">
        <ele>42.799999237061</ele>
        <time>2022-01-09T09:15:35.000Z</time>
      </trkpt>
      <trkpt lat="47.24124" lon="-2.30133">
        <ele>43.200000762939</ele>
        <time>2022-01-09T09:15:40.000Z</time>
      </trkpt>
      <trkpt lat="47.24123" lon="-2.30132">
        <ele>43.599998474121</ele>
        <time>2022-01-09T09:15:41.000Z</time>
      </trkpt>
      <trkpt lat="47.24122" lon="-2.30131">
        <ele>44</ele>
        <time>2022-01-09T09:15:42.000Z</time>
      </trkpt>
      <trkpt lat="47.24122" lon="-2.30131">
        <ele>44.400001525879</ele>
        <time>2022-01-09T09:15:43.000Z</time>
      </trkpt>
      <trkpt lat="47.24121" lon="-2.3013">
        <ele>44.799999237061</ele>
        <time>2022-01-09T09:15:44.000Z</time>
      </trkpt>
      <trkpt lat="47.24122" lon="-2.30122">
        <ele>44.799999237061</ele>
        <time>2022-01-09T09:15:49.000Z</time>
      </trkpt>
      <trkpt lat="47.24124" lon="-2.30115">
        <ele>44.799999237061</ele>
        <time>2022-01-09T09:15:53.000Z</time>
      </trkpt>
      <trkpt lat="47.24131" lon="-2.30084">
        <ele>47</ele>
        <time>2022-01-09T09:16:15.000Z</time>
      </trkpt>
      <trkpt lat="47.24132" lon="-2.30082">
        <ele>47</ele>
        <time>2022-01-09T09:16:16.000Z</time>
      </trkpt>
      <trkpt lat="47.24138" lon="-2.3007">
        <ele>47</ele>
        <time>2022-01-09T09:16:21.000Z</time>
      </trkpt>
      <trkpt lat="47.2414" lon="-2.30054">
        <ele>47.400001525879</ele>
        <time>2022-01-09T09:16:27.000Z</time>
      </trkpt>
      <trkpt lat="47.24139" lon="-2.30052">
        <ele>47.799999237061</ele>
        <time>2022-01-09T09:16:28.000Z</time>
      </trkpt>
      <trkpt lat="47.24139" lon="-2.3005">
        <ele>48.400001525879</ele>
        <time>2022-01-09T09:16:29.000Z</time>
      </trkpt>
      <trkpt lat="47.24138" lon="-2.30047">
        <ele>48.799999237061</ele>
        <time>2022-01-09T09:16:30.000Z</time>
      </trkpt>
      <trkpt lat="47.24137" lon="-2.30044">
        <ele>49.400001525879</ele>
        <time>2022-01-09T09:16:31.000Z</time>
      </trkpt>
      <trkpt lat="47.24137" lon="-2.3004">
        <ele>49.400001525879</ele>
        <time>2022-01-09T09:16:33.000Z</time>
      </trkpt>
      <trkpt lat="47.24138" lon="-2.30032">
        <ele>49.400001525879</ele>
        <time>2022-01-09T09:16:36.000Z</time>
      </trkpt>
      <trkpt lat="47.24141" lon="-2.30009">
        <ele>49.400001525879</ele>
        <time>2022-01-09T09:16:42.000Z</time>
      </trkpt>
      <trkpt lat="47.24145" lon="-2.29985">
        <ele>49.400001525879</ele>
        <time>2022-01-09T09:16:48.000Z</time>
      </trkpt>
      <trkpt lat="47.24148" lon="-2.29975">
        <ele>49.400001525879</ele>
        <time>2022-01-09T09:16:54.000Z</time>
      </trkpt>
      <trkpt lat="47.24149" lon="-2.29973">
        <ele>49.400001525879</ele>
        <time>2022-01-09T09:16:55.000Z</time>
      </trkpt>
      <trkpt lat="47.24154" lon="-2.29963">
        <ele>51.400001525879</ele>
        <time>2022-01-09T09:17:19.000Z</time>
      </trkpt>
      <trkpt lat="47.24155" lon="-2.29957">
        <ele>51.400001525879</ele>
        <time>2022-01-09T09:17:21.000Z</time>
      </trkpt>
      <trkpt lat="47.24158" lon="-2.29945">
        <ele>51.400001525879</ele>
        <time>2022-01-09T09:17:24.000Z</time>
      </trkpt>
      <trkpt lat="47.2416" lon="-2.29939">
        <ele>51.400001525879</ele>
        <time>2022-01-09T09:17:26.000Z</time>
      </trkpt>
      <trkpt lat="47.24163" lon="-2.29924">
        <ele>51.400001525879</ele>
        <time>2022-01-09T09:17:32.000Z</time>
      </trkpt>
      <trkpt lat="47.24167" lon="-2.29917">
        <ele>51.400001525879</ele>
        <time>2022-01-09T09:17:36.000Z</time>
      </trkpt>
      <trkpt lat="47.24166" lon="-2.29911">
        <ele>51.400001525879</ele>
        <time>2022-01-09T09:17:41.000Z</time>
      </trkpt>
      <trkpt lat="47.24164" lon="-2.29907">
        <ele>51.400001525879</ele>
        <time>2022-01-09T09:17:43.000Z</time>
      </trkpt>
      <trkpt lat="47.24162" lon="-2.29894">
        <ele>51.400001525879</ele>
        <time>2022-01-09T09:17:47.000Z</time>
      </trkpt>
      <trkpt lat="47.24162" lon="-2.29891">
        <ele>51.400001525879</ele>
        <time>2022-01-09T09:17:48.000Z</time>
      </trkpt>
      <trkpt lat="47.24163" lon="-2.29888">
        <ele>51.400001525879</ele>
        <time>2022-01-09T09:17:49.000Z</time>
      </trkpt>
      <trkpt lat="47.24166" lon="-2.29877">
        <ele>51.400001525879</ele>
        <time>2022-01-09T09:17:51.000Z</time>
      </trkpt>
      <trkpt lat="47.24166" lon="-2.29861">
        <ele>51.400001525879</ele>
        <time>2022-01-09T09:17:55.000Z</time>
      </trkpt>
      <trkpt lat="47.24164" lon="-2.29861">
        <ele>51.400001525879</ele>
        <time>2022-01-09T09:17:56.000Z</time>
      </trkpt>
      <trkpt lat="47.24159" lon="-2.29858">
        <ele>51.400001525879</ele>
        <time>2022-01-09T09:17:58.000Z</time>
      </trkpt>
      <trkpt lat="47.2415" lon="-2.29852">
        <ele>51.799999237061</ele>
        <time>2022-01-09T09:18:01.000Z</time>
      </trkpt>
      <trkpt lat="47.24146" lon="-2.29851">
        <ele>52.200000762939</ele>
        <time>2022-01-09T09:18:02.000Z</time>
      </trkpt>
      <trkpt lat="47.24142" lon="-2.29852">
        <ele>52.599998474121</ele>
        <time>2022-01-09T09:18:03.000Z</time>
      </trkpt>
      <trkpt lat="47.24136" lon="-2.29853">
        <ele>53.400001525879</ele>
        <time>2022-01-09T09:18:04.000Z</time>
      </trkpt>
      <trkpt lat="47.24132" lon="-2.29853">
        <ele>53.400001525879</ele>
        <time>2022-01-09T09:18:05.000Z</time>
      </trkpt>
      <trkpt lat="47.24112" lon="-2.29852">
        <ele>53.400001525879</ele>
        <time>2022-01-09T09:18:11.000Z</time>
      </trkpt>
      <trkpt lat="47.24094" lon="-2.29847">
        <ele>53.400001525879</ele>
        <time>2022-01-09T09:18:17.000Z</time>
      </trkpt>
      <trkpt lat="47.24085" lon="-2.29821">
        <ele>53.400001525879</ele>
        <time>2022-01-09T09:18:22.000Z</time>
      </trkpt>
      <trkpt lat="47.24076" lon="-2.29781">
        <ele>53.400001525879</ele>
        <time>2022-01-09T09:18:28.000Z</time>
      </trkpt>
      <trkpt lat="47.24068" lon="-2.29739">
        <ele>53.400001525879</ele>
        <time>2022-01-09T09:18:35.000Z</time>
      </trkpt>
      <trkpt lat="47.24059" lon="-2.29699">
        <ele>53.400001525879</ele>
        <time>2022-01-09T09:18:42.000Z</time>
      </trkpt>
      <trkpt lat="47.24058" lon="-2.29692">
        <ele>53.400001525879</ele>
        <time>2022-01-09T09:18:43.000Z</time>
      </trkpt>
      <trkpt lat="47.24051" lon="-2.29663">
        <ele>53.400001525879</ele>
        <time>2022-01-09T09:18:47.000Z</time>
      </trkpt>
      <trkpt lat="47.24059" lon="-2.29639">
        <ele>53.400001525879</ele>
        <time>2022-01-09T09:18:50.000Z</time>
      </trkpt>
      <trkpt lat="47.24078" lon="-2.29618">
        <ele>53.400001525879</ele>
        <time>2022-01-09T09:18:54.000Z</time>
      </trkpt>
      <trkpt lat="47.24104" lon="-2.29598">
        <ele>53.400001525879</ele>
        <time>2022-01-09T09:18:59.000Z</time>
      </trkpt>
      <trkpt lat="47.2411" lon="-2.29593">
        <ele>53.400001525879</ele>
        <time>2022-01-09T09:19:00.000Z</time>
      </trkpt>
      <trkpt lat="47.2412" lon="-2.29573">
        <ele>53.400001525879</ele>
        <time>2022-01-09T09:19:03.000Z</time>
      </trkpt>
      <trkpt lat="47.2412" lon="-2.29539">
        <ele>53.400001525879</ele>
        <time>2022-01-09T09:19:07.000Z</time>
      </trkpt>
      <trkpt lat="47.24112" lon="-2.29522">
        <ele>53.400001525879</ele>
        <time>2022-01-09T09:19:09.000Z</time>
      </trkpt>
      <trkpt lat="47.24106" lon="-2.29506">
        <ele>53.400001525879</ele>
        <time>2022-01-09T09:19:11.000Z</time>
      </trkpt>
      <trkpt lat="47.24104" lon="-2.29497">
        <ele>53.400001525879</ele>
        <time>2022-01-09T09:19:12.000Z</time>
      </trkpt>
      <trkpt lat="47.24107" lon="-2.29481">
        <ele>53.400001525879</ele>
        <time>2022-01-09T09:19:14.000Z</time>
      </trkpt>
      <trkpt lat="47.24119" lon="-2.29468">
        <ele>53.400001525879</ele>
        <time>2022-01-09T09:19:17.000Z</time>
      </trkpt>
      <trkpt lat="47.2413" lon="-2.29461">
        <ele>53.400001525879</ele>
        <time>2022-01-09T09:19:19.000Z</time>
      </trkpt>
      <trkpt lat="47.24146" lon="-2.29451">
        <ele>53.400001525879</ele>
        <time>2022-01-09T09:19:22.000Z</time>
      </trkpt>
      <trkpt lat="47.24165" lon="-2.29444">
        <ele>53.400001525879</ele>
        <time>2022-01-09T09:19:25.000Z</time>
      </trkpt>
      <trkpt lat="47.24179" lon="-2.29443">
        <ele>53.400001525879</ele>
        <time>2022-01-09T09:19:28.000Z</time>
      </trkpt>
      <trkpt lat="47.24193" lon="-2.29444">
        <ele>53</ele>
        <time>2022-01-09T09:19:30.000Z</time>
      </trkpt>
      <trkpt lat="47.242" lon="-2.29446">
        <ele>52.599998474121</ele>
        <time>2022-01-09T09:19:31.000Z</time>
      </trkpt>
      <trkpt lat="47.24207" lon="-2.29448">
        <ele>52.200000762939</ele>
        <time>2022-01-09T09:19:32.000Z</time>
      </trkpt>
      <trkpt lat="47.24213" lon="-2.2945">
        <ele>51.599998474121</ele>
        <time>2022-01-09T09:19:33.000Z</time>
      </trkpt>
      <trkpt lat="47.24219" lon="-2.29454">
        <ele>51.200000762939</ele>
        <time>2022-01-09T09:19:34.000Z</time>
      </trkpt>
      <trkpt lat="47.24241" lon="-2.29465">
        <ele>51.200000762939</ele>
        <time>2022-01-09T09:19:38.000Z</time>
      </trkpt>
      <trkpt lat="47.2426" lon="-2.29457">
        <ele>51.200000762939</ele>
        <time>2022-01-09T09:19:41.000Z</time>
      </trkpt>
      <trkpt lat="47.24299" lon="-2.29436">
        <ele>51.200000762939</ele>
        <time>2022-01-09T09:19:47.000Z</time>
      </trkpt>
      <trkpt lat="47.24306" lon="-2.29434">
        <ele>51.200000762939</ele>
        <time>2022-01-09T09:19:48.000Z</time>
      </trkpt>
      <trkpt lat="47.24318" lon="-2.29435">
        <ele>51.200000762939</ele>
        <time>2022-01-09T09:19:50.000Z</time>
      </trkpt>
      <trkpt lat="47.24337" lon="-2.29449">
        <ele>51.200000762939</ele>
        <time>2022-01-09T09:19:53.000Z</time>
      </trkpt>
      <trkpt lat="47.24347" lon="-2.2946">
        <ele>51.200000762939</ele>
        <time>2022-01-09T09:19:55.000Z</time>
      </trkpt>
      <trkpt lat="47.24358" lon="-2.29468">
        <ele>51.200000762939</ele>
        <time>2022-01-09T09:19:57.000Z</time>
      </trkpt>
      <trkpt lat="47.24363" lon="-2.29469">
        <ele>51.200000762939</ele>
        <time>2022-01-09T09:19:58.000Z</time>
      </trkpt>
      <trkpt lat="47.24369" lon="-2.29467">
        <ele>50.799999237061</ele>
        <time>2022-01-09T09:19:59.000Z</time>
      </trkpt>
      <trkpt lat="47.24374" lon="-2.29462">
        <ele>50.200000762939</ele>
        <time>2022-01-09T09:20:00.000Z</time>
      </trkpt>
      <trkpt lat="47.24379" lon="-2.29457">
        <ele>49.799999237061</ele>
        <time>2022-01-09T09:20:01.000Z</time>
      </trkpt>
      <trkpt lat="47.24383" lon="-2.29452">
        <ele>49.200000762939</ele>
        <time>2022-01-09T09:20:02.000Z</time>
      </trkpt>
      <trkpt lat="47.24388" lon="-2.29447">
        <ele>48.799999237061</ele>
        <time>2022-01-09T09:20:03.000Z</time>
      </trkpt>
      <trkpt lat="47.24397" lon="-2.29439">
        <ele>49.200000762939</ele>
        <time>2022-01-09T09:20:05.000Z</time>
      </trkpt>
      <trkpt lat="47.24403" lon="-2.29435">
        <ele>49.599998474121</ele>
        <time>2022-01-09T09:20:06.000Z</time>
      </trkpt>
      <trkpt lat="47.24409" lon="-2.29433">
        <ele>50</ele>
        <time>2022-01-09T09:20:07.000Z</time>
      </trkpt>
      <trkpt lat="47.24414" lon="-2.29433">
        <ele>50.400001525879</ele>
        <time>2022-01-09T09:20:08.000Z</time>
      </trkpt>
      <trkpt lat="47.2442" lon="-2.29432">
        <ele>50.799999237061</ele>
        <time>2022-01-09T09:20:09.000Z</time>
      </trkpt>
      <trkpt lat="47.24443" lon="-2.29431">
        <ele>51.200000762939</ele>
        <time>2022-01-09T09:20:13.000Z</time>
      </trkpt>
      <trkpt lat="47.24448" lon="-2.2943">
        <ele>51.599998474121</ele>
        <time>2022-01-09T09:20:14.000Z</time>
      </trkpt>
      <trkpt lat="47.24453" lon="-2.29429">
        <ele>52</ele>
        <time>2022-01-09T09:20:15.000Z</time>
      </trkpt>
      <trkpt lat="47.24458" lon="-2.29428">
        <ele>52.400001525879</ele>
        <time>2022-01-09T09:20:16.000Z</time>
      </trkpt>
      <trkpt lat="47.24463" lon="-2.29428">
        <ele>52.799999237061</ele>
        <time>2022-01-09T09:20:17.000Z</time>
      </trkpt>
      <trkpt lat="47.24489" lon="-2.29424">
        <ele>52.799999237061</ele>
        <time>2022-01-09T09:20:22.000Z</time>
      </trkpt>
      <trkpt lat="47.24508" lon="-2.2942">
        <ele>53.200000762939</ele>
        <time>2022-01-09T09:20:26.000Z</time>
      </trkpt>
      <trkpt lat="47.24512" lon="-2.29418">
        <ele>53.599998474121</ele>
        <time>2022-01-09T09:20:27.000Z</time>
      </trkpt>
      <trkpt lat="47.24516" lon="-2.29415">
        <ele>54</ele>
        <time>2022-01-09T09:20:28.000Z</time>
      </trkpt>
      <trkpt lat="47.24519" lon="-2.2941">
        <ele>54.400001525879</ele>
        <time>2022-01-09T09:20:29.000Z</time>
      </trkpt>
      <trkpt lat="47.24521" lon="-2.29404">
        <ele>55</ele>
        <time>2022-01-09T09:20:30.000Z</time>
      </trkpt>
      <trkpt lat="47.24522" lon="-2.29398">
        <ele>55</ele>
        <time>2022-01-09T09:20:31.000Z</time>
      </trkpt>
      <trkpt lat="47.24523" lon="-2.29384">
        <ele>55</ele>
        <time>2022-01-09T09:20:33.000Z</time>
      </trkpt>
      <trkpt lat="47.24522" lon="-2.29377">
        <ele>55</ele>
        <time>2022-01-09T09:20:34.000Z</time>
      </trkpt>
      <trkpt lat="47.24521" lon="-2.2937">
        <ele>55</ele>
        <time>2022-01-09T09:20:35.000Z</time>
      </trkpt>
      <trkpt lat="47.24518" lon="-2.29347">
        <ele>55</ele>
        <time>2022-01-09T09:20:38.000Z</time>
      </trkpt>
      <trkpt lat="47.24518" lon="-2.29323">
        <ele>55</ele>
        <time>2022-01-09T09:20:41.000Z</time>
      </trkpt>
      <trkpt lat="47.24516" lon="-2.29272">
        <ele>55</ele>
        <time>2022-01-09T09:20:47.000Z</time>
      </trkpt>
      <trkpt lat="47.24518" lon="-2.29213">
        <ele>55</ele>
        <time>2022-01-09T09:20:54.000Z</time>
      </trkpt>
      <trkpt lat="47.24523" lon="-2.29179">
        <ele>55</ele>
        <time>2022-01-09T09:20:58.000Z</time>
      </trkpt>
      <trkpt lat="47.24527" lon="-2.29162">
        <ele>55</ele>
        <time>2022-01-09T09:21:00.000Z</time>
      </trkpt>
      <trkpt lat="47.24543" lon="-2.29104">
        <ele>55</ele>
        <time>2022-01-09T09:21:07.000Z</time>
      </trkpt>
      <trkpt lat="47.24553" lon="-2.29054">
        <ele>55</ele>
        <time>2022-01-09T09:21:13.000Z</time>
      </trkpt>
      <trkpt lat="47.24555" lon="-2.29001">
        <ele>54.400001525879</ele>
        <time>2022-01-09T09:21:19.000Z</time>
      </trkpt>
      <trkpt lat="47.24553" lon="-2.28992">
        <ele>54</ele>
        <time>2022-01-09T09:21:20.000Z</time>
      </trkpt>
      <trkpt lat="47.24551" lon="-2.28982">
        <ele>53.599998474121</ele>
        <time>2022-01-09T09:21:21.000Z</time>
      </trkpt>
      <trkpt lat="47.24549" lon="-2.28974">
        <ele>53</ele>
        <time>2022-01-09T09:21:22.000Z</time>
      </trkpt>
      <trkpt lat="47.24547" lon="-2.28965">
        <ele>52.599998474121</ele>
        <time>2022-01-09T09:21:23.000Z</time>
      </trkpt>
      <trkpt lat="47.2454" lon="-2.2894">
        <ele>52.599998474121</ele>
        <time>2022-01-09T09:21:26.000Z</time>
      </trkpt>
      <trkpt lat="47.24523" lon="-2.28889">
        <ele>52.599998474121</ele>
        <time>2022-01-09T09:21:32.000Z</time>
      </trkpt>
      <trkpt lat="47.24527" lon="-2.28863">
        <ele>52.599998474121</ele>
        <time>2022-01-09T09:21:35.000Z</time>
      </trkpt>
      <trkpt lat="47.24541" lon="-2.28846">
        <ele>52.599998474121</ele>
        <time>2022-01-09T09:21:38.000Z</time>
      </trkpt>
      <trkpt lat="47.24546" lon="-2.28841">
        <ele>52.599998474121</ele>
        <time>2022-01-09T09:21:39.000Z</time>
      </trkpt>
      <trkpt lat="47.24571" lon="-2.28815">
        <ele>52.599998474121</ele>
        <time>2022-01-09T09:21:44.000Z</time>
      </trkpt>
      <trkpt lat="47.24576" lon="-2.2881">
        <ele>52.599998474121</ele>
        <time>2022-01-09T09:21:45.000Z</time>
      </trkpt>
      <trkpt lat="47.24591" lon="-2.28798">
        <ele>52.599998474121</ele>
        <time>2022-01-09T09:21:48.000Z</time>
      </trkpt>
      <trkpt lat="47.24626" lon="-2.28765">
        <ele>52.599998474121</ele>
        <time>2022-01-09T09:21:55.000Z</time>
      </trkpt>
      <trkpt lat="47.24651" lon="-2.28725">
        <ele>52.599998474121</ele>
        <time>2022-01-09T09:22:01.000Z</time>
      </trkpt>
      <trkpt lat="47.2468" lon="-2.28691">
        <ele>52.599998474121</ele>
        <time>2022-01-09T09:22:07.000Z</time>
      </trkpt>
      <trkpt lat="47.24689" lon="-2.28678">
        <ele>52.599998474121</ele>
        <time>2022-01-09T09:22:09.000Z</time>
      </trkpt>
      <trkpt lat="47.247" lon="-2.28659">
        <ele>52.599998474121</ele>
        <time>2022-01-09T09:22:12.000Z</time>
      </trkpt>
      <trkpt lat="47.24709" lon="-2.28647">
        <ele>52.599998474121</ele>
        <time>2022-01-09T09:22:14.000Z</time>
      </trkpt>
      <trkpt lat="47.24721" lon="-2.28637">
        <ele>52.599998474121</ele>
        <time>2022-01-09T09:22:16.000Z</time>
      </trkpt>
      <trkpt lat="47.24732" lon="-2.28625">
        <ele>52.599998474121</ele>
        <time>2022-01-09T09:22:18.000Z</time>
      </trkpt>
      <trkpt lat="47.24745" lon="-2.28603">
        <ele>52.599998474121</ele>
        <time>2022-01-09T09:22:21.000Z</time>
      </trkpt>
      <trkpt lat="47.24751" lon="-2.28575">
        <ele>52.599998474121</ele>
        <time>2022-01-09T09:22:24.000Z</time>
      </trkpt>
      <trkpt lat="47.24752" lon="-2.28567">
        <ele>52.599998474121</ele>
        <time>2022-01-09T09:22:25.000Z</time>
      </trkpt>
      <trkpt lat="47.24755" lon="-2.28561">
        <ele>52.599998474121</ele>
        <time>2022-01-09T09:22:26.000Z</time>
      </trkpt>
      <trkpt lat="47.24764" lon="-2.2855">
        <ele>52.599998474121</ele>
        <time>2022-01-09T09:22:28.000Z</time>
      </trkpt>
      <trkpt lat="47.24774" lon="-2.2854">
        <ele>52.599998474121</ele>
        <time>2022-01-09T09:22:30.000Z</time>
      </trkpt>
      <trkpt lat="47.24795" lon="-2.2852">
        <ele>52.599998474121</ele>
        <time>2022-01-09T09:22:34.000Z</time>
      </trkpt>
      <trkpt lat="47.2483" lon="-2.28493">
        <ele>52.599998474121</ele>
        <time>2022-01-09T09:22:40.000Z</time>
      </trkpt>
      <trkpt lat="47.2486" lon="-2.28469">
        <ele>52.599998474121</ele>
        <time>2022-01-09T09:22:45.000Z</time>
      </trkpt>
      <trkpt lat="47.24871" lon="-2.28455">
        <ele>52.599998474121</ele>
        <time>2022-01-09T09:22:47.000Z</time>
      </trkpt>
      <trkpt lat="47.24894" lon="-2.28431">
        <ele>52.599998474121</ele>
        <time>2022-01-09T09:22:51.000Z</time>
      </trkpt>
      <trkpt lat="47.24907" lon="-2.28422">
        <ele>52.599998474121</ele>
        <time>2022-01-09T09:22:53.000Z</time>
      </trkpt>
      <trkpt lat="47.24913" lon="-2.28418">
        <ele>52.200000762939</ele>
        <time>2022-01-09T09:22:54.000Z</time>
      </trkpt>
      <trkpt lat="47.2492" lon="-2.28415">
        <ele>51.599998474121</ele>
        <time>2022-01-09T09:22:55.000Z</time>
      </trkpt>
      <trkpt lat="47.24927" lon="-2.28412">
        <ele>51.200000762939</ele>
        <time>2022-01-09T09:22:56.000Z</time>
      </trkpt>
      <trkpt lat="47.24933" lon="-2.28409">
        <ele>50.599998474121</ele>
        <time>2022-01-09T09:22:57.000Z</time>
      </trkpt>
      <trkpt lat="47.24941" lon="-2.28407">
        <ele>50.200000762939</ele>
        <time>2022-01-09T09:22:58.000Z</time>
      </trkpt>
      <trkpt lat="47.24956" lon="-2.28401">
        <ele>49.799999237061</ele>
        <time>2022-01-09T09:23:00.000Z</time>
      </trkpt>
      <trkpt lat="47.24963" lon="-2.28398">
        <ele>49.400001525879</ele>
        <time>2022-01-09T09:23:01.000Z</time>
      </trkpt>
      <trkpt lat="47.24969" lon="-2.28395">
        <ele>48.400001525879</ele>
        <time>2022-01-09T09:23:02.000Z</time>
      </trkpt>
      <trkpt lat="47.24976" lon="-2.28391">
        <ele>48</ele>
        <time>2022-01-09T09:23:03.000Z</time>
      </trkpt>
      <trkpt lat="47.24987" lon="-2.2838">
        <ele>47.599998474121</ele>
        <time>2022-01-09T09:23:05.000Z</time>
      </trkpt>
      <trkpt lat="47.24991" lon="-2.28373">
        <ele>47.200000762939</ele>
        <time>2022-01-09T09:23:06.000Z</time>
      </trkpt>
      <trkpt lat="47.24995" lon="-2.28367">
        <ele>46.599998474121</ele>
        <time>2022-01-09T09:23:07.000Z</time>
      </trkpt>
      <trkpt lat="47.24997" lon="-2.28362">
        <ele>46.200000762939</ele>
        <time>2022-01-09T09:23:08.000Z</time>
      </trkpt>
      <trkpt lat="47.25" lon="-2.28356">
        <ele>45.799999237061</ele>
        <time>2022-01-09T09:23:09.000Z</time>
      </trkpt>
      <trkpt lat="47.25006" lon="-2.28343">
        <ele>45.799999237061</ele>
        <time>2022-01-09T09:23:11.000Z</time>
      </trkpt>
      <trkpt lat="47.2501" lon="-2.28337">
        <ele>45.799999237061</ele>
        <time>2022-01-09T09:23:12.000Z</time>
      </trkpt>
      <trkpt lat="47.2502" lon="-2.28327">
        <ele>45.799999237061</ele>
        <time>2022-01-09T09:23:14.000Z</time>
      </trkpt>
      <trkpt lat="47.25029" lon="-2.28317">
        <ele>45.799999237061</ele>
        <time>2022-01-09T09:23:16.000Z</time>
      </trkpt>
      <trkpt lat="47.25033" lon="-2.28305">
        <ele>45.799999237061</ele>
        <time>2022-01-09T09:23:18.000Z</time>
      </trkpt>
      <trkpt lat="47.25033" lon="-2.28299">
        <ele>46.200000762939</ele>
        <time>2022-01-09T09:23:19.000Z</time>
      </trkpt>
      <trkpt lat="47.25033" lon="-2.28292">
        <ele>46.599998474121</ele>
        <time>2022-01-09T09:23:20.000Z</time>
      </trkpt>
      <trkpt lat="47.25033" lon="-2.28285">
        <ele>47</ele>
        <time>2022-01-09T09:23:21.000Z</time>
      </trkpt>
      <trkpt lat="47.25034" lon="-2.28277">
        <ele>47.400001525879</ele>
        <time>2022-01-09T09:23:22.000Z</time>
      </trkpt>
      <trkpt lat="47.25034" lon="-2.28269">
        <ele>47.799999237061</ele>
        <time>2022-01-09T09:23:23.000Z</time>
      </trkpt>
      <trkpt lat="47.25037" lon="-2.28253">
        <ele>47.799999237061</ele>
        <time>2022-01-09T09:23:25.000Z</time>
      </trkpt>
      <trkpt lat="47.25041" lon="-2.28231">
        <ele>47.799999237061</ele>
        <time>2022-01-09T09:23:28.000Z</time>
      </trkpt>
      <trkpt lat="47.25052" lon="-2.28184">
        <ele>47.799999237061</ele>
        <time>2022-01-09T09:23:35.000Z</time>
      </trkpt>
      <trkpt lat="47.2506" lon="-2.28149">
        <ele>47.799999237061</ele>
        <time>2022-01-09T09:23:41.000Z</time>
      </trkpt>
      <trkpt lat="47.2507" lon="-2.28116">
        <ele>47.799999237061</ele>
        <time>2022-01-09T09:23:47.000Z</time>
      </trkpt>
      <trkpt lat="47.2508" lon="-2.28076">
        <ele>47.799999237061</ele>
        <time>2022-01-09T09:23:53.000Z</time>
      </trkpt>
      <trkpt lat="47.2509" lon="-2.28052">
        <ele>47.799999237061</ele>
        <time>2022-01-09T09:23:57.000Z</time>
      </trkpt>
      <trkpt lat="47.25092" lon="-2.28046">
        <ele>47.799999237061</ele>
        <time>2022-01-09T09:23:58.000Z</time>
      </trkpt>
      <trkpt lat="47.25094" lon="-2.28039">
        <ele>48.200000762939</ele>
        <time>2022-01-09T09:23:59.000Z</time>
      </trkpt>
      <trkpt lat="47.25096" lon="-2.28032">
        <ele>48.799999237061</ele>
        <time>2022-01-09T09:24:00.000Z</time>
      </trkpt>
      <trkpt lat="47.25099" lon="-2.28026">
        <ele>49.200000762939</ele>
        <time>2022-01-09T09:24:01.000Z</time>
      </trkpt>
      <trkpt lat="47.25101" lon="-2.2802">
        <ele>49.599998474121</ele>
        <time>2022-01-09T09:24:02.000Z</time>
      </trkpt>
      <trkpt lat="47.25104" lon="-2.28014">
        <ele>50</ele>
        <time>2022-01-09T09:24:03.000Z</time>
      </trkpt>
      <trkpt lat="47.25107" lon="-2.28008">
        <ele>50</ele>
        <time>2022-01-09T09:24:04.000Z</time>
      </trkpt>
      <trkpt lat="47.25121" lon="-2.27979">
        <ele>50</ele>
        <time>2022-01-09T09:24:09.000Z</time>
      </trkpt>
      <trkpt lat="47.25129" lon="-2.27968">
        <ele>50</ele>
        <time>2022-01-09T09:24:11.000Z</time>
      </trkpt>
      <trkpt lat="47.25138" lon="-2.27958">
        <ele>50</ele>
        <time>2022-01-09T09:24:13.000Z</time>
      </trkpt>
      <trkpt lat="47.25143" lon="-2.27954">
        <ele>50.400001525879</ele>
        <time>2022-01-09T09:24:14.000Z</time>
      </trkpt>
      <trkpt lat="47.25148" lon="-2.2795">
        <ele>50.799999237061</ele>
        <time>2022-01-09T09:24:15.000Z</time>
      </trkpt>
      <trkpt lat="47.25153" lon="-2.27946">
        <ele>51.599998474121</ele>
        <time>2022-01-09T09:24:16.000Z</time>
      </trkpt>
      <trkpt lat="47.25158" lon="-2.27943">
        <ele>52</ele>
        <time>2022-01-09T09:24:17.000Z</time>
      </trkpt>
      <trkpt lat="47.25186" lon="-2.27921">
        <ele>52</ele>
        <time>2022-01-09T09:24:23.000Z</time>
      </trkpt>
      <trkpt lat="47.25196" lon="-2.27914">
        <ele>52</ele>
        <time>2022-01-09T09:24:25.000Z</time>
      </trkpt>
      <trkpt lat="47.25216" lon="-2.27904">
        <ele>52</ele>
        <time>2022-01-09T09:24:29.000Z</time>
      </trkpt>
      <trkpt lat="47.25246" lon="-2.27888">
        <ele>52</ele>
        <time>2022-01-09T09:24:35.000Z</time>
      </trkpt>
      <trkpt lat="47.25251" lon="-2.27886">
        <ele>52.400001525879</ele>
        <time>2022-01-09T09:24:36.000Z</time>
      </trkpt>
      <trkpt lat="47.25256" lon="-2.27883">
        <ele>52.799999237061</ele>
        <time>2022-01-09T09:24:37.000Z</time>
      </trkpt>
      <trkpt lat="47.2526" lon="-2.27881">
        <ele>53.200000762939</ele>
        <time>2022-01-09T09:24:38.000Z</time>
      </trkpt>
      <trkpt lat="47.25266" lon="-2.27879">
        <ele>53.599998474121</ele>
        <time>2022-01-09T09:24:39.000Z</time>
      </trkpt>
      <trkpt lat="47.25271" lon="-2.27877">
        <ele>54</ele>
        <time>2022-01-09T09:24:40.000Z</time>
      </trkpt>
      <trkpt lat="47.25276" lon="-2.27875">
        <ele>54</ele>
        <time>2022-01-09T09:24:41.000Z</time>
      </trkpt>
      <trkpt lat="47.25297" lon="-2.27871">
        <ele>54</ele>
        <time>2022-01-09T09:24:45.000Z</time>
      </trkpt>
      <trkpt lat="47.25308" lon="-2.27869">
        <ele>54</ele>
        <time>2022-01-09T09:24:47.000Z</time>
      </trkpt>
      <trkpt lat="47.2533" lon="-2.27867">
        <ele>54.599998474121</ele>
        <time>2022-01-09T09:24:51.000Z</time>
      </trkpt>
      <trkpt lat="47.25335" lon="-2.27866">
        <ele>55</ele>
        <time>2022-01-09T09:24:52.000Z</time>
      </trkpt>
      <trkpt lat="47.2534" lon="-2.27865">
        <ele>55.400001525879</ele>
        <time>2022-01-09T09:24:53.000Z</time>
      </trkpt>
      <trkpt lat="47.25344" lon="-2.27864">
        <ele>55.799999237061</ele>
        <time>2022-01-09T09:24:54.000Z</time>
      </trkpt>
      <trkpt lat="47.25349" lon="-2.27863">
        <ele>56.200000762939</ele>
        <time>2022-01-09T09:24:55.000Z</time>
      </trkpt>
      <trkpt lat="47.25363" lon="-2.27858">
        <ele>56.200000762939</ele>
        <time>2022-01-09T09:24:58.000Z</time>
      </trkpt>
      <trkpt lat="47.25399" lon="-2.27845">
        <ele>56.200000762939</ele>
        <time>2022-01-09T09:25:06.000Z</time>
      </trkpt>
      <trkpt lat="47.25424" lon="-2.27831">
        <ele>56.200000762939</ele>
        <time>2022-01-09T09:25:12.000Z</time>
      </trkpt>
      <trkpt lat="47.25439" lon="-2.27817">
        <ele>56.200000762939</ele>
        <time>2022-01-09T09:25:16.000Z</time>
      </trkpt>
      <trkpt lat="47.25447" lon="-2.27808">
        <ele>56.200000762939</ele>
        <time>2022-01-09T09:25:18.000Z</time>
      </trkpt>
      <trkpt lat="47.25462" lon="-2.2779">
        <ele>56.599998474121</ele>
        <time>2022-01-09T09:25:22.000Z</time>
      </trkpt>
      <trkpt lat="47.25466" lon="-2.27786">
        <ele>57</ele>
        <time>2022-01-09T09:25:23.000Z</time>
      </trkpt>
      <trkpt lat="47.25469" lon="-2.27781">
        <ele>57.400001525879</ele>
        <time>2022-01-09T09:25:24.000Z</time>
      </trkpt>
      <trkpt lat="47.25473" lon="-2.27778">
        <ele>57.799999237061</ele>
        <time>2022-01-09T09:25:25.000Z</time>
      </trkpt>
      <trkpt lat="47.25476" lon="-2.27774">
        <ele>58.200000762939</ele>
        <time>2022-01-09T09:25:26.000Z</time>
      </trkpt>
      <trkpt lat="47.25479" lon="-2.2777">
        <ele>58.200000762939</ele>
        <time>2022-01-09T09:25:27.000Z</time>
      </trkpt>
      <trkpt lat="47.25493" lon="-2.27755">
        <ele>58.200000762939</ele>
        <time>2022-01-09T09:25:31.000Z</time>
      </trkpt>
      <trkpt lat="47.25502" lon="-2.27734">
        <ele>58.200000762939</ele>
        <time>2022-01-09T09:25:36.000Z</time>
      </trkpt>
      <trkpt lat="47.25498" lon="-2.27707">
        <ele>58.200000762939</ele>
        <time>2022-01-09T09:25:40.000Z</time>
      </trkpt>
      <trkpt lat="47.25495" lon="-2.27694">
        <ele>58.200000762939</ele>
        <time>2022-01-09T09:25:42.000Z</time>
      </trkpt>
      <trkpt lat="47.25493" lon="-2.27682">
        <ele>58.200000762939</ele>
        <time>2022-01-09T09:25:44.000Z</time>
      </trkpt>
      <trkpt lat="47.25492" lon="-2.27675">
        <ele>58.200000762939</ele>
        <time>2022-01-09T09:25:45.000Z</time>
      </trkpt>
      <trkpt lat="47.25486" lon="-2.27637">
        <ele>58.200000762939</ele>
        <time>2022-01-09T09:25:51.000Z</time>
      </trkpt>
      <trkpt lat="47.25478" lon="-2.27618">
        <ele>58.200000762939</ele>
        <time>2022-01-09T09:25:55.000Z</time>
      </trkpt>
      <trkpt lat="47.25466" lon="-2.27598">
        <ele>58.200000762939</ele>
        <time>2022-01-09T09:26:00.000Z</time>
      </trkpt>
      <trkpt lat="47.25465" lon="-2.27592">
        <ele>58.200000762939</ele>
        <time>2022-01-09T09:26:01.000Z</time>
      </trkpt>
      <trkpt lat="47.2546" lon="-2.27572">
        <ele>58.200000762939</ele>
        <time>2022-01-09T09:26:05.000Z</time>
      </trkpt>
      <trkpt lat="47.25455" lon="-2.27553">
        <ele>58.200000762939</ele>
        <time>2022-01-09T09:26:08.000Z</time>
      </trkpt>
      <trkpt lat="47.25449" lon="-2.27535">
        <ele>58.200000762939</ele>
        <time>2022-01-09T09:26:11.000Z</time>
      </trkpt>
      <trkpt lat="47.25442" lon="-2.2751">
        <ele>58.200000762939</ele>
        <time>2022-01-09T09:26:16.000Z</time>
      </trkpt>
      <trkpt lat="47.25439" lon="-2.27506">
        <ele>58.200000762939</ele>
        <time>2022-01-09T09:26:17.000Z</time>
      </trkpt>
      <trkpt lat="47.2543" lon="-2.27495">
        <ele>58.200000762939</ele>
        <time>2022-01-09T09:26:19.000Z</time>
      </trkpt>
      <trkpt lat="47.25418" lon="-2.27465">
        <ele>58.200000762939</ele>
        <time>2022-01-09T09:26:23.000Z</time>
      </trkpt>
      <trkpt lat="47.254" lon="-2.27411">
        <ele>58.200000762939</ele>
        <time>2022-01-09T09:26:30.000Z</time>
      </trkpt>
      <trkpt lat="47.25393" lon="-2.27382">
        <ele>58.200000762939</ele>
        <time>2022-01-09T09:26:35.000Z</time>
      </trkpt>
      <trkpt lat="47.25382" lon="-2.2737">
        <ele>58.200000762939</ele>
        <time>2022-01-09T09:26:39.000Z</time>
      </trkpt>
      <trkpt lat="47.25367" lon="-2.27346">
        <ele>58.200000762939</ele>
        <time>2022-01-09T09:26:44.000Z</time>
      </trkpt>
      <trkpt lat="47.25355" lon="-2.27328">
        <ele>58.200000762939</ele>
        <time>2022-01-09T09:26:49.000Z</time>
      </trkpt>
      <trkpt lat="47.25346" lon="-2.27305">
        <ele>58.200000762939</ele>
        <time>2022-01-09T09:26:55.000Z</time>
      </trkpt>
      <trkpt lat="47.25339" lon="-2.27284">
        <ele>58.200000762939</ele>
        <time>2022-01-09T09:27:01.000Z</time>
      </trkpt>
      <trkpt lat="47.25326" lon="-2.27264">
        <ele>58.200000762939</ele>
        <time>2022-01-09T09:27:08.000Z</time>
      </trkpt>
      <trkpt lat="47.25309" lon="-2.2724">
        <ele>58.200000762939</ele>
        <time>2022-01-09T09:27:14.000Z</time>
      </trkpt>
      <trkpt lat="47.25296" lon="-2.27209">
        <ele>58.200000762939</ele>
        <time>2022-01-09T09:27:21.000Z</time>
      </trkpt>
      <trkpt lat="47.25279" lon="-2.27178">
        <ele>58.200000762939</ele>
        <time>2022-01-09T09:27:28.000Z</time>
      </trkpt>
      <trkpt lat="47.25258" lon="-2.27145">
        <ele>58.200000762939</ele>
        <time>2022-01-09T09:27:36.000Z</time>
      </trkpt>
      <trkpt lat="47.25247" lon="-2.27131">
        <ele>58.200000762939</ele>
        <time>2022-01-09T09:27:40.000Z</time>
      </trkpt>
      <trkpt lat="47.25227" lon="-2.27094">
        <ele>58.200000762939</ele>
        <time>2022-01-09T09:27:48.000Z</time>
      </trkpt>
      <trkpt lat="47.25225" lon="-2.27089">
        <ele>58.200000762939</ele>
        <time>2022-01-09T09:27:49.000Z</time>
      </trkpt>
      <trkpt lat="47.25205" lon="-2.27053">
        <ele>58.200000762939</ele>
        <time>2022-01-09T09:27:56.000Z</time>
      </trkpt>
      <trkpt lat="47.25203" lon="-2.27047">
        <ele>58.200000762939</ele>
        <time>2022-01-09T09:27:57.000Z</time>
      </trkpt>
      <trkpt lat="47.25196" lon="-2.2703">
        <ele>58.200000762939</ele>
        <time>2022-01-09T09:28:01.000Z</time>
      </trkpt>
      <trkpt lat="47.25184" lon="-2.27006">
        <ele>58.200000762939</ele>
        <time>2022-01-09T09:28:06.000Z</time>
      </trkpt>
      <trkpt lat="47.25182" lon="-2.26988">
        <ele>58.200000762939</ele>
        <time>2022-01-09T09:28:10.000Z</time>
      </trkpt>
      <trkpt lat="47.25182" lon="-2.26983">
        <ele>58.200000762939</ele>
        <time>2022-01-09T09:28:12.000Z</time>
      </trkpt>
      <trkpt lat="47.25179" lon="-2.26975">
        <ele>58.200000762939</ele>
        <time>2022-01-09T09:28:15.000Z</time>
      </trkpt>
      <trkpt lat="47.25178" lon="-2.26974">
        <ele>58.200000762939</ele>
        <time>2022-01-09T09:28:16.000Z</time>
      </trkpt>
      <trkpt lat="47.25174" lon="-2.26975">
        <ele>58.200000762939</ele>
        <time>2022-01-09T09:28:18.000Z</time>
      </trkpt>
      <trkpt lat="47.25169" lon="-2.26974">
        <ele>58.200000762939</ele>
        <time>2022-01-09T09:28:20.000Z</time>
      </trkpt>
      <trkpt lat="47.25166" lon="-2.26969">
        <ele>58.200000762939</ele>
        <time>2022-01-09T09:28:22.000Z</time>
      </trkpt>
      <trkpt lat="47.25158" lon="-2.26953">
        <ele>58.200000762939</ele>
        <time>2022-01-09T09:28:27.000Z</time>
      </trkpt>
      <trkpt lat="47.25151" lon="-2.26944">
        <ele>58.200000762939</ele>
        <time>2022-01-09T09:28:33.000Z</time>
      </trkpt>
      <trkpt lat="47.25149" lon="-2.26939">
        <ele>58.200000762939</ele>
        <time>2022-01-09T09:28:35.000Z</time>
      </trkpt>
      <trkpt lat="47.25148" lon="-2.26932">
        <ele>58.200000762939</ele>
        <time>2022-01-09T09:28:37.000Z</time>
      </trkpt>
      <trkpt lat="47.25152" lon="-2.26902">
        <ele>58.200000762939</ele>
        <time>2022-01-09T09:28:42.000Z</time>
      </trkpt>
      <trkpt lat="47.25153" lon="-2.26883">
        <ele>58.200000762939</ele>
        <time>2022-01-09T09:28:45.000Z</time>
      </trkpt>
      <trkpt lat="47.25152" lon="-2.2686">
        <ele>58.200000762939</ele>
        <time>2022-01-09T09:28:49.000Z</time>
      </trkpt>
      <trkpt lat="47.25159" lon="-2.26834">
        <ele>58.200000762939</ele>
        <time>2022-01-09T09:28:54.000Z</time>
      </trkpt>
      <trkpt lat="47.25162" lon="-2.26816">
        <ele>58.200000762939</ele>
        <time>2022-01-09T09:28:59.000Z</time>
      </trkpt>
      <trkpt lat="47.25162" lon="-2.26815">
        <ele>58.200000762939</ele>
        <time>2022-01-09T09:29:00.000Z</time>
      </trkpt>
      <trkpt lat="47.25169" lon="-2.26815">
        <ele>58.200000762939</ele>
        <time>2022-01-09T09:29:03.000Z</time>
      </trkpt>
      <trkpt lat="47.25182" lon="-2.26816">
        <ele>58.200000762939</ele>
        <time>2022-01-09T09:29:08.000Z</time>
      </trkpt>
      <trkpt lat="47.25188" lon="-2.26821">
        <ele>58.200000762939</ele>
        <time>2022-01-09T09:29:10.000Z</time>
      </trkpt>
      <trkpt lat="47.25192" lon="-2.26828">
        <ele>58.200000762939</ele>
        <time>2022-01-09T09:29:12.000Z</time>
      </trkpt>
      <trkpt lat="47.25201" lon="-2.26828">
        <ele>58.200000762939</ele>
        <time>2022-01-09T09:29:15.000Z</time>
      </trkpt>
      <trkpt lat="47.25203" lon="-2.26832">
        <ele>58.200000762939</ele>
        <time>2022-01-09T09:29:16.000Z</time>
      </trkpt>
      <trkpt lat="47.25205" lon="-2.26841">
        <ele>58.200000762939</ele>
        <time>2022-01-09T09:29:18.000Z</time>
      </trkpt>
      <trkpt lat="47.25209" lon="-2.26867">
        <ele>58.200000762939</ele>
        <time>2022-01-09T09:29:23.000Z</time>
      </trkpt>
      <trkpt lat="47.25224" lon="-2.26898">
        <ele>58.200000762939</ele>
        <time>2022-01-09T09:29:30.000Z</time>
      </trkpt>
      <trkpt lat="47.25237" lon="-2.26894">
        <ele>58.200000762939</ele>
        <time>2022-01-09T09:29:33.000Z</time>
      </trkpt>
      <trkpt lat="47.25251" lon="-2.26881">
        <ele>58.200000762939</ele>
        <time>2022-01-09T09:29:38.000Z</time>
      </trkpt>
      <trkpt lat="47.25263" lon="-2.26871">
        <ele>58.200000762939</ele>
        <time>2022-01-09T09:29:45.000Z</time>
      </trkpt>
      <trkpt lat="47.25263" lon="-2.26872">
        <ele>58.200000762939</ele>
        <time>2022-01-09T09:29:47.000Z</time>
      </trkpt>
      <trkpt lat="47.25266" lon="-2.2687">
        <ele>58.200000762939</ele>
        <time>2022-01-09T09:30:20.000Z</time>
      </trkpt>
      <trkpt lat="47.25267" lon="-2.2687">
        <ele>58.200000762939</ele>
        <time>2022-01-09T09:30:21.000Z</time>
      </trkpt>
      <trkpt lat="47.2528" lon="-2.26863">
        <ele>58.200000762939</ele>
        <time>2022-01-09T09:30:27.000Z</time>
      </trkpt>
      <trkpt lat="47.25296" lon="-2.26858">
        <ele>58.200000762939</ele>
        <time>2022-01-09T09:30:32.000Z</time>
      </trkpt>
      <trkpt lat="47.25311" lon="-2.26851">
        <ele>58.200000762939</ele>
        <time>2022-01-09T09:30:37.000Z</time>
      </trkpt>
      <trkpt lat="47.25313" lon="-2.26846">
        <ele>58.200000762939</ele>
        <time>2022-01-09T09:30:38.000Z</time>
      </trkpt>
      <trkpt lat="47.25315" lon="-2.26835">
        <ele>58.200000762939</ele>
        <time>2022-01-09T09:30:40.000Z</time>
      </trkpt>
      <trkpt lat="47.25317" lon="-2.26814">
        <ele>58.200000762939</ele>
        <time>2022-01-09T09:30:44.000Z</time>
      </trkpt>
      <trkpt lat="47.25318" lon="-2.26809">
        <ele>58.200000762939</ele>
        <time>2022-01-09T09:30:45.000Z</time>
      </trkpt>
      <trkpt lat="47.25323" lon="-2.26778">
        <ele>58.200000762939</ele>
        <time>2022-01-09T09:30:51.000Z</time>
      </trkpt>
      <trkpt lat="47.25327" lon="-2.2675">
        <ele>58.200000762939</ele>
        <time>2022-01-09T09:30:57.000Z</time>
      </trkpt>
      <trkpt lat="47.25329" lon="-2.26739">
        <ele>58.200000762939</ele>
        <time>2022-01-09T09:31:03.000Z</time>
      </trkpt>
      <trkpt lat="47.25326" lon="-2.26727">
        <ele>58.200000762939</ele>
        <time>2022-01-09T09:31:07.000Z</time>
      </trkpt>
      <trkpt lat="47.25313" lon="-2.26726">
        <ele>58.200000762939</ele>
        <time>2022-01-09T09:31:10.000Z</time>
      </trkpt>
      <trkpt lat="47.2528" lon="-2.26726">
        <ele>58.200000762939</ele>
        <time>2022-01-09T09:31:16.000Z</time>
      </trkpt>
      <trkpt lat="47.25275" lon="-2.26728">
        <ele>58.200000762939</ele>
        <time>2022-01-09T09:31:17.000Z</time>
      </trkpt>
      <trkpt lat="47.25258" lon="-2.26733">
        <ele>58.200000762939</ele>
        <time>2022-01-09T09:31:20.000Z</time>
      </trkpt>
      <trkpt lat="47.25253" lon="-2.26737">
        <ele>58.200000762939</ele>
        <time>2022-01-09T09:31:21.000Z</time>
      </trkpt>
      <trkpt lat="47.25215" lon="-2.26766">
        <ele>58.200000762939</ele>
        <time>2022-01-09T09:31:28.000Z</time>
      </trkpt>
      <trkpt lat="47.25187" lon="-2.26785">
        <ele>58.200000762939</ele>
        <time>2022-01-09T09:31:34.000Z</time>
      </trkpt>
      <trkpt lat="47.25181" lon="-2.26783">
        <ele>58.200000762939</ele>
        <time>2022-01-09T09:31:36.000Z</time>
      </trkpt>
      <trkpt lat="47.25179" lon="-2.26778">
        <ele>58.200000762939</ele>
        <time>2022-01-09T09:31:37.000Z</time>
      </trkpt>
      <trkpt lat="47.25179" lon="-2.26749">
        <ele>58.200000762939</ele>
        <time>2022-01-09T09:31:41.000Z</time>
      </trkpt>
      <trkpt lat="47.25177" lon="-2.267">
        <ele>58.200000762939</ele>
        <time>2022-01-09T09:31:47.000Z</time>
      </trkpt>
      <trkpt lat="47.25176" lon="-2.26634">
        <ele>58.200000762939</ele>
        <time>2022-01-09T09:31:54.000Z</time>
      </trkpt>
      <trkpt lat="47.2517" lon="-2.2658">
        <ele>58.200000762939</ele>
        <time>2022-01-09T09:32:00.000Z</time>
      </trkpt>
      <trkpt lat="47.2516" lon="-2.26529">
        <ele>57.799999237061</ele>
        <time>2022-01-09T09:32:06.000Z</time>
      </trkpt>
      <trkpt lat="47.25158" lon="-2.2652">
        <ele>57.200000762939</ele>
        <time>2022-01-09T09:32:07.000Z</time>
      </trkpt>
      <trkpt lat="47.25155" lon="-2.26512">
        <ele>56.799999237061</ele>
        <time>2022-01-09T09:32:08.000Z</time>
      </trkpt>
      <trkpt lat="47.25152" lon="-2.26505">
        <ele>56.400001525879</ele>
        <time>2022-01-09T09:32:09.000Z</time>
      </trkpt>
      <trkpt lat="47.25149" lon="-2.26497">
        <ele>56</ele>
        <time>2022-01-09T09:32:10.000Z</time>
      </trkpt>
      <trkpt lat="47.25141" lon="-2.26463">
        <ele>56</ele>
        <time>2022-01-09T09:32:14.000Z</time>
      </trkpt>
      <trkpt lat="47.25137" lon="-2.26447">
        <ele>55.599998474121</ele>
        <time>2022-01-09T09:32:16.000Z</time>
      </trkpt>
      <trkpt lat="47.25135" lon="-2.26439">
        <ele>55.200000762939</ele>
        <time>2022-01-09T09:32:17.000Z</time>
      </trkpt>
      <trkpt lat="47.25133" lon="-2.26433">
        <ele>54.599998474121</ele>
        <time>2022-01-09T09:32:18.000Z</time>
      </trkpt>
      <trkpt lat="47.25131" lon="-2.26426">
        <ele>54.200000762939</ele>
        <time>2022-01-09T09:32:19.000Z</time>
      </trkpt>
      <trkpt lat="47.25128" lon="-2.26422">
        <ele>53.799999237061</ele>
        <time>2022-01-09T09:32:20.000Z</time>
      </trkpt>
      <trkpt lat="47.25119" lon="-2.26416">
        <ele>53.799999237061</ele>
        <time>2022-01-09T09:32:22.000Z</time>
      </trkpt>
      <trkpt lat="47.25106" lon="-2.26417">
        <ele>53.799999237061</ele>
        <time>2022-01-09T09:32:25.000Z</time>
      </trkpt>
      <trkpt lat="47.25096" lon="-2.26418">
        <ele>53.400001525879</ele>
        <time>2022-01-09T09:32:27.000Z</time>
      </trkpt>
      <trkpt lat="47.25091" lon="-2.26418">
        <ele>53</ele>
        <time>2022-01-09T09:32:28.000Z</time>
      </trkpt>
      <trkpt lat="47.25086" lon="-2.26417">
        <ele>52.599998474121</ele>
        <time>2022-01-09T09:32:29.000Z</time>
      </trkpt>
      <trkpt lat="47.2508" lon="-2.2641">
        <ele>52.200000762939</ele>
        <time>2022-01-09T09:32:30.000Z</time>
      </trkpt>
      <trkpt lat="47.25077" lon="-2.26402">
        <ele>51.599998474121</ele>
        <time>2022-01-09T09:32:31.000Z</time>
      </trkpt>
      <trkpt lat="47.25072" lon="-2.26386">
        <ele>51.599998474121</ele>
        <time>2022-01-09T09:32:33.000Z</time>
      </trkpt>
      <trkpt lat="47.25069" lon="-2.26381">
        <ele>51.599998474121</ele>
        <time>2022-01-09T09:32:34.000Z</time>
      </trkpt>
      <trkpt lat="47.25067" lon="-2.26375">
        <ele>51.599998474121</ele>
        <time>2022-01-09T09:32:35.000Z</time>
      </trkpt>
      <trkpt lat="47.25058" lon="-2.26338">
        <ele>51.599998474121</ele>
        <time>2022-01-09T09:32:39.000Z</time>
      </trkpt>
      <trkpt lat="47.25055" lon="-2.26306">
        <ele>51.200000762939</ele>
        <time>2022-01-09T09:32:42.000Z</time>
      </trkpt>
      <trkpt lat="47.25054" lon="-2.26296">
        <ele>50.799999237061</ele>
        <time>2022-01-09T09:32:43.000Z</time>
      </trkpt>
      <trkpt lat="47.25055" lon="-2.26285">
        <ele>50.400001525879</ele>
        <time>2022-01-09T09:32:44.000Z</time>
      </trkpt>
      <trkpt lat="47.25057" lon="-2.26275">
        <ele>50</ele>
        <time>2022-01-09T09:32:45.000Z</time>
      </trkpt>
      <trkpt lat="47.25058" lon="-2.26267">
        <ele>49.599998474121</ele>
        <time>2022-01-09T09:32:46.000Z</time>
      </trkpt>
      <trkpt lat="47.25061" lon="-2.26259">
        <ele>49.599998474121</ele>
        <time>2022-01-09T09:32:47.000Z</time>
      </trkpt>
      <trkpt lat="47.25064" lon="-2.26251">
        <ele>49.599998474121</ele>
        <time>2022-01-09T09:32:48.000Z</time>
      </trkpt>
      <trkpt lat="47.25077" lon="-2.26222">
        <ele>49.599998474121</ele>
        <time>2022-01-09T09:32:52.000Z</time>
      </trkpt>
      <trkpt lat="47.25078" lon="-2.26215">
        <ele>49.599998474121</ele>
        <time>2022-01-09T09:32:53.000Z</time>
      </trkpt>
      <trkpt lat="47.25078" lon="-2.26192">
        <ele>49.599998474121</ele>
        <time>2022-01-09T09:32:56.000Z</time>
      </trkpt>
      <trkpt lat="47.25078" lon="-2.26184">
        <ele>49.599998474121</ele>
        <time>2022-01-09T09:32:57.000Z</time>
      </trkpt>
      <trkpt lat="47.25079" lon="-2.26151">
        <ele>49.599998474121</ele>
        <time>2022-01-09T09:33:02.000Z</time>
      </trkpt>
      <trkpt lat="47.25078" lon="-2.26149">
        <ele>49.599998474121</ele>
        <time>2022-01-09T09:33:03.000Z</time>
      </trkpt>
      <trkpt lat="47.25074" lon="-2.26148">
        <ele>49.599998474121</ele>
        <time>2022-01-09T09:33:05.000Z</time>
      </trkpt>
      <trkpt lat="47.25062" lon="-2.26138">
        <ele>49.200000762939</ele>
        <time>2022-01-09T09:33:09.000Z</time>
      </trkpt>
      <trkpt lat="47.25059" lon="-2.26131">
        <ele>48.799999237061</ele>
        <time>2022-01-09T09:33:10.000Z</time>
      </trkpt>
      <trkpt lat="47.25058" lon="-2.26124">
        <ele>48.400001525879</ele>
        <time>2022-01-09T09:33:11.000Z</time>
      </trkpt>
      <trkpt lat="47.25057" lon="-2.26116">
        <ele>48</ele>
        <time>2022-01-09T09:33:12.000Z</time>
      </trkpt>
      <trkpt lat="47.25058" lon="-2.26107">
        <ele>47.400001525879</ele>
        <time>2022-01-09T09:33:13.000Z</time>
      </trkpt>
      <trkpt lat="47.25058" lon="-2.26098">
        <ele>47.400001525879</ele>
        <time>2022-01-09T09:33:14.000Z</time>
      </trkpt>
      <trkpt lat="47.25058" lon="-2.26088">
        <ele>47</ele>
        <time>2022-01-09T09:33:15.000Z</time>
      </trkpt>
      <trkpt lat="47.25059" lon="-2.2608">
        <ele>46.599998474121</ele>
        <time>2022-01-09T09:33:16.000Z</time>
      </trkpt>
      <trkpt lat="47.2506" lon="-2.26071">
        <ele>46.200000762939</ele>
        <time>2022-01-09T09:33:17.000Z</time>
      </trkpt>
      <trkpt lat="47.25062" lon="-2.26063">
        <ele>45.799999237061</ele>
        <time>2022-01-09T09:33:18.000Z</time>
      </trkpt>
      <trkpt lat="47.25063" lon="-2.26055">
        <ele>45.400001525879</ele>
        <time>2022-01-09T09:33:19.000Z</time>
      </trkpt>
      <trkpt lat="47.25063" lon="-2.26048">
        <ele>44.599998474121</ele>
        <time>2022-01-09T09:33:20.000Z</time>
      </trkpt>
      <trkpt lat="47.25064" lon="-2.26042">
        <ele>44.200000762939</ele>
        <time>2022-01-09T09:33:21.000Z</time>
      </trkpt>
      <trkpt lat="47.25064" lon="-2.26035">
        <ele>43.799999237061</ele>
        <time>2022-01-09T09:33:22.000Z</time>
      </trkpt>
      <trkpt lat="47.25064" lon="-2.26028">
        <ele>43.400001525879</ele>
        <time>2022-01-09T09:33:23.000Z</time>
      </trkpt>
      <trkpt lat="47.25063" lon="-2.26021">
        <ele>43.400001525879</ele>
        <time>2022-01-09T09:33:24.000Z</time>
      </trkpt>
      <trkpt lat="47.25063" lon="-2.26013">
        <ele>43</ele>
        <time>2022-01-09T09:33:25.000Z</time>
      </trkpt>
      <trkpt lat="47.25062" lon="-2.26004">
        <ele>42.599998474121</ele>
        <time>2022-01-09T09:33:26.000Z</time>
      </trkpt>
      <trkpt lat="47.25061" lon="-2.25995">
        <ele>42</ele>
        <time>2022-01-09T09:33:27.000Z</time>
      </trkpt>
      <trkpt lat="47.2506" lon="-2.25986">
        <ele>41.599998474121</ele>
        <time>2022-01-09T09:33:28.000Z</time>
      </trkpt>
      <trkpt lat="47.2506" lon="-2.25976">
        <ele>41.200000762939</ele>
        <time>2022-01-09T09:33:29.000Z</time>
      </trkpt>
      <trkpt lat="47.25061" lon="-2.25967">
        <ele>41.200000762939</ele>
        <time>2022-01-09T09:33:30.000Z</time>
      </trkpt>
      <trkpt lat="47.25063" lon="-2.25949">
        <ele>41.200000762939</ele>
        <time>2022-01-09T09:33:32.000Z</time>
      </trkpt>
      <trkpt lat="47.25064" lon="-2.2594">
        <ele>40.799999237061</ele>
        <time>2022-01-09T09:33:33.000Z</time>
      </trkpt>
      <trkpt lat="47.25064" lon="-2.25932">
        <ele>40.400001525879</ele>
        <time>2022-01-09T09:33:34.000Z</time>
      </trkpt>
      <trkpt lat="47.25063" lon="-2.25925">
        <ele>39.799999237061</ele>
        <time>2022-01-09T09:33:35.000Z</time>
      </trkpt>
      <trkpt lat="47.25061" lon="-2.25918">
        <ele>39.400001525879</ele>
        <time>2022-01-09T09:33:36.000Z</time>
      </trkpt>
      <trkpt lat="47.25059" lon="-2.25912">
        <ele>39</ele>
        <time>2022-01-09T09:33:37.000Z</time>
      </trkpt>
      <trkpt lat="47.2506" lon="-2.25889">
        <ele>39</ele>
        <time>2022-01-09T09:33:41.000Z</time>
      </trkpt>
      <trkpt lat="47.25056" lon="-2.25879">
        <ele>39</ele>
        <time>2022-01-09T09:33:44.000Z</time>
      </trkpt>
      <trkpt lat="47.25053" lon="-2.2588">
        <ele>39</ele>
        <time>2022-01-09T09:33:45.000Z</time>
      </trkpt>
      <trkpt lat="47.25046" lon="-2.25888">
        <ele>39</ele>
        <time>2022-01-09T09:33:48.000Z</time>
      </trkpt>
      <trkpt lat="47.25045" lon="-2.25892">
        <ele>39</ele>
        <time>2022-01-09T09:33:49.000Z</time>
      </trkpt>
      <trkpt lat="47.25042" lon="-2.25904">
        <ele>39.400001525879</ele>
        <time>2022-01-09T09:33:51.000Z</time>
      </trkpt>
      <trkpt lat="47.2504" lon="-2.2591">
        <ele>39.799999237061</ele>
        <time>2022-01-09T09:33:52.000Z</time>
      </trkpt>
      <trkpt lat="47.25038" lon="-2.25916">
        <ele>40.200000762939</ele>
        <time>2022-01-09T09:33:53.000Z</time>
      </trkpt>
      <trkpt lat="47.25036" lon="-2.25923">
        <ele>40.599998474121</ele>
        <time>2022-01-09T09:33:54.000Z</time>
      </trkpt>
      <trkpt lat="47.25034" lon="-2.2593">
        <ele>41</ele>
        <time>2022-01-09T09:33:55.000Z</time>
      </trkpt>
      <trkpt lat="47.25031" lon="-2.25942">
        <ele>41.400001525879</ele>
        <time>2022-01-09T09:33:57.000Z</time>
      </trkpt>
      <trkpt lat="47.2503" lon="-2.25947">
        <ele>41.799999237061</ele>
        <time>2022-01-09T09:33:58.000Z</time>
      </trkpt>
      <trkpt lat="47.25029" lon="-2.25951">
        <ele>42.200000762939</ele>
        <time>2022-01-09T09:33:59.000Z</time>
      </trkpt>
      <trkpt lat="47.25028" lon="-2.25954">
        <ele>42.599998474121</ele>
        <time>2022-01-09T09:34:00.000Z</time>
      </trkpt>
      <trkpt lat="47.25028" lon="-2.25956">
        <ele>43</ele>
        <time>2022-01-09T09:34:01.000Z</time>
      </trkpt>
      <trkpt lat="47.25029" lon="-2.25958">
        <ele>43</ele>
        <time>2022-01-09T09:34:02.000Z</time>
      </trkpt>
      <trkpt lat="47.2503" lon="-2.25958">
        <ele>43</ele>
        <time>2022-01-09T09:34:06.000Z</time>
      </trkpt>
      <trkpt lat="47.25034" lon="-2.25955">
        <ele>43</ele>
        <time>2022-01-09T09:34:09.000Z</time>
      </trkpt>
      <trkpt lat="47.25039" lon="-2.25952">
        <ele>43</ele>
        <time>2022-01-09T09:34:12.000Z</time>
      </trkpt>
      <trkpt lat="47.25046" lon="-2.25953">
        <ele>43</ele>
        <time>2022-01-09T09:34:19.000Z</time>
      </trkpt>
      <trkpt lat="47.25049" lon="-2.25953">
        <ele>42.599998474121</ele>
        <time>2022-01-09T09:34:21.000Z</time>
      </trkpt>
      <trkpt lat="47.2505" lon="-2.25954">
        <ele>42.200000762939</ele>
        <time>2022-01-09T09:34:22.000Z</time>
      </trkpt>
      <trkpt lat="47.25051" lon="-2.25955">
        <ele>41.799999237061</ele>
        <time>2022-01-09T09:34:23.000Z</time>
      </trkpt>
      <trkpt lat="47.25053" lon="-2.25956">
        <ele>41.400001525879</ele>
        <time>2022-01-09T09:34:24.000Z</time>
      </trkpt>
      <trkpt lat="47.25054" lon="-2.25956">
        <ele>41</ele>
        <time>2022-01-09T09:34:25.000Z</time>
      </trkpt>
      <trkpt lat="47.25055" lon="-2.25954">
        <ele>41</ele>
        <time>2022-01-09T09:34:26.000Z</time>
      </trkpt>
      <trkpt lat="47.2506" lon="-2.25934">
        <ele>40.599998474121</ele>
        <time>2022-01-09T09:34:30.000Z</time>
      </trkpt>
      <trkpt lat="47.25062" lon="-2.25928">
        <ele>40.200000762939</ele>
        <time>2022-01-09T09:34:31.000Z</time>
      </trkpt>
      <trkpt lat="47.25063" lon="-2.25922">
        <ele>39.799999237061</ele>
        <time>2022-01-09T09:34:32.000Z</time>
      </trkpt>
      <trkpt lat="47.25064" lon="-2.25916">
        <ele>39.400001525879</ele>
        <time>2022-01-09T09:34:33.000Z</time>
      </trkpt>
      <trkpt lat="47.25065" lon="-2.25909">
        <ele>38.799999237061</ele>
        <time>2022-01-09T09:34:34.000Z</time>
      </trkpt>
      <trkpt lat="47.25071" lon="-2.25886">
        <ele>38.799999237061</ele>
        <time>2022-01-09T09:34:37.000Z</time>
      </trkpt>
      <trkpt lat="47.25073" lon="-2.25877">
        <ele>38.400001525879</ele>
        <time>2022-01-09T09:34:38.000Z</time>
      </trkpt>
      <trkpt lat="47.25075" lon="-2.25868">
        <ele>38</ele>
        <time>2022-01-09T09:34:39.000Z</time>
      </trkpt>
      <trkpt lat="47.25077" lon="-2.25858">
        <ele>37.599998474121</ele>
        <time>2022-01-09T09:34:40.000Z</time>
      </trkpt>
      <trkpt lat="47.25078" lon="-2.25847">
        <ele>37.200000762939</ele>
        <time>2022-01-09T09:34:41.000Z</time>
      </trkpt>
      <trkpt lat="47.2508" lon="-2.25837">
        <ele>36.799999237061</ele>
        <time>2022-01-09T09:34:42.000Z</time>
      </trkpt>
      <trkpt lat="47.25084" lon="-2.25823">
        <ele>36.799999237061</ele>
        <time>2022-01-09T09:34:44.000Z</time>
      </trkpt>
      <trkpt lat="47.25085" lon="-2.25817">
        <ele>36.200000762939</ele>
        <time>2022-01-09T09:34:45.000Z</time>
      </trkpt>
      <trkpt lat="47.25087" lon="-2.25812">
        <ele>35.799999237061</ele>
        <time>2022-01-09T09:34:46.000Z</time>
      </trkpt>
      <trkpt lat="47.25087" lon="-2.25806">
        <ele>35.200000762939</ele>
        <time>2022-01-09T09:34:47.000Z</time>
      </trkpt>
      <trkpt lat="47.25087" lon="-2.25799">
        <ele>34.599998474121</ele>
        <time>2022-01-09T09:34:48.000Z</time>
      </trkpt>
      <trkpt lat="47.25086" lon="-2.25792">
        <ele>34.200000762939</ele>
        <time>2022-01-09T09:34:49.000Z</time>
      </trkpt>
      <trkpt lat="47.25086" lon="-2.25785">
        <ele>34.200000762939</ele>
        <time>2022-01-09T09:34:50.000Z</time>
      </trkpt>
      <trkpt lat="47.25086" lon="-2.25761">
        <ele>33.799999237061</ele>
        <time>2022-01-09T09:34:53.000Z</time>
      </trkpt>
      <trkpt lat="47.25086" lon="-2.25753">
        <ele>33.400001525879</ele>
        <time>2022-01-09T09:34:54.000Z</time>
      </trkpt>
      <trkpt lat="47.25087" lon="-2.25745">
        <ele>33</ele>
        <time>2022-01-09T09:34:55.000Z</time>
      </trkpt>
      <trkpt lat="47.25086" lon="-2.25736">
        <ele>32.599998474121</ele>
        <time>2022-01-09T09:34:56.000Z</time>
      </trkpt>
      <trkpt lat="47.25085" lon="-2.25727">
        <ele>32</ele>
        <time>2022-01-09T09:34:57.000Z</time>
      </trkpt>
      <trkpt lat="47.25088" lon="-2.25707">
        <ele>31.200000762939</ele>
        <time>2022-01-09T09:34:59.000Z</time>
      </trkpt>
      <trkpt lat="47.25089" lon="-2.25699">
        <ele>30.799999237061</ele>
        <time>2022-01-09T09:35:00.000Z</time>
      </trkpt>
      <trkpt lat="47.25091" lon="-2.25692">
        <ele>30.39999961853</ele>
        <time>2022-01-09T09:35:01.000Z</time>
      </trkpt>
      <trkpt lat="47.25092" lon="-2.25686">
        <ele>30</ele>
        <time>2022-01-09T09:35:02.000Z</time>
      </trkpt>
      <trkpt lat="47.25091" lon="-2.2568">
        <ele>29.60000038147</ele>
        <time>2022-01-09T09:35:03.000Z</time>
      </trkpt>
      <trkpt lat="47.2509" lon="-2.25674">
        <ele>29.200000762939</ele>
        <time>2022-01-09T09:35:04.000Z</time>
      </trkpt>
      <trkpt lat="47.2509" lon="-2.25669">
        <ele>28.799999237061</ele>
        <time>2022-01-09T09:35:05.000Z</time>
      </trkpt>
      <trkpt lat="47.25091" lon="-2.25668">
        <ele>28.39999961853</ele>
        <time>2022-01-09T09:35:06.000Z</time>
      </trkpt>
      <trkpt lat="47.25091" lon="-2.25665">
        <ele>28</ele>
        <time>2022-01-09T09:35:07.000Z</time>
      </trkpt>
      <trkpt lat="47.25092" lon="-2.2566">
        <ele>28</ele>
        <time>2022-01-09T09:35:09.000Z</time>
      </trkpt>
      <trkpt lat="47.25091" lon="-2.25653">
        <ele>28</ele>
        <time>2022-01-09T09:35:13.000Z</time>
      </trkpt>
      <trkpt lat="47.25093" lon="-2.25649">
        <ele>28</ele>
        <time>2022-01-09T09:35:17.000Z</time>
      </trkpt>
      <trkpt lat="47.25094" lon="-2.25642">
        <ele>28</ele>
        <time>2022-01-09T09:36:15.000Z</time>
      </trkpt>
      <trkpt lat="47.25095" lon="-2.25638">
        <ele>27.39999961853</ele>
        <time>2022-01-09T09:36:18.000Z</time>
      </trkpt>
      <trkpt lat="47.25095" lon="-2.25636">
        <ele>27</ele>
        <time>2022-01-09T09:36:19.000Z</time>
      </trkpt>
      <trkpt lat="47.25094" lon="-2.25635">
        <ele>26.60000038147</ele>
        <time>2022-01-09T09:36:20.000Z</time>
      </trkpt>
      <trkpt lat="47.25094" lon="-2.25634">
        <ele>26.200000762939</ele>
        <time>2022-01-09T09:36:21.000Z</time>
      </trkpt>
      <trkpt lat="47.25094" lon="-2.25634">
        <ele>25.799999237061</ele>
        <time>2022-01-09T09:36:22.000Z</time>
      </trkpt>
      <trkpt lat="47.25091" lon="-2.25627">
        <ele>25.799999237061</ele>
        <time>2022-01-09T09:36:27.000Z</time>
      </trkpt>
      <trkpt lat="47.25086" lon="-2.25608">
        <ele>25.799999237061</ele>
        <time>2022-01-09T09:36:31.000Z</time>
      </trkpt>
      <trkpt lat="47.25086" lon="-2.25601">
        <ele>25.799999237061</ele>
        <time>2022-01-09T09:36:34.000Z</time>
      </trkpt>
      <trkpt lat="47.25087" lon="-2.25597">
        <ele>25.799999237061</ele>
        <time>2022-01-09T09:36:36.000Z</time>
      </trkpt>
      <trkpt lat="47.25088" lon="-2.25598">
        <ele>25.799999237061</ele>
        <time>2022-01-09T09:36:38.000Z</time>
      </trkpt>
      <trkpt lat="47.25086" lon="-2.25596">
        <ele>27.799999237061</ele>
        <time>2022-01-09T09:51:10.000Z</time>
      </trkpt>
      <trkpt lat="47.25087" lon="-2.25604">
        <ele>27.799999237061</ele>
        <time>2022-01-09T09:51:11.000Z</time>
      </trkpt>
      <trkpt lat="47.25092" lon="-2.25615">
        <ele>27.799999237061</ele>
        <time>2022-01-09T09:51:14.000Z</time>
      </trkpt>
      <trkpt lat="47.25094" lon="-2.2563">
        <ele>27.799999237061</ele>
        <time>2022-01-09T09:51:18.000Z</time>
      </trkpt>
      <trkpt lat="47.25092" lon="-2.25636">
        <ele>27.799999237061</ele>
        <time>2022-01-09T09:51:20.000Z</time>
      </trkpt>
      <trkpt lat="47.25092" lon="-2.25647">
        <ele>27.799999237061</ele>
        <time>2022-01-09T09:51:24.000Z</time>
      </trkpt>
      <trkpt lat="47.2509" lon="-2.25659">
        <ele>27.799999237061</ele>
        <time>2022-01-09T09:51:29.000Z</time>
      </trkpt>
      <trkpt lat="47.2509" lon="-2.25661">
        <ele>27.799999237061</ele>
        <time>2022-01-09T09:51:30.000Z</time>
      </trkpt>
      <trkpt lat="47.2509" lon="-2.25667">
        <ele>27.799999237061</ele>
        <time>2022-01-09T09:51:34.000Z</time>
      </trkpt>
      <trkpt lat="47.25089" lon="-2.25671">
        <ele>28.200000762939</ele>
        <time>2022-01-09T09:51:36.000Z</time>
      </trkpt>
      <trkpt lat="47.25089" lon="-2.25672">
        <ele>28.60000038147</ele>
        <time>2022-01-09T09:51:37.000Z</time>
      </trkpt>
      <trkpt lat="47.2509" lon="-2.25673">
        <ele>29</ele>
        <time>2022-01-09T09:51:38.000Z</time>
      </trkpt>
      <trkpt lat="47.2509" lon="-2.25675">
        <ele>29.39999961853</ele>
        <time>2022-01-09T09:51:39.000Z</time>
      </trkpt>
      <trkpt lat="47.2509" lon="-2.25677">
        <ele>29.799999237061</ele>
        <time>2022-01-09T09:51:40.000Z</time>
      </trkpt>
      <trkpt lat="47.2509" lon="-2.2568">
        <ele>29.799999237061</ele>
        <time>2022-01-09T09:51:41.000Z</time>
      </trkpt>
      <trkpt lat="47.25088" lon="-2.25701">
        <ele>29.799999237061</ele>
        <time>2022-01-09T09:51:47.000Z</time>
      </trkpt>
      <trkpt lat="47.25088" lon="-2.25705">
        <ele>29.799999237061</ele>
        <time>2022-01-09T09:51:48.000Z</time>
      </trkpt>
      <trkpt lat="47.25089" lon="-2.25716">
        <ele>30.200000762939</ele>
        <time>2022-01-09T09:51:51.000Z</time>
      </trkpt>
      <trkpt lat="47.25089" lon="-2.25721">
        <ele>31.200000762939</ele>
        <time>2022-01-09T09:51:52.000Z</time>
      </trkpt>
      <trkpt lat="47.25088" lon="-2.25725">
        <ele>31.60000038147</ele>
        <time>2022-01-09T09:51:53.000Z</time>
      </trkpt>
      <trkpt lat="47.25088" lon="-2.25729">
        <ele>32</ele>
        <time>2022-01-09T09:51:54.000Z</time>
      </trkpt>
      <trkpt lat="47.25087" lon="-2.25752">
        <ele>32</ele>
        <time>2022-01-09T09:52:00.000Z</time>
      </trkpt>
      <trkpt lat="47.25087" lon="-2.25769">
        <ele>32.400001525879</ele>
        <time>2022-01-09T09:52:04.000Z</time>
      </trkpt>
      <trkpt lat="47.25087" lon="-2.25773">
        <ele>32.799999237061</ele>
        <time>2022-01-09T09:52:05.000Z</time>
      </trkpt>
      <trkpt lat="47.25088" lon="-2.25777">
        <ele>33.200000762939</ele>
        <time>2022-01-09T09:52:06.000Z</time>
      </trkpt>
      <trkpt lat="47.25088" lon="-2.25782">
        <ele>33.599998474121</ele>
        <time>2022-01-09T09:52:07.000Z</time>
      </trkpt>
      <trkpt lat="47.25088" lon="-2.25787">
        <ele>34.200000762939</ele>
        <time>2022-01-09T09:52:08.000Z</time>
      </trkpt>
      <trkpt lat="47.25089" lon="-2.25799">
        <ele>34.200000762939</ele>
        <time>2022-01-09T09:52:11.000Z</time>
      </trkpt>
      <trkpt lat="47.25086" lon="-2.25815">
        <ele>34.599998474121</ele>
        <time>2022-01-09T09:52:16.000Z</time>
      </trkpt>
      <trkpt lat="47.25085" lon="-2.25819">
        <ele>35.400001525879</ele>
        <time>2022-01-09T09:52:17.000Z</time>
      </trkpt>
      <trkpt lat="47.25084" lon="-2.25823">
        <ele>35.799999237061</ele>
        <time>2022-01-09T09:52:18.000Z</time>
      </trkpt>
      <trkpt lat="47.25082" lon="-2.25828">
        <ele>36.200000762939</ele>
        <time>2022-01-09T09:52:19.000Z</time>
      </trkpt>
      <trkpt lat="47.25077" lon="-2.25849">
        <ele>36.200000762939</ele>
        <time>2022-01-09T09:52:23.000Z</time>
      </trkpt>
      <trkpt lat="47.25074" lon="-2.25874">
        <ele>36.599998474121</ele>
        <time>2022-01-09T09:52:28.000Z</time>
      </trkpt>
      <trkpt lat="47.25073" lon="-2.25878">
        <ele>37</ele>
        <time>2022-01-09T09:52:29.000Z</time>
      </trkpt>
      <trkpt lat="47.25073" lon="-2.25883">
        <ele>37.400001525879</ele>
        <time>2022-01-09T09:52:30.000Z</time>
      </trkpt>
      <trkpt lat="47.25072" lon="-2.25886">
        <ele>37.799999237061</ele>
        <time>2022-01-09T09:52:31.000Z</time>
      </trkpt>
      <trkpt lat="47.25071" lon="-2.2589">
        <ele>38.200000762939</ele>
        <time>2022-01-09T09:52:32.000Z</time>
      </trkpt>
      <trkpt lat="47.25068" lon="-2.25905">
        <ele>38.200000762939</ele>
        <time>2022-01-09T09:52:36.000Z</time>
      </trkpt>
      <trkpt lat="47.25067" lon="-2.25912">
        <ele>38.599998474121</ele>
        <time>2022-01-09T09:52:38.000Z</time>
      </trkpt>
      <trkpt lat="47.25067" lon="-2.25915">
        <ele>39.200000762939</ele>
        <time>2022-01-09T09:52:39.000Z</time>
      </trkpt>
      <trkpt lat="47.25067" lon="-2.25918">
        <ele>39.599998474121</ele>
        <time>2022-01-09T09:52:40.000Z</time>
      </trkpt>
      <trkpt lat="47.25066" lon="-2.25923">
        <ele>40.400001525879</ele>
        <time>2022-01-09T09:52:41.000Z</time>
      </trkpt>
      <trkpt lat="47.25065" lon="-2.25928">
        <ele>40.400001525879</ele>
        <time>2022-01-09T09:52:42.000Z</time>
      </trkpt>
      <trkpt lat="47.2506" lon="-2.25969">
        <ele>40.400001525879</ele>
        <time>2022-01-09T09:52:50.000Z</time>
      </trkpt>
      <trkpt lat="47.2506" lon="-2.25973">
        <ele>40.799999237061</ele>
        <time>2022-01-09T09:52:51.000Z</time>
      </trkpt>
      <trkpt lat="47.25059" lon="-2.25978">
        <ele>41.200000762939</ele>
        <time>2022-01-09T09:52:52.000Z</time>
      </trkpt>
      <trkpt lat="47.25059" lon="-2.25982">
        <ele>41.599998474121</ele>
        <time>2022-01-09T09:52:53.000Z</time>
      </trkpt>
      <trkpt lat="47.25058" lon="-2.25986">
        <ele>42</ele>
        <time>2022-01-09T09:52:54.000Z</time>
      </trkpt>
      <trkpt lat="47.25058" lon="-2.2599">
        <ele>42.599998474121</ele>
        <time>2022-01-09T09:52:55.000Z</time>
      </trkpt>
      <trkpt lat="47.25058" lon="-2.25998">
        <ele>42.599998474121</ele>
        <time>2022-01-09T09:52:57.000Z</time>
      </trkpt>
      <trkpt lat="47.25059" lon="-2.26025">
        <ele>43</ele>
        <time>2022-01-09T09:53:03.000Z</time>
      </trkpt>
      <trkpt lat="47.25059" lon="-2.26029">
        <ele>43.400001525879</ele>
        <time>2022-01-09T09:53:04.000Z</time>
      </trkpt>
      <trkpt lat="47.25059" lon="-2.26034">
        <ele>43.799999237061</ele>
        <time>2022-01-09T09:53:05.000Z</time>
      </trkpt>
      <trkpt lat="47.25059" lon="-2.26038">
        <ele>44.599998474121</ele>
        <time>2022-01-09T09:53:06.000Z</time>
      </trkpt>
      <trkpt lat="47.25059" lon="-2.26055">
        <ele>44.599998474121</ele>
        <time>2022-01-09T09:53:13.000Z</time>
      </trkpt>
      <trkpt lat="47.25058" lon="-2.26059">
        <ele>45</ele>
        <time>2022-01-09T09:53:14.000Z</time>
      </trkpt>
      <trkpt lat="47.25058" lon="-2.26063">
        <ele>45.400001525879</ele>
        <time>2022-01-09T09:53:15.000Z</time>
      </trkpt>
      <trkpt lat="47.25057" lon="-2.26068">
        <ele>45.799999237061</ele>
        <time>2022-01-09T09:53:16.000Z</time>
      </trkpt>
      <trkpt lat="47.25056" lon="-2.26073">
        <ele>46.400001525879</ele>
        <time>2022-01-09T09:53:17.000Z</time>
      </trkpt>
      <trkpt lat="47.25055" lon="-2.26077">
        <ele>46.799999237061</ele>
        <time>2022-01-09T09:53:18.000Z</time>
      </trkpt>
      <trkpt lat="47.25054" lon="-2.26084">
        <ele>46.799999237061</ele>
        <time>2022-01-09T09:53:20.000Z</time>
      </trkpt>
      <trkpt lat="47.25052" lon="-2.26101">
        <ele>46.799999237061</ele>
        <time>2022-01-09T09:53:25.000Z</time>
      </trkpt>
      <trkpt lat="47.25055" lon="-2.26106">
        <ele>47.200000762939</ele>
        <time>2022-01-09T09:53:27.000Z</time>
      </trkpt>
      <trkpt lat="47.25056" lon="-2.26106">
        <ele>47.599998474121</ele>
        <time>2022-01-09T09:53:28.000Z</time>
      </trkpt>
      <trkpt lat="47.25057" lon="-2.26107">
        <ele>48</ele>
        <time>2022-01-09T09:53:29.000Z</time>
      </trkpt>
      <trkpt lat="47.25058" lon="-2.26106">
        <ele>48.400001525879</ele>
        <time>2022-01-09T09:53:30.000Z</time>
      </trkpt>
      <trkpt lat="47.2506" lon="-2.26106">
        <ele>48.799999237061</ele>
        <time>2022-01-09T09:53:31.000Z</time>
      </trkpt>
      <trkpt lat="47.25061" lon="-2.26106">
        <ele>49.200000762939</ele>
        <time>2022-01-09T09:53:32.000Z</time>
      </trkpt>
      <trkpt lat="47.25062" lon="-2.26106">
        <ele>49.599998474121</ele>
        <time>2022-01-09T09:53:33.000Z</time>
      </trkpt>
      <trkpt lat="47.25064" lon="-2.26106">
        <ele>50</ele>
        <time>2022-01-09T09:53:34.000Z</time>
      </trkpt>
      <trkpt lat="47.25067" lon="-2.26106">
        <ele>50.400001525879</ele>
        <time>2022-01-09T09:53:35.000Z</time>
      </trkpt>
      <trkpt lat="47.25069" lon="-2.26107">
        <ele>51</ele>
        <time>2022-01-09T09:53:36.000Z</time>
      </trkpt>
      <trkpt lat="47.25075" lon="-2.26109">
        <ele>51</ele>
        <time>2022-01-09T09:53:39.000Z</time>
      </trkpt>
      <trkpt lat="47.25076" lon="-2.26109">
        <ele>51</ele>
        <time>2022-01-09T09:53:40.000Z</time>
      </trkpt>
      <trkpt lat="47.25079" lon="-2.26104">
        <ele>51</ele>
        <time>2022-01-09T09:53:44.000Z</time>
      </trkpt>
      <trkpt lat="47.25079" lon="-2.26101">
        <ele>51</ele>
        <time>2022-01-09T09:53:46.000Z</time>
      </trkpt>
      <trkpt lat="47.25083" lon="-2.26089">
        <ele>51</ele>
        <time>2022-01-09T09:53:53.000Z</time>
      </trkpt>
      <trkpt lat="47.25085" lon="-2.26085">
        <ele>51</ele>
        <time>2022-01-09T09:53:57.000Z</time>
      </trkpt>
      <trkpt lat="47.25088" lon="-2.26086">
        <ele>51</ele>
        <time>2022-01-09T09:53:59.000Z</time>
      </trkpt>
      <trkpt lat="47.25089" lon="-2.26095">
        <ele>51</ele>
        <time>2022-01-09T09:54:03.000Z</time>
      </trkpt>
      <trkpt lat="47.25089" lon="-2.26097">
        <ele>51</ele>
        <time>2022-01-09T09:54:04.000Z</time>
      </trkpt>
      <trkpt lat="47.25087" lon="-2.26108">
        <ele>51</ele>
        <time>2022-01-09T09:54:11.000Z</time>
      </trkpt>
      <trkpt lat="47.25085" lon="-2.26117">
        <ele>51</ele>
        <time>2022-01-09T09:54:18.000Z</time>
      </trkpt>
      <trkpt lat="47.25081" lon="-2.26117">
        <ele>51</ele>
        <time>2022-01-09T09:54:22.000Z</time>
      </trkpt>
      <trkpt lat="47.25082" lon="-2.26109">
        <ele>51</ele>
        <time>2022-01-09T09:54:25.000Z</time>
      </trkpt>
      <trkpt lat="47.25083" lon="-2.26103">
        <ele>51</ele>
        <time>2022-01-09T09:54:27.000Z</time>
      </trkpt>
      <trkpt lat="47.25089" lon="-2.26076">
        <ele>51</ele>
        <time>2022-01-09T09:54:33.000Z</time>
      </trkpt>
      <trkpt lat="47.25094" lon="-2.26044">
        <ele>51</ele>
        <time>2022-01-09T09:54:38.000Z</time>
      </trkpt>
      <trkpt lat="47.25105" lon="-2.26004">
        <ele>51</ele>
        <time>2022-01-09T09:54:43.000Z</time>
      </trkpt>
      <trkpt lat="47.25121" lon="-2.25957">
        <ele>51</ele>
        <time>2022-01-09T09:54:49.000Z</time>
      </trkpt>
      <trkpt lat="47.25124" lon="-2.2595">
        <ele>50.400001525879</ele>
        <time>2022-01-09T09:54:50.000Z</time>
      </trkpt>
      <trkpt lat="47.25127" lon="-2.25946">
        <ele>50</ele>
        <time>2022-01-09T09:54:51.000Z</time>
      </trkpt>
      <trkpt lat="47.2513" lon="-2.25942">
        <ele>49.599998474121</ele>
        <time>2022-01-09T09:54:52.000Z</time>
      </trkpt>
      <trkpt lat="47.25132" lon="-2.25938">
        <ele>49.200000762939</ele>
        <time>2022-01-09T09:54:53.000Z</time>
      </trkpt>
      <trkpt lat="47.25133" lon="-2.25936">
        <ele>48.799999237061</ele>
        <time>2022-01-09T09:54:54.000Z</time>
      </trkpt>
      <trkpt lat="47.2514" lon="-2.25925">
        <ele>48.799999237061</ele>
        <time>2022-01-09T09:54:58.000Z</time>
      </trkpt>
      <trkpt lat="47.2515" lon="-2.25917">
        <ele>48.799999237061</ele>
        <time>2022-01-09T09:55:04.000Z</time>
      </trkpt>
      <trkpt lat="47.25152" lon="-2.25915">
        <ele>48.799999237061</ele>
        <time>2022-01-09T09:55:06.000Z</time>
      </trkpt>
      <trkpt lat="47.25151" lon="-2.25908">
        <ele>48.799999237061</ele>
        <time>2022-01-09T09:55:10.000Z</time>
      </trkpt>
      <trkpt lat="47.25149" lon="-2.25913">
        <ele>48.799999237061</ele>
        <time>2022-01-09T09:55:13.000Z</time>
      </trkpt>
      <trkpt lat="47.25152" lon="-2.25914">
        <ele>48.799999237061</ele>
        <time>2022-01-09T09:55:17.000Z</time>
      </trkpt>
      <trkpt lat="47.25155" lon="-2.25914">
        <ele>48.799999237061</ele>
        <time>2022-01-09T09:55:20.000Z</time>
      </trkpt>
      <trkpt lat="47.25156" lon="-2.25916">
        <ele>48.799999237061</ele>
        <time>2022-01-09T09:55:22.000Z</time>
      </trkpt>
      <trkpt lat="47.25158" lon="-2.2592">
        <ele>48.799999237061</ele>
        <time>2022-01-09T09:55:26.000Z</time>
      </trkpt>
      <trkpt lat="47.2516" lon="-2.2592">
        <ele>48.799999237061</ele>
        <time>2022-01-09T09:55:27.000Z</time>
      </trkpt>
      <trkpt lat="47.2517" lon="-2.25915">
        <ele>48.799999237061</ele>
        <time>2022-01-09T09:55:30.000Z</time>
      </trkpt>
      <trkpt lat="47.25174" lon="-2.25914">
        <ele>49.400001525879</ele>
        <time>2022-01-09T09:55:32.000Z</time>
      </trkpt>
      <trkpt lat="47.25176" lon="-2.25914">
        <ele>49.799999237061</ele>
        <time>2022-01-09T09:55:33.000Z</time>
      </trkpt>
      <trkpt lat="47.25179" lon="-2.25914">
        <ele>50.400001525879</ele>
        <time>2022-01-09T09:55:34.000Z</time>
      </trkpt>
      <trkpt lat="47.25181" lon="-2.25915">
        <ele>51.400001525879</ele>
        <time>2022-01-09T09:55:35.000Z</time>
      </trkpt>
      <trkpt lat="47.25193" lon="-2.25925">
        <ele>51.400001525879</ele>
        <time>2022-01-09T09:55:40.000Z</time>
      </trkpt>
      <trkpt lat="47.25213" lon="-2.25943">
        <ele>51.400001525879</ele>
        <time>2022-01-09T09:55:48.000Z</time>
      </trkpt>
      <trkpt lat="47.25225" lon="-2.25966">
        <ele>51.400001525879</ele>
        <time>2022-01-09T09:55:55.000Z</time>
      </trkpt>
      <trkpt lat="47.25236" lon="-2.25987">
        <ele>51.400001525879</ele>
        <time>2022-01-09T09:56:01.000Z</time>
      </trkpt>
      <trkpt lat="47.25251" lon="-2.26015">
        <ele>51.400001525879</ele>
        <time>2022-01-09T09:56:10.000Z</time>
      </trkpt>
      <trkpt lat="47.25254" lon="-2.2602">
        <ele>51.400001525879</ele>
        <time>2022-01-09T09:56:13.000Z</time>
      </trkpt>
      <trkpt lat="47.25258" lon="-2.26021">
        <ele>51.400001525879</ele>
        <time>2022-01-09T09:56:15.000Z</time>
      </trkpt>
      <trkpt lat="47.25265" lon="-2.26021">
        <ele>51.400001525879</ele>
        <time>2022-01-09T09:56:18.000Z</time>
      </trkpt>
      <trkpt lat="47.2527" lon="-2.26019">
        <ele>51.400001525879</ele>
        <time>2022-01-09T09:56:20.000Z</time>
      </trkpt>
      <trkpt lat="47.25283" lon="-2.26025">
        <ele>51.400001525879</ele>
        <time>2022-01-09T09:56:25.000Z</time>
      </trkpt>
      <trkpt lat="47.25287" lon="-2.26025">
        <ele>51.400001525879</ele>
        <time>2022-01-09T09:56:28.000Z</time>
      </trkpt>
      <trkpt lat="47.25292" lon="-2.26023">
        <ele>51.400001525879</ele>
        <time>2022-01-09T09:56:31.000Z</time>
      </trkpt>
      <trkpt lat="47.25302" lon="-2.26027">
        <ele>51.400001525879</ele>
        <time>2022-01-09T09:56:35.000Z</time>
      </trkpt>
      <trkpt lat="47.25306" lon="-2.26029">
        <ele>51.400001525879</ele>
        <time>2022-01-09T09:56:37.000Z</time>
      </trkpt>
      <trkpt lat="47.25314" lon="-2.26033">
        <ele>51.400001525879</ele>
        <time>2022-01-09T09:56:41.000Z</time>
      </trkpt>
      <trkpt lat="47.25328" lon="-2.26034">
        <ele>51.400001525879</ele>
        <time>2022-01-09T09:56:48.000Z</time>
      </trkpt>
      <trkpt lat="47.25338" lon="-2.26025">
        <ele>51.400001525879</ele>
        <time>2022-01-09T09:56:52.000Z</time>
      </trkpt>
      <trkpt lat="47.25346" lon="-2.26013">
        <ele>51</ele>
        <time>2022-01-09T09:56:57.000Z</time>
      </trkpt>
      <trkpt lat="47.25347" lon="-2.26011">
        <ele>50.599998474121</ele>
        <time>2022-01-09T09:56:58.000Z</time>
      </trkpt>
      <trkpt lat="47.25347" lon="-2.26011">
        <ele>50.200000762939</ele>
        <time>2022-01-09T09:56:59.000Z</time>
      </trkpt>
      <trkpt lat="47.25347" lon="-2.2601">
        <ele>49.799999237061</ele>
        <time>2022-01-09T09:57:00.000Z</time>
      </trkpt>
      <trkpt lat="47.25348" lon="-2.26007">
        <ele>49.400001525879</ele>
        <time>2022-01-09T09:57:01.000Z</time>
      </trkpt>
      <trkpt lat="47.25352" lon="-2.26002">
        <ele>49.400001525879</ele>
        <time>2022-01-09T09:57:04.000Z</time>
      </trkpt>
      <trkpt lat="47.25355" lon="-2.25997">
        <ele>48.799999237061</ele>
        <time>2022-01-09T09:57:08.000Z</time>
      </trkpt>
      <trkpt lat="47.25356" lon="-2.25996">
        <ele>48.400001525879</ele>
        <time>2022-01-09T09:57:09.000Z</time>
      </trkpt>
      <trkpt lat="47.25357" lon="-2.25995">
        <ele>48</ele>
        <time>2022-01-09T09:57:10.000Z</time>
      </trkpt>
      <trkpt lat="47.25365" lon="-2.25987">
        <ele>46.799999237061</ele>
        <time>2022-01-09T09:57:30.000Z</time>
      </trkpt>
      <trkpt lat="47.25367" lon="-2.25988">
        <ele>46.400001525879</ele>
        <time>2022-01-09T09:57:31.000Z</time>
      </trkpt>
      <trkpt lat="47.25368" lon="-2.2599">
        <ele>46</ele>
        <time>2022-01-09T09:57:32.000Z</time>
      </trkpt>
      <trkpt lat="47.25368" lon="-2.25991">
        <ele>45.599998474121</ele>
        <time>2022-01-09T09:57:33.000Z</time>
      </trkpt>
      <trkpt lat="47.25369" lon="-2.25991">
        <ele>45.200000762939</ele>
        <time>2022-01-09T09:57:34.000Z</time>
      </trkpt>
      <trkpt lat="47.25372" lon="-2.25992">
        <ele>45.200000762939</ele>
        <time>2022-01-09T09:57:36.000Z</time>
      </trkpt>
      <trkpt lat="47.25376" lon="-2.25992">
        <ele>45.200000762939</ele>
        <time>2022-01-09T09:57:38.000Z</time>
      </trkpt>
      <trkpt lat="47.25379" lon="-2.25992">
        <ele>44.200000762939</ele>
        <time>2022-01-09T09:57:39.000Z</time>
      </trkpt>
      <trkpt lat="47.25382" lon="-2.2599">
        <ele>43.599998474121</ele>
        <time>2022-01-09T09:57:40.000Z</time>
      </trkpt>
      <trkpt lat="47.25386" lon="-2.25989">
        <ele>43</ele>
        <time>2022-01-09T09:57:41.000Z</time>
      </trkpt>
      <trkpt lat="47.25389" lon="-2.25988">
        <ele>42.200000762939</ele>
        <time>2022-01-09T09:57:42.000Z</time>
      </trkpt>
      <trkpt lat="47.25391" lon="-2.25987">
        <ele>41.599998474121</ele>
        <time>2022-01-09T09:57:43.000Z</time>
      </trkpt>
      <trkpt lat="47.25393" lon="-2.25987">
        <ele>40.799999237061</ele>
        <time>2022-01-09T09:57:44.000Z</time>
      </trkpt>
      <trkpt lat="47.25396" lon="-2.25985">
        <ele>40.200000762939</ele>
        <time>2022-01-09T09:57:45.000Z</time>
      </trkpt>
      <trkpt lat="47.25397" lon="-2.25983">
        <ele>39.799999237061</ele>
        <time>2022-01-09T09:57:46.000Z</time>
      </trkpt>
      <trkpt lat="47.25399" lon="-2.25981">
        <ele>39.400001525879</ele>
        <time>2022-01-09T09:57:47.000Z</time>
      </trkpt>
      <trkpt lat="47.25401" lon="-2.25979">
        <ele>39</ele>
        <time>2022-01-09T09:57:48.000Z</time>
      </trkpt>
      <trkpt lat="47.25403" lon="-2.25977">
        <ele>38.599998474121</ele>
        <time>2022-01-09T09:57:49.000Z</time>
      </trkpt>
      <trkpt lat="47.25404" lon="-2.25976">
        <ele>38.200000762939</ele>
        <time>2022-01-09T09:57:50.000Z</time>
      </trkpt>
      <trkpt lat="47.25405" lon="-2.25969">
        <ele>38.200000762939</ele>
        <time>2022-01-09T09:57:52.000Z</time>
      </trkpt>
      <trkpt lat="47.25407" lon="-2.25964">
        <ele>38.200000762939</ele>
        <time>2022-01-09T09:57:54.000Z</time>
      </trkpt>
      <trkpt lat="47.25416" lon="-2.25957">
        <ele>38.200000762939</ele>
        <time>2022-01-09T09:57:57.000Z</time>
      </trkpt>
      <trkpt lat="47.25422" lon="-2.25946">
        <ele>38.200000762939</ele>
        <time>2022-01-09T09:58:01.000Z</time>
      </trkpt>
      <trkpt lat="47.25424" lon="-2.25942">
        <ele>38.200000762939</ele>
        <time>2022-01-09T09:58:02.000Z</time>
      </trkpt>
      <trkpt lat="47.25427" lon="-2.25912">
        <ele>38.200000762939</ele>
        <time>2022-01-09T09:58:10.000Z</time>
      </trkpt>
      <trkpt lat="47.25428" lon="-2.2591">
        <ele>38.200000762939</ele>
        <time>2022-01-09T09:58:11.000Z</time>
      </trkpt>
      <trkpt lat="47.25429" lon="-2.25903">
        <ele>38.599998474121</ele>
        <time>2022-01-09T09:58:14.000Z</time>
      </trkpt>
      <trkpt lat="47.2543" lon="-2.25901">
        <ele>39</ele>
        <time>2022-01-09T09:58:15.000Z</time>
      </trkpt>
      <trkpt lat="47.2543" lon="-2.25899">
        <ele>39.400001525879</ele>
        <time>2022-01-09T09:58:16.000Z</time>
      </trkpt>
      <trkpt lat="47.2543" lon="-2.25897">
        <ele>39.799999237061</ele>
        <time>2022-01-09T09:58:17.000Z</time>
      </trkpt>
      <trkpt lat="47.25431" lon="-2.25894">
        <ele>40.200000762939</ele>
        <time>2022-01-09T09:58:18.000Z</time>
      </trkpt>
      <trkpt lat="47.25431" lon="-2.25884">
        <ele>40.200000762939</ele>
        <time>2022-01-09T09:58:22.000Z</time>
      </trkpt>
      <trkpt lat="47.25433" lon="-2.25867">
        <ele>40.200000762939</ele>
        <time>2022-01-09T09:58:29.000Z</time>
      </trkpt>
      <trkpt lat="47.25436" lon="-2.25846">
        <ele>40.200000762939</ele>
        <time>2022-01-09T09:58:35.000Z</time>
      </trkpt>
      <trkpt lat="47.25439" lon="-2.25838">
        <ele>40.200000762939</ele>
        <time>2022-01-09T09:58:38.000Z</time>
      </trkpt>
      <trkpt lat="47.25442" lon="-2.25828">
        <ele>40.200000762939</ele>
        <time>2022-01-09T09:58:42.000Z</time>
      </trkpt>
      <trkpt lat="47.25446" lon="-2.25825">
        <ele>40.200000762939</ele>
        <time>2022-01-09T09:58:45.000Z</time>
      </trkpt>
      <trkpt lat="47.25447" lon="-2.25824">
        <ele>40.599998474121</ele>
        <time>2022-01-09T09:58:46.000Z</time>
      </trkpt>
      <trkpt lat="47.25448" lon="-2.25823">
        <ele>41.200000762939</ele>
        <time>2022-01-09T09:58:47.000Z</time>
      </trkpt>
      <trkpt lat="47.25448" lon="-2.25823">
        <ele>41.599998474121</ele>
        <time>2022-01-09T09:58:48.000Z</time>
      </trkpt>
      <trkpt lat="47.25449" lon="-2.25822">
        <ele>42</ele>
        <time>2022-01-09T09:58:49.000Z</time>
      </trkpt>
      <trkpt lat="47.2545" lon="-2.25822">
        <ele>42.400001525879</ele>
        <time>2022-01-09T09:58:50.000Z</time>
      </trkpt>
      <trkpt lat="47.25453" lon="-2.25821">
        <ele>42.400001525879</ele>
        <time>2022-01-09T09:58:55.000Z</time>
      </trkpt>
      <trkpt lat="47.25464" lon="-2.2581">
        <ele>44.599998474121</ele>
        <time>2022-01-09T09:59:42.000Z</time>
      </trkpt>
      <trkpt lat="47.25466" lon="-2.25792">
        <ele>44.599998474121</ele>
        <time>2022-01-09T09:59:47.000Z</time>
      </trkpt>
      <trkpt lat="47.25464" lon="-2.25791">
        <ele>44.599998474121</ele>
        <time>2022-01-09T09:59:48.000Z</time>
      </trkpt>
      <trkpt lat="47.25462" lon="-2.25789">
        <ele>44.599998474121</ele>
        <time>2022-01-09T09:59:51.000Z</time>
      </trkpt>
      <trkpt lat="47.2546" lon="-2.25785">
        <ele>44.200000762939</ele>
        <time>2022-01-09T09:59:53.000Z</time>
      </trkpt>
      <trkpt lat="47.2546" lon="-2.25784">
        <ele>43.799999237061</ele>
        <time>2022-01-09T09:59:54.000Z</time>
      </trkpt>
      <trkpt lat="47.2546" lon="-2.25781">
        <ele>43.400001525879</ele>
        <time>2022-01-09T09:59:55.000Z</time>
      </trkpt>
      <trkpt lat="47.25461" lon="-2.25777">
        <ele>43</ele>
        <time>2022-01-09T09:59:56.000Z</time>
      </trkpt>
      <trkpt lat="47.25462" lon="-2.25774">
        <ele>42.400001525879</ele>
        <time>2022-01-09T09:59:57.000Z</time>
      </trkpt>
      <trkpt lat="47.25463" lon="-2.25748">
        <ele>42.400001525879</ele>
        <time>2022-01-09T10:00:01.000Z</time>
      </trkpt>
      <trkpt lat="47.25462" lon="-2.25742">
        <ele>42</ele>
        <time>2022-01-09T10:00:02.000Z</time>
      </trkpt>
      <trkpt lat="47.25461" lon="-2.25734">
        <ele>41.599998474121</ele>
        <time>2022-01-09T10:00:03.000Z</time>
      </trkpt>
      <trkpt lat="47.25461" lon="-2.25728">
        <ele>41.200000762939</ele>
        <time>2022-01-09T10:00:04.000Z</time>
      </trkpt>
      <trkpt lat="47.2546" lon="-2.25723">
        <ele>40.599998474121</ele>
        <time>2022-01-09T10:00:05.000Z</time>
      </trkpt>
      <trkpt lat="47.2546" lon="-2.25719">
        <ele>40</ele>
        <time>2022-01-09T10:00:06.000Z</time>
      </trkpt>
      <trkpt lat="47.25459" lon="-2.25717">
        <ele>39</ele>
        <time>2022-01-09T10:00:07.000Z</time>
      </trkpt>
      <trkpt lat="47.25459" lon="-2.25713">
        <ele>38.400001525879</ele>
        <time>2022-01-09T10:00:08.000Z</time>
      </trkpt>
      <trkpt lat="47.25455" lon="-2.25704">
        <ele>38</ele>
        <time>2022-01-09T10:00:11.000Z</time>
      </trkpt>
      <trkpt lat="47.25454" lon="-2.25702">
        <ele>37.599998474121</ele>
        <time>2022-01-09T10:00:12.000Z</time>
      </trkpt>
      <trkpt lat="47.25451" lon="-2.25699">
        <ele>37.200000762939</ele>
        <time>2022-01-09T10:00:13.000Z</time>
      </trkpt>
      <trkpt lat="47.25449" lon="-2.25698">
        <ele>36.599998474121</ele>
        <time>2022-01-09T10:00:14.000Z</time>
      </trkpt>
      <trkpt lat="47.25446" lon="-2.25698">
        <ele>36.200000762939</ele>
        <time>2022-01-09T10:00:15.000Z</time>
      </trkpt>
      <trkpt lat="47.25443" lon="-2.25699">
        <ele>36.200000762939</ele>
        <time>2022-01-09T10:00:16.000Z</time>
      </trkpt>
      <trkpt lat="47.25429" lon="-2.25702">
        <ele>35.799999237061</ele>
        <time>2022-01-09T10:00:20.000Z</time>
      </trkpt>
      <trkpt lat="47.25425" lon="-2.25703">
        <ele>35.400001525879</ele>
        <time>2022-01-09T10:00:21.000Z</time>
      </trkpt>
      <trkpt lat="47.2542" lon="-2.25703">
        <ele>35</ele>
        <time>2022-01-09T10:00:22.000Z</time>
      </trkpt>
      <trkpt lat="47.25414" lon="-2.25703">
        <ele>34.599998474121</ele>
        <time>2022-01-09T10:00:23.000Z</time>
      </trkpt>
      <trkpt lat="47.25409" lon="-2.25703">
        <ele>34</ele>
        <time>2022-01-09T10:00:24.000Z</time>
      </trkpt>
      <trkpt lat="47.25403" lon="-2.25697">
        <ele>33.599998474121</ele>
        <time>2022-01-09T10:00:26.000Z</time>
      </trkpt>
      <trkpt lat="47.25401" lon="-2.25694">
        <ele>33.200000762939</ele>
        <time>2022-01-09T10:00:27.000Z</time>
      </trkpt>
      <trkpt lat="47.254" lon="-2.25688">
        <ele>32.799999237061</ele>
        <time>2022-01-09T10:00:28.000Z</time>
      </trkpt>
      <trkpt lat="47.254" lon="-2.25683">
        <ele>32.200000762939</ele>
        <time>2022-01-09T10:00:29.000Z</time>
      </trkpt>
      <trkpt lat="47.254" lon="-2.25678">
        <ele>31.799999237061</ele>
        <time>2022-01-09T10:00:30.000Z</time>
      </trkpt>
      <trkpt lat="47.25405" lon="-2.25671">
        <ele>31.799999237061</ele>
        <time>2022-01-09T10:00:32.000Z</time>
      </trkpt>
      <trkpt lat="47.25411" lon="-2.25665">
        <ele>31.799999237061</ele>
        <time>2022-01-09T10:00:34.000Z</time>
      </trkpt>
      <trkpt lat="47.25424" lon="-2.2565">
        <ele>32.200000762939</ele>
        <time>2022-01-09T10:00:38.000Z</time>
      </trkpt>
      <trkpt lat="47.25425" lon="-2.25646">
        <ele>32.599998474121</ele>
        <time>2022-01-09T10:00:39.000Z</time>
      </trkpt>
      <trkpt lat="47.25426" lon="-2.25642">
        <ele>33</ele>
        <time>2022-01-09T10:00:40.000Z</time>
      </trkpt>
      <trkpt lat="47.25428" lon="-2.25638">
        <ele>33.400001525879</ele>
        <time>2022-01-09T10:00:41.000Z</time>
      </trkpt>
      <trkpt lat="47.2543" lon="-2.25634">
        <ele>33.799999237061</ele>
        <time>2022-01-09T10:00:42.000Z</time>
      </trkpt>
      <trkpt lat="47.25437" lon="-2.25623">
        <ele>33.799999237061</ele>
        <time>2022-01-09T10:00:45.000Z</time>
      </trkpt>
      <trkpt lat="47.25441" lon="-2.25611">
        <ele>33.799999237061</ele>
        <time>2022-01-09T10:00:48.000Z</time>
      </trkpt>
      <trkpt lat="47.2544" lon="-2.25606">
        <ele>33.799999237061</ele>
        <time>2022-01-09T10:00:49.000Z</time>
      </trkpt>
      <trkpt lat="47.25434" lon="-2.25593">
        <ele>33.799999237061</ele>
        <time>2022-01-09T10:00:54.000Z</time>
      </trkpt>
      <trkpt lat="47.25434" lon="-2.25589">
        <ele>33.799999237061</ele>
        <time>2022-01-09T10:00:56.000Z</time>
      </trkpt>
      <trkpt lat="47.25427" lon="-2.25581">
        <ele>33.799999237061</ele>
        <time>2022-01-09T10:01:00.000Z</time>
      </trkpt>
      <trkpt lat="47.25417" lon="-2.2557">
        <ele>33.799999237061</ele>
        <time>2022-01-09T10:01:06.000Z</time>
      </trkpt>
      <trkpt lat="47.25414" lon="-2.25563">
        <ele>33.799999237061</ele>
        <time>2022-01-09T10:01:09.000Z</time>
      </trkpt>
      <trkpt lat="47.25411" lon="-2.25561">
        <ele>33.400001525879</ele>
        <time>2022-01-09T10:01:10.000Z</time>
      </trkpt>
      <trkpt lat="47.25408" lon="-2.25559">
        <ele>33</ele>
        <time>2022-01-09T10:01:11.000Z</time>
      </trkpt>
      <trkpt lat="47.25404" lon="-2.25558">
        <ele>32.599998474121</ele>
        <time>2022-01-09T10:01:12.000Z</time>
      </trkpt>
      <trkpt lat="47.254" lon="-2.25554">
        <ele>32.200000762939</ele>
        <time>2022-01-09T10:01:13.000Z</time>
      </trkpt>
      <trkpt lat="47.25397" lon="-2.25548">
        <ele>31.799999237061</ele>
        <time>2022-01-09T10:01:14.000Z</time>
      </trkpt>
      <trkpt lat="47.25393" lon="-2.25542">
        <ele>31.799999237061</ele>
        <time>2022-01-09T10:01:15.000Z</time>
      </trkpt>
      <trkpt lat="47.25391" lon="-2.25536">
        <ele>31.799999237061</ele>
        <time>2022-01-09T10:01:16.000Z</time>
      </trkpt>
      <trkpt lat="47.25389" lon="-2.2552">
        <ele>31.39999961853</ele>
        <time>2022-01-09T10:01:19.000Z</time>
      </trkpt>
      <trkpt lat="47.2539" lon="-2.25514">
        <ele>31</ele>
        <time>2022-01-09T10:01:20.000Z</time>
      </trkpt>
      <trkpt lat="47.25391" lon="-2.25508">
        <ele>30.200000762939</ele>
        <time>2022-01-09T10:01:21.000Z</time>
      </trkpt>
      <trkpt lat="47.25392" lon="-2.25504">
        <ele>29.799999237061</ele>
        <time>2022-01-09T10:01:22.000Z</time>
      </trkpt>
      <trkpt lat="47.25393" lon="-2.25499">
        <ele>29.799999237061</ele>
        <time>2022-01-09T10:01:23.000Z</time>
      </trkpt>
      <trkpt lat="47.25401" lon="-2.25466">
        <ele>29.799999237061</ele>
        <time>2022-01-09T10:01:29.000Z</time>
      </trkpt>
      <trkpt lat="47.25411" lon="-2.25437">
        <ele>29.799999237061</ele>
        <time>2022-01-09T10:01:35.000Z</time>
      </trkpt>
      <trkpt lat="47.25418" lon="-2.25419">
        <ele>30.200000762939</ele>
        <time>2022-01-09T10:01:40.000Z</time>
      </trkpt>
      <trkpt lat="47.25419" lon="-2.25416">
        <ele>30.60000038147</ele>
        <time>2022-01-09T10:01:41.000Z</time>
      </trkpt>
      <trkpt lat="47.25421" lon="-2.25414">
        <ele>31</ele>
        <time>2022-01-09T10:01:42.000Z</time>
      </trkpt>
      <trkpt lat="47.25423" lon="-2.25413">
        <ele>31.39999961853</ele>
        <time>2022-01-09T10:01:43.000Z</time>
      </trkpt>
      <trkpt lat="47.25425" lon="-2.25412">
        <ele>31.799999237061</ele>
        <time>2022-01-09T10:01:44.000Z</time>
      </trkpt>
      <trkpt lat="47.25428" lon="-2.2541">
        <ele>31.799999237061</ele>
        <time>2022-01-09T10:01:46.000Z</time>
      </trkpt>
      <trkpt lat="47.25434" lon="-2.25405">
        <ele>31.799999237061</ele>
        <time>2022-01-09T10:01:51.000Z</time>
      </trkpt>
      <trkpt lat="47.25435" lon="-2.25403">
        <ele>32.200000762939</ele>
        <time>2022-01-09T10:01:52.000Z</time>
      </trkpt>
      <trkpt lat="47.25435" lon="-2.25401">
        <ele>32.599998474121</ele>
        <time>2022-01-09T10:01:53.000Z</time>
      </trkpt>
      <trkpt lat="47.25435" lon="-2.25399">
        <ele>33</ele>
        <time>2022-01-09T10:01:54.000Z</time>
      </trkpt>
      <trkpt lat="47.25436" lon="-2.25398">
        <ele>33.400001525879</ele>
        <time>2022-01-09T10:01:55.000Z</time>
      </trkpt>
      <trkpt lat="47.25438" lon="-2.25397">
        <ele>33.799999237061</ele>
        <time>2022-01-09T10:01:56.000Z</time>
      </trkpt>
      <trkpt lat="47.25441" lon="-2.25396">
        <ele>33.799999237061</ele>
        <time>2022-01-09T10:01:58.000Z</time>
      </trkpt>
      <trkpt lat="47.25444" lon="-2.25398">
        <ele>33.799999237061</ele>
        <time>2022-01-09T10:02:00.000Z</time>
      </trkpt>
      <trkpt lat="47.25446" lon="-2.25402">
        <ele>33.799999237061</ele>
        <time>2022-01-09T10:02:03.000Z</time>
      </trkpt>
      <trkpt lat="47.2545" lon="-2.25409">
        <ele>34.200000762939</ele>
        <time>2022-01-09T10:02:07.000Z</time>
      </trkpt>
      <trkpt lat="47.25451" lon="-2.25408">
        <ele>34.599998474121</ele>
        <time>2022-01-09T10:02:08.000Z</time>
      </trkpt>
      <trkpt lat="47.25452" lon="-2.25408">
        <ele>35.200000762939</ele>
        <time>2022-01-09T10:02:09.000Z</time>
      </trkpt>
      <trkpt lat="47.25453" lon="-2.25407">
        <ele>35.599998474121</ele>
        <time>2022-01-09T10:02:10.000Z</time>
      </trkpt>
      <trkpt lat="47.25454" lon="-2.25406">
        <ele>36</ele>
        <time>2022-01-09T10:02:11.000Z</time>
      </trkpt>
      <trkpt lat="47.25456" lon="-2.25405">
        <ele>36</ele>
        <time>2022-01-09T10:02:12.000Z</time>
      </trkpt>
      <trkpt lat="47.25463" lon="-2.25404">
        <ele>36</ele>
        <time>2022-01-09T10:02:15.000Z</time>
      </trkpt>
      <trkpt lat="47.25466" lon="-2.25404">
        <ele>36.400001525879</ele>
        <time>2022-01-09T10:02:16.000Z</time>
      </trkpt>
      <trkpt lat="47.25467" lon="-2.25404">
        <ele>36.799999237061</ele>
        <time>2022-01-09T10:02:17.000Z</time>
      </trkpt>
      <trkpt lat="47.25469" lon="-2.25403">
        <ele>37.200000762939</ele>
        <time>2022-01-09T10:02:18.000Z</time>
      </trkpt>
      <trkpt lat="47.25472" lon="-2.25404">
        <ele>37.599998474121</ele>
        <time>2022-01-09T10:02:19.000Z</time>
      </trkpt>
      <trkpt lat="47.25475" lon="-2.25405">
        <ele>38</ele>
        <time>2022-01-09T10:02:20.000Z</time>
      </trkpt>
      <trkpt lat="47.25478" lon="-2.25406">
        <ele>38</ele>
        <time>2022-01-09T10:02:21.000Z</time>
      </trkpt>
      <trkpt lat="47.25484" lon="-2.25412">
        <ele>38.400001525879</ele>
        <time>2022-01-09T10:02:26.000Z</time>
      </trkpt>
      <trkpt lat="47.25485" lon="-2.25413">
        <ele>38.799999237061</ele>
        <time>2022-01-09T10:02:27.000Z</time>
      </trkpt>
      <trkpt lat="47.25486" lon="-2.25415">
        <ele>39.200000762939</ele>
        <time>2022-01-09T10:02:28.000Z</time>
      </trkpt>
      <trkpt lat="47.25488" lon="-2.25417">
        <ele>39.599998474121</ele>
        <time>2022-01-09T10:02:29.000Z</time>
      </trkpt>
      <trkpt lat="47.25489" lon="-2.25419">
        <ele>40</ele>
        <time>2022-01-09T10:02:30.000Z</time>
      </trkpt>
      <trkpt lat="47.25491" lon="-2.25425">
        <ele>40</ele>
        <time>2022-01-09T10:02:32.000Z</time>
      </trkpt>
      <trkpt lat="47.25497" lon="-2.2544">
        <ele>40.400001525879</ele>
        <time>2022-01-09T10:02:37.000Z</time>
      </trkpt>
      <trkpt lat="47.25498" lon="-2.25443">
        <ele>40.799999237061</ele>
        <time>2022-01-09T10:02:38.000Z</time>
      </trkpt>
      <trkpt lat="47.25499" lon="-2.25446">
        <ele>41.200000762939</ele>
        <time>2022-01-09T10:02:39.000Z</time>
      </trkpt>
      <trkpt lat="47.25501" lon="-2.25449">
        <ele>41.599998474121</ele>
        <time>2022-01-09T10:02:40.000Z</time>
      </trkpt>
      <trkpt lat="47.25502" lon="-2.25451">
        <ele>42</ele>
        <time>2022-01-09T10:02:41.000Z</time>
      </trkpt>
      <trkpt lat="47.25503" lon="-2.25454">
        <ele>42</ele>
        <time>2022-01-09T10:02:42.000Z</time>
      </trkpt>
      <trkpt lat="47.25505" lon="-2.25459">
        <ele>42</ele>
        <time>2022-01-09T10:02:44.000Z</time>
      </trkpt>
      <trkpt lat="47.25508" lon="-2.25476">
        <ele>42</ele>
        <time>2022-01-09T10:02:50.000Z</time>
      </trkpt>
      <trkpt lat="47.25509" lon="-2.25478">
        <ele>42</ele>
        <time>2022-01-09T10:02:51.000Z</time>
      </trkpt>
      <trkpt lat="47.25513" lon="-2.25494">
        <ele>42</ele>
        <time>2022-01-09T10:02:56.000Z</time>
      </trkpt>
      <trkpt lat="47.25518" lon="-2.25527">
        <ele>42</ele>
        <time>2022-01-09T10:03:05.000Z</time>
      </trkpt>
      <trkpt lat="47.25518" lon="-2.25534">
        <ele>42.400001525879</ele>
        <time>2022-01-09T10:03:07.000Z</time>
      </trkpt>
      <trkpt lat="47.25518" lon="-2.25538">
        <ele>42.799999237061</ele>
        <time>2022-01-09T10:03:08.000Z</time>
      </trkpt>
      <trkpt lat="47.25519" lon="-2.25541">
        <ele>43.200000762939</ele>
        <time>2022-01-09T10:03:09.000Z</time>
      </trkpt>
      <trkpt lat="47.2552" lon="-2.25544">
        <ele>43.599998474121</ele>
        <time>2022-01-09T10:03:10.000Z</time>
      </trkpt>
      <trkpt lat="47.25521" lon="-2.25547">
        <ele>44</ele>
        <time>2022-01-09T10:03:11.000Z</time>
      </trkpt>
      <trkpt lat="47.25521" lon="-2.2555">
        <ele>44</ele>
        <time>2022-01-09T10:03:12.000Z</time>
      </trkpt>
      <trkpt lat="47.25522" lon="-2.25555">
        <ele>44.400001525879</ele>
        <time>2022-01-09T10:03:14.000Z</time>
      </trkpt>
      <trkpt lat="47.25522" lon="-2.25557">
        <ele>45</ele>
        <time>2022-01-09T10:03:15.000Z</time>
      </trkpt>
      <trkpt lat="47.25522" lon="-2.25559">
        <ele>45.400001525879</ele>
        <time>2022-01-09T10:03:16.000Z</time>
      </trkpt>
      <trkpt lat="47.25521" lon="-2.25561">
        <ele>45.799999237061</ele>
        <time>2022-01-09T10:03:17.000Z</time>
      </trkpt>
      <trkpt lat="47.25521" lon="-2.25561">
        <ele>46.200000762939</ele>
        <time>2022-01-09T10:03:18.000Z</time>
      </trkpt>
      <trkpt lat="47.25521" lon="-2.25562">
        <ele>46.200000762939</ele>
        <time>2022-01-09T10:03:19.000Z</time>
      </trkpt>
      <trkpt lat="47.25519" lon="-2.25564">
        <ele>46.200000762939</ele>
        <time>2022-01-09T10:03:42.000Z</time>
      </trkpt>
      <trkpt lat="47.25518" lon="-2.25566">
        <ele>46.200000762939</ele>
        <time>2022-01-09T10:03:43.000Z</time>
      </trkpt>
      <trkpt lat="47.25511" lon="-2.25576">
        <ele>46.200000762939</ele>
        <time>2022-01-09T10:03:48.000Z</time>
      </trkpt>
      <trkpt lat="47.25508" lon="-2.25577">
        <ele>46.200000762939</ele>
        <time>2022-01-09T10:03:51.000Z</time>
      </trkpt>
      <trkpt lat="47.25508" lon="-2.25582">
        <ele>46.200000762939</ele>
        <time>2022-01-09T10:04:23.000Z</time>
      </trkpt>
      <trkpt lat="47.25507" lon="-2.25595">
        <ele>46.200000762939</ele>
        <time>2022-01-09T10:04:27.000Z</time>
      </trkpt>
      <trkpt lat="47.25506" lon="-2.25598">
        <ele>45.799999237061</ele>
        <time>2022-01-09T10:04:28.000Z</time>
      </trkpt>
      <trkpt lat="47.25504" lon="-2.25602">
        <ele>45.400001525879</ele>
        <time>2022-01-09T10:04:29.000Z</time>
      </trkpt>
      <trkpt lat="47.25502" lon="-2.25607">
        <ele>45</ele>
        <time>2022-01-09T10:04:30.000Z</time>
      </trkpt>
      <trkpt lat="47.25499" lon="-2.25612">
        <ele>44.599998474121</ele>
        <time>2022-01-09T10:04:31.000Z</time>
      </trkpt>
      <trkpt lat="47.25496" lon="-2.25617">
        <ele>44.200000762939</ele>
        <time>2022-01-09T10:04:32.000Z</time>
      </trkpt>
      <trkpt lat="47.25491" lon="-2.25627">
        <ele>43.799999237061</ele>
        <time>2022-01-09T10:04:34.000Z</time>
      </trkpt>
      <trkpt lat="47.25488" lon="-2.25633">
        <ele>43.200000762939</ele>
        <time>2022-01-09T10:04:35.000Z</time>
      </trkpt>
      <trkpt lat="47.25485" lon="-2.25638">
        <ele>42.799999237061</ele>
        <time>2022-01-09T10:04:36.000Z</time>
      </trkpt>
      <trkpt lat="47.25482" lon="-2.25642">
        <ele>42.400001525879</ele>
        <time>2022-01-09T10:04:37.000Z</time>
      </trkpt>
      <trkpt lat="47.25479" lon="-2.25646">
        <ele>42</ele>
        <time>2022-01-09T10:04:38.000Z</time>
      </trkpt>
      <trkpt lat="47.25477" lon="-2.25649">
        <ele>41.400001525879</ele>
        <time>2022-01-09T10:04:39.000Z</time>
      </trkpt>
      <trkpt lat="47.25475" lon="-2.25652">
        <ele>41</ele>
        <time>2022-01-09T10:04:40.000Z</time>
      </trkpt>
      <trkpt lat="47.25473" lon="-2.25655">
        <ele>40.599998474121</ele>
        <time>2022-01-09T10:04:41.000Z</time>
      </trkpt>
      <trkpt lat="47.25472" lon="-2.25657">
        <ele>40.200000762939</ele>
        <time>2022-01-09T10:04:42.000Z</time>
      </trkpt>
      <trkpt lat="47.2547" lon="-2.25659">
        <ele>39.599998474121</ele>
        <time>2022-01-09T10:04:43.000Z</time>
      </trkpt>
      <trkpt lat="47.25467" lon="-2.25664">
        <ele>39.599998474121</ele>
        <time>2022-01-09T10:04:47.000Z</time>
      </trkpt>
      <trkpt lat="47.25466" lon="-2.25666">
        <ele>39.599998474121</ele>
        <time>2022-01-09T10:04:48.000Z</time>
      </trkpt>
      <trkpt lat="47.25466" lon="-2.25666">
        <ele>39.599998474121</ele>
        <time>2022-01-09T10:04:49.000Z</time>
      </trkpt>
      <trkpt lat="47.25466" lon="-2.25669">
        <ele>39.599998474121</ele>
        <time>2022-01-09T10:05:08.000Z</time>
      </trkpt>
      <trkpt lat="47.25465" lon="-2.25672">
        <ele>39.599998474121</ele>
        <time>2022-01-09T10:05:10.000Z</time>
      </trkpt>
      <trkpt lat="47.25459" lon="-2.25686">
        <ele>39.200000762939</ele>
        <time>2022-01-09T10:05:15.000Z</time>
      </trkpt>
      <trkpt lat="47.25458" lon="-2.2569">
        <ele>38.799999237061</ele>
        <time>2022-01-09T10:05:16.000Z</time>
      </trkpt>
      <trkpt lat="47.25456" lon="-2.25694">
        <ele>38.400001525879</ele>
        <time>2022-01-09T10:05:17.000Z</time>
      </trkpt>
      <trkpt lat="47.25454" lon="-2.25697">
        <ele>38</ele>
        <time>2022-01-09T10:05:18.000Z</time>
      </trkpt>
      <trkpt lat="47.25453" lon="-2.257">
        <ele>37.599998474121</ele>
        <time>2022-01-09T10:05:19.000Z</time>
      </trkpt>
      <trkpt lat="47.25451" lon="-2.25703">
        <ele>37.599998474121</ele>
        <time>2022-01-09T10:05:20.000Z</time>
      </trkpt>
      <trkpt lat="47.25442" lon="-2.25722">
        <ele>37.599998474121</ele>
        <time>2022-01-09T10:05:26.000Z</time>
      </trkpt>
      <trkpt lat="47.25432" lon="-2.25738">
        <ele>37.599998474121</ele>
        <time>2022-01-09T10:05:32.000Z</time>
      </trkpt>
      <trkpt lat="47.25427" lon="-2.25746">
        <ele>37.599998474121</ele>
        <time>2022-01-09T10:05:35.000Z</time>
      </trkpt>
      <trkpt lat="47.25424" lon="-2.25747">
        <ele>37.200000762939</ele>
        <time>2022-01-09T10:05:36.000Z</time>
      </trkpt>
      <trkpt lat="47.25422" lon="-2.25747">
        <ele>36.599998474121</ele>
        <time>2022-01-09T10:05:37.000Z</time>
      </trkpt>
      <trkpt lat="47.25419" lon="-2.25747">
        <ele>36.200000762939</ele>
        <time>2022-01-09T10:05:38.000Z</time>
      </trkpt>
      <trkpt lat="47.25416" lon="-2.25748">
        <ele>35.799999237061</ele>
        <time>2022-01-09T10:05:39.000Z</time>
      </trkpt>
      <trkpt lat="47.25413" lon="-2.25749">
        <ele>35.400001525879</ele>
        <time>2022-01-09T10:05:40.000Z</time>
      </trkpt>
      <trkpt lat="47.25406" lon="-2.25751">
        <ele>34.799999237061</ele>
        <time>2022-01-09T10:05:42.000Z</time>
      </trkpt>
      <trkpt lat="47.25403" lon="-2.25753">
        <ele>34.400001525879</ele>
        <time>2022-01-09T10:05:43.000Z</time>
      </trkpt>
      <trkpt lat="47.254" lon="-2.25755">
        <ele>34</ele>
        <time>2022-01-09T10:05:44.000Z</time>
      </trkpt>
      <trkpt lat="47.25397" lon="-2.25756">
        <ele>33.400001525879</ele>
        <time>2022-01-09T10:05:45.000Z</time>
      </trkpt>
      <trkpt lat="47.25395" lon="-2.25757">
        <ele>33</ele>
        <time>2022-01-09T10:05:46.000Z</time>
      </trkpt>
      <trkpt lat="47.25391" lon="-2.2576">
        <ele>33</ele>
        <time>2022-01-09T10:05:48.000Z</time>
      </trkpt>
      <trkpt lat="47.25386" lon="-2.25778">
        <ele>33</ele>
        <time>2022-01-09T10:05:53.000Z</time>
      </trkpt>
      <trkpt lat="47.25381" lon="-2.25789">
        <ele>33</ele>
        <time>2022-01-09T10:05:57.000Z</time>
      </trkpt>
      <trkpt lat="47.2538" lon="-2.2579">
        <ele>33</ele>
        <time>2022-01-09T10:05:58.000Z</time>
      </trkpt>
      <trkpt lat="47.25378" lon="-2.25793">
        <ele>33.400001525879</ele>
        <time>2022-01-09T10:06:00.000Z</time>
      </trkpt>
      <trkpt lat="47.25377" lon="-2.25794">
        <ele>34</ele>
        <time>2022-01-09T10:06:01.000Z</time>
      </trkpt>
      <trkpt lat="47.25375" lon="-2.25795">
        <ele>34.400001525879</ele>
        <time>2022-01-09T10:06:02.000Z</time>
      </trkpt>
      <trkpt lat="47.25373" lon="-2.25797">
        <ele>34.799999237061</ele>
        <time>2022-01-09T10:06:03.000Z</time>
      </trkpt>
      <trkpt lat="47.25371" lon="-2.25798">
        <ele>35.200000762939</ele>
        <time>2022-01-09T10:06:04.000Z</time>
      </trkpt>
      <trkpt lat="47.25367" lon="-2.25801">
        <ele>35.599998474121</ele>
        <time>2022-01-09T10:06:07.000Z</time>
      </trkpt>
      <trkpt lat="47.25366" lon="-2.25803">
        <ele>36</ele>
        <time>2022-01-09T10:06:08.000Z</time>
      </trkpt>
      <trkpt lat="47.25365" lon="-2.25805">
        <ele>36.599998474121</ele>
        <time>2022-01-09T10:06:09.000Z</time>
      </trkpt>
      <trkpt lat="47.25364" lon="-2.25808">
        <ele>37</ele>
        <time>2022-01-09T10:06:10.000Z</time>
      </trkpt>
      <trkpt lat="47.25362" lon="-2.25811">
        <ele>37.400001525879</ele>
        <time>2022-01-09T10:06:11.000Z</time>
      </trkpt>
      <trkpt lat="47.25358" lon="-2.25821">
        <ele>37.799999237061</ele>
        <time>2022-01-09T10:06:14.000Z</time>
      </trkpt>
      <trkpt lat="47.25356" lon="-2.25824">
        <ele>38.400001525879</ele>
        <time>2022-01-09T10:06:15.000Z</time>
      </trkpt>
      <trkpt lat="47.25354" lon="-2.25826">
        <ele>38.799999237061</ele>
        <time>2022-01-09T10:06:16.000Z</time>
      </trkpt>
      <trkpt lat="47.25352" lon="-2.2583">
        <ele>39.200000762939</ele>
        <time>2022-01-09T10:06:17.000Z</time>
      </trkpt>
      <trkpt lat="47.25351" lon="-2.25833">
        <ele>39.799999237061</ele>
        <time>2022-01-09T10:06:18.000Z</time>
      </trkpt>
      <trkpt lat="47.25348" lon="-2.25837">
        <ele>40.200000762939</ele>
        <time>2022-01-09T10:06:20.000Z</time>
      </trkpt>
      <trkpt lat="47.25347" lon="-2.25839">
        <ele>40.599998474121</ele>
        <time>2022-01-09T10:06:21.000Z</time>
      </trkpt>
      <trkpt lat="47.25346" lon="-2.25842">
        <ele>41</ele>
        <time>2022-01-09T10:06:22.000Z</time>
      </trkpt>
      <trkpt lat="47.25345" lon="-2.25844">
        <ele>41.400001525879</ele>
        <time>2022-01-09T10:06:23.000Z</time>
      </trkpt>
      <trkpt lat="47.25345" lon="-2.25846">
        <ele>41.799999237061</ele>
        <time>2022-01-09T10:06:24.000Z</time>
      </trkpt>
      <trkpt lat="47.25344" lon="-2.25849">
        <ele>42.200000762939</ele>
        <time>2022-01-09T10:06:26.000Z</time>
      </trkpt>
      <trkpt lat="47.25343" lon="-2.25851">
        <ele>42.599998474121</ele>
        <time>2022-01-09T10:06:27.000Z</time>
      </trkpt>
      <trkpt lat="47.25342" lon="-2.25853">
        <ele>43</ele>
        <time>2022-01-09T10:06:28.000Z</time>
      </trkpt>
      <trkpt lat="47.25341" lon="-2.25854">
        <ele>43.400001525879</ele>
        <time>2022-01-09T10:06:29.000Z</time>
      </trkpt>
      <trkpt lat="47.25341" lon="-2.25856">
        <ele>43.799999237061</ele>
        <time>2022-01-09T10:06:30.000Z</time>
      </trkpt>
      <trkpt lat="47.2534" lon="-2.25858">
        <ele>43.799999237061</ele>
        <time>2022-01-09T10:06:31.000Z</time>
      </trkpt>
      <trkpt lat="47.25338" lon="-2.25866">
        <ele>44.200000762939</ele>
        <time>2022-01-09T10:06:35.000Z</time>
      </trkpt>
      <trkpt lat="47.25337" lon="-2.25868">
        <ele>45</ele>
        <time>2022-01-09T10:06:36.000Z</time>
      </trkpt>
      <trkpt lat="47.25336" lon="-2.25881">
        <ele>46</ele>
        <time>2022-01-09T10:07:24.000Z</time>
      </trkpt>
      <trkpt lat="47.25337" lon="-2.25888">
        <ele>46</ele>
        <time>2022-01-09T10:07:27.000Z</time>
      </trkpt>
      <trkpt lat="47.25337" lon="-2.2589">
        <ele>46</ele>
        <time>2022-01-09T10:07:28.000Z</time>
      </trkpt>
      <trkpt lat="47.25338" lon="-2.25898">
        <ele>46</ele>
        <time>2022-01-09T10:07:33.000Z</time>
      </trkpt>
      <trkpt lat="47.2534" lon="-2.2591">
        <ele>46</ele>
        <time>2022-01-09T10:07:39.000Z</time>
      </trkpt>
      <trkpt lat="47.2534" lon="-2.25911">
        <ele>46</ele>
        <time>2022-01-09T10:07:40.000Z</time>
      </trkpt>
      <trkpt lat="47.25341" lon="-2.25916">
        <ele>46</ele>
        <time>2022-01-09T10:08:40.000Z</time>
      </trkpt>
      <trkpt lat="47.25342" lon="-2.25921">
        <ele>46</ele>
        <time>2022-01-09T10:08:42.000Z</time>
      </trkpt>
      <trkpt lat="47.25343" lon="-2.25936">
        <ele>46</ele>
        <time>2022-01-09T10:08:47.000Z</time>
      </trkpt>
      <trkpt lat="47.25349" lon="-2.25958">
        <ele>46</ele>
        <time>2022-01-09T10:08:52.000Z</time>
      </trkpt>
      <trkpt lat="47.25356" lon="-2.25982">
        <ele>46</ele>
        <time>2022-01-09T10:08:58.000Z</time>
      </trkpt>
      <trkpt lat="47.25357" lon="-2.25997">
        <ele>46</ele>
        <time>2022-01-09T10:09:03.000Z</time>
      </trkpt>
      <trkpt lat="47.25356" lon="-2.25999">
        <ele>46</ele>
        <time>2022-01-09T10:09:04.000Z</time>
      </trkpt>
      <trkpt lat="47.25352" lon="-2.26006">
        <ele>46</ele>
        <time>2022-01-09T10:09:08.000Z</time>
      </trkpt>
      <trkpt lat="47.25351" lon="-2.26008">
        <ele>46.400001525879</ele>
        <time>2022-01-09T10:09:09.000Z</time>
      </trkpt>
      <trkpt lat="47.2535" lon="-2.2601">
        <ele>46.799999237061</ele>
        <time>2022-01-09T10:09:10.000Z</time>
      </trkpt>
      <trkpt lat="47.25349" lon="-2.26011">
        <ele>47.200000762939</ele>
        <time>2022-01-09T10:09:11.000Z</time>
      </trkpt>
      <trkpt lat="47.25348" lon="-2.26014">
        <ele>47.599998474121</ele>
        <time>2022-01-09T10:09:12.000Z</time>
      </trkpt>
      <trkpt lat="47.25347" lon="-2.26016">
        <ele>48</ele>
        <time>2022-01-09T10:09:13.000Z</time>
      </trkpt>
      <trkpt lat="47.25345" lon="-2.26018">
        <ele>48</ele>
        <time>2022-01-09T10:09:14.000Z</time>
      </trkpt>
      <trkpt lat="47.25335" lon="-2.26023">
        <ele>48</ele>
        <time>2022-01-09T10:09:18.000Z</time>
      </trkpt>
      <trkpt lat="47.25334" lon="-2.26022">
        <ele>48</ele>
        <time>2022-01-09T10:09:19.000Z</time>
      </trkpt>
      <trkpt lat="47.25331" lon="-2.26013">
        <ele>48</ele>
        <time>2022-01-09T10:09:24.000Z</time>
      </trkpt>
      <trkpt lat="47.25331" lon="-2.26009">
        <ele>48</ele>
        <time>2022-01-09T10:09:27.000Z</time>
      </trkpt>
      <trkpt lat="47.25333" lon="-2.26011">
        <ele>48</ele>
        <time>2022-01-09T10:09:29.000Z</time>
      </trkpt>
      <trkpt lat="47.25335" lon="-2.26016">
        <ele>48</ele>
        <time>2022-01-09T10:09:34.000Z</time>
      </trkpt>
      <trkpt lat="47.25345" lon="-2.26013">
        <ele>48</ele>
        <time>2022-01-09T10:09:40.000Z</time>
      </trkpt>
      <trkpt lat="47.25355" lon="-2.26013">
        <ele>48</ele>
        <time>2022-01-09T10:09:45.000Z</time>
      </trkpt>
      <trkpt lat="47.25367" lon="-2.26015">
        <ele>47.599998474121</ele>
        <time>2022-01-09T10:09:49.000Z</time>
      </trkpt>
      <trkpt lat="47.25371" lon="-2.26017">
        <ele>47.200000762939</ele>
        <time>2022-01-09T10:09:50.000Z</time>
      </trkpt>
      <trkpt lat="47.25375" lon="-2.2602">
        <ele>46.799999237061</ele>
        <time>2022-01-09T10:09:51.000Z</time>
      </trkpt>
      <trkpt lat="47.25379" lon="-2.26023">
        <ele>46.400001525879</ele>
        <time>2022-01-09T10:09:52.000Z</time>
      </trkpt>
      <trkpt lat="47.25382" lon="-2.26026">
        <ele>46</ele>
        <time>2022-01-09T10:09:53.000Z</time>
      </trkpt>
      <trkpt lat="47.25385" lon="-2.26029">
        <ele>45.400001525879</ele>
        <time>2022-01-09T10:09:54.000Z</time>
      </trkpt>
      <trkpt lat="47.25387" lon="-2.26031">
        <ele>44.200000762939</ele>
        <time>2022-01-09T10:09:55.000Z</time>
      </trkpt>
      <trkpt lat="47.25389" lon="-2.26034">
        <ele>43.599998474121</ele>
        <time>2022-01-09T10:09:56.000Z</time>
      </trkpt>
      <trkpt lat="47.25389" lon="-2.26038">
        <ele>43.599998474121</ele>
        <time>2022-01-09T10:09:57.000Z</time>
      </trkpt>
      <trkpt lat="47.25388" lon="-2.26047">
        <ele>43.599998474121</ele>
        <time>2022-01-09T10:09:59.000Z</time>
      </trkpt>
      <trkpt lat="47.25388" lon="-2.26051">
        <ele>43.599998474121</ele>
        <time>2022-01-09T10:10:00.000Z</time>
      </trkpt>
      <trkpt lat="47.25389" lon="-2.2607">
        <ele>43.599998474121</ele>
        <time>2022-01-09T10:10:03.000Z</time>
      </trkpt>
      <trkpt lat="47.25392" lon="-2.26093">
        <ele>43.599998474121</ele>
        <time>2022-01-09T10:10:07.000Z</time>
      </trkpt>
      <trkpt lat="47.25396" lon="-2.26098">
        <ele>43.599998474121</ele>
        <time>2022-01-09T10:10:08.000Z</time>
      </trkpt>
      <trkpt lat="47.25408" lon="-2.26121">
        <ele>43.200000762939</ele>
        <time>2022-01-09T10:10:12.000Z</time>
      </trkpt>
      <trkpt lat="47.25411" lon="-2.26129">
        <ele>42.799999237061</ele>
        <time>2022-01-09T10:10:13.000Z</time>
      </trkpt>
      <trkpt lat="47.25415" lon="-2.26135">
        <ele>42.400001525879</ele>
        <time>2022-01-09T10:10:14.000Z</time>
      </trkpt>
      <trkpt lat="47.25417" lon="-2.26142">
        <ele>41.799999237061</ele>
        <time>2022-01-09T10:10:15.000Z</time>
      </trkpt>
      <trkpt lat="47.25419" lon="-2.26149">
        <ele>41.400001525879</ele>
        <time>2022-01-09T10:10:16.000Z</time>
      </trkpt>
      <trkpt lat="47.25419" lon="-2.26155">
        <ele>41</ele>
        <time>2022-01-09T10:10:17.000Z</time>
      </trkpt>
      <trkpt lat="47.25419" lon="-2.26161">
        <ele>40.599998474121</ele>
        <time>2022-01-09T10:10:18.000Z</time>
      </trkpt>
      <trkpt lat="47.2542" lon="-2.26167">
        <ele>40.200000762939</ele>
        <time>2022-01-09T10:10:19.000Z</time>
      </trkpt>
      <trkpt lat="47.25421" lon="-2.26174">
        <ele>39.400001525879</ele>
        <time>2022-01-09T10:10:20.000Z</time>
      </trkpt>
      <trkpt lat="47.25421" lon="-2.26186">
        <ele>39.400001525879</ele>
        <time>2022-01-09T10:10:22.000Z</time>
      </trkpt>
      <trkpt lat="47.25419" lon="-2.262">
        <ele>39.799999237061</ele>
        <time>2022-01-09T10:10:25.000Z</time>
      </trkpt>
      <trkpt lat="47.25418" lon="-2.26204">
        <ele>40.400001525879</ele>
        <time>2022-01-09T10:10:26.000Z</time>
      </trkpt>
      <trkpt lat="47.25417" lon="-2.26208">
        <ele>40.799999237061</ele>
        <time>2022-01-09T10:10:27.000Z</time>
      </trkpt>
      <trkpt lat="47.25417" lon="-2.26212">
        <ele>41.400001525879</ele>
        <time>2022-01-09T10:10:28.000Z</time>
      </trkpt>
      <trkpt lat="47.25417" lon="-2.26216">
        <ele>41.799999237061</ele>
        <time>2022-01-09T10:10:29.000Z</time>
      </trkpt>
      <trkpt lat="47.25418" lon="-2.26226">
        <ele>41.799999237061</ele>
        <time>2022-01-09T10:10:31.000Z</time>
      </trkpt>
      <trkpt lat="47.25419" lon="-2.26265">
        <ele>42.200000762939</ele>
        <time>2022-01-09T10:10:38.000Z</time>
      </trkpt>
      <trkpt lat="47.25419" lon="-2.26271">
        <ele>42.599998474121</ele>
        <time>2022-01-09T10:10:39.000Z</time>
      </trkpt>
      <trkpt lat="47.25419" lon="-2.26276">
        <ele>43</ele>
        <time>2022-01-09T10:10:40.000Z</time>
      </trkpt>
      <trkpt lat="47.2542" lon="-2.26281">
        <ele>43.400001525879</ele>
        <time>2022-01-09T10:10:41.000Z</time>
      </trkpt>
      <trkpt lat="47.25421" lon="-2.26285">
        <ele>43.799999237061</ele>
        <time>2022-01-09T10:10:42.000Z</time>
      </trkpt>
      <trkpt lat="47.25422" lon="-2.26289">
        <ele>43.799999237061</ele>
        <time>2022-01-09T10:10:43.000Z</time>
      </trkpt>
      <trkpt lat="47.25429" lon="-2.26298">
        <ele>44.200000762939</ele>
        <time>2022-01-09T10:10:47.000Z</time>
      </trkpt>
      <trkpt lat="47.2543" lon="-2.26299">
        <ele>44.599998474121</ele>
        <time>2022-01-09T10:10:48.000Z</time>
      </trkpt>
      <trkpt lat="47.25432" lon="-2.26299">
        <ele>45</ele>
        <time>2022-01-09T10:10:49.000Z</time>
      </trkpt>
      <trkpt lat="47.25434" lon="-2.26299">
        <ele>45.400001525879</ele>
        <time>2022-01-09T10:10:50.000Z</time>
      </trkpt>
      <trkpt lat="47.25436" lon="-2.26299">
        <ele>46</ele>
        <time>2022-01-09T10:10:51.000Z</time>
      </trkpt>
      <trkpt lat="47.25444" lon="-2.263">
        <ele>46</ele>
        <time>2022-01-09T10:10:55.000Z</time>
      </trkpt>
      <trkpt lat="47.25459" lon="-2.26293">
        <ele>46</ele>
        <time>2022-01-09T10:11:02.000Z</time>
      </trkpt>
      <trkpt lat="47.25462" lon="-2.26287">
        <ele>46.400001525879</ele>
        <time>2022-01-09T10:11:05.000Z</time>
      </trkpt>
      <trkpt lat="47.25464" lon="-2.26287">
        <ele>46.799999237061</ele>
        <time>2022-01-09T10:11:06.000Z</time>
      </trkpt>
      <trkpt lat="47.25465" lon="-2.26286">
        <ele>47.200000762939</ele>
        <time>2022-01-09T10:11:07.000Z</time>
      </trkpt>
      <trkpt lat="47.25466" lon="-2.26286">
        <ele>47.599998474121</ele>
        <time>2022-01-09T10:11:08.000Z</time>
      </trkpt>
      <trkpt lat="47.25467" lon="-2.26287">
        <ele>48.599998474121</ele>
        <time>2022-01-09T10:11:09.000Z</time>
      </trkpt>
      <trkpt lat="47.25468" lon="-2.26287">
        <ele>49.200000762939</ele>
        <time>2022-01-09T10:11:10.000Z</time>
      </trkpt>
      <trkpt lat="47.25469" lon="-2.26288">
        <ele>49.799999237061</ele>
        <time>2022-01-09T10:11:11.000Z</time>
      </trkpt>
      <trkpt lat="47.25469" lon="-2.26289">
        <ele>50.200000762939</ele>
        <time>2022-01-09T10:11:12.000Z</time>
      </trkpt>
      <trkpt lat="47.2547" lon="-2.26292">
        <ele>50.200000762939</ele>
        <time>2022-01-09T10:11:13.000Z</time>
      </trkpt>
      <trkpt lat="47.25472" lon="-2.26311">
        <ele>50.200000762939</ele>
        <time>2022-01-09T10:11:18.000Z</time>
      </trkpt>
      <trkpt lat="47.2547" lon="-2.26332">
        <ele>50.200000762939</ele>
        <time>2022-01-09T10:11:26.000Z</time>
      </trkpt>
      <trkpt lat="47.25463" lon="-2.26358">
        <ele>50.200000762939</ele>
        <time>2022-01-09T10:11:32.000Z</time>
      </trkpt>
      <trkpt lat="47.2546" lon="-2.26365">
        <ele>49.799999237061</ele>
        <time>2022-01-09T10:11:33.000Z</time>
      </trkpt>
      <trkpt lat="47.25458" lon="-2.26373">
        <ele>49</ele>
        <time>2022-01-09T10:11:34.000Z</time>
      </trkpt>
      <trkpt lat="47.25456" lon="-2.2638">
        <ele>48.400001525879</ele>
        <time>2022-01-09T10:11:35.000Z</time>
      </trkpt>
      <trkpt lat="47.25455" lon="-2.26386">
        <ele>48</ele>
        <time>2022-01-09T10:11:36.000Z</time>
      </trkpt>
      <trkpt lat="47.25453" lon="-2.26404">
        <ele>48</ele>
        <time>2022-01-09T10:11:40.000Z</time>
      </trkpt>
      <trkpt lat="47.25452" lon="-2.2642">
        <ele>48</ele>
        <time>2022-01-09T10:11:44.000Z</time>
      </trkpt>
      <trkpt lat="47.25451" lon="-2.26428">
        <ele>48</ele>
        <time>2022-01-09T10:11:46.000Z</time>
      </trkpt>
      <trkpt lat="47.25449" lon="-2.26431">
        <ele>48</ele>
        <time>2022-01-09T10:11:48.000Z</time>
      </trkpt>
      <trkpt lat="47.25448" lon="-2.26431">
        <ele>48</ele>
        <time>2022-01-09T10:11:49.000Z</time>
      </trkpt>
      <trkpt lat="47.25437" lon="-2.26435">
        <ele>48</ele>
        <time>2022-01-09T10:11:53.000Z</time>
      </trkpt>
      <trkpt lat="47.25433" lon="-2.26438">
        <ele>48</ele>
        <time>2022-01-09T10:11:55.000Z</time>
      </trkpt>
      <trkpt lat="47.25431" lon="-2.26444">
        <ele>48</ele>
        <time>2022-01-09T10:11:57.000Z</time>
      </trkpt>
      <trkpt lat="47.25431" lon="-2.26453">
        <ele>48</ele>
        <time>2022-01-09T10:11:59.000Z</time>
      </trkpt>
      <trkpt lat="47.25429" lon="-2.26472">
        <ele>48</ele>
        <time>2022-01-09T10:12:03.000Z</time>
      </trkpt>
      <trkpt lat="47.25429" lon="-2.26477">
        <ele>48.400001525879</ele>
        <time>2022-01-09T10:12:04.000Z</time>
      </trkpt>
      <trkpt lat="47.25429" lon="-2.26481">
        <ele>49</ele>
        <time>2022-01-09T10:12:05.000Z</time>
      </trkpt>
      <trkpt lat="47.25428" lon="-2.26485">
        <ele>49.400001525879</ele>
        <time>2022-01-09T10:12:06.000Z</time>
      </trkpt>
      <trkpt lat="47.25428" lon="-2.26488">
        <ele>49.799999237061</ele>
        <time>2022-01-09T10:12:07.000Z</time>
      </trkpt>
      <trkpt lat="47.25428" lon="-2.26492">
        <ele>50.200000762939</ele>
        <time>2022-01-09T10:12:08.000Z</time>
      </trkpt>
      <trkpt lat="47.25428" lon="-2.26495">
        <ele>50.200000762939</ele>
        <time>2022-01-09T10:12:09.000Z</time>
      </trkpt>
      <trkpt lat="47.25427" lon="-2.26498">
        <ele>50.599998474121</ele>
        <time>2022-01-09T10:12:10.000Z</time>
      </trkpt>
      <trkpt lat="47.25427" lon="-2.26502">
        <ele>51</ele>
        <time>2022-01-09T10:12:11.000Z</time>
      </trkpt>
      <trkpt lat="47.25427" lon="-2.26505">
        <ele>51.599998474121</ele>
        <time>2022-01-09T10:12:12.000Z</time>
      </trkpt>
      <trkpt lat="47.25427" lon="-2.26508">
        <ele>52</ele>
        <time>2022-01-09T10:12:13.000Z</time>
      </trkpt>
      <trkpt lat="47.25427" lon="-2.26513">
        <ele>52.400001525879</ele>
        <time>2022-01-09T10:12:14.000Z</time>
      </trkpt>
      <trkpt lat="47.25427" lon="-2.26517">
        <ele>52.400001525879</ele>
        <time>2022-01-09T10:12:15.000Z</time>
      </trkpt>
      <trkpt lat="47.25425" lon="-2.26535">
        <ele>52.799999237061</ele>
        <time>2022-01-09T10:12:19.000Z</time>
      </trkpt>
      <trkpt lat="47.25425" lon="-2.2654">
        <ele>53.200000762939</ele>
        <time>2022-01-09T10:12:20.000Z</time>
      </trkpt>
      <trkpt lat="47.25425" lon="-2.26544">
        <ele>53.599998474121</ele>
        <time>2022-01-09T10:12:21.000Z</time>
      </trkpt>
      <trkpt lat="47.25425" lon="-2.26548">
        <ele>54</ele>
        <time>2022-01-09T10:12:22.000Z</time>
      </trkpt>
      <trkpt lat="47.25426" lon="-2.26552">
        <ele>54.400001525879</ele>
        <time>2022-01-09T10:12:23.000Z</time>
      </trkpt>
      <trkpt lat="47.25432" lon="-2.26566">
        <ele>54.400001525879</ele>
        <time>2022-01-09T10:12:26.000Z</time>
      </trkpt>
      <trkpt lat="47.25441" lon="-2.26596">
        <ele>54.400001525879</ele>
        <time>2022-01-09T10:12:32.000Z</time>
      </trkpt>
      <trkpt lat="47.25444" lon="-2.26623">
        <ele>54.400001525879</ele>
        <time>2022-01-09T10:12:38.000Z</time>
      </trkpt>
      <trkpt lat="47.25445" lon="-2.26636">
        <ele>54.799999237061</ele>
        <time>2022-01-09T10:12:41.000Z</time>
      </trkpt>
      <trkpt lat="47.25446" lon="-2.2664">
        <ele>55.200000762939</ele>
        <time>2022-01-09T10:12:42.000Z</time>
      </trkpt>
      <trkpt lat="47.25446" lon="-2.26644">
        <ele>55.599998474121</ele>
        <time>2022-01-09T10:12:43.000Z</time>
      </trkpt>
      <trkpt lat="47.25447" lon="-2.26647">
        <ele>56</ele>
        <time>2022-01-09T10:12:44.000Z</time>
      </trkpt>
      <trkpt lat="47.25448" lon="-2.26651">
        <ele>56.400001525879</ele>
        <time>2022-01-09T10:12:45.000Z</time>
      </trkpt>
      <trkpt lat="47.25457" lon="-2.26669">
        <ele>56.400001525879</ele>
        <time>2022-01-09T10:12:50.000Z</time>
      </trkpt>
      <trkpt lat="47.25473" lon="-2.26686">
        <ele>56.400001525879</ele>
        <time>2022-01-09T10:12:55.000Z</time>
      </trkpt>
      <trkpt lat="47.2548" lon="-2.26705">
        <ele>56.400001525879</ele>
        <time>2022-01-09T10:12:59.000Z</time>
      </trkpt>
      <trkpt lat="47.25483" lon="-2.26715">
        <ele>56.400001525879</ele>
        <time>2022-01-09T10:13:02.000Z</time>
      </trkpt>
      <trkpt lat="47.25484" lon="-2.26724">
        <ele>56.400001525879</ele>
        <time>2022-01-09T10:13:04.000Z</time>
      </trkpt>
      <trkpt lat="47.25486" lon="-2.26749">
        <ele>57</ele>
        <time>2022-01-09T10:13:10.000Z</time>
      </trkpt>
      <trkpt lat="47.25488" lon="-2.26753">
        <ele>57.799999237061</ele>
        <time>2022-01-09T10:13:11.000Z</time>
      </trkpt>
      <trkpt lat="47.25489" lon="-2.26757">
        <ele>58.200000762939</ele>
        <time>2022-01-09T10:13:12.000Z</time>
      </trkpt>
      <trkpt lat="47.25492" lon="-2.26761">
        <ele>58.599998474121</ele>
        <time>2022-01-09T10:13:13.000Z</time>
      </trkpt>
      <trkpt lat="47.25498" lon="-2.26773">
        <ele>58.599998474121</ele>
        <time>2022-01-09T10:13:16.000Z</time>
      </trkpt>
      <trkpt lat="47.25513" lon="-2.26796">
        <ele>58.599998474121</ele>
        <time>2022-01-09T10:13:22.000Z</time>
      </trkpt>
      <trkpt lat="47.25522" lon="-2.26809">
        <ele>59</ele>
        <time>2022-01-09T10:13:25.000Z</time>
      </trkpt>
      <trkpt lat="47.25525" lon="-2.26813">
        <ele>59.400001525879</ele>
        <time>2022-01-09T10:13:26.000Z</time>
      </trkpt>
      <trkpt lat="47.25528" lon="-2.26817">
        <ele>60</ele>
        <time>2022-01-09T10:13:27.000Z</time>
      </trkpt>
      <trkpt lat="47.25531" lon="-2.26821">
        <ele>60.400001525879</ele>
        <time>2022-01-09T10:13:28.000Z</time>
      </trkpt>
      <trkpt lat="47.25535" lon="-2.26825">
        <ele>60.799999237061</ele>
        <time>2022-01-09T10:13:29.000Z</time>
      </trkpt>
      <trkpt lat="47.25538" lon="-2.26828">
        <ele>60.799999237061</ele>
        <time>2022-01-09T10:13:30.000Z</time>
      </trkpt>
      <trkpt lat="47.25545" lon="-2.26835">
        <ele>60.799999237061</ele>
        <time>2022-01-09T10:13:32.000Z</time>
      </trkpt>
      <trkpt lat="47.25562" lon="-2.26849">
        <ele>60.799999237061</ele>
        <time>2022-01-09T10:13:37.000Z</time>
      </trkpt>
      <trkpt lat="47.25565" lon="-2.26851">
        <ele>61.200000762939</ele>
        <time>2022-01-09T10:13:38.000Z</time>
      </trkpt>
      <trkpt lat="47.25569" lon="-2.26854">
        <ele>61.599998474121</ele>
        <time>2022-01-09T10:13:39.000Z</time>
      </trkpt>
      <trkpt lat="47.25572" lon="-2.26856">
        <ele>62</ele>
        <time>2022-01-09T10:13:40.000Z</time>
      </trkpt>
      <trkpt lat="47.25575" lon="-2.26858">
        <ele>62.400001525879</ele>
        <time>2022-01-09T10:13:41.000Z</time>
      </trkpt>
      <trkpt lat="47.25579" lon="-2.2686">
        <ele>62.799999237061</ele>
        <time>2022-01-09T10:13:42.000Z</time>
      </trkpt>
      <trkpt lat="47.25588" lon="-2.26866">
        <ele>62.799999237061</ele>
        <time>2022-01-09T10:13:45.000Z</time>
      </trkpt>
      <trkpt lat="47.25601" lon="-2.2687">
        <ele>63.200000762939</ele>
        <time>2022-01-09T10:13:49.000Z</time>
      </trkpt>
      <trkpt lat="47.25604" lon="-2.26871">
        <ele>63.599998474121</ele>
        <time>2022-01-09T10:13:50.000Z</time>
      </trkpt>
      <trkpt lat="47.25606" lon="-2.26872">
        <ele>64</ele>
        <time>2022-01-09T10:13:51.000Z</time>
      </trkpt>
      <trkpt lat="47.25609" lon="-2.26873">
        <ele>64.400001525879</ele>
        <time>2022-01-09T10:13:52.000Z</time>
      </trkpt>
      <trkpt lat="47.25611" lon="-2.26875">
        <ele>64.800003051758</ele>
        <time>2022-01-09T10:13:53.000Z</time>
      </trkpt>
      <trkpt lat="47.25616" lon="-2.26878">
        <ele>64.800003051758</ele>
        <time>2022-01-09T10:13:55.000Z</time>
      </trkpt>
      <trkpt lat="47.25624" lon="-2.26877">
        <ele>64.800003051758</ele>
        <time>2022-01-09T10:13:58.000Z</time>
      </trkpt>
      <trkpt lat="47.2563" lon="-2.2687">
        <ele>64.800003051758</ele>
        <time>2022-01-09T10:14:00.000Z</time>
      </trkpt>
      <trkpt lat="47.25647" lon="-2.26845">
        <ele>64.800003051758</ele>
        <time>2022-01-09T10:14:07.000Z</time>
      </trkpt>
      <trkpt lat="47.25667" lon="-2.26821">
        <ele>64.800003051758</ele>
        <time>2022-01-09T10:14:14.000Z</time>
      </trkpt>
      <trkpt lat="47.25682" lon="-2.26816">
        <ele>64.800003051758</ele>
        <time>2022-01-09T10:14:19.000Z</time>
      </trkpt>
      <trkpt lat="47.25698" lon="-2.26817">
        <ele>64.800003051758</ele>
        <time>2022-01-09T10:14:24.000Z</time>
      </trkpt>
      <trkpt lat="47.25708" lon="-2.26819">
        <ele>64.800003051758</ele>
        <time>2022-01-09T10:14:28.000Z</time>
      </trkpt>
      <trkpt lat="47.25709" lon="-2.26816">
        <ele>64.800003051758</ele>
        <time>2022-01-09T10:14:29.000Z</time>
      </trkpt>
      <trkpt lat="47.2572" lon="-2.26795">
        <ele>64.800003051758</ele>
        <time>2022-01-09T10:14:34.000Z</time>
      </trkpt>
      <trkpt lat="47.25726" lon="-2.26779">
        <ele>64.800003051758</ele>
        <time>2022-01-09T10:14:37.000Z</time>
      </trkpt>
      <trkpt lat="47.25734" lon="-2.26764">
        <ele>64.800003051758</ele>
        <time>2022-01-09T10:14:40.000Z</time>
      </trkpt>
      <trkpt lat="47.25738" lon="-2.26754">
        <ele>64.800003051758</ele>
        <time>2022-01-09T10:14:42.000Z</time>
      </trkpt>
      <trkpt lat="47.25749" lon="-2.26731">
        <ele>64.800003051758</ele>
        <time>2022-01-09T10:14:47.000Z</time>
      </trkpt>
      <trkpt lat="47.2576" lon="-2.26712">
        <ele>64.800003051758</ele>
        <time>2022-01-09T10:14:51.000Z</time>
      </trkpt>
      <trkpt lat="47.25766" lon="-2.26704">
        <ele>64.800003051758</ele>
        <time>2022-01-09T10:14:53.000Z</time>
      </trkpt>
      <trkpt lat="47.25775" lon="-2.26692">
        <ele>64.800003051758</ele>
        <time>2022-01-09T10:14:56.000Z</time>
      </trkpt>
      <trkpt lat="47.25782" lon="-2.26684">
        <ele>64.800003051758</ele>
        <time>2022-01-09T10:14:58.000Z</time>
      </trkpt>
      <trkpt lat="47.25785" lon="-2.2668">
        <ele>64.800003051758</ele>
        <time>2022-01-09T10:14:59.000Z</time>
      </trkpt>
      <trkpt lat="47.25816" lon="-2.26642">
        <ele>64.800003051758</ele>
        <time>2022-01-09T10:15:08.000Z</time>
      </trkpt>
      <trkpt lat="47.25845" lon="-2.26607">
        <ele>64.400001525879</ele>
        <time>2022-01-09T10:15:15.000Z</time>
      </trkpt>
      <trkpt lat="47.25849" lon="-2.26603">
        <ele>64</ele>
        <time>2022-01-09T10:15:16.000Z</time>
      </trkpt>
      <trkpt lat="47.25852" lon="-2.26598">
        <ele>63.599998474121</ele>
        <time>2022-01-09T10:15:17.000Z</time>
      </trkpt>
      <trkpt lat="47.25855" lon="-2.26594">
        <ele>63.200000762939</ele>
        <time>2022-01-09T10:15:18.000Z</time>
      </trkpt>
      <trkpt lat="47.25856" lon="-2.26588">
        <ele>62.799999237061</ele>
        <time>2022-01-09T10:15:19.000Z</time>
      </trkpt>
      <trkpt lat="47.25858" lon="-2.26582">
        <ele>62.799999237061</ele>
        <time>2022-01-09T10:15:20.000Z</time>
      </trkpt>
      <trkpt lat="47.2586" lon="-2.26564">
        <ele>62.799999237061</ele>
        <time>2022-01-09T10:15:23.000Z</time>
      </trkpt>
      <trkpt lat="47.2586" lon="-2.26551">
        <ele>62.799999237061</ele>
        <time>2022-01-09T10:15:25.000Z</time>
      </trkpt>
      <trkpt lat="47.25862" lon="-2.26539">
        <ele>62.799999237061</ele>
        <time>2022-01-09T10:15:27.000Z</time>
      </trkpt>
      <trkpt lat="47.25862" lon="-2.26533">
        <ele>62.799999237061</ele>
        <time>2022-01-09T10:15:28.000Z</time>
      </trkpt>
      <trkpt lat="47.25866" lon="-2.26515">
        <ele>62.799999237061</ele>
        <time>2022-01-09T10:15:31.000Z</time>
      </trkpt>
      <trkpt lat="47.25867" lon="-2.26508">
        <ele>62.799999237061</ele>
        <time>2022-01-09T10:15:32.000Z</time>
      </trkpt>
      <trkpt lat="47.25872" lon="-2.26487">
        <ele>62.799999237061</ele>
        <time>2022-01-09T10:15:36.000Z</time>
      </trkpt>
      <trkpt lat="47.25885" lon="-2.26475">
        <ele>62.799999237061</ele>
        <time>2022-01-09T10:15:40.000Z</time>
      </trkpt>
      <trkpt lat="47.25903" lon="-2.26455">
        <ele>62.799999237061</ele>
        <time>2022-01-09T10:15:46.000Z</time>
      </trkpt>
      <trkpt lat="47.25914" lon="-2.2646">
        <ele>62.799999237061</ele>
        <time>2022-01-09T10:15:49.000Z</time>
      </trkpt>
      <trkpt lat="47.25918" lon="-2.26468">
        <ele>62.799999237061</ele>
        <time>2022-01-09T10:15:51.000Z</time>
      </trkpt>
      <trkpt lat="47.2592" lon="-2.26471">
        <ele>62.400001525879</ele>
        <time>2022-01-09T10:15:52.000Z</time>
      </trkpt>
      <trkpt lat="47.25922" lon="-2.26474">
        <ele>62</ele>
        <time>2022-01-09T10:15:53.000Z</time>
      </trkpt>
      <trkpt lat="47.25924" lon="-2.26476">
        <ele>61.599998474121</ele>
        <time>2022-01-09T10:15:54.000Z</time>
      </trkpt>
      <trkpt lat="47.25927" lon="-2.26477">
        <ele>61</ele>
        <time>2022-01-09T10:15:55.000Z</time>
      </trkpt>
      <trkpt lat="47.25929" lon="-2.26476">
        <ele>60.599998474121</ele>
        <time>2022-01-09T10:15:56.000Z</time>
      </trkpt>
      <trkpt lat="47.25931" lon="-2.26475">
        <ele>60.599998474121</ele>
        <time>2022-01-09T10:15:57.000Z</time>
      </trkpt>
      <trkpt lat="47.25934" lon="-2.26469">
        <ele>60.599998474121</ele>
        <time>2022-01-09T10:16:01.000Z</time>
      </trkpt>
      <trkpt lat="47.25934" lon="-2.26466">
        <ele>60.599998474121</ele>
        <time>2022-01-09T10:16:02.000Z</time>
      </trkpt>
      <trkpt lat="47.25942" lon="-2.2646">
        <ele>60.599998474121</ele>
        <time>2022-01-09T10:16:07.000Z</time>
      </trkpt>
      <trkpt lat="47.25943" lon="-2.26461">
        <ele>60.599998474121</ele>
        <time>2022-01-09T10:16:08.000Z</time>
      </trkpt>
      <trkpt lat="47.25944" lon="-2.26467">
        <ele>60.599998474121</ele>
        <time>2022-01-09T10:16:11.000Z</time>
      </trkpt>
      <trkpt lat="47.25944" lon="-2.26467">
        <ele>60.599998474121</ele>
        <time>2022-01-09T10:16:12.000Z</time>
      </trkpt>
      <trkpt lat="47.25939" lon="-2.26458">
        <ele>60.599998474121</ele>
        <time>2022-01-09T10:16:24.000Z</time>
      </trkpt>
      <trkpt lat="47.25939" lon="-2.26455">
        <ele>60.599998474121</ele>
        <time>2022-01-09T10:16:25.000Z</time>
      </trkpt>
      <trkpt lat="47.25941" lon="-2.26445">
        <ele>60.599998474121</ele>
        <time>2022-01-09T10:16:30.000Z</time>
      </trkpt>
      <trkpt lat="47.25948" lon="-2.26432">
        <ele>60.599998474121</ele>
        <time>2022-01-09T10:16:34.000Z</time>
      </trkpt>
      <trkpt lat="47.25949" lon="-2.2643">
        <ele>60.599998474121</ele>
        <time>2022-01-09T10:16:35.000Z</time>
      </trkpt>
      <trkpt lat="47.25949" lon="-2.26428">
        <ele>60.599998474121</ele>
        <time>2022-01-09T10:16:36.000Z</time>
      </trkpt>
      <trkpt lat="47.25946" lon="-2.26422">
        <ele>60.599998474121</ele>
        <time>2022-01-09T10:16:38.000Z</time>
      </trkpt>
      <trkpt lat="47.25938" lon="-2.26414">
        <ele>60.599998474121</ele>
        <time>2022-01-09T10:16:42.000Z</time>
      </trkpt>
      <trkpt lat="47.25936" lon="-2.26416">
        <ele>60.599998474121</ele>
        <time>2022-01-09T10:16:43.000Z</time>
      </trkpt>
      <trkpt lat="47.25925" lon="-2.26429">
        <ele>60.599998474121</ele>
        <time>2022-01-09T10:16:49.000Z</time>
      </trkpt>
      <trkpt lat="47.25923" lon="-2.26421">
        <ele>60.599998474121</ele>
        <time>2022-01-09T10:16:53.000Z</time>
      </trkpt>
      <trkpt lat="47.25924" lon="-2.26412">
        <ele>60.599998474121</ele>
        <time>2022-01-09T10:16:56.000Z</time>
      </trkpt>
      <trkpt lat="47.25926" lon="-2.26405">
        <ele>60.599998474121</ele>
        <time>2022-01-09T10:16:58.000Z</time>
      </trkpt>
      <trkpt lat="47.25935" lon="-2.26391">
        <ele>60.599998474121</ele>
        <time>2022-01-09T10:17:03.000Z</time>
      </trkpt>
      <trkpt lat="47.25937" lon="-2.26387">
        <ele>60.599998474121</ele>
        <time>2022-01-09T10:17:05.000Z</time>
      </trkpt>
      <trkpt lat="47.2594" lon="-2.26386">
        <ele>60.599998474121</ele>
        <time>2022-01-09T10:17:07.000Z</time>
      </trkpt>
      <trkpt lat="47.25941" lon="-2.26387">
        <ele>60.599998474121</ele>
        <time>2022-01-09T10:17:09.000Z</time>
      </trkpt>
      <trkpt lat="47.25943" lon="-2.26391">
        <ele>60.599998474121</ele>
        <time>2022-01-09T10:17:38.000Z</time>
      </trkpt>
      <trkpt lat="47.25944" lon="-2.26392">
        <ele>60.599998474121</ele>
        <time>2022-01-09T10:17:39.000Z</time>
      </trkpt>
      <trkpt lat="47.25953" lon="-2.26389">
        <ele>60.200000762939</ele>
        <time>2022-01-09T10:17:44.000Z</time>
      </trkpt>
      <trkpt lat="47.25956" lon="-2.26385">
        <ele>59.599998474121</ele>
        <time>2022-01-09T10:17:45.000Z</time>
      </trkpt>
      <trkpt lat="47.25958" lon="-2.26383">
        <ele>59</ele>
        <time>2022-01-09T10:17:46.000Z</time>
      </trkpt>
      <trkpt lat="47.2596" lon="-2.26382">
        <ele>58.400001525879</ele>
        <time>2022-01-09T10:17:47.000Z</time>
      </trkpt>
      <trkpt lat="47.25962" lon="-2.26381">
        <ele>57.599998474121</ele>
        <time>2022-01-09T10:17:48.000Z</time>
      </trkpt>
      <trkpt lat="47.25964" lon="-2.26381">
        <ele>57</ele>
        <time>2022-01-09T10:17:49.000Z</time>
      </trkpt>
      <trkpt lat="47.25966" lon="-2.26382">
        <ele>56.200000762939</ele>
        <time>2022-01-09T10:17:50.000Z</time>
      </trkpt>
      <trkpt lat="47.25969" lon="-2.26383">
        <ele>55.599998474121</ele>
        <time>2022-01-09T10:17:51.000Z</time>
      </trkpt>
      <trkpt lat="47.25974" lon="-2.26385">
        <ele>55.599998474121</ele>
        <time>2022-01-09T10:17:53.000Z</time>
      </trkpt>
      <trkpt lat="47.25988" lon="-2.26381">
        <ele>55.599998474121</ele>
        <time>2022-01-09T10:17:58.000Z</time>
      </trkpt>
      <trkpt lat="47.26002" lon="-2.26378">
        <ele>55.200000762939</ele>
        <time>2022-01-09T10:18:03.000Z</time>
      </trkpt>
      <trkpt lat="47.26005" lon="-2.2638">
        <ele>54.599998474121</ele>
        <time>2022-01-09T10:18:04.000Z</time>
      </trkpt>
      <trkpt lat="47.26008" lon="-2.26379">
        <ele>54.200000762939</ele>
        <time>2022-01-09T10:18:05.000Z</time>
      </trkpt>
      <trkpt lat="47.2601" lon="-2.26377">
        <ele>53.400001525879</ele>
        <time>2022-01-09T10:18:06.000Z</time>
      </trkpt>
      <trkpt lat="47.26012" lon="-2.26374">
        <ele>53.400001525879</ele>
        <time>2022-01-09T10:18:07.000Z</time>
      </trkpt>
      <trkpt lat="47.26024" lon="-2.26356">
        <ele>53.400001525879</ele>
        <time>2022-01-09T10:18:11.000Z</time>
      </trkpt>
      <trkpt lat="47.26052" lon="-2.26312">
        <ele>53.400001525879</ele>
        <time>2022-01-09T10:18:19.000Z</time>
      </trkpt>
      <trkpt lat="47.2606" lon="-2.26301">
        <ele>53.400001525879</ele>
        <time>2022-01-09T10:18:21.000Z</time>
      </trkpt>
      <trkpt lat="47.26072" lon="-2.26283">
        <ele>53</ele>
        <time>2022-01-09T10:18:24.000Z</time>
      </trkpt>
      <trkpt lat="47.26076" lon="-2.26276">
        <ele>52.599998474121</ele>
        <time>2022-01-09T10:18:25.000Z</time>
      </trkpt>
      <trkpt lat="47.26081" lon="-2.2627">
        <ele>52.200000762939</ele>
        <time>2022-01-09T10:18:26.000Z</time>
      </trkpt>
      <trkpt lat="47.26086" lon="-2.26263">
        <ele>51.799999237061</ele>
        <time>2022-01-09T10:18:27.000Z</time>
      </trkpt>
      <trkpt lat="47.2609" lon="-2.26256">
        <ele>51.200000762939</ele>
        <time>2022-01-09T10:18:28.000Z</time>
      </trkpt>
      <trkpt lat="47.26104" lon="-2.26237">
        <ele>51.200000762939</ele>
        <time>2022-01-09T10:18:31.000Z</time>
      </trkpt>
      <trkpt lat="47.26135" lon="-2.26196">
        <ele>50.799999237061</ele>
        <time>2022-01-09T10:18:37.000Z</time>
      </trkpt>
      <trkpt lat="47.26139" lon="-2.26191">
        <ele>50.400001525879</ele>
        <time>2022-01-09T10:18:38.000Z</time>
      </trkpt>
      <trkpt lat="47.26144" lon="-2.26185">
        <ele>50</ele>
        <time>2022-01-09T10:18:39.000Z</time>
      </trkpt>
      <trkpt lat="47.26148" lon="-2.2618">
        <ele>49.599998474121</ele>
        <time>2022-01-09T10:18:40.000Z</time>
      </trkpt>
      <trkpt lat="47.26153" lon="-2.26174">
        <ele>49.200000762939</ele>
        <time>2022-01-09T10:18:42.000Z</time>
      </trkpt>
      <trkpt lat="47.2617" lon="-2.26151">
        <ele>49.200000762939</ele>
        <time>2022-01-09T10:18:46.000Z</time>
      </trkpt>
      <trkpt lat="47.26177" lon="-2.26148">
        <ele>49.200000762939</ele>
        <time>2022-01-09T10:18:48.000Z</time>
      </trkpt>
      <trkpt lat="47.2618" lon="-2.26151">
        <ele>49.200000762939</ele>
        <time>2022-01-09T10:18:49.000Z</time>
      </trkpt>
      <trkpt lat="47.26196" lon="-2.26169">
        <ele>49.200000762939</ele>
        <time>2022-01-09T10:18:55.000Z</time>
      </trkpt>
      <trkpt lat="47.26206" lon="-2.26161">
        <ele>49.200000762939</ele>
        <time>2022-01-09T10:18:58.000Z</time>
      </trkpt>
      <trkpt lat="47.26209" lon="-2.26155">
        <ele>49.200000762939</ele>
        <time>2022-01-09T10:18:59.000Z</time>
      </trkpt>
      <trkpt lat="47.26225" lon="-2.26132">
        <ele>49.200000762939</ele>
        <time>2022-01-09T10:19:03.000Z</time>
      </trkpt>
      <trkpt lat="47.26262" lon="-2.2608">
        <ele>49.200000762939</ele>
        <time>2022-01-09T10:19:11.000Z</time>
      </trkpt>
      <trkpt lat="47.26293" lon="-2.26038">
        <ele>49.200000762939</ele>
        <time>2022-01-09T10:19:18.000Z</time>
      </trkpt>
      <trkpt lat="47.26322" lon="-2.25996">
        <ele>49.200000762939</ele>
        <time>2022-01-09T10:19:25.000Z</time>
      </trkpt>
      <trkpt lat="47.26359" lon="-2.25943">
        <ele>49.200000762939</ele>
        <time>2022-01-09T10:19:34.000Z</time>
      </trkpt>
      <trkpt lat="47.26388" lon="-2.25904">
        <ele>49.200000762939</ele>
        <time>2022-01-09T10:19:41.000Z</time>
      </trkpt>
      <trkpt lat="47.2641" lon="-2.25874">
        <ele>49.200000762939</ele>
        <time>2022-01-09T10:19:47.000Z</time>
      </trkpt>
      <trkpt lat="47.26432" lon="-2.25842">
        <ele>49.200000762939</ele>
        <time>2022-01-09T10:19:55.000Z</time>
      </trkpt>
      <trkpt lat="47.26439" lon="-2.25831">
        <ele>49.200000762939</ele>
        <time>2022-01-09T10:20:00.000Z</time>
      </trkpt>
      <trkpt lat="47.26434" lon="-2.25821">
        <ele>49.200000762939</ele>
        <time>2022-01-09T10:20:04.000Z</time>
      </trkpt>
      <trkpt lat="47.26431" lon="-2.25801">
        <ele>49.200000762939</ele>
        <time>2022-01-09T10:20:08.000Z</time>
      </trkpt>
      <trkpt lat="47.26431" lon="-2.25788">
        <ele>49.200000762939</ele>
        <time>2022-01-09T10:20:10.000Z</time>
      </trkpt>
      <trkpt lat="47.26435" lon="-2.25767">
        <ele>49.200000762939</ele>
        <time>2022-01-09T10:20:13.000Z</time>
      </trkpt>
      <trkpt lat="47.26436" lon="-2.2576">
        <ele>49.200000762939</ele>
        <time>2022-01-09T10:20:14.000Z</time>
      </trkpt>
      <trkpt lat="47.26437" lon="-2.25753">
        <ele>49.200000762939</ele>
        <time>2022-01-09T10:20:15.000Z</time>
      </trkpt>
      <trkpt lat="47.26442" lon="-2.25742">
        <ele>49.200000762939</ele>
        <time>2022-01-09T10:20:17.000Z</time>
      </trkpt>
      <trkpt lat="47.26453" lon="-2.25737">
        <ele>49.200000762939</ele>
        <time>2022-01-09T10:20:20.000Z</time>
      </trkpt>
      <trkpt lat="47.26467" lon="-2.25736">
        <ele>49.200000762939</ele>
        <time>2022-01-09T10:20:24.000Z</time>
      </trkpt>
      <trkpt lat="47.26469" lon="-2.25735">
        <ele>49.200000762939</ele>
        <time>2022-01-09T10:20:25.000Z</time>
      </trkpt>
      <trkpt lat="47.26477" lon="-2.25725">
        <ele>49.200000762939</ele>
        <time>2022-01-09T10:20:28.000Z</time>
      </trkpt>
      <trkpt lat="47.26487" lon="-2.25709">
        <ele>49.200000762939</ele>
        <time>2022-01-09T10:20:31.000Z</time>
      </trkpt>
      <trkpt lat="47.26495" lon="-2.25697">
        <ele>49.200000762939</ele>
        <time>2022-01-09T10:20:33.000Z</time>
      </trkpt>
      <trkpt lat="47.26516" lon="-2.25668">
        <ele>49.200000762939</ele>
        <time>2022-01-09T10:20:38.000Z</time>
      </trkpt>
      <trkpt lat="47.2655" lon="-2.25618">
        <ele>48.799999237061</ele>
        <time>2022-01-09T10:20:46.000Z</time>
      </trkpt>
      <trkpt lat="47.26555" lon="-2.25612">
        <ele>48.400001525879</ele>
        <time>2022-01-09T10:20:47.000Z</time>
      </trkpt>
      <trkpt lat="47.2656" lon="-2.25606">
        <ele>48</ele>
        <time>2022-01-09T10:20:48.000Z</time>
      </trkpt>
      <trkpt lat="47.26565" lon="-2.25599">
        <ele>47.400001525879</ele>
        <time>2022-01-09T10:20:49.000Z</time>
      </trkpt>
      <trkpt lat="47.2657" lon="-2.25592">
        <ele>47</ele>
        <time>2022-01-09T10:20:50.000Z</time>
      </trkpt>
      <trkpt lat="47.26595" lon="-2.25559">
        <ele>46.599998474121</ele>
        <time>2022-01-09T10:20:55.000Z</time>
      </trkpt>
      <trkpt lat="47.266" lon="-2.25552">
        <ele>46.200000762939</ele>
        <time>2022-01-09T10:20:56.000Z</time>
      </trkpt>
      <trkpt lat="47.26605" lon="-2.25545">
        <ele>45.799999237061</ele>
        <time>2022-01-09T10:20:57.000Z</time>
      </trkpt>
      <trkpt lat="47.2661" lon="-2.25538">
        <ele>45.400001525879</ele>
        <time>2022-01-09T10:20:58.000Z</time>
      </trkpt>
      <trkpt lat="47.26615" lon="-2.25531">
        <ele>45</ele>
        <time>2022-01-09T10:20:59.000Z</time>
      </trkpt>
      <trkpt lat="47.2664" lon="-2.25496">
        <ele>45</ele>
        <time>2022-01-09T10:21:04.000Z</time>
      </trkpt>
      <trkpt lat="47.26656" lon="-2.25474">
        <ele>44.599998474121</ele>
        <time>2022-01-09T10:21:07.000Z</time>
      </trkpt>
      <trkpt lat="47.26661" lon="-2.25467">
        <ele>44.200000762939</ele>
        <time>2022-01-09T10:21:08.000Z</time>
      </trkpt>
      <trkpt lat="47.26666" lon="-2.25459">
        <ele>43.799999237061</ele>
        <time>2022-01-09T10:21:09.000Z</time>
      </trkpt>
      <trkpt lat="47.26672" lon="-2.25452">
        <ele>43.400001525879</ele>
        <time>2022-01-09T10:21:10.000Z</time>
      </trkpt>
      <trkpt lat="47.26677" lon="-2.25444">
        <ele>42.799999237061</ele>
        <time>2022-01-09T10:21:11.000Z</time>
      </trkpt>
      <trkpt lat="47.26683" lon="-2.25436">
        <ele>42.799999237061</ele>
        <time>2022-01-09T10:21:12.000Z</time>
      </trkpt>
      <trkpt lat="47.26709" lon="-2.25399">
        <ele>42.400001525879</ele>
        <time>2022-01-09T10:21:17.000Z</time>
      </trkpt>
      <trkpt lat="47.26714" lon="-2.25392">
        <ele>42</ele>
        <time>2022-01-09T10:21:18.000Z</time>
      </trkpt>
      <trkpt lat="47.26719" lon="-2.25384">
        <ele>41.400001525879</ele>
        <time>2022-01-09T10:21:19.000Z</time>
      </trkpt>
      <trkpt lat="47.26724" lon="-2.25376">
        <ele>41</ele>
        <time>2022-01-09T10:21:20.000Z</time>
      </trkpt>
      <trkpt lat="47.26729" lon="-2.25369">
        <ele>40.599998474121</ele>
        <time>2022-01-09T10:21:21.000Z</time>
      </trkpt>
      <trkpt lat="47.26757" lon="-2.25329">
        <ele>40.599998474121</ele>
        <time>2022-01-09T10:21:27.000Z</time>
      </trkpt>
      <trkpt lat="47.26769" lon="-2.25308">
        <ele>40.599998474121</ele>
        <time>2022-01-09T10:21:30.000Z</time>
      </trkpt>
      <trkpt lat="47.26777" lon="-2.25288">
        <ele>40.599998474121</ele>
        <time>2022-01-09T10:21:33.000Z</time>
      </trkpt>
      <trkpt lat="47.26779" lon="-2.25281">
        <ele>40.599998474121</ele>
        <time>2022-01-09T10:21:34.000Z</time>
      </trkpt>
      <trkpt lat="47.26787" lon="-2.25265">
        <ele>40.599998474121</ele>
        <time>2022-01-09T10:21:37.000Z</time>
      </trkpt>
      <trkpt lat="47.2679" lon="-2.2526">
        <ele>40.599998474121</ele>
        <time>2022-01-09T10:21:38.000Z</time>
      </trkpt>
      <trkpt lat="47.26799" lon="-2.25248">
        <ele>40.599998474121</ele>
        <time>2022-01-09T10:21:42.000Z</time>
      </trkpt>
      <trkpt lat="47.26813" lon="-2.25229">
        <ele>40.599998474121</ele>
        <time>2022-01-09T10:21:48.000Z</time>
      </trkpt>
      <trkpt lat="47.26822" lon="-2.25216">
        <ele>40.599998474121</ele>
        <time>2022-01-09T10:21:52.000Z</time>
      </trkpt>
      <trkpt lat="47.26823" lon="-2.25212">
        <ele>40.599998474121</ele>
        <time>2022-01-09T10:21:53.000Z</time>
      </trkpt>
      <trkpt lat="47.26833" lon="-2.25193">
        <ele>40.599998474121</ele>
        <time>2022-01-09T10:21:59.000Z</time>
      </trkpt>
      <trkpt lat="47.2685" lon="-2.25178">
        <ele>40.599998474121</ele>
        <time>2022-01-09T10:22:05.000Z</time>
      </trkpt>
      <trkpt lat="47.26868" lon="-2.25169">
        <ele>40.599998474121</ele>
        <time>2022-01-09T10:22:11.000Z</time>
      </trkpt>
      <trkpt lat="47.26876" lon="-2.25159">
        <ele>40.599998474121</ele>
        <time>2022-01-09T10:22:15.000Z</time>
      </trkpt>
      <trkpt lat="47.26884" lon="-2.25147">
        <ele>41</ele>
        <time>2022-01-09T10:22:20.000Z</time>
      </trkpt>
      <trkpt lat="47.26887" lon="-2.25144">
        <ele>41.400001525879</ele>
        <time>2022-01-09T10:22:21.000Z</time>
      </trkpt>
      <trkpt lat="47.2689" lon="-2.25142">
        <ele>41.799999237061</ele>
        <time>2022-01-09T10:22:22.000Z</time>
      </trkpt>
      <trkpt lat="47.26892" lon="-2.25139">
        <ele>42.200000762939</ele>
        <time>2022-01-09T10:22:23.000Z</time>
      </trkpt>
      <trkpt lat="47.26896" lon="-2.25137">
        <ele>42.599998474121</ele>
        <time>2022-01-09T10:22:24.000Z</time>
      </trkpt>
      <trkpt lat="47.26912" lon="-2.2512">
        <ele>42.599998474121</ele>
        <time>2022-01-09T10:22:29.000Z</time>
      </trkpt>
      <trkpt lat="47.26929" lon="-2.25104">
        <ele>42.599998474121</ele>
        <time>2022-01-09T10:22:35.000Z</time>
      </trkpt>
      <trkpt lat="47.2693" lon="-2.251">
        <ele>42.599998474121</ele>
        <time>2022-01-09T10:22:36.000Z</time>
      </trkpt>
      <trkpt lat="47.26936" lon="-2.25082">
        <ele>42.599998474121</ele>
        <time>2022-01-09T10:22:40.000Z</time>
      </trkpt>
      <trkpt lat="47.26943" lon="-2.25072">
        <ele>42.599998474121</ele>
        <time>2022-01-09T10:22:42.000Z</time>
      </trkpt>
      <trkpt lat="47.26962" lon="-2.25052">
        <ele>42.599998474121</ele>
        <time>2022-01-09T10:22:48.000Z</time>
      </trkpt>
      <trkpt lat="47.2697" lon="-2.25055">
        <ele>42.599998474121</ele>
        <time>2022-01-09T10:22:53.000Z</time>
      </trkpt>
      <trkpt lat="47.26969" lon="-2.25058">
        <ele>42.599998474121</ele>
        <time>2022-01-09T10:22:56.000Z</time>
      </trkpt>
      <trkpt lat="47.26969" lon="-2.25059">
        <ele>42.599998474121</ele>
        <time>2022-01-09T10:22:57.000Z</time>
      </trkpt>
      <trkpt lat="47.26965" lon="-2.25059">
        <ele>42.599998474121</ele>
        <time>2022-01-09T10:23:02.000Z</time>
      </trkpt>
      <trkpt lat="47.26964" lon="-2.25058">
        <ele>42.599998474121</ele>
        <time>2022-01-09T10:23:03.000Z</time>
      </trkpt>
      <trkpt lat="47.26959" lon="-2.25051">
        <ele>42.599998474121</ele>
        <time>2022-01-09T10:23:06.000Z</time>
      </trkpt>
      <trkpt lat="47.26957" lon="-2.25048">
        <ele>42.599998474121</ele>
        <time>2022-01-09T10:23:07.000Z</time>
      </trkpt>
      <trkpt lat="47.2695" lon="-2.2504">
        <ele>42.599998474121</ele>
        <time>2022-01-09T10:23:11.000Z</time>
      </trkpt>
      <trkpt lat="47.26951" lon="-2.25036">
        <ele>42.599998474121</ele>
        <time>2022-01-09T10:23:13.000Z</time>
      </trkpt>
      <trkpt lat="47.26954" lon="-2.2502">
        <ele>42.599998474121</ele>
        <time>2022-01-09T10:23:17.000Z</time>
      </trkpt>
      <trkpt lat="47.26958" lon="-2.24998">
        <ele>42.599998474121</ele>
        <time>2022-01-09T10:23:23.000Z</time>
      </trkpt>
      <trkpt lat="47.26963" lon="-2.24988">
        <ele>42.599998474121</ele>
        <time>2022-01-09T10:23:27.000Z</time>
      </trkpt>
      <trkpt lat="47.26967" lon="-2.24988">
        <ele>42.599998474121</ele>
        <time>2022-01-09T10:23:29.000Z</time>
      </trkpt>
      <trkpt lat="47.26988" lon="-2.24995">
        <ele>42.599998474121</ele>
        <time>2022-01-09T10:23:35.000Z</time>
      </trkpt>
      <trkpt lat="47.27007" lon="-2.25001">
        <ele>42.599998474121</ele>
        <time>2022-01-09T10:23:40.000Z</time>
      </trkpt>
      <trkpt lat="47.27008" lon="-2.25004">
        <ele>42.599998474121</ele>
        <time>2022-01-09T10:23:41.000Z</time>
      </trkpt>
      <trkpt lat="47.27013" lon="-2.25019">
        <ele>42.599998474121</ele>
        <time>2022-01-09T10:23:46.000Z</time>
      </trkpt>
      <trkpt lat="47.27021" lon="-2.25029">
        <ele>42.599998474121</ele>
        <time>2022-01-09T10:23:51.000Z</time>
      </trkpt>
      <trkpt lat="47.27031" lon="-2.25024">
        <ele>42.599998474121</ele>
        <time>2022-01-09T10:23:55.000Z</time>
      </trkpt>
      <trkpt lat="47.27034" lon="-2.25021">
        <ele>42.599998474121</ele>
        <time>2022-01-09T10:23:56.000Z</time>
      </trkpt>
      <trkpt lat="47.27052" lon="-2.25005">
        <ele>42.599998474121</ele>
        <time>2022-01-09T10:24:02.000Z</time>
      </trkpt>
      <trkpt lat="47.27071" lon="-2.24989">
        <ele>42.599998474121</ele>
        <time>2022-01-09T10:24:08.000Z</time>
      </trkpt>
      <trkpt lat="47.27087" lon="-2.24968">
        <ele>42.599998474121</ele>
        <time>2022-01-09T10:24:14.000Z</time>
      </trkpt>
      <trkpt lat="47.27094" lon="-2.2495">
        <ele>42.599998474121</ele>
        <time>2022-01-09T10:24:17.000Z</time>
      </trkpt>
      <trkpt lat="47.271" lon="-2.24938">
        <ele>42.599998474121</ele>
        <time>2022-01-09T10:24:19.000Z</time>
      </trkpt>
      <trkpt lat="47.27117" lon="-2.24925">
        <ele>42.599998474121</ele>
        <time>2022-01-09T10:24:22.000Z</time>
      </trkpt>
      <trkpt lat="47.27132" lon="-2.24922">
        <ele>42.599998474121</ele>
        <time>2022-01-09T10:24:25.000Z</time>
      </trkpt>
      <trkpt lat="47.27144" lon="-2.2492">
        <ele>42.599998474121</ele>
        <time>2022-01-09T10:24:28.000Z</time>
      </trkpt>
      <trkpt lat="47.2716" lon="-2.24923">
        <ele>42.599998474121</ele>
        <time>2022-01-09T10:24:33.000Z</time>
      </trkpt>
      <trkpt lat="47.27163" lon="-2.24921">
        <ele>42.599998474121</ele>
        <time>2022-01-09T10:24:37.000Z</time>
      </trkpt>
      <trkpt lat="47.27163" lon="-2.24921">
        <ele>42.200000762939</ele>
        <time>2022-01-09T10:24:38.000Z</time>
      </trkpt>
      <trkpt lat="47.27181" lon="-2.24909">
        <ele>40.599998474121</ele>
        <time>2022-01-09T10:27:44.000Z</time>
      </trkpt>
      <trkpt lat="47.27186" lon="-2.24907">
        <ele>40.599998474121</ele>
        <time>2022-01-09T10:27:46.000Z</time>
      </trkpt>
      <trkpt lat="47.27203" lon="-2.24897">
        <ele>40.599998474121</ele>
        <time>2022-01-09T10:27:51.000Z</time>
      </trkpt>
      <trkpt lat="47.27224" lon="-2.24885">
        <ele>40.599998474121</ele>
        <time>2022-01-09T10:27:57.000Z</time>
      </trkpt>
      <trkpt lat="47.27244" lon="-2.24872">
        <ele>40.599998474121</ele>
        <time>2022-01-09T10:28:03.000Z</time>
      </trkpt>
      <trkpt lat="47.27268" lon="-2.24862">
        <ele>40.599998474121</ele>
        <time>2022-01-09T10:28:09.000Z</time>
      </trkpt>
      <trkpt lat="47.27287" lon="-2.24855">
        <ele>40.599998474121</ele>
        <time>2022-01-09T10:28:13.000Z</time>
      </trkpt>
      <trkpt lat="47.27302" lon="-2.2485">
        <ele>40.599998474121</ele>
        <time>2022-01-09T10:28:16.000Z</time>
      </trkpt>
      <trkpt lat="47.27336" lon="-2.24838">
        <ele>40.599998474121</ele>
        <time>2022-01-09T10:28:23.000Z</time>
      </trkpt>
      <trkpt lat="47.27341" lon="-2.24837">
        <ele>40.599998474121</ele>
        <time>2022-01-09T10:28:24.000Z</time>
      </trkpt>
      <trkpt lat="47.27364" lon="-2.24831">
        <ele>40.599998474121</ele>
        <time>2022-01-09T10:28:29.000Z</time>
      </trkpt>
      <trkpt lat="47.27385" lon="-2.24826">
        <ele>40.599998474121</ele>
        <time>2022-01-09T10:28:34.000Z</time>
      </trkpt>
      <trkpt lat="47.27393" lon="-2.24824">
        <ele>40.599998474121</ele>
        <time>2022-01-09T10:28:39.000Z</time>
      </trkpt>
      <trkpt lat="47.27397" lon="-2.24824">
        <ele>40.599998474121</ele>
        <time>2022-01-09T10:28:42.000Z</time>
      </trkpt>
      <trkpt lat="47.274" lon="-2.24827">
        <ele>38.400001525879</ele>
        <time>2022-01-09T10:29:08.000Z</time>
      </trkpt>
      <trkpt lat="47.27404" lon="-2.24828">
        <ele>38.400001525879</ele>
        <time>2022-01-09T10:29:10.000Z</time>
      </trkpt>
      <trkpt lat="47.27406" lon="-2.24829">
        <ele>38.400001525879</ele>
        <time>2022-01-09T10:29:12.000Z</time>
      </trkpt>
      <trkpt lat="47.27423" lon="-2.24825">
        <ele>36.400001525879</ele>
        <time>2022-01-09T10:29:42.000Z</time>
      </trkpt>
      <trkpt lat="47.27424" lon="-2.24827">
        <ele>36.400001525879</ele>
        <time>2022-01-09T10:29:43.000Z</time>
      </trkpt>
      <trkpt lat="47.27423" lon="-2.2483">
        <ele>36.400001525879</ele>
        <time>2022-01-09T10:29:44.000Z</time>
      </trkpt>
      <trkpt lat="47.27424" lon="-2.24833">
        <ele>36</ele>
        <time>2022-01-09T10:29:46.000Z</time>
      </trkpt>
      <trkpt lat="47.27425" lon="-2.24834">
        <ele>35.599998474121</ele>
        <time>2022-01-09T10:29:47.000Z</time>
      </trkpt>
      <trkpt lat="47.27425" lon="-2.24836">
        <ele>35.200000762939</ele>
        <time>2022-01-09T10:29:48.000Z</time>
      </trkpt>
      <trkpt lat="47.27425" lon="-2.24837">
        <ele>34.799999237061</ele>
        <time>2022-01-09T10:29:49.000Z</time>
      </trkpt>
      <trkpt lat="47.27425" lon="-2.24838">
        <ele>34.400001525879</ele>
        <time>2022-01-09T10:29:50.000Z</time>
      </trkpt>
      <trkpt lat="47.27424" lon="-2.24847">
        <ele>34.400001525879</ele>
        <time>2022-01-09T10:29:56.000Z</time>
      </trkpt>
      <trkpt lat="47.27413" lon="-2.24873">
        <ele>34.400001525879</ele>
        <time>2022-01-09T10:30:02.000Z</time>
      </trkpt>
      <trkpt lat="47.27411" lon="-2.24879">
        <ele>34.400001525879</ele>
        <time>2022-01-09T10:30:03.000Z</time>
      </trkpt>
      <trkpt lat="47.27402" lon="-2.24889">
        <ele>34.400001525879</ele>
        <time>2022-01-09T10:30:06.000Z</time>
      </trkpt>
      <trkpt lat="47.27396" lon="-2.24898">
        <ele>34.400001525879</ele>
        <time>2022-01-09T10:30:08.000Z</time>
      </trkpt>
      <trkpt lat="47.2738" lon="-2.24923">
        <ele>34.400001525879</ele>
        <time>2022-01-09T10:30:14.000Z</time>
      </trkpt>
      <trkpt lat="47.27363" lon="-2.24944">
        <ele>34.400001525879</ele>
        <time>2022-01-09T10:30:20.000Z</time>
      </trkpt>
      <trkpt lat="47.27345" lon="-2.24965">
        <ele>34.400001525879</ele>
        <time>2022-01-09T10:30:26.000Z</time>
      </trkpt>
      <trkpt lat="47.27337" lon="-2.24988">
        <ele>34.400001525879</ele>
        <time>2022-01-09T10:30:31.000Z</time>
      </trkpt>
      <trkpt lat="47.27331" lon="-2.25008">
        <ele>34.400001525879</ele>
        <time>2022-01-09T10:30:35.000Z</time>
      </trkpt>
      <trkpt lat="47.27339" lon="-2.25029">
        <ele>34.400001525879</ele>
        <time>2022-01-09T10:30:39.000Z</time>
      </trkpt>
      <trkpt lat="47.27345" lon="-2.25062">
        <ele>34.400001525879</ele>
        <time>2022-01-09T10:30:44.000Z</time>
      </trkpt>
      <trkpt lat="47.27354" lon="-2.25087">
        <ele>34.400001525879</ele>
        <time>2022-01-09T10:30:48.000Z</time>
      </trkpt>
      <trkpt lat="47.27361" lon="-2.25106">
        <ele>34.400001525879</ele>
        <time>2022-01-09T10:30:51.000Z</time>
      </trkpt>
      <trkpt lat="47.27374" lon="-2.25136">
        <ele>34.400001525879</ele>
        <time>2022-01-09T10:30:56.000Z</time>
      </trkpt>
      <trkpt lat="47.27376" lon="-2.25141">
        <ele>34.400001525879</ele>
        <time>2022-01-09T10:30:57.000Z</time>
      </trkpt>
      <trkpt lat="47.2739" lon="-2.25178">
        <ele>34.400001525879</ele>
        <time>2022-01-09T10:31:02.000Z</time>
      </trkpt>
      <trkpt lat="47.2741" lon="-2.25224">
        <ele>34.400001525879</ele>
        <time>2022-01-09T10:31:08.000Z</time>
      </trkpt>
      <trkpt lat="47.27427" lon="-2.2527">
        <ele>34.400001525879</ele>
        <time>2022-01-09T10:31:14.000Z</time>
      </trkpt>
      <trkpt lat="47.27444" lon="-2.25319">
        <ele>34.400001525879</ele>
        <time>2022-01-09T10:31:21.000Z</time>
      </trkpt>
      <trkpt lat="47.27448" lon="-2.25341">
        <ele>34.400001525879</ele>
        <time>2022-01-09T10:31:24.000Z</time>
      </trkpt>
      <trkpt lat="47.2745" lon="-2.25358">
        <ele>34.400001525879</ele>
        <time>2022-01-09T10:31:26.000Z</time>
      </trkpt>
      <trkpt lat="47.27449" lon="-2.25366">
        <ele>34.400001525879</ele>
        <time>2022-01-09T10:31:27.000Z</time>
      </trkpt>
      <trkpt lat="47.27443" lon="-2.2539">
        <ele>34.400001525879</ele>
        <time>2022-01-09T10:31:30.000Z</time>
      </trkpt>
      <trkpt lat="47.27439" lon="-2.25404">
        <ele>34.400001525879</ele>
        <time>2022-01-09T10:31:32.000Z</time>
      </trkpt>
      <trkpt lat="47.27435" lon="-2.25418">
        <ele>34.400001525879</ele>
        <time>2022-01-09T10:31:34.000Z</time>
      </trkpt>
      <trkpt lat="47.27434" lon="-2.25424">
        <ele>34.400001525879</ele>
        <time>2022-01-09T10:31:35.000Z</time>
      </trkpt>
      <trkpt lat="47.27444" lon="-2.25437">
        <ele>34.400001525879</ele>
        <time>2022-01-09T10:31:38.000Z</time>
      </trkpt>
      <trkpt lat="47.27462" lon="-2.25445">
        <ele>34.400001525879</ele>
        <time>2022-01-09T10:31:42.000Z</time>
      </trkpt>
      <trkpt lat="47.27481" lon="-2.25443">
        <ele>34.400001525879</ele>
        <time>2022-01-09T10:31:46.000Z</time>
      </trkpt>
      <trkpt lat="47.27496" lon="-2.25445">
        <ele>34.400001525879</ele>
        <time>2022-01-09T10:31:49.000Z</time>
      </trkpt>
      <trkpt lat="47.275" lon="-2.25447">
        <ele>34.400001525879</ele>
        <time>2022-01-09T10:31:50.000Z</time>
      </trkpt>
      <trkpt lat="47.27504" lon="-2.25451">
        <ele>34.400001525879</ele>
        <time>2022-01-09T10:31:51.000Z</time>
      </trkpt>
      <trkpt lat="47.2752" lon="-2.25468">
        <ele>34.400001525879</ele>
        <time>2022-01-09T10:31:55.000Z</time>
      </trkpt>
      <trkpt lat="47.27524" lon="-2.25473">
        <ele>34.400001525879</ele>
        <time>2022-01-09T10:31:56.000Z</time>
      </trkpt>
      <trkpt lat="47.27527" lon="-2.25479">
        <ele>34.400001525879</ele>
        <time>2022-01-09T10:31:57.000Z</time>
      </trkpt>
      <trkpt lat="47.27539" lon="-2.25501">
        <ele>34.400001525879</ele>
        <time>2022-01-09T10:32:01.000Z</time>
      </trkpt>
      <trkpt lat="47.2755" lon="-2.25534">
        <ele>34.400001525879</ele>
        <time>2022-01-09T10:32:07.000Z</time>
      </trkpt>
      <trkpt lat="47.27561" lon="-2.2558">
        <ele>34.400001525879</ele>
        <time>2022-01-09T10:32:14.000Z</time>
      </trkpt>
      <trkpt lat="47.2756" lon="-2.25587">
        <ele>34.400001525879</ele>
        <time>2022-01-09T10:32:15.000Z</time>
      </trkpt>
      <trkpt lat="47.27561" lon="-2.25606">
        <ele>34.400001525879</ele>
        <time>2022-01-09T10:32:18.000Z</time>
      </trkpt>
      <trkpt lat="47.27561" lon="-2.25612">
        <ele>34.799999237061</ele>
        <time>2022-01-09T10:32:19.000Z</time>
      </trkpt>
      <trkpt lat="47.27561" lon="-2.25618">
        <ele>35.200000762939</ele>
        <time>2022-01-09T10:32:20.000Z</time>
      </trkpt>
      <trkpt lat="47.27562" lon="-2.25623">
        <ele>35.599998474121</ele>
        <time>2022-01-09T10:32:21.000Z</time>
      </trkpt>
      <trkpt lat="47.27563" lon="-2.25628">
        <ele>36</ele>
        <time>2022-01-09T10:32:22.000Z</time>
      </trkpt>
      <trkpt lat="47.27564" lon="-2.25633">
        <ele>36.400001525879</ele>
        <time>2022-01-09T10:32:23.000Z</time>
      </trkpt>
      <trkpt lat="47.27564" lon="-2.25638">
        <ele>36.400001525879</ele>
        <time>2022-01-09T10:32:24.000Z</time>
      </trkpt>
      <trkpt lat="47.27559" lon="-2.25651">
        <ele>36.400001525879</ele>
        <time>2022-01-09T10:32:27.000Z</time>
      </trkpt>
      <trkpt lat="47.27548" lon="-2.25681">
        <ele>36.400001525879</ele>
        <time>2022-01-09T10:32:33.000Z</time>
      </trkpt>
      <trkpt lat="47.27535" lon="-2.25711">
        <ele>36.400001525879</ele>
        <time>2022-01-09T10:32:39.000Z</time>
      </trkpt>
      <trkpt lat="47.27522" lon="-2.25729">
        <ele>36.799999237061</ele>
        <time>2022-01-09T10:32:44.000Z</time>
      </trkpt>
      <trkpt lat="47.27519" lon="-2.25733">
        <ele>37.200000762939</ele>
        <time>2022-01-09T10:32:45.000Z</time>
      </trkpt>
      <trkpt lat="47.27516" lon="-2.25737">
        <ele>37.799999237061</ele>
        <time>2022-01-09T10:32:46.000Z</time>
      </trkpt>
      <trkpt lat="47.27513" lon="-2.25742">
        <ele>38.200000762939</ele>
        <time>2022-01-09T10:32:47.000Z</time>
      </trkpt>
      <trkpt lat="47.2751" lon="-2.25746">
        <ele>38.599998474121</ele>
        <time>2022-01-09T10:32:48.000Z</time>
      </trkpt>
      <trkpt lat="47.27495" lon="-2.25767">
        <ele>38.599998474121</ele>
        <time>2022-01-09T10:32:53.000Z</time>
      </trkpt>
      <trkpt lat="47.2747" lon="-2.25791">
        <ele>38.599998474121</ele>
        <time>2022-01-09T10:33:00.000Z</time>
      </trkpt>
      <trkpt lat="47.27456" lon="-2.25804">
        <ele>38.599998474121</ele>
        <time>2022-01-09T10:33:04.000Z</time>
      </trkpt>
      <trkpt lat="47.27441" lon="-2.25832">
        <ele>38.599998474121</ele>
        <time>2022-01-09T10:33:10.000Z</time>
      </trkpt>
      <trkpt lat="47.27428" lon="-2.25856">
        <ele>38.599998474121</ele>
        <time>2022-01-09T10:33:15.000Z</time>
      </trkpt>
      <trkpt lat="47.2742" lon="-2.25871">
        <ele>39</ele>
        <time>2022-01-09T10:33:18.000Z</time>
      </trkpt>
      <trkpt lat="47.27417" lon="-2.25877">
        <ele>39.400001525879</ele>
        <time>2022-01-09T10:33:19.000Z</time>
      </trkpt>
      <trkpt lat="47.27415" lon="-2.25882">
        <ele>40.400001525879</ele>
        <time>2022-01-09T10:33:20.000Z</time>
      </trkpt>
      <trkpt lat="47.27412" lon="-2.25887">
        <ele>40.799999237061</ele>
        <time>2022-01-09T10:33:21.000Z</time>
      </trkpt>
      <trkpt lat="47.27407" lon="-2.25897">
        <ele>40.799999237061</ele>
        <time>2022-01-09T10:33:23.000Z</time>
      </trkpt>
      <trkpt lat="47.27393" lon="-2.25914">
        <ele>40.799999237061</ele>
        <time>2022-01-09T10:33:27.000Z</time>
      </trkpt>
      <trkpt lat="47.27378" lon="-2.25936">
        <ele>40.799999237061</ele>
        <time>2022-01-09T10:33:32.000Z</time>
      </trkpt>
      <trkpt lat="47.27372" lon="-2.25945">
        <ele>40.799999237061</ele>
        <time>2022-01-09T10:33:34.000Z</time>
      </trkpt>
      <trkpt lat="47.27363" lon="-2.25952">
        <ele>40.799999237061</ele>
        <time>2022-01-09T10:33:37.000Z</time>
      </trkpt>
      <trkpt lat="47.27359" lon="-2.25955">
        <ele>40.799999237061</ele>
        <time>2022-01-09T10:33:38.000Z</time>
      </trkpt>
      <trkpt lat="47.27345" lon="-2.2596">
        <ele>40.799999237061</ele>
        <time>2022-01-09T10:33:42.000Z</time>
      </trkpt>
      <trkpt lat="47.27318" lon="-2.25975">
        <ele>40.799999237061</ele>
        <time>2022-01-09T10:33:48.000Z</time>
      </trkpt>
      <trkpt lat="47.27314" lon="-2.25978">
        <ele>40.799999237061</ele>
        <time>2022-01-09T10:33:49.000Z</time>
      </trkpt>
      <trkpt lat="47.27297" lon="-2.25994">
        <ele>40.799999237061</ele>
        <time>2022-01-09T10:33:54.000Z</time>
      </trkpt>
      <trkpt lat="47.27296" lon="-2.25999">
        <ele>40.799999237061</ele>
        <time>2022-01-09T10:33:55.000Z</time>
      </trkpt>
      <trkpt lat="47.273" lon="-2.26008">
        <ele>40.799999237061</ele>
        <time>2022-01-09T10:33:57.000Z</time>
      </trkpt>
      <trkpt lat="47.2731" lon="-2.26025">
        <ele>40.799999237061</ele>
        <time>2022-01-09T10:34:01.000Z</time>
      </trkpt>
      <trkpt lat="47.27312" lon="-2.2603">
        <ele>40.799999237061</ele>
        <time>2022-01-09T10:34:02.000Z</time>
      </trkpt>
      <trkpt lat="47.27314" lon="-2.26036">
        <ele>40.799999237061</ele>
        <time>2022-01-09T10:34:03.000Z</time>
      </trkpt>
      <trkpt lat="47.27324" lon="-2.26058">
        <ele>40.799999237061</ele>
        <time>2022-01-09T10:34:07.000Z</time>
      </trkpt>
      <trkpt lat="47.2734" lon="-2.26097">
        <ele>40.799999237061</ele>
        <time>2022-01-09T10:34:14.000Z</time>
      </trkpt>
      <trkpt lat="47.27342" lon="-2.26103">
        <ele>40.799999237061</ele>
        <time>2022-01-09T10:34:15.000Z</time>
      </trkpt>
      <trkpt lat="47.27347" lon="-2.26128">
        <ele>40.799999237061</ele>
        <time>2022-01-09T10:34:20.000Z</time>
      </trkpt>
      <trkpt lat="47.27345" lon="-2.26131">
        <ele>40.799999237061</ele>
        <time>2022-01-09T10:34:21.000Z</time>
      </trkpt>
      <trkpt lat="47.27334" lon="-2.26137">
        <ele>40.799999237061</ele>
        <time>2022-01-09T10:34:24.000Z</time>
      </trkpt>
      <trkpt lat="47.27329" lon="-2.26139">
        <ele>40.799999237061</ele>
        <time>2022-01-09T10:34:25.000Z</time>
      </trkpt>
      <trkpt lat="47.27298" lon="-2.26148">
        <ele>40.799999237061</ele>
        <time>2022-01-09T10:34:31.000Z</time>
      </trkpt>
      <trkpt lat="47.27264" lon="-2.26161">
        <ele>40.799999237061</ele>
        <time>2022-01-09T10:34:37.000Z</time>
      </trkpt>
      <trkpt lat="47.27232" lon="-2.26178">
        <ele>41.200000762939</ele>
        <time>2022-01-09T10:34:43.000Z</time>
      </trkpt>
      <trkpt lat="47.27226" lon="-2.26181">
        <ele>41.599998474121</ele>
        <time>2022-01-09T10:34:44.000Z</time>
      </trkpt>
      <trkpt lat="47.27221" lon="-2.26185">
        <ele>42</ele>
        <time>2022-01-09T10:34:45.000Z</time>
      </trkpt>
      <trkpt lat="47.27215" lon="-2.26188">
        <ele>42.400001525879</ele>
        <time>2022-01-09T10:34:46.000Z</time>
      </trkpt>
      <trkpt lat="47.2721" lon="-2.26192">
        <ele>42.799999237061</ele>
        <time>2022-01-09T10:34:47.000Z</time>
      </trkpt>
      <trkpt lat="47.27189" lon="-2.26211">
        <ele>42.799999237061</ele>
        <time>2022-01-09T10:34:51.000Z</time>
      </trkpt>
      <trkpt lat="47.27154" lon="-2.26252">
        <ele>42.799999237061</ele>
        <time>2022-01-09T10:34:59.000Z</time>
      </trkpt>
      <trkpt lat="47.27143" lon="-2.26266">
        <ele>43.200000762939</ele>
        <time>2022-01-09T10:35:02.000Z</time>
      </trkpt>
      <trkpt lat="47.27139" lon="-2.26272">
        <ele>43.599998474121</ele>
        <time>2022-01-09T10:35:03.000Z</time>
      </trkpt>
      <trkpt lat="47.27135" lon="-2.26277">
        <ele>44.200000762939</ele>
        <time>2022-01-09T10:35:04.000Z</time>
      </trkpt>
      <trkpt lat="47.27131" lon="-2.26282">
        <ele>44.599998474121</ele>
        <time>2022-01-09T10:35:05.000Z</time>
      </trkpt>
      <trkpt lat="47.27127" lon="-2.26287">
        <ele>45</ele>
        <time>2022-01-09T10:35:06.000Z</time>
      </trkpt>
      <trkpt lat="47.27123" lon="-2.26293">
        <ele>45</ele>
        <time>2022-01-09T10:35:07.000Z</time>
      </trkpt>
      <trkpt lat="47.2709" lon="-2.2634">
        <ele>45.400001525879</ele>
        <time>2022-01-09T10:35:15.000Z</time>
      </trkpt>
      <trkpt lat="47.27086" lon="-2.26346">
        <ele>45.799999237061</ele>
        <time>2022-01-09T10:35:16.000Z</time>
      </trkpt>
      <trkpt lat="47.27082" lon="-2.26352">
        <ele>46.200000762939</ele>
        <time>2022-01-09T10:35:17.000Z</time>
      </trkpt>
      <trkpt lat="47.27077" lon="-2.26359">
        <ele>46.599998474121</ele>
        <time>2022-01-09T10:35:18.000Z</time>
      </trkpt>
      <trkpt lat="47.27073" lon="-2.26364">
        <ele>47.200000762939</ele>
        <time>2022-01-09T10:35:19.000Z</time>
      </trkpt>
      <trkpt lat="47.27057" lon="-2.26389">
        <ele>47.200000762939</ele>
        <time>2022-01-09T10:35:23.000Z</time>
      </trkpt>
      <trkpt lat="47.27027" lon="-2.26432">
        <ele>47.200000762939</ele>
        <time>2022-01-09T10:35:30.000Z</time>
      </trkpt>
      <trkpt lat="47.27023" lon="-2.26438">
        <ele>47.200000762939</ele>
        <time>2022-01-09T10:35:31.000Z</time>
      </trkpt>
      <trkpt lat="47.26991" lon="-2.26482">
        <ele>47.200000762939</ele>
        <time>2022-01-09T10:35:39.000Z</time>
      </trkpt>
      <trkpt lat="47.26968" lon="-2.26511">
        <ele>47.200000762939</ele>
        <time>2022-01-09T10:35:46.000Z</time>
      </trkpt>
      <trkpt lat="47.26973" lon="-2.26531">
        <ele>47.200000762939</ele>
        <time>2022-01-09T10:35:49.000Z</time>
      </trkpt>
      <trkpt lat="47.26975" lon="-2.26538">
        <ele>47.200000762939</ele>
        <time>2022-01-09T10:35:50.000Z</time>
      </trkpt>
      <trkpt lat="47.26986" lon="-2.26567">
        <ele>47.200000762939</ele>
        <time>2022-01-09T10:35:54.000Z</time>
      </trkpt>
      <trkpt lat="47.2699" lon="-2.26572">
        <ele>47.200000762939</ele>
        <time>2022-01-09T10:35:55.000Z</time>
      </trkpt>
      <trkpt lat="47.26995" lon="-2.26577">
        <ele>46.799999237061</ele>
        <time>2022-01-09T10:35:56.000Z</time>
      </trkpt>
      <trkpt lat="47.27" lon="-2.26582">
        <ele>46.400001525879</ele>
        <time>2022-01-09T10:35:57.000Z</time>
      </trkpt>
      <trkpt lat="47.27004" lon="-2.26587">
        <ele>45.799999237061</ele>
        <time>2022-01-09T10:35:58.000Z</time>
      </trkpt>
      <trkpt lat="47.27007" lon="-2.26592">
        <ele>45.400001525879</ele>
        <time>2022-01-09T10:35:59.000Z</time>
      </trkpt>
      <trkpt lat="47.27011" lon="-2.26597">
        <ele>45</ele>
        <time>2022-01-09T10:36:00.000Z</time>
      </trkpt>
      <trkpt lat="47.27036" lon="-2.2663">
        <ele>45</ele>
        <time>2022-01-09T10:36:07.000Z</time>
      </trkpt>
      <trkpt lat="47.27038" lon="-2.26636">
        <ele>44.599998474121</ele>
        <time>2022-01-09T10:36:08.000Z</time>
      </trkpt>
      <trkpt lat="47.27039" lon="-2.26642">
        <ele>44.200000762939</ele>
        <time>2022-01-09T10:36:09.000Z</time>
      </trkpt>
      <trkpt lat="47.27039" lon="-2.26648">
        <ele>43.799999237061</ele>
        <time>2022-01-09T10:36:10.000Z</time>
      </trkpt>
      <trkpt lat="47.27038" lon="-2.26653">
        <ele>43.400001525879</ele>
        <time>2022-01-09T10:36:11.000Z</time>
      </trkpt>
      <trkpt lat="47.27038" lon="-2.26657">
        <ele>43</ele>
        <time>2022-01-09T10:36:12.000Z</time>
      </trkpt>
      <trkpt lat="47.27039" lon="-2.26676">
        <ele>43</ele>
        <time>2022-01-09T10:36:17.000Z</time>
      </trkpt>
      <trkpt lat="47.27039" lon="-2.26706">
        <ele>43</ele>
        <time>2022-01-09T10:36:23.000Z</time>
      </trkpt>
      <trkpt lat="47.27036" lon="-2.26731">
        <ele>43</ele>
        <time>2022-01-09T10:36:29.000Z</time>
      </trkpt>
      <trkpt lat="47.2703" lon="-2.26745">
        <ele>43</ele>
        <time>2022-01-09T10:36:35.000Z</time>
      </trkpt>
      <trkpt lat="47.27021" lon="-2.26754">
        <ele>43</ele>
        <time>2022-01-09T10:36:40.000Z</time>
      </trkpt>
      <trkpt lat="47.2702" lon="-2.26757">
        <ele>43</ele>
        <time>2022-01-09T10:36:41.000Z</time>
      </trkpt>
      <trkpt lat="47.27017" lon="-2.26762">
        <ele>43</ele>
        <time>2022-01-09T10:36:44.000Z</time>
      </trkpt>
      <trkpt lat="47.27015" lon="-2.26766">
        <ele>43</ele>
        <time>2022-01-09T10:36:46.000Z</time>
      </trkpt>
      <trkpt lat="47.27001" lon="-2.26779">
        <ele>43</ele>
        <time>2022-01-09T10:36:53.000Z</time>
      </trkpt>
      <trkpt lat="47.26987" lon="-2.26792">
        <ele>43</ele>
        <time>2022-01-09T10:37:00.000Z</time>
      </trkpt>
      <trkpt lat="47.2697" lon="-2.26806">
        <ele>43</ele>
        <time>2022-01-09T10:37:05.000Z</time>
      </trkpt>
      <trkpt lat="47.2696" lon="-2.26823">
        <ele>43</ele>
        <time>2022-01-09T10:37:11.000Z</time>
      </trkpt>
      <trkpt lat="47.26959" lon="-2.26829">
        <ele>43</ele>
        <time>2022-01-09T10:37:13.000Z</time>
      </trkpt>
      <trkpt lat="47.2696" lon="-2.26839">
        <ele>43</ele>
        <time>2022-01-09T10:37:15.000Z</time>
      </trkpt>
      <trkpt lat="47.26967" lon="-2.26874">
        <ele>43</ele>
        <time>2022-01-09T10:37:21.000Z</time>
      </trkpt>
      <trkpt lat="47.26969" lon="-2.26903">
        <ele>43</ele>
        <time>2022-01-09T10:37:25.000Z</time>
      </trkpt>
      <trkpt lat="47.26969" lon="-2.2691">
        <ele>43</ele>
        <time>2022-01-09T10:37:26.000Z</time>
      </trkpt>
      <trkpt lat="47.26964" lon="-2.26949">
        <ele>43</ele>
        <time>2022-01-09T10:37:32.000Z</time>
      </trkpt>
      <trkpt lat="47.26962" lon="-2.26964">
        <ele>43.400001525879</ele>
        <time>2022-01-09T10:37:35.000Z</time>
      </trkpt>
      <trkpt lat="47.26962" lon="-2.26969">
        <ele>43.799999237061</ele>
        <time>2022-01-09T10:37:36.000Z</time>
      </trkpt>
      <trkpt lat="47.26962" lon="-2.26974">
        <ele>44.200000762939</ele>
        <time>2022-01-09T10:37:37.000Z</time>
      </trkpt>
      <trkpt lat="47.26964" lon="-2.26979">
        <ele>44.599998474121</ele>
        <time>2022-01-09T10:37:38.000Z</time>
      </trkpt>
      <trkpt lat="47.26966" lon="-2.26984">
        <ele>45</ele>
        <time>2022-01-09T10:37:39.000Z</time>
      </trkpt>
      <trkpt lat="47.26973" lon="-2.26998">
        <ele>45</ele>
        <time>2022-01-09T10:37:42.000Z</time>
      </trkpt>
      <trkpt lat="47.26987" lon="-2.27018">
        <ele>45</ele>
        <time>2022-01-09T10:37:47.000Z</time>
      </trkpt>
      <trkpt lat="47.26991" lon="-2.27027">
        <ele>45.400001525879</ele>
        <time>2022-01-09T10:37:49.000Z</time>
      </trkpt>
      <trkpt lat="47.26994" lon="-2.27032">
        <ele>46</ele>
        <time>2022-01-09T10:37:50.000Z</time>
      </trkpt>
      <trkpt lat="47.26997" lon="-2.27036">
        <ele>46.400001525879</ele>
        <time>2022-01-09T10:37:51.000Z</time>
      </trkpt>
      <trkpt lat="47.27" lon="-2.27041">
        <ele>47.200000762939</ele>
        <time>2022-01-09T10:37:52.000Z</time>
      </trkpt>
      <trkpt lat="47.27002" lon="-2.27047">
        <ele>47.200000762939</ele>
        <time>2022-01-09T10:37:53.000Z</time>
      </trkpt>
      <trkpt lat="47.2701" lon="-2.27081">
        <ele>47.200000762939</ele>
        <time>2022-01-09T10:37:59.000Z</time>
      </trkpt>
      <trkpt lat="47.27018" lon="-2.27102">
        <ele>47.200000762939</ele>
        <time>2022-01-09T10:38:03.000Z</time>
      </trkpt>
      <trkpt lat="47.27022" lon="-2.27108">
        <ele>47.200000762939</ele>
        <time>2022-01-09T10:38:04.000Z</time>
      </trkpt>
      <trkpt lat="47.27044" lon="-2.27147">
        <ele>47.200000762939</ele>
        <time>2022-01-09T10:38:09.000Z</time>
      </trkpt>
      <trkpt lat="47.27059" lon="-2.27174">
        <ele>47.200000762939</ele>
        <time>2022-01-09T10:38:12.000Z</time>
      </trkpt>
      <trkpt lat="47.27068" lon="-2.27187">
        <ele>47.200000762939</ele>
        <time>2022-01-09T10:38:14.000Z</time>
      </trkpt>
      <trkpt lat="47.27074" lon="-2.272">
        <ele>47.200000762939</ele>
        <time>2022-01-09T10:38:16.000Z</time>
      </trkpt>
      <trkpt lat="47.27084" lon="-2.27216">
        <ele>47.599998474121</ele>
        <time>2022-01-09T10:38:19.000Z</time>
      </trkpt>
      <trkpt lat="47.27087" lon="-2.27221">
        <ele>48</ele>
        <time>2022-01-09T10:38:20.000Z</time>
      </trkpt>
      <trkpt lat="47.2709" lon="-2.27225">
        <ele>48.400001525879</ele>
        <time>2022-01-09T10:38:21.000Z</time>
      </trkpt>
      <trkpt lat="47.27093" lon="-2.2723">
        <ele>48.799999237061</ele>
        <time>2022-01-09T10:38:22.000Z</time>
      </trkpt>
      <trkpt lat="47.27096" lon="-2.27234">
        <ele>49.200000762939</ele>
        <time>2022-01-09T10:38:23.000Z</time>
      </trkpt>
      <trkpt lat="47.27099" lon="-2.27239">
        <ele>49.200000762939</ele>
        <time>2022-01-09T10:38:24.000Z</time>
      </trkpt>
      <trkpt lat="47.27111" lon="-2.2726">
        <ele>49.599998474121</ele>
        <time>2022-01-09T10:38:28.000Z</time>
      </trkpt>
      <trkpt lat="47.27114" lon="-2.27265">
        <ele>50</ele>
        <time>2022-01-09T10:38:29.000Z</time>
      </trkpt>
      <trkpt lat="47.27116" lon="-2.27271">
        <ele>50.400001525879</ele>
        <time>2022-01-09T10:38:30.000Z</time>
      </trkpt>
      <trkpt lat="47.27118" lon="-2.27276">
        <ele>50.799999237061</ele>
        <time>2022-01-09T10:38:31.000Z</time>
      </trkpt>
      <trkpt lat="47.2712" lon="-2.27281">
        <ele>51.200000762939</ele>
        <time>2022-01-09T10:38:32.000Z</time>
      </trkpt>
      <trkpt lat="47.27124" lon="-2.27298">
        <ele>51.200000762939</ele>
        <time>2022-01-09T10:38:35.000Z</time>
      </trkpt>
      <trkpt lat="47.27125" lon="-2.27305">
        <ele>51.599998474121</ele>
        <time>2022-01-09T10:38:36.000Z</time>
      </trkpt>
      <trkpt lat="47.27126" lon="-2.27311">
        <ele>52</ele>
        <time>2022-01-09T10:38:37.000Z</time>
      </trkpt>
      <trkpt lat="47.27127" lon="-2.27319">
        <ele>52.400001525879</ele>
        <time>2022-01-09T10:38:38.000Z</time>
      </trkpt>
      <trkpt lat="47.27128" lon="-2.27326">
        <ele>52.799999237061</ele>
        <time>2022-01-09T10:38:39.000Z</time>
      </trkpt>
      <trkpt lat="47.27128" lon="-2.27332">
        <ele>53.200000762939</ele>
        <time>2022-01-09T10:38:40.000Z</time>
      </trkpt>
      <trkpt lat="47.2713" lon="-2.27345">
        <ele>53.200000762939</ele>
        <time>2022-01-09T10:38:42.000Z</time>
      </trkpt>
      <trkpt lat="47.27136" lon="-2.27391">
        <ele>53.200000762939</ele>
        <time>2022-01-09T10:38:49.000Z</time>
      </trkpt>
      <trkpt lat="47.27137" lon="-2.27398">
        <ele>53.200000762939</ele>
        <time>2022-01-09T10:38:50.000Z</time>
      </trkpt>
      <trkpt lat="47.27141" lon="-2.27432">
        <ele>53.200000762939</ele>
        <time>2022-01-09T10:38:55.000Z</time>
      </trkpt>
      <trkpt lat="47.27143" lon="-2.27446">
        <ele>53.799999237061</ele>
        <time>2022-01-09T10:38:57.000Z</time>
      </trkpt>
      <trkpt lat="47.27144" lon="-2.27453">
        <ele>54.200000762939</ele>
        <time>2022-01-09T10:38:58.000Z</time>
      </trkpt>
      <trkpt lat="47.27145" lon="-2.2746">
        <ele>54.599998474121</ele>
        <time>2022-01-09T10:38:59.000Z</time>
      </trkpt>
      <trkpt lat="47.27146" lon="-2.27467">
        <ele>55</ele>
        <time>2022-01-09T10:39:00.000Z</time>
      </trkpt>
      <trkpt lat="47.27146" lon="-2.27473">
        <ele>55.400001525879</ele>
        <time>2022-01-09T10:39:01.000Z</time>
      </trkpt>
      <trkpt lat="47.27147" lon="-2.27511">
        <ele>55.400001525879</ele>
        <time>2022-01-09T10:39:06.000Z</time>
      </trkpt>
      <trkpt lat="47.27147" lon="-2.27536">
        <ele>55.400001525879</ele>
        <time>2022-01-09T10:39:09.000Z</time>
      </trkpt>
      <trkpt lat="47.27143" lon="-2.27559">
        <ele>55.400001525879</ele>
        <time>2022-01-09T10:39:12.000Z</time>
      </trkpt>
      <trkpt lat="47.2714" lon="-2.27574">
        <ele>55.400001525879</ele>
        <time>2022-01-09T10:39:14.000Z</time>
      </trkpt>
      <trkpt lat="47.2713" lon="-2.276">
        <ele>55.400001525879</ele>
        <time>2022-01-09T10:39:18.000Z</time>
      </trkpt>
      <trkpt lat="47.27113" lon="-2.27616">
        <ele>55.400001525879</ele>
        <time>2022-01-09T10:39:22.000Z</time>
      </trkpt>
      <trkpt lat="47.27108" lon="-2.27619">
        <ele>55.400001525879</ele>
        <time>2022-01-09T10:39:23.000Z</time>
      </trkpt>
      <trkpt lat="47.27081" lon="-2.27638">
        <ele>55.400001525879</ele>
        <time>2022-01-09T10:39:29.000Z</time>
      </trkpt>
      <trkpt lat="47.27051" lon="-2.27667">
        <ele>55.400001525879</ele>
        <time>2022-01-09T10:39:36.000Z</time>
      </trkpt>
      <trkpt lat="47.2703" lon="-2.27693">
        <ele>55.400001525879</ele>
        <time>2022-01-09T10:39:42.000Z</time>
      </trkpt>
      <trkpt lat="47.27027" lon="-2.27699">
        <ele>55.400001525879</ele>
        <time>2022-01-09T10:39:43.000Z</time>
      </trkpt>
      <trkpt lat="47.27025" lon="-2.27718">
        <ele>55.400001525879</ele>
        <time>2022-01-09T10:39:46.000Z</time>
      </trkpt>
      <trkpt lat="47.27035" lon="-2.27727">
        <ele>55.400001525879</ele>
        <time>2022-01-09T10:39:49.000Z</time>
      </trkpt>
      <trkpt lat="47.27045" lon="-2.2773">
        <ele>55.400001525879</ele>
        <time>2022-01-09T10:39:51.000Z</time>
      </trkpt>
      <trkpt lat="47.27068" lon="-2.27738">
        <ele>55.400001525879</ele>
        <time>2022-01-09T10:39:56.000Z</time>
      </trkpt>
      <trkpt lat="47.27077" lon="-2.27742">
        <ele>55.799999237061</ele>
        <time>2022-01-09T10:39:58.000Z</time>
      </trkpt>
      <trkpt lat="47.27081" lon="-2.27744">
        <ele>56.200000762939</ele>
        <time>2022-01-09T10:39:59.000Z</time>
      </trkpt>
      <trkpt lat="47.27085" lon="-2.27747">
        <ele>56.599998474121</ele>
        <time>2022-01-09T10:40:00.000Z</time>
      </trkpt>
      <trkpt lat="47.27089" lon="-2.27749">
        <ele>57</ele>
        <time>2022-01-09T10:40:01.000Z</time>
      </trkpt>
      <trkpt lat="47.27093" lon="-2.27752">
        <ele>57.400001525879</ele>
        <time>2022-01-09T10:40:02.000Z</time>
      </trkpt>
      <trkpt lat="47.27097" lon="-2.27756">
        <ele>57.400001525879</ele>
        <time>2022-01-09T10:40:03.000Z</time>
      </trkpt>
      <trkpt lat="47.27104" lon="-2.27769">
        <ele>57.400001525879</ele>
        <time>2022-01-09T10:40:06.000Z</time>
      </trkpt>
      <trkpt lat="47.27105" lon="-2.27776">
        <ele>57.400001525879</ele>
        <time>2022-01-09T10:40:07.000Z</time>
      </trkpt>
      <trkpt lat="47.27109" lon="-2.27792">
        <ele>57.400001525879</ele>
        <time>2022-01-09T10:40:10.000Z</time>
      </trkpt>
      <trkpt lat="47.27111" lon="-2.27798">
        <ele>57.400001525879</ele>
        <time>2022-01-09T10:40:11.000Z</time>
      </trkpt>
      <trkpt lat="47.27113" lon="-2.27803">
        <ele>57.400001525879</ele>
        <time>2022-01-09T10:40:12.000Z</time>
      </trkpt>
      <trkpt lat="47.27111" lon="-2.27819">
        <ele>57.400001525879</ele>
        <time>2022-01-09T10:40:15.000Z</time>
      </trkpt>
      <trkpt lat="47.2711" lon="-2.27825">
        <ele>57.400001525879</ele>
        <time>2022-01-09T10:40:16.000Z</time>
      </trkpt>
      <trkpt lat="47.27108" lon="-2.2783">
        <ele>57.799999237061</ele>
        <time>2022-01-09T10:40:17.000Z</time>
      </trkpt>
      <trkpt lat="47.27107" lon="-2.27835">
        <ele>58.200000762939</ele>
        <time>2022-01-09T10:40:18.000Z</time>
      </trkpt>
      <trkpt lat="47.27105" lon="-2.27841">
        <ele>59</ele>
        <time>2022-01-09T10:40:19.000Z</time>
      </trkpt>
      <trkpt lat="47.27104" lon="-2.27847">
        <ele>59.400001525879</ele>
        <time>2022-01-09T10:40:20.000Z</time>
      </trkpt>
      <trkpt lat="47.27102" lon="-2.27852">
        <ele>59.400001525879</ele>
        <time>2022-01-09T10:40:21.000Z</time>
      </trkpt>
      <trkpt lat="47.27097" lon="-2.27873">
        <ele>59.799999237061</ele>
        <time>2022-01-09T10:40:25.000Z</time>
      </trkpt>
      <trkpt lat="47.27096" lon="-2.27877">
        <ele>60.200000762939</ele>
        <time>2022-01-09T10:40:26.000Z</time>
      </trkpt>
      <trkpt lat="47.27094" lon="-2.27882">
        <ele>60.799999237061</ele>
        <time>2022-01-09T10:40:27.000Z</time>
      </trkpt>
      <trkpt lat="47.27091" lon="-2.27886">
        <ele>61.200000762939</ele>
        <time>2022-01-09T10:40:28.000Z</time>
      </trkpt>
      <trkpt lat="47.27088" lon="-2.27889">
        <ele>61.599998474121</ele>
        <time>2022-01-09T10:40:29.000Z</time>
      </trkpt>
      <trkpt lat="47.27072" lon="-2.27913">
        <ele>61.599998474121</ele>
        <time>2022-01-09T10:40:35.000Z</time>
      </trkpt>
      <trkpt lat="47.27068" lon="-2.27935">
        <ele>61.599998474121</ele>
        <time>2022-01-09T10:40:39.000Z</time>
      </trkpt>
      <trkpt lat="47.27068" lon="-2.27942">
        <ele>62</ele>
        <time>2022-01-09T10:40:40.000Z</time>
      </trkpt>
      <trkpt lat="47.27068" lon="-2.27948">
        <ele>62.400001525879</ele>
        <time>2022-01-09T10:40:41.000Z</time>
      </trkpt>
      <trkpt lat="47.27069" lon="-2.27954">
        <ele>62.799999237061</ele>
        <time>2022-01-09T10:40:42.000Z</time>
      </trkpt>
      <trkpt lat="47.2707" lon="-2.27959">
        <ele>63.200000762939</ele>
        <time>2022-01-09T10:40:43.000Z</time>
      </trkpt>
      <trkpt lat="47.27073" lon="-2.27965">
        <ele>63.799999237061</ele>
        <time>2022-01-09T10:40:44.000Z</time>
      </trkpt>
      <trkpt lat="47.27088" lon="-2.27984">
        <ele>63.799999237061</ele>
        <time>2022-01-09T10:40:48.000Z</time>
      </trkpt>
      <trkpt lat="47.27108" lon="-2.27993">
        <ele>63.799999237061</ele>
        <time>2022-01-09T10:40:52.000Z</time>
      </trkpt>
      <trkpt lat="47.27116" lon="-2.28014">
        <ele>63.799999237061</ele>
        <time>2022-01-09T10:40:55.000Z</time>
      </trkpt>
      <trkpt lat="47.27118" lon="-2.28022">
        <ele>63.799999237061</ele>
        <time>2022-01-09T10:40:56.000Z</time>
      </trkpt>
      <trkpt lat="47.27123" lon="-2.28065">
        <ele>63.799999237061</ele>
        <time>2022-01-09T10:41:01.000Z</time>
      </trkpt>
      <trkpt lat="47.27123" lon="-2.28073">
        <ele>63.799999237061</ele>
        <time>2022-01-09T10:41:02.000Z</time>
      </trkpt>
      <trkpt lat="47.27123" lon="-2.28121">
        <ele>63.799999237061</ele>
        <time>2022-01-09T10:41:08.000Z</time>
      </trkpt>
      <trkpt lat="47.27123" lon="-2.2813">
        <ele>63.200000762939</ele>
        <time>2022-01-09T10:41:09.000Z</time>
      </trkpt>
      <trkpt lat="47.27124" lon="-2.28138">
        <ele>62.799999237061</ele>
        <time>2022-01-09T10:41:10.000Z</time>
      </trkpt>
      <trkpt lat="47.27126" lon="-2.28146">
        <ele>62.400001525879</ele>
        <time>2022-01-09T10:41:11.000Z</time>
      </trkpt>
      <trkpt lat="47.27127" lon="-2.28154">
        <ele>62</ele>
        <time>2022-01-09T10:41:12.000Z</time>
      </trkpt>
      <trkpt lat="47.27127" lon="-2.28162">
        <ele>61.599998474121</ele>
        <time>2022-01-09T10:41:13.000Z</time>
      </trkpt>
      <trkpt lat="47.27122" lon="-2.28208">
        <ele>61.599998474121</ele>
        <time>2022-01-09T10:41:18.000Z</time>
      </trkpt>
      <trkpt lat="47.27121" lon="-2.28217">
        <ele>61</ele>
        <time>2022-01-09T10:41:19.000Z</time>
      </trkpt>
      <trkpt lat="47.27119" lon="-2.28226">
        <ele>60.599998474121</ele>
        <time>2022-01-09T10:41:20.000Z</time>
      </trkpt>
      <trkpt lat="47.27118" lon="-2.28235">
        <ele>60.200000762939</ele>
        <time>2022-01-09T10:41:21.000Z</time>
      </trkpt>
      <trkpt lat="47.27119" lon="-2.28244">
        <ele>59.799999237061</ele>
        <time>2022-01-09T10:41:22.000Z</time>
      </trkpt>
      <trkpt lat="47.2712" lon="-2.28252">
        <ele>59.400001525879</ele>
        <time>2022-01-09T10:41:23.000Z</time>
      </trkpt>
      <trkpt lat="47.27125" lon="-2.28267">
        <ele>59.400001525879</ele>
        <time>2022-01-09T10:41:25.000Z</time>
      </trkpt>
      <trkpt lat="47.27133" lon="-2.28291">
        <ele>59.400001525879</ele>
        <time>2022-01-09T10:41:28.000Z</time>
      </trkpt>
      <trkpt lat="47.27144" lon="-2.28334">
        <ele>59.400001525879</ele>
        <time>2022-01-09T10:41:33.000Z</time>
      </trkpt>
      <trkpt lat="47.27144" lon="-2.28342">
        <ele>59.400001525879</ele>
        <time>2022-01-09T10:41:34.000Z</time>
      </trkpt>
      <trkpt lat="47.27148" lon="-2.28392">
        <ele>59.400001525879</ele>
        <time>2022-01-09T10:41:40.000Z</time>
      </trkpt>
      <trkpt lat="47.27154" lon="-2.28445">
        <ele>59.400001525879</ele>
        <time>2022-01-09T10:41:46.000Z</time>
      </trkpt>
      <trkpt lat="47.27162" lon="-2.285">
        <ele>59.400001525879</ele>
        <time>2022-01-09T10:41:52.000Z</time>
      </trkpt>
      <trkpt lat="47.27175" lon="-2.28569">
        <ele>59.400001525879</ele>
        <time>2022-01-09T10:42:00.000Z</time>
      </trkpt>
      <trkpt lat="47.27178" lon="-2.28575">
        <ele>59.400001525879</ele>
        <time>2022-01-09T10:42:01.000Z</time>
      </trkpt>
      <trkpt lat="47.27182" lon="-2.28589">
        <ele>59.400001525879</ele>
        <time>2022-01-09T10:42:04.000Z</time>
      </trkpt>
      <trkpt lat="47.27183" lon="-2.28607">
        <ele>59.400001525879</ele>
        <time>2022-01-09T10:42:09.000Z</time>
      </trkpt>
      <trkpt lat="47.27179" lon="-2.28625">
        <ele>59.400001525879</ele>
        <time>2022-01-09T10:42:13.000Z</time>
      </trkpt>
      <trkpt lat="47.27176" lon="-2.28672">
        <ele>59.400001525879</ele>
        <time>2022-01-09T10:42:20.000Z</time>
      </trkpt>
      <trkpt lat="47.27176" lon="-2.28687">
        <ele>59.400001525879</ele>
        <time>2022-01-09T10:42:22.000Z</time>
      </trkpt>
      <trkpt lat="47.2718" lon="-2.28719">
        <ele>59.400001525879</ele>
        <time>2022-01-09T10:42:25.000Z</time>
      </trkpt>
      <trkpt lat="47.2718" lon="-2.2873">
        <ele>59.400001525879</ele>
        <time>2022-01-09T10:42:26.000Z</time>
      </trkpt>
      <trkpt lat="47.27179" lon="-2.28799">
        <ele>59.400001525879</ele>
        <time>2022-01-09T10:42:33.000Z</time>
      </trkpt>
      <trkpt lat="47.27175" lon="-2.28849">
        <ele>59.400001525879</ele>
        <time>2022-01-09T10:42:39.000Z</time>
      </trkpt>
      <trkpt lat="47.27174" lon="-2.28856">
        <ele>59</ele>
        <time>2022-01-09T10:42:40.000Z</time>
      </trkpt>
      <trkpt lat="47.27174" lon="-2.28864">
        <ele>58.599998474121</ele>
        <time>2022-01-09T10:42:41.000Z</time>
      </trkpt>
      <trkpt lat="47.27173" lon="-2.28871">
        <ele>58.200000762939</ele>
        <time>2022-01-09T10:42:42.000Z</time>
      </trkpt>
      <trkpt lat="47.27173" lon="-2.28878">
        <ele>57.799999237061</ele>
        <time>2022-01-09T10:42:43.000Z</time>
      </trkpt>
      <trkpt lat="47.27172" lon="-2.28886">
        <ele>57.400001525879</ele>
        <time>2022-01-09T10:42:44.000Z</time>
      </trkpt>
      <trkpt lat="47.27172" lon="-2.28903">
        <ele>57.400001525879</ele>
        <time>2022-01-09T10:42:46.000Z</time>
      </trkpt>
      <trkpt lat="47.27172" lon="-2.28912">
        <ele>57.400001525879</ele>
        <time>2022-01-09T10:42:47.000Z</time>
      </trkpt>
      <trkpt lat="47.27172" lon="-2.2893">
        <ele>57.400001525879</ele>
        <time>2022-01-09T10:42:49.000Z</time>
      </trkpt>
      <trkpt lat="47.27177" lon="-2.28958">
        <ele>57.400001525879</ele>
        <time>2022-01-09T10:42:52.000Z</time>
      </trkpt>
      <trkpt lat="47.27181" lon="-2.28984">
        <ele>57.400001525879</ele>
        <time>2022-01-09T10:42:55.000Z</time>
      </trkpt>
      <trkpt lat="47.27182" lon="-2.29">
        <ele>57.400001525879</ele>
        <time>2022-01-09T10:42:57.000Z</time>
      </trkpt>
      <trkpt lat="47.27186" lon="-2.2903">
        <ele>57.400001525879</ele>
        <time>2022-01-09T10:43:01.000Z</time>
      </trkpt>
      <trkpt lat="47.27188" lon="-2.29038">
        <ele>57.400001525879</ele>
        <time>2022-01-09T10:43:02.000Z</time>
      </trkpt>
      <trkpt lat="47.27195" lon="-2.29068">
        <ele>57.400001525879</ele>
        <time>2022-01-09T10:43:07.000Z</time>
      </trkpt>
      <trkpt lat="47.27198" lon="-2.29086">
        <ele>57.400001525879</ele>
        <time>2022-01-09T10:43:11.000Z</time>
      </trkpt>
      <trkpt lat="47.27191" lon="-2.29104">
        <ele>57.400001525879</ele>
        <time>2022-01-09T10:43:14.000Z</time>
      </trkpt>
      <trkpt lat="47.27184" lon="-2.29114">
        <ele>57.400001525879</ele>
        <time>2022-01-09T10:43:16.000Z</time>
      </trkpt>
      <trkpt lat="47.2718" lon="-2.29118">
        <ele>57.400001525879</ele>
        <time>2022-01-09T10:43:17.000Z</time>
      </trkpt>
      <trkpt lat="47.27175" lon="-2.29129">
        <ele>57.400001525879</ele>
        <time>2022-01-09T10:43:19.000Z</time>
      </trkpt>
      <trkpt lat="47.27172" lon="-2.29134">
        <ele>57.400001525879</ele>
        <time>2022-01-09T10:43:20.000Z</time>
      </trkpt>
      <trkpt lat="47.27158" lon="-2.29153">
        <ele>57.400001525879</ele>
        <time>2022-01-09T10:43:24.000Z</time>
      </trkpt>
      <trkpt lat="47.27155" lon="-2.29164">
        <ele>57.400001525879</ele>
        <time>2022-01-09T10:43:26.000Z</time>
      </trkpt>
      <trkpt lat="47.27155" lon="-2.29171">
        <ele>57.400001525879</ele>
        <time>2022-01-09T10:43:27.000Z</time>
      </trkpt>
      <trkpt lat="47.2716" lon="-2.29192">
        <ele>57.400001525879</ele>
        <time>2022-01-09T10:43:30.000Z</time>
      </trkpt>
      <trkpt lat="47.27164" lon="-2.29205">
        <ele>57.400001525879</ele>
        <time>2022-01-09T10:43:32.000Z</time>
      </trkpt>
      <trkpt lat="47.27166" lon="-2.29211">
        <ele>57.400001525879</ele>
        <time>2022-01-09T10:43:33.000Z</time>
      </trkpt>
      <trkpt lat="47.27175" lon="-2.29233">
        <ele>57.400001525879</ele>
        <time>2022-01-09T10:43:37.000Z</time>
      </trkpt>
      <trkpt lat="47.27174" lon="-2.29239">
        <ele>57.400001525879</ele>
        <time>2022-01-09T10:43:38.000Z</time>
      </trkpt>
      <trkpt lat="47.2717" lon="-2.29252">
        <ele>57.400001525879</ele>
        <time>2022-01-09T10:43:40.000Z</time>
      </trkpt>
      <trkpt lat="47.27165" lon="-2.29264">
        <ele>57.400001525879</ele>
        <time>2022-01-09T10:43:42.000Z</time>
      </trkpt>
      <trkpt lat="47.27158" lon="-2.29281">
        <ele>57.400001525879</ele>
        <time>2022-01-09T10:43:45.000Z</time>
      </trkpt>
      <trkpt lat="47.27152" lon="-2.29307">
        <ele>57.400001525879</ele>
        <time>2022-01-09T10:43:50.000Z</time>
      </trkpt>
      <trkpt lat="47.27164" lon="-2.29326">
        <ele>57.400001525879</ele>
        <time>2022-01-09T10:43:54.000Z</time>
      </trkpt>
      <trkpt lat="47.27167" lon="-2.29331">
        <ele>57.400001525879</ele>
        <time>2022-01-09T10:43:55.000Z</time>
      </trkpt>
      <trkpt lat="47.2718" lon="-2.29344">
        <ele>57.400001525879</ele>
        <time>2022-01-09T10:43:58.000Z</time>
      </trkpt>
      <trkpt lat="47.27183" lon="-2.2935">
        <ele>57.400001525879</ele>
        <time>2022-01-09T10:43:59.000Z</time>
      </trkpt>
      <trkpt lat="47.27192" lon="-2.29369">
        <ele>57.400001525879</ele>
        <time>2022-01-09T10:44:02.000Z</time>
      </trkpt>
      <trkpt lat="47.272" lon="-2.2939">
        <ele>57.400001525879</ele>
        <time>2022-01-09T10:44:05.000Z</time>
      </trkpt>
      <trkpt lat="47.27213" lon="-2.29439">
        <ele>57.400001525879</ele>
        <time>2022-01-09T10:44:11.000Z</time>
      </trkpt>
      <trkpt lat="47.27229" lon="-2.29487">
        <ele>57.400001525879</ele>
        <time>2022-01-09T10:44:18.000Z</time>
      </trkpt>
      <trkpt lat="47.27231" lon="-2.29493">
        <ele>57.400001525879</ele>
        <time>2022-01-09T10:44:19.000Z</time>
      </trkpt>
      <trkpt lat="47.2724" lon="-2.29517">
        <ele>57.400001525879</ele>
        <time>2022-01-09T10:44:23.000Z</time>
      </trkpt>
      <trkpt lat="47.27243" lon="-2.29523">
        <ele>57.400001525879</ele>
        <time>2022-01-09T10:44:24.000Z</time>
      </trkpt>
      <trkpt lat="47.27249" lon="-2.29545">
        <ele>57.400001525879</ele>
        <time>2022-01-09T10:44:28.000Z</time>
      </trkpt>
      <trkpt lat="47.27251" lon="-2.29561">
        <ele>57.400001525879</ele>
        <time>2022-01-09T10:44:33.000Z</time>
      </trkpt>
      <trkpt lat="47.27254" lon="-2.29579">
        <ele>57.400001525879</ele>
        <time>2022-01-09T10:44:39.000Z</time>
      </trkpt>
      <trkpt lat="47.27258" lon="-2.296">
        <ele>57.400001525879</ele>
        <time>2022-01-09T10:44:45.000Z</time>
      </trkpt>
      <trkpt lat="47.27261" lon="-2.29619">
        <ele>57.400001525879</ele>
        <time>2022-01-09T10:44:51.000Z</time>
      </trkpt>
      <trkpt lat="47.27266" lon="-2.29636">
        <ele>57.400001525879</ele>
        <time>2022-01-09T10:44:58.000Z</time>
      </trkpt>
      <trkpt lat="47.27267" lon="-2.29657">
        <ele>57.400001525879</ele>
        <time>2022-01-09T10:45:02.000Z</time>
      </trkpt>
      <trkpt lat="47.27274" lon="-2.29689">
        <ele>57.400001525879</ele>
        <time>2022-01-09T10:45:07.000Z</time>
      </trkpt>
      <trkpt lat="47.2728" lon="-2.29716">
        <ele>57.400001525879</ele>
        <time>2022-01-09T10:45:12.000Z</time>
      </trkpt>
      <trkpt lat="47.27287" lon="-2.29743">
        <ele>57.400001525879</ele>
        <time>2022-01-09T10:45:18.000Z</time>
      </trkpt>
      <trkpt lat="47.27295" lon="-2.2977">
        <ele>57.400001525879</ele>
        <time>2022-01-09T10:45:23.000Z</time>
      </trkpt>
      <trkpt lat="47.27305" lon="-2.29794">
        <ele>57.400001525879</ele>
        <time>2022-01-09T10:45:27.000Z</time>
      </trkpt>
      <trkpt lat="47.27308" lon="-2.29799">
        <ele>57.400001525879</ele>
        <time>2022-01-09T10:45:28.000Z</time>
      </trkpt>
      <trkpt lat="47.27329" lon="-2.29831">
        <ele>57.400001525879</ele>
        <time>2022-01-09T10:45:34.000Z</time>
      </trkpt>
      <trkpt lat="47.27333" lon="-2.29838">
        <ele>57</ele>
        <time>2022-01-09T10:45:35.000Z</time>
      </trkpt>
      <trkpt lat="47.27336" lon="-2.29844">
        <ele>56.599998474121</ele>
        <time>2022-01-09T10:45:36.000Z</time>
      </trkpt>
      <trkpt lat="47.2734" lon="-2.29852">
        <ele>56.200000762939</ele>
        <time>2022-01-09T10:45:37.000Z</time>
      </trkpt>
      <trkpt lat="47.27343" lon="-2.29859">
        <ele>55.799999237061</ele>
        <time>2022-01-09T10:45:38.000Z</time>
      </trkpt>
      <trkpt lat="47.27347" lon="-2.29865">
        <ele>55.400001525879</ele>
        <time>2022-01-09T10:45:39.000Z</time>
      </trkpt>
      <trkpt lat="47.27369" lon="-2.29916">
        <ele>55.400001525879</ele>
        <time>2022-01-09T10:45:46.000Z</time>
      </trkpt>
      <trkpt lat="47.27388" lon="-2.29959">
        <ele>55.400001525879</ele>
        <time>2022-01-09T10:45:52.000Z</time>
      </trkpt>
      <trkpt lat="47.27408" lon="-2.30008">
        <ele>55.400001525879</ele>
        <time>2022-01-09T10:45:58.000Z</time>
      </trkpt>
      <trkpt lat="47.27427" lon="-2.30056">
        <ele>55.400001525879</ele>
        <time>2022-01-09T10:46:04.000Z</time>
      </trkpt>
      <trkpt lat="47.27443" lon="-2.30117">
        <ele>55.400001525879</ele>
        <time>2022-01-09T10:46:11.000Z</time>
      </trkpt>
      <trkpt lat="47.27453" lon="-2.30167">
        <ele>55.400001525879</ele>
        <time>2022-01-09T10:46:17.000Z</time>
      </trkpt>
      <trkpt lat="47.27455" lon="-2.30175">
        <ele>55.400001525879</ele>
        <time>2022-01-09T10:46:18.000Z</time>
      </trkpt>
      <trkpt lat="47.27457" lon="-2.30194">
        <ele>55.400001525879</ele>
        <time>2022-01-09T10:46:21.000Z</time>
      </trkpt>
      <trkpt lat="47.27453" lon="-2.30206">
        <ele>55.400001525879</ele>
        <time>2022-01-09T10:46:24.000Z</time>
      </trkpt>
      <trkpt lat="47.27438" lon="-2.30215">
        <ele>55.400001525879</ele>
        <time>2022-01-09T10:46:28.000Z</time>
      </trkpt>
      <trkpt lat="47.27434" lon="-2.30218">
        <ele>55.400001525879</ele>
        <time>2022-01-09T10:46:29.000Z</time>
      </trkpt>
      <trkpt lat="47.27412" lon="-2.3023">
        <ele>55.400001525879</ele>
        <time>2022-01-09T10:46:34.000Z</time>
      </trkpt>
      <trkpt lat="47.27393" lon="-2.30242">
        <ele>55.400001525879</ele>
        <time>2022-01-09T10:46:38.000Z</time>
      </trkpt>
      <trkpt lat="47.27388" lon="-2.30244">
        <ele>55.400001525879</ele>
        <time>2022-01-09T10:46:39.000Z</time>
      </trkpt>
      <trkpt lat="47.27373" lon="-2.3025">
        <ele>55.400001525879</ele>
        <time>2022-01-09T10:46:42.000Z</time>
      </trkpt>
      <trkpt lat="47.27362" lon="-2.30251">
        <ele>55.400001525879</ele>
        <time>2022-01-09T10:46:44.000Z</time>
      </trkpt>
      <trkpt lat="47.27318" lon="-2.30258">
        <ele>55.400001525879</ele>
        <time>2022-01-09T10:46:52.000Z</time>
      </trkpt>
      <trkpt lat="47.27289" lon="-2.30258">
        <ele>55.400001525879</ele>
        <time>2022-01-09T10:46:57.000Z</time>
      </trkpt>
      <trkpt lat="47.27283" lon="-2.30258">
        <ele>55.400001525879</ele>
        <time>2022-01-09T10:46:58.000Z</time>
      </trkpt>
      <trkpt lat="47.27266" lon="-2.30262">
        <ele>55.400001525879</ele>
        <time>2022-01-09T10:47:01.000Z</time>
      </trkpt>
      <trkpt lat="47.27261" lon="-2.30263">
        <ele>55.400001525879</ele>
        <time>2022-01-09T10:47:02.000Z</time>
      </trkpt>
      <trkpt lat="47.27256" lon="-2.30264">
        <ele>55.400001525879</ele>
        <time>2022-01-09T10:47:03.000Z</time>
      </trkpt>
      <trkpt lat="47.27246" lon="-2.30265">
        <ele>55.400001525879</ele>
        <time>2022-01-09T10:47:06.000Z</time>
      </trkpt>
      <trkpt lat="47.27235" lon="-2.3026">
        <ele>55.400001525879</ele>
        <time>2022-01-09T10:47:11.000Z</time>
      </trkpt>
      <trkpt lat="47.27219" lon="-2.30257">
        <ele>55.400001525879</ele>
        <time>2022-01-09T10:47:17.000Z</time>
      </trkpt>
      <trkpt lat="47.27203" lon="-2.30258">
        <ele>55.400001525879</ele>
        <time>2022-01-09T10:47:22.000Z</time>
      </trkpt>
      <trkpt lat="47.27188" lon="-2.30261">
        <ele>55.400001525879</ele>
        <time>2022-01-09T10:47:28.000Z</time>
      </trkpt>
      <trkpt lat="47.27178" lon="-2.30253">
        <ele>55.400001525879</ele>
        <time>2022-01-09T10:47:32.000Z</time>
      </trkpt>
      <trkpt lat="47.27175" lon="-2.30251">
        <ele>55.400001525879</ele>
        <time>2022-01-09T10:47:33.000Z</time>
      </trkpt>
      <trkpt lat="47.27165" lon="-2.30247">
        <ele>55.400001525879</ele>
        <time>2022-01-09T10:47:36.000Z</time>
      </trkpt>
      <trkpt lat="47.27161" lon="-2.30248">
        <ele>55.400001525879</ele>
        <time>2022-01-09T10:47:37.000Z</time>
      </trkpt>
      <trkpt lat="47.27129" lon="-2.30256">
        <ele>55.400001525879</ele>
        <time>2022-01-09T10:47:44.000Z</time>
      </trkpt>
      <trkpt lat="47.271" lon="-2.30264">
        <ele>55.400001525879</ele>
        <time>2022-01-09T10:47:51.000Z</time>
      </trkpt>
      <trkpt lat="47.27081" lon="-2.30285">
        <ele>55.400001525879</ele>
        <time>2022-01-09T10:47:57.000Z</time>
      </trkpt>
      <trkpt lat="47.27075" lon="-2.3031">
        <ele>55.400001525879</ele>
        <time>2022-01-09T10:48:01.000Z</time>
      </trkpt>
      <trkpt lat="47.27067" lon="-2.30348">
        <ele>55.400001525879</ele>
        <time>2022-01-09T10:48:07.000Z</time>
      </trkpt>
      <trkpt lat="47.27058" lon="-2.30397">
        <ele>55.400001525879</ele>
        <time>2022-01-09T10:48:13.000Z</time>
      </trkpt>
      <trkpt lat="47.2705" lon="-2.3045">
        <ele>55.400001525879</ele>
        <time>2022-01-09T10:48:19.000Z</time>
      </trkpt>
      <trkpt lat="47.27039" lon="-2.30495">
        <ele>55.400001525879</ele>
        <time>2022-01-09T10:48:25.000Z</time>
      </trkpt>
      <trkpt lat="47.27025" lon="-2.30544">
        <ele>55.400001525879</ele>
        <time>2022-01-09T10:48:32.000Z</time>
      </trkpt>
      <trkpt lat="47.27023" lon="-2.3055">
        <ele>55.400001525879</ele>
        <time>2022-01-09T10:48:33.000Z</time>
      </trkpt>
      <trkpt lat="47.27007" lon="-2.30591">
        <ele>55.400001525879</ele>
        <time>2022-01-09T10:48:39.000Z</time>
      </trkpt>
      <trkpt lat="47.26988" lon="-2.30607">
        <ele>55.400001525879</ele>
        <time>2022-01-09T10:48:43.000Z</time>
      </trkpt>
      <trkpt lat="47.26954" lon="-2.30622">
        <ele>55.400001525879</ele>
        <time>2022-01-09T10:48:49.000Z</time>
      </trkpt>
      <trkpt lat="47.26926" lon="-2.30631">
        <ele>55.400001525879</ele>
        <time>2022-01-09T10:48:55.000Z</time>
      </trkpt>
      <trkpt lat="47.26917" lon="-2.30636">
        <ele>55.400001525879</ele>
        <time>2022-01-09T10:48:59.000Z</time>
      </trkpt>
      <trkpt lat="47.26907" lon="-2.30649">
        <ele>55.400001525879</ele>
        <time>2022-01-09T10:49:04.000Z</time>
      </trkpt>
      <trkpt lat="47.26899" lon="-2.30663">
        <ele>55.400001525879</ele>
        <time>2022-01-09T10:49:11.000Z</time>
      </trkpt>
      <trkpt lat="47.269" lon="-2.30665">
        <ele>55.400001525879</ele>
        <time>2022-01-09T10:49:12.000Z</time>
      </trkpt>
      <trkpt lat="47.26904" lon="-2.30673">
        <ele>55.400001525879</ele>
        <time>2022-01-09T10:49:16.000Z</time>
      </trkpt>
      <trkpt lat="47.26915" lon="-2.30687">
        <ele>55.400001525879</ele>
        <time>2022-01-09T10:49:21.000Z</time>
      </trkpt>
      <trkpt lat="47.26933" lon="-2.30715">
        <ele>55.400001525879</ele>
        <time>2022-01-09T10:49:28.000Z</time>
      </trkpt>
      <trkpt lat="47.26943" lon="-2.3073">
        <ele>55.400001525879</ele>
        <time>2022-01-09T10:49:31.000Z</time>
      </trkpt>
      <trkpt lat="47.26953" lon="-2.30744">
        <ele>55.400001525879</ele>
        <time>2022-01-09T10:49:34.000Z</time>
      </trkpt>
      <trkpt lat="47.26978" lon="-2.30779">
        <ele>55.400001525879</ele>
        <time>2022-01-09T10:49:41.000Z</time>
      </trkpt>
      <trkpt lat="47.26999" lon="-2.3081">
        <ele>55.400001525879</ele>
        <time>2022-01-09T10:49:47.000Z</time>
      </trkpt>
      <trkpt lat="47.27006" lon="-2.30821">
        <ele>55.400001525879</ele>
        <time>2022-01-09T10:49:49.000Z</time>
      </trkpt>
      <trkpt lat="47.27015" lon="-2.30835">
        <ele>55.400001525879</ele>
        <time>2022-01-09T10:49:52.000Z</time>
      </trkpt>
      <trkpt lat="47.27019" lon="-2.3084">
        <ele>55.400001525879</ele>
        <time>2022-01-09T10:49:53.000Z</time>
      </trkpt>
      <trkpt lat="47.27031" lon="-2.30858">
        <ele>55.400001525879</ele>
        <time>2022-01-09T10:49:56.000Z</time>
      </trkpt>
      <trkpt lat="47.2704" lon="-2.30875">
        <ele>55.400001525879</ele>
        <time>2022-01-09T10:49:59.000Z</time>
      </trkpt>
      <trkpt lat="47.27043" lon="-2.30884">
        <ele>55.400001525879</ele>
        <time>2022-01-09T10:50:01.000Z</time>
      </trkpt>
      <trkpt lat="47.27044" lon="-2.30891">
        <ele>55.400001525879</ele>
        <time>2022-01-09T10:50:03.000Z</time>
      </trkpt>
      <trkpt lat="47.27046" lon="-2.30901">
        <ele>55.400001525879</ele>
        <time>2022-01-09T10:50:06.000Z</time>
      </trkpt>
      <trkpt lat="47.27054" lon="-2.30923">
        <ele>55.400001525879</ele>
        <time>2022-01-09T10:50:12.000Z</time>
      </trkpt>
      <trkpt lat="47.27056" lon="-2.30946">
        <ele>55.400001525879</ele>
        <time>2022-01-09T10:50:17.000Z</time>
      </trkpt>
      <trkpt lat="47.27061" lon="-2.30974">
        <ele>55.400001525879</ele>
        <time>2022-01-09T10:50:23.000Z</time>
      </trkpt>
      <trkpt lat="47.27061" lon="-2.30978">
        <ele>55.400001525879</ele>
        <time>2022-01-09T10:50:24.000Z</time>
      </trkpt>
      <trkpt lat="47.2706" lon="-2.30989">
        <ele>55.400001525879</ele>
        <time>2022-01-09T10:50:27.000Z</time>
      </trkpt>
      <trkpt lat="47.27058" lon="-2.30995">
        <ele>55.400001525879</ele>
        <time>2022-01-09T10:50:29.000Z</time>
      </trkpt>
      <trkpt lat="47.27048" lon="-2.31006">
        <ele>55.400001525879</ele>
        <time>2022-01-09T10:50:32.000Z</time>
      </trkpt>
      <trkpt lat="47.27023" lon="-2.31027">
        <ele>55.400001525879</ele>
        <time>2022-01-09T10:50:38.000Z</time>
      </trkpt>
      <trkpt lat="47.27004" lon="-2.31045">
        <ele>55.400001525879</ele>
        <time>2022-01-09T10:50:43.000Z</time>
      </trkpt>
      <trkpt lat="47.27" lon="-2.31054">
        <ele>55.400001525879</ele>
        <time>2022-01-09T10:50:45.000Z</time>
      </trkpt>
      <trkpt lat="47.26999" lon="-2.31066">
        <ele>55.400001525879</ele>
        <time>2022-01-09T10:50:47.000Z</time>
      </trkpt>
      <trkpt lat="47.27" lon="-2.31117">
        <ele>55.400001525879</ele>
        <time>2022-01-09T10:50:54.000Z</time>
      </trkpt>
      <trkpt lat="47.26994" lon="-2.31158">
        <ele>55.400001525879</ele>
        <time>2022-01-09T10:51:00.000Z</time>
      </trkpt>
      <trkpt lat="47.26982" lon="-2.31219">
        <ele>55.400001525879</ele>
        <time>2022-01-09T10:51:09.000Z</time>
      </trkpt>
      <trkpt lat="47.26979" lon="-2.31259">
        <ele>55.400001525879</ele>
        <time>2022-01-09T10:51:16.000Z</time>
      </trkpt>
      <trkpt lat="47.26977" lon="-2.31275">
        <ele>55.400001525879</ele>
        <time>2022-01-09T10:51:21.000Z</time>
      </trkpt>
      <trkpt lat="47.26976" lon="-2.3129">
        <ele>55.400001525879</ele>
        <time>2022-01-09T10:51:27.000Z</time>
      </trkpt>
      <trkpt lat="47.26979" lon="-2.31312">
        <ele>55.400001525879</ele>
        <time>2022-01-09T10:51:33.000Z</time>
      </trkpt>
      <trkpt lat="47.26982" lon="-2.31327">
        <ele>55</ele>
        <time>2022-01-09T10:51:36.000Z</time>
      </trkpt>
      <trkpt lat="47.26982" lon="-2.31332">
        <ele>54.599998474121</ele>
        <time>2022-01-09T10:51:37.000Z</time>
      </trkpt>
      <trkpt lat="47.26982" lon="-2.31338">
        <ele>54.200000762939</ele>
        <time>2022-01-09T10:51:38.000Z</time>
      </trkpt>
      <trkpt lat="47.26983" lon="-2.31343">
        <ele>53.799999237061</ele>
        <time>2022-01-09T10:51:39.000Z</time>
      </trkpt>
      <trkpt lat="47.26983" lon="-2.3135">
        <ele>53.400001525879</ele>
        <time>2022-01-09T10:51:40.000Z</time>
      </trkpt>
      <trkpt lat="47.26984" lon="-2.31383">
        <ele>53.400001525879</ele>
        <time>2022-01-09T10:51:44.000Z</time>
      </trkpt>
      <trkpt lat="47.26984" lon="-2.31392">
        <ele>53.400001525879</ele>
        <time>2022-01-09T10:51:45.000Z</time>
      </trkpt>
      <trkpt lat="47.26987" lon="-2.31418">
        <ele>53.400001525879</ele>
        <time>2022-01-09T10:51:48.000Z</time>
      </trkpt>
      <trkpt lat="47.26989" lon="-2.3145">
        <ele>53.400001525879</ele>
        <time>2022-01-09T10:51:52.000Z</time>
      </trkpt>
      <trkpt lat="47.26991" lon="-2.31465">
        <ele>53.400001525879</ele>
        <time>2022-01-09T10:51:54.000Z</time>
      </trkpt>
      <trkpt lat="47.27002" lon="-2.31522">
        <ele>53.400001525879</ele>
        <time>2022-01-09T10:52:01.000Z</time>
      </trkpt>
      <trkpt lat="47.27014" lon="-2.31556">
        <ele>53.400001525879</ele>
        <time>2022-01-09T10:52:05.000Z</time>
      </trkpt>
      <trkpt lat="47.2702" lon="-2.31571">
        <ele>53.400001525879</ele>
        <time>2022-01-09T10:52:07.000Z</time>
      </trkpt>
      <trkpt lat="47.27022" lon="-2.31578">
        <ele>53.400001525879</ele>
        <time>2022-01-09T10:52:08.000Z</time>
      </trkpt>
      <trkpt lat="47.27026" lon="-2.31601">
        <ele>53.400001525879</ele>
        <time>2022-01-09T10:52:11.000Z</time>
      </trkpt>
      <trkpt lat="47.27027" lon="-2.31609">
        <ele>53.400001525879</ele>
        <time>2022-01-09T10:52:12.000Z</time>
      </trkpt>
      <trkpt lat="47.2703" lon="-2.31654">
        <ele>53.400001525879</ele>
        <time>2022-01-09T10:52:17.000Z</time>
      </trkpt>
      <trkpt lat="47.27028" lon="-2.31681">
        <ele>53.400001525879</ele>
        <time>2022-01-09T10:52:21.000Z</time>
      </trkpt>
      <trkpt lat="47.27027" lon="-2.31687">
        <ele>53.400001525879</ele>
        <time>2022-01-09T10:52:25.000Z</time>
      </trkpt>
      <trkpt lat="47.27027" lon="-2.31687">
        <ele>53.400001525879</ele>
        <time>2022-01-09T10:52:26.000Z</time>
      </trkpt>
      <trkpt lat="47.27029" lon="-2.31692">
        <ele>52.200000762939</ele>
        <time>2022-01-09T10:52:32.000Z</time>
      </trkpt>
      <trkpt lat="47.27032" lon="-2.31697">
        <ele>51.799999237061</ele>
        <time>2022-01-09T10:52:33.000Z</time>
      </trkpt>
      <trkpt lat="47.27035" lon="-2.31701">
        <ele>51.400001525879</ele>
        <time>2022-01-09T10:52:34.000Z</time>
      </trkpt>
      <trkpt lat="47.27053" lon="-2.31719">
        <ele>51.400001525879</ele>
        <time>2022-01-09T10:52:39.000Z</time>
      </trkpt>
      <trkpt lat="47.27054" lon="-2.31726">
        <ele>51.400001525879</ele>
        <time>2022-01-09T10:52:40.000Z</time>
      </trkpt>
      <trkpt lat="47.27053" lon="-2.31738">
        <ele>51.400001525879</ele>
        <time>2022-01-09T10:52:43.000Z</time>
      </trkpt>
      <trkpt lat="47.27054" lon="-2.31754">
        <ele>51</ele>
        <time>2022-01-09T10:52:46.000Z</time>
      </trkpt>
      <trkpt lat="47.27055" lon="-2.31759">
        <ele>50.599998474121</ele>
        <time>2022-01-09T10:52:47.000Z</time>
      </trkpt>
      <trkpt lat="47.27056" lon="-2.31764">
        <ele>50.200000762939</ele>
        <time>2022-01-09T10:52:48.000Z</time>
      </trkpt>
      <trkpt lat="47.27057" lon="-2.3177">
        <ele>49.799999237061</ele>
        <time>2022-01-09T10:52:49.000Z</time>
      </trkpt>
      <trkpt lat="47.27057" lon="-2.31777">
        <ele>49.400001525879</ele>
        <time>2022-01-09T10:52:50.000Z</time>
      </trkpt>
      <trkpt lat="47.27058" lon="-2.31793">
        <ele>49.400001525879</ele>
        <time>2022-01-09T10:52:52.000Z</time>
      </trkpt>
      <trkpt lat="47.27061" lon="-2.3182">
        <ele>49.400001525879</ele>
        <time>2022-01-09T10:52:56.000Z</time>
      </trkpt>
      <trkpt lat="47.27062" lon="-2.3183">
        <ele>49.400001525879</ele>
        <time>2022-01-09T10:52:58.000Z</time>
      </trkpt>
      <trkpt lat="47.27067" lon="-2.31846">
        <ele>49.400001525879</ele>
        <time>2022-01-09T10:53:02.000Z</time>
      </trkpt>
      <trkpt lat="47.27069" lon="-2.31848">
        <ele>49.400001525879</ele>
        <time>2022-01-09T10:53:03.000Z</time>
      </trkpt>
      <trkpt lat="47.27075" lon="-2.31851">
        <ele>49.400001525879</ele>
        <time>2022-01-09T10:53:06.000Z</time>
      </trkpt>
      <trkpt lat="47.27078" lon="-2.31855">
        <ele>48.799999237061</ele>
        <time>2022-01-09T10:53:08.000Z</time>
      </trkpt>
      <trkpt lat="47.27078" lon="-2.31857">
        <ele>48.400001525879</ele>
        <time>2022-01-09T10:53:09.000Z</time>
      </trkpt>
      <trkpt lat="47.27077" lon="-2.3186">
        <ele>48</ele>
        <time>2022-01-09T10:53:10.000Z</time>
      </trkpt>
      <trkpt lat="47.27077" lon="-2.31862">
        <ele>47.599998474121</ele>
        <time>2022-01-09T10:53:11.000Z</time>
      </trkpt>
      <trkpt lat="47.27076" lon="-2.31865">
        <ele>47.200000762939</ele>
        <time>2022-01-09T10:53:12.000Z</time>
      </trkpt>
      <trkpt lat="47.27073" lon="-2.31877">
        <ele>47.200000762939</ele>
        <time>2022-01-09T10:53:17.000Z</time>
      </trkpt>
      <trkpt lat="47.27074" lon="-2.31896">
        <ele>47.200000762939</ele>
        <time>2022-01-09T10:53:22.000Z</time>
      </trkpt>
      <trkpt lat="47.27075" lon="-2.31917">
        <ele>47.200000762939</ele>
        <time>2022-01-09T10:53:27.000Z</time>
      </trkpt>
      <trkpt lat="47.27074" lon="-2.31935">
        <ele>47.200000762939</ele>
        <time>2022-01-09T10:53:31.000Z</time>
      </trkpt>
      <trkpt lat="47.27072" lon="-2.31936">
        <ele>47.200000762939</ele>
        <time>2022-01-09T10:53:32.000Z</time>
      </trkpt>
      <trkpt lat="47.27062" lon="-2.31941">
        <ele>47.200000762939</ele>
        <time>2022-01-09T10:53:36.000Z</time>
      </trkpt>
      <trkpt lat="47.27059" lon="-2.31942">
        <ele>47.200000762939</ele>
        <time>2022-01-09T10:53:37.000Z</time>
      </trkpt>
      <trkpt lat="47.27049" lon="-2.31943">
        <ele>46.799999237061</ele>
        <time>2022-01-09T10:53:41.000Z</time>
      </trkpt>
      <trkpt lat="47.27046" lon="-2.31944">
        <ele>46.400001525879</ele>
        <time>2022-01-09T10:53:42.000Z</time>
      </trkpt>
      <trkpt lat="47.27043" lon="-2.31946">
        <ele>46</ele>
        <time>2022-01-09T10:53:43.000Z</time>
      </trkpt>
      <trkpt lat="47.27041" lon="-2.31948">
        <ele>45.599998474121</ele>
        <time>2022-01-09T10:53:44.000Z</time>
      </trkpt>
      <trkpt lat="47.27039" lon="-2.3195">
        <ele>45.200000762939</ele>
        <time>2022-01-09T10:53:45.000Z</time>
      </trkpt>
      <trkpt lat="47.27032" lon="-2.31955">
        <ele>45.200000762939</ele>
        <time>2022-01-09T10:53:48.000Z</time>
      </trkpt>
      <trkpt lat="47.27018" lon="-2.31965">
        <ele>45.200000762939</ele>
        <time>2022-01-09T10:53:52.000Z</time>
      </trkpt>
      <trkpt lat="47.27012" lon="-2.31972">
        <ele>45.200000762939</ele>
        <time>2022-01-09T10:53:54.000Z</time>
      </trkpt>
      <trkpt lat="47.27011" lon="-2.31981">
        <ele>45.200000762939</ele>
        <time>2022-01-09T10:53:56.000Z</time>
      </trkpt>
      <trkpt lat="47.27012" lon="-2.31991">
        <ele>45.200000762939</ele>
        <time>2022-01-09T10:53:58.000Z</time>
      </trkpt>
      <trkpt lat="47.27016" lon="-2.32005">
        <ele>45.200000762939</ele>
        <time>2022-01-09T10:54:01.000Z</time>
      </trkpt>
      <trkpt lat="47.27019" lon="-2.32018">
        <ele>45.200000762939</ele>
        <time>2022-01-09T10:54:03.000Z</time>
      </trkpt>
      <trkpt lat="47.27019" lon="-2.32033">
        <ele>45.200000762939</ele>
        <time>2022-01-09T10:54:05.000Z</time>
      </trkpt>
      <trkpt lat="47.27018" lon="-2.32057">
        <ele>45.200000762939</ele>
        <time>2022-01-09T10:54:08.000Z</time>
      </trkpt>
      <trkpt lat="47.27017" lon="-2.32073">
        <ele>45.200000762939</ele>
        <time>2022-01-09T10:54:10.000Z</time>
      </trkpt>
      <trkpt lat="47.27011" lon="-2.32096">
        <ele>44.799999237061</ele>
        <time>2022-01-09T10:54:13.000Z</time>
      </trkpt>
      <trkpt lat="47.27008" lon="-2.32102">
        <ele>44.200000762939</ele>
        <time>2022-01-09T10:54:14.000Z</time>
      </trkpt>
      <trkpt lat="47.27005" lon="-2.32107">
        <ele>43.799999237061</ele>
        <time>2022-01-09T10:54:15.000Z</time>
      </trkpt>
      <trkpt lat="47.27" lon="-2.32111">
        <ele>43.400001525879</ele>
        <time>2022-01-09T10:54:16.000Z</time>
      </trkpt>
      <trkpt lat="47.26995" lon="-2.32117">
        <ele>43</ele>
        <time>2022-01-09T10:54:17.000Z</time>
      </trkpt>
      <trkpt lat="47.26991" lon="-2.32124">
        <ele>43</ele>
        <time>2022-01-09T10:54:18.000Z</time>
      </trkpt>
      <trkpt lat="47.2699" lon="-2.32132">
        <ele>43</ele>
        <time>2022-01-09T10:54:19.000Z</time>
      </trkpt>
      <trkpt lat="47.26995" lon="-2.32147">
        <ele>43</ele>
        <time>2022-01-09T10:54:21.000Z</time>
      </trkpt>
      <trkpt lat="47.27004" lon="-2.3216">
        <ele>43</ele>
        <time>2022-01-09T10:54:23.000Z</time>
      </trkpt>
      <trkpt lat="47.27014" lon="-2.32179">
        <ele>43</ele>
        <time>2022-01-09T10:54:26.000Z</time>
      </trkpt>
      <trkpt lat="47.27016" lon="-2.32185">
        <ele>43</ele>
        <time>2022-01-09T10:54:27.000Z</time>
      </trkpt>
      <trkpt lat="47.27021" lon="-2.32204">
        <ele>43</ele>
        <time>2022-01-09T10:54:30.000Z</time>
      </trkpt>
      <trkpt lat="47.27022" lon="-2.3221">
        <ele>43</ele>
        <time>2022-01-09T10:54:31.000Z</time>
      </trkpt>
      <trkpt lat="47.27022" lon="-2.3223">
        <ele>43</ele>
        <time>2022-01-09T10:54:34.000Z</time>
      </trkpt>
      <trkpt lat="47.27022" lon="-2.32238">
        <ele>43</ele>
        <time>2022-01-09T10:54:35.000Z</time>
      </trkpt>
      <trkpt lat="47.2702" lon="-2.32287">
        <ele>43</ele>
        <time>2022-01-09T10:54:41.000Z</time>
      </trkpt>
      <trkpt lat="47.27022" lon="-2.32323">
        <ele>43</ele>
        <time>2022-01-09T10:54:46.000Z</time>
      </trkpt>
      <trkpt lat="47.27028" lon="-2.32362">
        <ele>43</ele>
        <time>2022-01-09T10:54:52.000Z</time>
      </trkpt>
      <trkpt lat="47.27029" lon="-2.32391">
        <ele>42.599998474121</ele>
        <time>2022-01-09T10:54:56.000Z</time>
      </trkpt>
      <trkpt lat="47.2703" lon="-2.324">
        <ele>42.200000762939</ele>
        <time>2022-01-09T10:54:57.000Z</time>
      </trkpt>
      <trkpt lat="47.2703" lon="-2.32409">
        <ele>41.799999237061</ele>
        <time>2022-01-09T10:54:58.000Z</time>
      </trkpt>
      <trkpt lat="47.27031" lon="-2.32418">
        <ele>41.400001525879</ele>
        <time>2022-01-09T10:54:59.000Z</time>
      </trkpt>
      <trkpt lat="47.2703" lon="-2.32427">
        <ele>41</ele>
        <time>2022-01-09T10:55:00.000Z</time>
      </trkpt>
      <trkpt lat="47.2703" lon="-2.32467">
        <ele>41</ele>
        <time>2022-01-09T10:55:05.000Z</time>
      </trkpt>
      <trkpt lat="47.27028" lon="-2.32474">
        <ele>41</ele>
        <time>2022-01-09T10:55:06.000Z</time>
      </trkpt>
      <trkpt lat="47.27025" lon="-2.32485">
        <ele>41</ele>
        <time>2022-01-09T10:55:08.000Z</time>
      </trkpt>
      <trkpt lat="47.27015" lon="-2.32493">
        <ele>41</ele>
        <time>2022-01-09T10:55:11.000Z</time>
      </trkpt>
      <trkpt lat="47.27" lon="-2.32485">
        <ele>41</ele>
        <time>2022-01-09T10:55:15.000Z</time>
      </trkpt>
      <trkpt lat="47.26998" lon="-2.3248">
        <ele>41</ele>
        <time>2022-01-09T10:55:16.000Z</time>
      </trkpt>
      <trkpt lat="47.26993" lon="-2.32471">
        <ele>41</ele>
        <time>2022-01-09T10:55:18.000Z</time>
      </trkpt>
      <trkpt lat="47.26985" lon="-2.32457">
        <ele>41</ele>
        <time>2022-01-09T10:55:21.000Z</time>
      </trkpt>
      <trkpt lat="47.26982" lon="-2.32452">
        <ele>41</ele>
        <time>2022-01-09T10:55:22.000Z</time>
      </trkpt>
      <trkpt lat="47.26968" lon="-2.32435">
        <ele>41</ele>
        <time>2022-01-09T10:55:26.000Z</time>
      </trkpt>
      <trkpt lat="47.26959" lon="-2.32422">
        <ele>41</ele>
        <time>2022-01-09T10:55:29.000Z</time>
      </trkpt>
      <trkpt lat="47.26948" lon="-2.32401">
        <ele>41</ele>
        <time>2022-01-09T10:55:33.000Z</time>
      </trkpt>
      <trkpt lat="47.26946" lon="-2.32395">
        <ele>40.599998474121</ele>
        <time>2022-01-09T10:55:34.000Z</time>
      </trkpt>
      <trkpt lat="47.26944" lon="-2.32388">
        <ele>40.200000762939</ele>
        <time>2022-01-09T10:55:35.000Z</time>
      </trkpt>
      <trkpt lat="47.26942" lon="-2.32382">
        <ele>39.799999237061</ele>
        <time>2022-01-09T10:55:36.000Z</time>
      </trkpt>
      <trkpt lat="47.2694" lon="-2.32376">
        <ele>39.400001525879</ele>
        <time>2022-01-09T10:55:37.000Z</time>
      </trkpt>
      <trkpt lat="47.26939" lon="-2.32369">
        <ele>39</ele>
        <time>2022-01-09T10:55:38.000Z</time>
      </trkpt>
      <trkpt lat="47.26935" lon="-2.32357">
        <ele>39</ele>
        <time>2022-01-09T10:55:40.000Z</time>
      </trkpt>
      <trkpt lat="47.2693" lon="-2.32346">
        <ele>39</ele>
        <time>2022-01-09T10:55:42.000Z</time>
      </trkpt>
      <trkpt lat="47.26921" lon="-2.32335">
        <ele>39</ele>
        <time>2022-01-09T10:55:45.000Z</time>
      </trkpt>
      <trkpt lat="47.26907" lon="-2.32335">
        <ele>39</ele>
        <time>2022-01-09T10:55:49.000Z</time>
      </trkpt>
      <trkpt lat="47.26882" lon="-2.32341">
        <ele>39</ele>
        <time>2022-01-09T10:55:56.000Z</time>
      </trkpt>
      <trkpt lat="47.26853" lon="-2.32348">
        <ele>39</ele>
        <time>2022-01-09T10:56:04.000Z</time>
      </trkpt>
      <trkpt lat="47.2683" lon="-2.32353">
        <ele>39</ele>
        <time>2022-01-09T10:56:11.000Z</time>
      </trkpt>
      <trkpt lat="47.26808" lon="-2.32358">
        <ele>39</ele>
        <time>2022-01-09T10:56:19.000Z</time>
      </trkpt>
      <trkpt lat="47.26788" lon="-2.32365">
        <ele>39</ele>
        <time>2022-01-09T10:56:26.000Z</time>
      </trkpt>
      <trkpt lat="47.2678" lon="-2.32375">
        <ele>39</ele>
        <time>2022-01-09T10:56:30.000Z</time>
      </trkpt>
      <trkpt lat="47.26779" lon="-2.32379">
        <ele>39</ele>
        <time>2022-01-09T10:56:31.000Z</time>
      </trkpt>
      <trkpt lat="47.26779" lon="-2.32387">
        <ele>38.599998474121</ele>
        <time>2022-01-09T10:56:33.000Z</time>
      </trkpt>
      <trkpt lat="47.26779" lon="-2.32392">
        <ele>38.200000762939</ele>
        <time>2022-01-09T10:56:34.000Z</time>
      </trkpt>
      <trkpt lat="47.2678" lon="-2.32397">
        <ele>37.799999237061</ele>
        <time>2022-01-09T10:56:35.000Z</time>
      </trkpt>
      <trkpt lat="47.26781" lon="-2.32402">
        <ele>37.400001525879</ele>
        <time>2022-01-09T10:56:36.000Z</time>
      </trkpt>
      <trkpt lat="47.26781" lon="-2.32407">
        <ele>37</ele>
        <time>2022-01-09T10:56:37.000Z</time>
      </trkpt>
      <trkpt lat="47.26787" lon="-2.32445">
        <ele>37</ele>
        <time>2022-01-09T10:56:43.000Z</time>
      </trkpt>
      <trkpt lat="47.26794" lon="-2.32498">
        <ele>37</ele>
        <time>2022-01-09T10:56:50.000Z</time>
      </trkpt>
      <trkpt lat="47.26796" lon="-2.32513">
        <ele>37</ele>
        <time>2022-01-09T10:56:52.000Z</time>
      </trkpt>
      <trkpt lat="47.26798" lon="-2.32538">
        <ele>37</ele>
        <time>2022-01-09T10:56:55.000Z</time>
      </trkpt>
      <trkpt lat="47.268" lon="-2.32578">
        <ele>37</ele>
        <time>2022-01-09T10:57:00.000Z</time>
      </trkpt>
      <trkpt lat="47.26802" lon="-2.32592">
        <ele>37</ele>
        <time>2022-01-09T10:57:02.000Z</time>
      </trkpt>
      <trkpt lat="47.26805" lon="-2.32613">
        <ele>37</ele>
        <time>2022-01-09T10:57:05.000Z</time>
      </trkpt>
      <trkpt lat="47.26807" lon="-2.32633">
        <ele>37</ele>
        <time>2022-01-09T10:57:08.000Z</time>
      </trkpt>
      <trkpt lat="47.26808" lon="-2.32653">
        <ele>37</ele>
        <time>2022-01-09T10:57:11.000Z</time>
      </trkpt>
      <trkpt lat="47.26803" lon="-2.3267">
        <ele>37</ele>
        <time>2022-01-09T10:57:14.000Z</time>
      </trkpt>
      <trkpt lat="47.268" lon="-2.32675">
        <ele>37</ele>
        <time>2022-01-09T10:57:15.000Z</time>
      </trkpt>
      <trkpt lat="47.268" lon="-2.32682">
        <ele>37</ele>
        <time>2022-01-09T10:57:16.000Z</time>
      </trkpt>
      <trkpt lat="47.26802" lon="-2.32697">
        <ele>37</ele>
        <time>2022-01-09T10:57:18.000Z</time>
      </trkpt>
      <trkpt lat="47.26813" lon="-2.32723">
        <ele>37</ele>
        <time>2022-01-09T10:57:22.000Z</time>
      </trkpt>
      <trkpt lat="47.26834" lon="-2.32771">
        <ele>36.400001525879</ele>
        <time>2022-01-09T10:57:28.000Z</time>
      </trkpt>
      <trkpt lat="47.26837" lon="-2.32782">
        <ele>36</ele>
        <time>2022-01-09T10:57:29.000Z</time>
      </trkpt>
      <trkpt lat="47.2684" lon="-2.32793">
        <ele>35.599998474121</ele>
        <time>2022-01-09T10:57:30.000Z</time>
      </trkpt>
      <trkpt lat="47.26842" lon="-2.32804">
        <ele>35.200000762939</ele>
        <time>2022-01-09T10:57:31.000Z</time>
      </trkpt>
      <trkpt lat="47.26845" lon="-2.32814">
        <ele>34.799999237061</ele>
        <time>2022-01-09T10:57:32.000Z</time>
      </trkpt>
      <trkpt lat="47.26849" lon="-2.32823">
        <ele>34.799999237061</ele>
        <time>2022-01-09T10:57:33.000Z</time>
      </trkpt>
      <trkpt lat="47.26859" lon="-2.3285">
        <ele>34.799999237061</ele>
        <time>2022-01-09T10:57:36.000Z</time>
      </trkpt>
      <trkpt lat="47.26864" lon="-2.32865">
        <ele>34.799999237061</ele>
        <time>2022-01-09T10:57:38.000Z</time>
      </trkpt>
      <trkpt lat="47.26863" lon="-2.32877">
        <ele>34.799999237061</ele>
        <time>2022-01-09T10:57:40.000Z</time>
      </trkpt>
      <trkpt lat="47.26853" lon="-2.32882">
        <ele>34.799999237061</ele>
        <time>2022-01-09T10:57:43.000Z</time>
      </trkpt>
      <trkpt lat="47.26848" lon="-2.32884">
        <ele>34.799999237061</ele>
        <time>2022-01-09T10:57:44.000Z</time>
      </trkpt>
      <trkpt lat="47.26843" lon="-2.32886">
        <ele>34.799999237061</ele>
        <time>2022-01-09T10:57:45.000Z</time>
      </trkpt>
      <trkpt lat="47.26834" lon="-2.32892">
        <ele>34.799999237061</ele>
        <time>2022-01-09T10:57:47.000Z</time>
      </trkpt>
      <trkpt lat="47.26824" lon="-2.32901">
        <ele>34.799999237061</ele>
        <time>2022-01-09T10:57:49.000Z</time>
      </trkpt>
      <trkpt lat="47.26809" lon="-2.32915">
        <ele>34.799999237061</ele>
        <time>2022-01-09T10:57:52.000Z</time>
      </trkpt>
      <trkpt lat="47.26794" lon="-2.32924">
        <ele>34.799999237061</ele>
        <time>2022-01-09T10:57:55.000Z</time>
      </trkpt>
      <trkpt lat="47.26783" lon="-2.32936">
        <ele>34.799999237061</ele>
        <time>2022-01-09T10:57:57.000Z</time>
      </trkpt>
      <trkpt lat="47.26751" lon="-2.32972">
        <ele>34.799999237061</ele>
        <time>2022-01-09T10:58:03.000Z</time>
      </trkpt>
      <trkpt lat="47.26739" lon="-2.32993">
        <ele>34.799999237061</ele>
        <time>2022-01-09T10:58:06.000Z</time>
      </trkpt>
      <trkpt lat="47.26737" lon="-2.33001">
        <ele>34.799999237061</ele>
        <time>2022-01-09T10:58:07.000Z</time>
      </trkpt>
      <trkpt lat="47.26735" lon="-2.33016">
        <ele>34.799999237061</ele>
        <time>2022-01-09T10:58:09.000Z</time>
      </trkpt>
      <trkpt lat="47.26735" lon="-2.3303">
        <ele>34.400001525879</ele>
        <time>2022-01-09T10:58:11.000Z</time>
      </trkpt>
      <trkpt lat="47.26734" lon="-2.33036">
        <ele>34</ele>
        <time>2022-01-09T10:58:12.000Z</time>
      </trkpt>
      <trkpt lat="47.26732" lon="-2.33043">
        <ele>33.599998474121</ele>
        <time>2022-01-09T10:58:13.000Z</time>
      </trkpt>
      <trkpt lat="47.2673" lon="-2.3305">
        <ele>33.200000762939</ele>
        <time>2022-01-09T10:58:14.000Z</time>
      </trkpt>
      <trkpt lat="47.26728" lon="-2.33057">
        <ele>32.799999237061</ele>
        <time>2022-01-09T10:58:15.000Z</time>
      </trkpt>
      <trkpt lat="47.26712" lon="-2.33081">
        <ele>32.799999237061</ele>
        <time>2022-01-09T10:58:19.000Z</time>
      </trkpt>
      <trkpt lat="47.26688" lon="-2.33107">
        <ele>32.799999237061</ele>
        <time>2022-01-09T10:58:24.000Z</time>
      </trkpt>
      <trkpt lat="47.2668" lon="-2.33116">
        <ele>32.799999237061</ele>
        <time>2022-01-09T10:58:26.000Z</time>
      </trkpt>
      <trkpt lat="47.26671" lon="-2.33124">
        <ele>32.799999237061</ele>
        <time>2022-01-09T10:58:28.000Z</time>
      </trkpt>
      <trkpt lat="47.26658" lon="-2.33133">
        <ele>32.799999237061</ele>
        <time>2022-01-09T10:58:31.000Z</time>
      </trkpt>
      <trkpt lat="47.26646" lon="-2.33144">
        <ele>32.799999237061</ele>
        <time>2022-01-09T10:58:34.000Z</time>
      </trkpt>
      <trkpt lat="47.26637" lon="-2.3315">
        <ele>32.799999237061</ele>
        <time>2022-01-09T10:58:36.000Z</time>
      </trkpt>
      <trkpt lat="47.26619" lon="-2.3315">
        <ele>32.799999237061</ele>
        <time>2022-01-09T10:58:40.000Z</time>
      </trkpt>
      <trkpt lat="47.26614" lon="-2.3315">
        <ele>32.799999237061</ele>
        <time>2022-01-09T10:58:41.000Z</time>
      </trkpt>
      <trkpt lat="47.26607" lon="-2.33161">
        <ele>32.799999237061</ele>
        <time>2022-01-09T10:58:43.000Z</time>
      </trkpt>
      <trkpt lat="47.26591" lon="-2.332">
        <ele>32.799999237061</ele>
        <time>2022-01-09T10:58:50.000Z</time>
      </trkpt>
      <trkpt lat="47.26585" lon="-2.33206">
        <ele>32.799999237061</ele>
        <time>2022-01-09T10:58:53.000Z</time>
      </trkpt>
      <trkpt lat="47.26573" lon="-2.33212">
        <ele>32.400001525879</ele>
        <time>2022-01-09T10:58:56.000Z</time>
      </trkpt>
      <trkpt lat="47.26569" lon="-2.33215">
        <ele>32</ele>
        <time>2022-01-09T10:58:57.000Z</time>
      </trkpt>
      <trkpt lat="47.26565" lon="-2.33218">
        <ele>31.60000038147</ele>
        <time>2022-01-09T10:58:58.000Z</time>
      </trkpt>
      <trkpt lat="47.2656" lon="-2.33221">
        <ele>31.200000762939</ele>
        <time>2022-01-09T10:58:59.000Z</time>
      </trkpt>
      <trkpt lat="47.26555" lon="-2.33224">
        <ele>30.799999237061</ele>
        <time>2022-01-09T10:59:00.000Z</time>
      </trkpt>
      <trkpt lat="47.26539" lon="-2.33235">
        <ele>30.799999237061</ele>
        <time>2022-01-09T10:59:04.000Z</time>
      </trkpt>
      <trkpt lat="47.26522" lon="-2.33246">
        <ele>30.799999237061</ele>
        <time>2022-01-09T10:59:09.000Z</time>
      </trkpt>
      <trkpt lat="47.26508" lon="-2.33257">
        <ele>30.799999237061</ele>
        <time>2022-01-09T10:59:16.000Z</time>
      </trkpt>
      <trkpt lat="47.26506" lon="-2.33258">
        <ele>30.799999237061</ele>
        <time>2022-01-09T10:59:19.000Z</time>
      </trkpt>
      <trkpt lat="47.26501" lon="-2.3326">
        <ele>16.200000762939</ele>
        <time>2022-01-09T11:01:27.000Z</time>
      </trkpt>
      <trkpt lat="47.265" lon="-2.33262">
        <ele>16.200000762939</ele>
        <time>2022-01-09T11:01:28.000Z</time>
      </trkpt>
      <trkpt lat="47.26498" lon="-2.33268">
        <ele>15.800000190735</ele>
        <time>2022-01-09T11:01:31.000Z</time>
      </trkpt>
      <trkpt lat="47.26497" lon="-2.33271">
        <ele>15.39999961853</ele>
        <time>2022-01-09T11:01:32.000Z</time>
      </trkpt>
      <trkpt lat="47.26496" lon="-2.33273">
        <ele>15</ele>
        <time>2022-01-09T11:01:33.000Z</time>
      </trkpt>
      <trkpt lat="47.26495" lon="-2.33275">
        <ele>14.60000038147</ele>
        <time>2022-01-09T11:01:34.000Z</time>
      </trkpt>
      <trkpt lat="47.26493" lon="-2.33277">
        <ele>14.199999809265</ele>
        <time>2022-01-09T11:01:35.000Z</time>
      </trkpt>
      <trkpt lat="47.26491" lon="-2.33279">
        <ele>14.199999809265</ele>
        <time>2022-01-09T11:01:36.000Z</time>
      </trkpt>
      <trkpt lat="47.26485" lon="-2.33283">
        <ele>14.199999809265</ele>
        <time>2022-01-09T11:01:39.000Z</time>
      </trkpt>
      <trkpt lat="47.26473" lon="-2.33303">
        <ele>14.199999809265</ele>
        <time>2022-01-09T11:01:44.000Z</time>
      </trkpt>
      <trkpt lat="47.26463" lon="-2.33311">
        <ele>14.199999809265</ele>
        <time>2022-01-09T11:01:47.000Z</time>
      </trkpt>
      <trkpt lat="47.2646" lon="-2.33314">
        <ele>14.199999809265</ele>
        <time>2022-01-09T11:01:48.000Z</time>
      </trkpt>
      <trkpt lat="47.26439" lon="-2.33331">
        <ele>14.199999809265</ele>
        <time>2022-01-09T11:01:56.000Z</time>
      </trkpt>
      <trkpt lat="47.26433" lon="-2.33336">
        <ele>14.199999809265</ele>
        <time>2022-01-09T11:02:01.000Z</time>
      </trkpt>
      <trkpt lat="47.2642" lon="-2.33346">
        <ele>12</ele>
        <time>2022-01-09T11:03:22.000Z</time>
      </trkpt>
      <trkpt lat="47.26414" lon="-2.3335">
        <ele>12</ele>
        <time>2022-01-09T11:03:25.000Z</time>
      </trkpt>
      <trkpt lat="47.26402" lon="-2.33358">
        <ele>12</ele>
        <time>2022-01-09T11:03:32.000Z</time>
      </trkpt>
      <trkpt lat="47.26389" lon="-2.33367">
        <ele>12</ele>
        <time>2022-01-09T11:03:39.000Z</time>
      </trkpt>
      <trkpt lat="47.26373" lon="-2.33377">
        <ele>12</ele>
        <time>2022-01-09T11:03:46.000Z</time>
      </trkpt>
      <trkpt lat="47.26361" lon="-2.33383">
        <ele>12</ele>
        <time>2022-01-09T11:03:52.000Z</time>
      </trkpt>
      <trkpt lat="47.26345" lon="-2.3339">
        <ele>12</ele>
        <time>2022-01-09T11:03:59.000Z</time>
      </trkpt>
      <trkpt lat="47.26325" lon="-2.33403">
        <ele>12</ele>
        <time>2022-01-09T11:04:07.000Z</time>
      </trkpt>
      <trkpt lat="47.26304" lon="-2.33419">
        <ele>12</ele>
        <time>2022-01-09T11:04:14.000Z</time>
      </trkpt>
      <trkpt lat="47.26288" lon="-2.33421">
        <ele>12</ele>
        <time>2022-01-09T11:04:18.000Z</time>
      </trkpt>
      <trkpt lat="47.26283" lon="-2.33423">
        <ele>12</ele>
        <time>2022-01-09T11:04:19.000Z</time>
      </trkpt>
      <trkpt lat="47.26269" lon="-2.33426">
        <ele>12</ele>
        <time>2022-01-09T11:04:22.000Z</time>
      </trkpt>
      <trkpt lat="47.26259" lon="-2.33429">
        <ele>12</ele>
        <time>2022-01-09T11:04:24.000Z</time>
      </trkpt>
      <trkpt lat="47.26249" lon="-2.33431">
        <ele>12</ele>
        <time>2022-01-09T11:04:26.000Z</time>
      </trkpt>
      <trkpt lat="47.26244" lon="-2.33432">
        <ele>12.39999961853</ele>
        <time>2022-01-09T11:04:27.000Z</time>
      </trkpt>
      <trkpt lat="47.2624" lon="-2.33432">
        <ele>13</ele>
        <time>2022-01-09T11:04:28.000Z</time>
      </trkpt>
      <trkpt lat="47.26236" lon="-2.33433">
        <ele>13.39999961853</ele>
        <time>2022-01-09T11:04:29.000Z</time>
      </trkpt>
      <trkpt lat="47.26231" lon="-2.33435">
        <ele>13.800000190735</ele>
        <time>2022-01-09T11:04:30.000Z</time>
      </trkpt>
      <trkpt lat="47.26227" lon="-2.33436">
        <ele>14.199999809265</ele>
        <time>2022-01-09T11:04:31.000Z</time>
      </trkpt>
      <trkpt lat="47.26199" lon="-2.33441">
        <ele>14.199999809265</ele>
        <time>2022-01-09T11:04:37.000Z</time>
      </trkpt>
      <trkpt lat="47.26169" lon="-2.33441">
        <ele>14.199999809265</ele>
        <time>2022-01-09T11:04:44.000Z</time>
      </trkpt>
      <trkpt lat="47.26149" lon="-2.33434">
        <ele>14.199999809265</ele>
        <time>2022-01-09T11:04:49.000Z</time>
      </trkpt>
      <trkpt lat="47.26142" lon="-2.3343">
        <ele>14.60000038147</ele>
        <time>2022-01-09T11:04:51.000Z</time>
      </trkpt>
      <trkpt lat="47.26139" lon="-2.33432">
        <ele>15</ele>
        <time>2022-01-09T11:04:52.000Z</time>
      </trkpt>
      <trkpt lat="47.26137" lon="-2.33435">
        <ele>15.39999961853</ele>
        <time>2022-01-09T11:04:53.000Z</time>
      </trkpt>
      <trkpt lat="47.26137" lon="-2.3344">
        <ele>15.800000190735</ele>
        <time>2022-01-09T11:04:54.000Z</time>
      </trkpt>
      <trkpt lat="47.26136" lon="-2.33444">
        <ele>16.200000762939</ele>
        <time>2022-01-09T11:04:55.000Z</time>
      </trkpt>
      <trkpt lat="47.26126" lon="-2.33467">
        <ele>16.200000762939</ele>
        <time>2022-01-09T11:05:00.000Z</time>
      </trkpt>
      <trkpt lat="47.26114" lon="-2.33492">
        <ele>16.200000762939</ele>
        <time>2022-01-09T11:05:05.000Z</time>
      </trkpt>
      <trkpt lat="47.2611" lon="-2.33493">
        <ele>16.200000762939</ele>
        <time>2022-01-09T11:05:06.000Z</time>
      </trkpt>
      <trkpt lat="47.26099" lon="-2.33489">
        <ele>16.200000762939</ele>
        <time>2022-01-09T11:05:09.000Z</time>
      </trkpt>
      <trkpt lat="47.26085" lon="-2.33487">
        <ele>16.200000762939</ele>
        <time>2022-01-09T11:05:14.000Z</time>
      </trkpt>
      <trkpt lat="47.26071" lon="-2.33481">
        <ele>16.60000038147</ele>
        <time>2022-01-09T11:05:18.000Z</time>
      </trkpt>
      <trkpt lat="47.26067" lon="-2.33482">
        <ele>17</ele>
        <time>2022-01-09T11:05:19.000Z</time>
      </trkpt>
      <trkpt lat="47.26063" lon="-2.33484">
        <ele>17.39999961853</ele>
        <time>2022-01-09T11:05:20.000Z</time>
      </trkpt>
      <trkpt lat="47.26059" lon="-2.33486">
        <ele>17.799999237061</ele>
        <time>2022-01-09T11:05:21.000Z</time>
      </trkpt>
      <trkpt lat="47.26054" lon="-2.33484">
        <ele>18.200000762939</ele>
        <time>2022-01-09T11:05:22.000Z</time>
      </trkpt>
      <trkpt lat="47.26051" lon="-2.3348">
        <ele>18.200000762939</ele>
        <time>2022-01-09T11:05:23.000Z</time>
      </trkpt>
      <trkpt lat="47.26039" lon="-2.33474">
        <ele>18.200000762939</ele>
        <time>2022-01-09T11:05:27.000Z</time>
      </trkpt>
      <trkpt lat="47.26028" lon="-2.33482">
        <ele>18.200000762939</ele>
        <time>2022-01-09T11:05:30.000Z</time>
      </trkpt>
      <trkpt lat="47.26023" lon="-2.33484">
        <ele>18.200000762939</ele>
        <time>2022-01-09T11:05:31.000Z</time>
      </trkpt>
      <trkpt lat="47.26018" lon="-2.33486">
        <ele>18.200000762939</ele>
        <time>2022-01-09T11:05:32.000Z</time>
      </trkpt>
      <trkpt lat="47.25988" lon="-2.33493">
        <ele>18.200000762939</ele>
        <time>2022-01-09T11:05:38.000Z</time>
      </trkpt>
      <trkpt lat="47.25986" lon="-2.33495">
        <ele>18.200000762939</ele>
        <time>2022-01-09T11:05:41.000Z</time>
      </trkpt>
      <trkpt lat="47.25983" lon="-2.33499">
        <ele>18.200000762939</ele>
        <time>2022-01-09T11:05:44.000Z</time>
      </trkpt>
      <trkpt lat="47.25979" lon="-2.33504">
        <ele>18.200000762939</ele>
        <time>2022-01-09T11:05:46.000Z</time>
      </trkpt>
      <trkpt lat="47.25963" lon="-2.33504">
        <ele>18.200000762939</ele>
        <time>2022-01-09T11:05:50.000Z</time>
      </trkpt>
      <trkpt lat="47.25957" lon="-2.33509">
        <ele>18.200000762939</ele>
        <time>2022-01-09T11:05:51.000Z</time>
      </trkpt>
      <trkpt lat="47.25948" lon="-2.33517">
        <ele>18.200000762939</ele>
        <time>2022-01-09T11:05:53.000Z</time>
      </trkpt>
      <trkpt lat="47.25939" lon="-2.33524">
        <ele>18.60000038147</ele>
        <time>2022-01-09T11:05:55.000Z</time>
      </trkpt>
      <trkpt lat="47.25934" lon="-2.33527">
        <ele>19</ele>
        <time>2022-01-09T11:05:56.000Z</time>
      </trkpt>
      <trkpt lat="47.25929" lon="-2.33531">
        <ele>19.39999961853</ele>
        <time>2022-01-09T11:05:57.000Z</time>
      </trkpt>
      <trkpt lat="47.25924" lon="-2.33535">
        <ele>19.799999237061</ele>
        <time>2022-01-09T11:05:58.000Z</time>
      </trkpt>
      <trkpt lat="47.2592" lon="-2.3354">
        <ele>20.200000762939</ele>
        <time>2022-01-09T11:05:59.000Z</time>
      </trkpt>
      <trkpt lat="47.25884" lon="-2.33571">
        <ele>20.200000762939</ele>
        <time>2022-01-09T11:06:07.000Z</time>
      </trkpt>
      <trkpt lat="47.25879" lon="-2.33574">
        <ele>20.200000762939</ele>
        <time>2022-01-09T11:06:08.000Z</time>
      </trkpt>
      <trkpt lat="47.25862" lon="-2.33577">
        <ele>20.200000762939</ele>
        <time>2022-01-09T11:06:11.000Z</time>
      </trkpt>
      <trkpt lat="47.25824" lon="-2.3358">
        <ele>20.200000762939</ele>
        <time>2022-01-09T11:06:18.000Z</time>
      </trkpt>
      <trkpt lat="47.25802" lon="-2.33581">
        <ele>20.60000038147</ele>
        <time>2022-01-09T11:06:22.000Z</time>
      </trkpt>
      <trkpt lat="47.25797" lon="-2.33582">
        <ele>21</ele>
        <time>2022-01-09T11:06:23.000Z</time>
      </trkpt>
      <trkpt lat="47.25791" lon="-2.33582">
        <ele>21.60000038147</ele>
        <time>2022-01-09T11:06:24.000Z</time>
      </trkpt>
      <trkpt lat="47.25786" lon="-2.33582">
        <ele>22</ele>
        <time>2022-01-09T11:06:25.000Z</time>
      </trkpt>
      <trkpt lat="47.25781" lon="-2.33583">
        <ele>22.39999961853</ele>
        <time>2022-01-09T11:06:26.000Z</time>
      </trkpt>
      <trkpt lat="47.25749" lon="-2.33587">
        <ele>22.39999961853</ele>
        <time>2022-01-09T11:06:32.000Z</time>
      </trkpt>
      <trkpt lat="47.25739" lon="-2.33587">
        <ele>22.39999961853</ele>
        <time>2022-01-09T11:06:34.000Z</time>
      </trkpt>
      <trkpt lat="47.25728" lon="-2.33585">
        <ele>22.39999961853</ele>
        <time>2022-01-09T11:06:36.000Z</time>
      </trkpt>
      <trkpt lat="47.25717" lon="-2.33586">
        <ele>22.39999961853</ele>
        <time>2022-01-09T11:06:38.000Z</time>
      </trkpt>
      <trkpt lat="47.25694" lon="-2.33586">
        <ele>22.39999961853</ele>
        <time>2022-01-09T11:06:42.000Z</time>
      </trkpt>
      <trkpt lat="47.25659" lon="-2.33577">
        <ele>22.39999961853</ele>
        <time>2022-01-09T11:06:48.000Z</time>
      </trkpt>
      <trkpt lat="47.25623" lon="-2.33558">
        <ele>22.39999961853</ele>
        <time>2022-01-09T11:06:54.000Z</time>
      </trkpt>
      <trkpt lat="47.25602" lon="-2.33538">
        <ele>22.799999237061</ele>
        <time>2022-01-09T11:06:58.000Z</time>
      </trkpt>
      <trkpt lat="47.25596" lon="-2.33533">
        <ele>23.200000762939</ele>
        <time>2022-01-09T11:06:59.000Z</time>
      </trkpt>
      <trkpt lat="47.25592" lon="-2.33528">
        <ele>23.60000038147</ele>
        <time>2022-01-09T11:07:00.000Z</time>
      </trkpt>
      <trkpt lat="47.25587" lon="-2.33522">
        <ele>24</ele>
        <time>2022-01-09T11:07:01.000Z</time>
      </trkpt>
      <trkpt lat="47.25582" lon="-2.33516">
        <ele>24.39999961853</ele>
        <time>2022-01-09T11:07:02.000Z</time>
      </trkpt>
      <trkpt lat="47.25565" lon="-2.33489">
        <ele>24.39999961853</ele>
        <time>2022-01-09T11:07:06.000Z</time>
      </trkpt>
      <trkpt lat="47.25543" lon="-2.33445">
        <ele>24.39999961853</ele>
        <time>2022-01-09T11:07:12.000Z</time>
      </trkpt>
      <trkpt lat="47.25531" lon="-2.33401">
        <ele>24.39999961853</ele>
        <time>2022-01-09T11:07:17.000Z</time>
      </trkpt>
      <trkpt lat="47.25523" lon="-2.33338">
        <ele>24.39999961853</ele>
        <time>2022-01-09T11:07:24.000Z</time>
      </trkpt>
      <trkpt lat="47.25516" lon="-2.33274">
        <ele>24.39999961853</ele>
        <time>2022-01-09T11:07:31.000Z</time>
      </trkpt>
      <trkpt lat="47.25508" lon="-2.33209">
        <ele>24.39999961853</ele>
        <time>2022-01-09T11:07:38.000Z</time>
      </trkpt>
      <trkpt lat="47.25503" lon="-2.33173">
        <ele>24.799999237061</ele>
        <time>2022-01-09T11:07:42.000Z</time>
      </trkpt>
      <trkpt lat="47.25501" lon="-2.33163">
        <ele>25.200000762939</ele>
        <time>2022-01-09T11:07:43.000Z</time>
      </trkpt>
      <trkpt lat="47.255" lon="-2.33154">
        <ele>25.60000038147</ele>
        <time>2022-01-09T11:07:44.000Z</time>
      </trkpt>
      <trkpt lat="47.25498" lon="-2.33145">
        <ele>26</ele>
        <time>2022-01-09T11:07:45.000Z</time>
      </trkpt>
      <trkpt lat="47.25497" lon="-2.33136">
        <ele>26.39999961853</ele>
        <time>2022-01-09T11:07:46.000Z</time>
      </trkpt>
      <trkpt lat="47.25487" lon="-2.33093">
        <ele>26.39999961853</ele>
        <time>2022-01-09T11:07:52.000Z</time>
      </trkpt>
      <trkpt lat="47.25474" lon="-2.33097">
        <ele>26.39999961853</ele>
        <time>2022-01-09T11:07:55.000Z</time>
      </trkpt>
      <trkpt lat="47.25469" lon="-2.331">
        <ele>26.39999961853</ele>
        <time>2022-01-09T11:07:56.000Z</time>
      </trkpt>
      <trkpt lat="47.25438" lon="-2.33114">
        <ele>26.39999961853</ele>
        <time>2022-01-09T11:08:02.000Z</time>
      </trkpt>
      <trkpt lat="47.25413" lon="-2.33127">
        <ele>26.39999961853</ele>
        <time>2022-01-09T11:08:07.000Z</time>
      </trkpt>
      <trkpt lat="47.25409" lon="-2.33128">
        <ele>26.39999961853</ele>
        <time>2022-01-09T11:08:08.000Z</time>
      </trkpt>
      <trkpt lat="47.2539" lon="-2.33136">
        <ele>26.39999961853</ele>
        <time>2022-01-09T11:08:13.000Z</time>
      </trkpt>
      <trkpt lat="47.25378" lon="-2.3313">
        <ele>26.39999961853</ele>
        <time>2022-01-09T11:08:17.000Z</time>
      </trkpt>
      <trkpt lat="47.25375" lon="-2.33119">
        <ele>26.39999961853</ele>
        <time>2022-01-09T11:08:21.000Z</time>
      </trkpt>
      <trkpt lat="47.25369" lon="-2.33105">
        <ele>26.39999961853</ele>
        <time>2022-01-09T11:08:28.000Z</time>
      </trkpt>
      <trkpt lat="47.25368" lon="-2.33102">
        <ele>26.39999961853</ele>
        <time>2022-01-09T11:08:33.000Z</time>
      </trkpt>
      <trkpt lat="47.25366" lon="-2.3309">
        <ele>8</ele>
        <time>2022-01-09T11:26:49.000Z</time>
      </trkpt>
      <trkpt lat="47.25358" lon="-2.33071">
        <ele>8</ele>
        <time>2022-01-09T11:26:55.000Z</time>
      </trkpt>
      <trkpt lat="47.25356" lon="-2.33066">
        <ele>7.5999999046326</ele>
        <time>2022-01-09T11:26:56.000Z</time>
      </trkpt>
      <trkpt lat="47.25354" lon="-2.33061">
        <ele>7.1999998092651</ele>
        <time>2022-01-09T11:26:57.000Z</time>
      </trkpt>
      <trkpt lat="47.25353" lon="-2.33056">
        <ele>6.8000001907349</ele>
        <time>2022-01-09T11:26:58.000Z</time>
      </trkpt>
      <trkpt lat="47.25351" lon="-2.33051">
        <ele>6.4000000953674</ele>
        <time>2022-01-09T11:26:59.000Z</time>
      </trkpt>
      <trkpt lat="47.2535" lon="-2.33045">
        <ele>6</ele>
        <time>2022-01-09T11:27:00.000Z</time>
      </trkpt>
      <trkpt lat="47.25348" lon="-2.3304">
        <ele>6</ele>
        <time>2022-01-09T11:27:01.000Z</time>
      </trkpt>
      <trkpt lat="47.25338" lon="-2.33012">
        <ele>6</ele>
        <time>2022-01-09T11:27:07.000Z</time>
      </trkpt>
      <trkpt lat="47.25323" lon="-2.32982">
        <ele>6</ele>
        <time>2022-01-09T11:27:14.000Z</time>
      </trkpt>
      <trkpt lat="47.25312" lon="-2.32952">
        <ele>6</ele>
        <time>2022-01-09T11:27:20.000Z</time>
      </trkpt>
      <trkpt lat="47.25308" lon="-2.32926">
        <ele>6</ele>
        <time>2022-01-09T11:27:25.000Z</time>
      </trkpt>
      <trkpt lat="47.25318" lon="-2.32908">
        <ele>6</ele>
        <time>2022-01-09T11:27:29.000Z</time>
      </trkpt>
      <trkpt lat="47.25322" lon="-2.32904">
        <ele>6</ele>
        <time>2022-01-09T11:27:30.000Z</time>
      </trkpt>
      <trkpt lat="47.25329" lon="-2.32896">
        <ele>6.4000000953674</ele>
        <time>2022-01-09T11:27:32.000Z</time>
      </trkpt>
      <trkpt lat="47.25333" lon="-2.32892">
        <ele>6.8000001907349</ele>
        <time>2022-01-09T11:27:33.000Z</time>
      </trkpt>
      <trkpt lat="47.25337" lon="-2.32888">
        <ele>7.1999998092651</ele>
        <time>2022-01-09T11:27:34.000Z</time>
      </trkpt>
      <trkpt lat="47.25341" lon="-2.32885">
        <ele>7.5999999046326</ele>
        <time>2022-01-09T11:27:35.000Z</time>
      </trkpt>
      <trkpt lat="47.25345" lon="-2.32881">
        <ele>8</ele>
        <time>2022-01-09T11:27:36.000Z</time>
      </trkpt>
      <trkpt lat="47.25369" lon="-2.3286">
        <ele>8</ele>
        <time>2022-01-09T11:27:42.000Z</time>
      </trkpt>
      <trkpt lat="47.254" lon="-2.32821">
        <ele>8</ele>
        <time>2022-01-09T11:27:50.000Z</time>
      </trkpt>
      <trkpt lat="47.25414" lon="-2.32802">
        <ele>8.3999996185303</ele>
        <time>2022-01-09T11:27:54.000Z</time>
      </trkpt>
      <trkpt lat="47.25417" lon="-2.32797">
        <ele>8.8000001907349</ele>
        <time>2022-01-09T11:27:55.000Z</time>
      </trkpt>
      <trkpt lat="47.2542" lon="-2.32792">
        <ele>9.1999998092651</ele>
        <time>2022-01-09T11:27:56.000Z</time>
      </trkpt>
      <trkpt lat="47.25422" lon="-2.32787">
        <ele>9.6000003814697</ele>
        <time>2022-01-09T11:27:57.000Z</time>
      </trkpt>
      <trkpt lat="47.25424" lon="-2.32781">
        <ele>10</ele>
        <time>2022-01-09T11:27:58.000Z</time>
      </trkpt>
      <trkpt lat="47.2543" lon="-2.32765">
        <ele>10</ele>
        <time>2022-01-09T11:28:01.000Z</time>
      </trkpt>
      <trkpt lat="47.25445" lon="-2.3275">
        <ele>10</ele>
        <time>2022-01-09T11:28:05.000Z</time>
      </trkpt>
      <trkpt lat="47.25466" lon="-2.32721">
        <ele>9.1999998092651</ele>
        <time>2022-01-09T11:28:11.000Z</time>
      </trkpt>
      <trkpt lat="47.25469" lon="-2.32717">
        <ele>8.6000003814697</ele>
        <time>2022-01-09T11:28:12.000Z</time>
      </trkpt>
      <trkpt lat="47.25473" lon="-2.32712">
        <ele>7.8000001907349</ele>
        <time>2022-01-09T11:28:13.000Z</time>
      </trkpt>
      <trkpt lat="47.25476" lon="-2.32706">
        <ele>8.3999996185303</ele>
        <time>2022-01-09T11:28:14.000Z</time>
      </trkpt>
      <trkpt lat="47.25479" lon="-2.32701">
        <ele>9</ele>
        <time>2022-01-09T11:28:15.000Z</time>
      </trkpt>
      <trkpt lat="47.25482" lon="-2.32695">
        <ele>9.6000003814697</ele>
        <time>2022-01-09T11:28:16.000Z</time>
      </trkpt>
      <trkpt lat="47.25485" lon="-2.32689">
        <ele>10</ele>
        <time>2022-01-09T11:28:17.000Z</time>
      </trkpt>
      <trkpt lat="47.25487" lon="-2.32682">
        <ele>10.60000038147</ele>
        <time>2022-01-09T11:28:18.000Z</time>
      </trkpt>
      <trkpt lat="47.25489" lon="-2.32662">
        <ele>10.60000038147</ele>
        <time>2022-01-09T11:28:21.000Z</time>
      </trkpt>
      <trkpt lat="47.25488" lon="-2.32654">
        <ele>10.60000038147</ele>
        <time>2022-01-09T11:28:22.000Z</time>
      </trkpt>
      <trkpt lat="47.25483" lon="-2.32627">
        <ele>10.60000038147</ele>
        <time>2022-01-09T11:28:26.000Z</time>
      </trkpt>
      <trkpt lat="47.25481" lon="-2.3262">
        <ele>10.60000038147</ele>
        <time>2022-01-09T11:28:27.000Z</time>
      </trkpt>
      <trkpt lat="47.25478" lon="-2.32599">
        <ele>10.60000038147</ele>
        <time>2022-01-09T11:28:30.000Z</time>
      </trkpt>
      <trkpt lat="47.2548" lon="-2.3258">
        <ele>10.60000038147</ele>
        <time>2022-01-09T11:28:33.000Z</time>
      </trkpt>
      <trkpt lat="47.25492" lon="-2.32552">
        <ele>10.60000038147</ele>
        <time>2022-01-09T11:28:38.000Z</time>
      </trkpt>
      <trkpt lat="47.25501" lon="-2.32543">
        <ele>10.60000038147</ele>
        <time>2022-01-09T11:28:40.000Z</time>
      </trkpt>
      <trkpt lat="47.25514" lon="-2.3253">
        <ele>10.60000038147</ele>
        <time>2022-01-09T11:28:43.000Z</time>
      </trkpt>
      <trkpt lat="47.25546" lon="-2.32499">
        <ele>10.60000038147</ele>
        <time>2022-01-09T11:28:50.000Z</time>
      </trkpt>
      <trkpt lat="47.25557" lon="-2.32489">
        <ele>11</ele>
        <time>2022-01-09T11:28:52.000Z</time>
      </trkpt>
      <trkpt lat="47.25563" lon="-2.32483">
        <ele>11.800000190735</ele>
        <time>2022-01-09T11:28:53.000Z</time>
      </trkpt>
      <trkpt lat="47.25568" lon="-2.32478">
        <ele>12.199999809265</ele>
        <time>2022-01-09T11:28:54.000Z</time>
      </trkpt>
      <trkpt lat="47.25573" lon="-2.32472">
        <ele>12.60000038147</ele>
        <time>2022-01-09T11:28:55.000Z</time>
      </trkpt>
      <trkpt lat="47.25579" lon="-2.32467">
        <ele>12.60000038147</ele>
        <time>2022-01-09T11:28:56.000Z</time>
      </trkpt>
      <trkpt lat="47.2562" lon="-2.32424">
        <ele>12.60000038147</ele>
        <time>2022-01-09T11:29:03.000Z</time>
      </trkpt>
      <trkpt lat="47.25637" lon="-2.32407">
        <ele>12.60000038147</ele>
        <time>2022-01-09T11:29:06.000Z</time>
      </trkpt>
      <trkpt lat="47.25649" lon="-2.32402">
        <ele>12.60000038147</ele>
        <time>2022-01-09T11:29:08.000Z</time>
      </trkpt>
      <trkpt lat="47.25664" lon="-2.32408">
        <ele>12.60000038147</ele>
        <time>2022-01-09T11:29:11.000Z</time>
      </trkpt>
      <trkpt lat="47.25669" lon="-2.32411">
        <ele>12.60000038147</ele>
        <time>2022-01-09T11:29:12.000Z</time>
      </trkpt>
      <trkpt lat="47.25678" lon="-2.32416">
        <ele>12.60000038147</ele>
        <time>2022-01-09T11:29:14.000Z</time>
      </trkpt>
      <trkpt lat="47.25689" lon="-2.32419">
        <ele>12.60000038147</ele>
        <time>2022-01-09T11:29:16.000Z</time>
      </trkpt>
      <trkpt lat="47.25701" lon="-2.32421">
        <ele>12.60000038147</ele>
        <time>2022-01-09T11:29:18.000Z</time>
      </trkpt>
      <trkpt lat="47.25725" lon="-2.32422">
        <ele>12.60000038147</ele>
        <time>2022-01-09T11:29:22.000Z</time>
      </trkpt>
      <trkpt lat="47.2576" lon="-2.3242">
        <ele>13</ele>
        <time>2022-01-09T11:29:29.000Z</time>
      </trkpt>
      <trkpt lat="47.25763" lon="-2.32418">
        <ele>13.60000038147</ele>
        <time>2022-01-09T11:29:30.000Z</time>
      </trkpt>
      <trkpt lat="47.25765" lon="-2.32417">
        <ele>14</ele>
        <time>2022-01-09T11:29:31.000Z</time>
      </trkpt>
      <trkpt lat="47.25768" lon="-2.32416">
        <ele>14.39999961853</ele>
        <time>2022-01-09T11:29:32.000Z</time>
      </trkpt>
      <trkpt lat="47.25771" lon="-2.32414">
        <ele>14.800000190735</ele>
        <time>2022-01-09T11:29:33.000Z</time>
      </trkpt>
      <trkpt lat="47.25782" lon="-2.32415">
        <ele>14.800000190735</ele>
        <time>2022-01-09T11:29:36.000Z</time>
      </trkpt>
      <trkpt lat="47.25785" lon="-2.32419">
        <ele>14.800000190735</ele>
        <time>2022-01-09T11:29:37.000Z</time>
      </trkpt>
      <trkpt lat="47.25794" lon="-2.32436">
        <ele>14.800000190735</ele>
        <time>2022-01-09T11:29:40.000Z</time>
      </trkpt>
      <trkpt lat="47.25798" lon="-2.32443">
        <ele>14.800000190735</ele>
        <time>2022-01-09T11:29:41.000Z</time>
      </trkpt>
      <trkpt lat="47.25814" lon="-2.32455">
        <ele>14.800000190735</ele>
        <time>2022-01-09T11:29:44.000Z</time>
      </trkpt>
      <trkpt lat="47.25847" lon="-2.32472">
        <ele>14.800000190735</ele>
        <time>2022-01-09T11:29:50.000Z</time>
      </trkpt>
      <trkpt lat="47.25852" lon="-2.32473">
        <ele>14.800000190735</ele>
        <time>2022-01-09T11:29:51.000Z</time>
      </trkpt>
      <trkpt lat="47.25863" lon="-2.32474">
        <ele>14.800000190735</ele>
        <time>2022-01-09T11:29:53.000Z</time>
      </trkpt>
      <trkpt lat="47.25868" lon="-2.32472">
        <ele>14.800000190735</ele>
        <time>2022-01-09T11:29:54.000Z</time>
      </trkpt>
      <trkpt lat="47.25889" lon="-2.32467">
        <ele>14.800000190735</ele>
        <time>2022-01-09T11:29:58.000Z</time>
      </trkpt>
      <trkpt lat="47.25894" lon="-2.32463">
        <ele>14.800000190735</ele>
        <time>2022-01-09T11:29:59.000Z</time>
      </trkpt>
      <trkpt lat="47.25922" lon="-2.3243">
        <ele>14.800000190735</ele>
        <time>2022-01-09T11:30:05.000Z</time>
      </trkpt>
      <trkpt lat="47.25957" lon="-2.32384">
        <ele>14.800000190735</ele>
        <time>2022-01-09T11:30:13.000Z</time>
      </trkpt>
      <trkpt lat="47.25978" lon="-2.32355">
        <ele>15.199999809265</ele>
        <time>2022-01-09T11:30:18.000Z</time>
      </trkpt>
      <trkpt lat="47.25982" lon="-2.3235">
        <ele>15.60000038147</ele>
        <time>2022-01-09T11:30:19.000Z</time>
      </trkpt>
      <trkpt lat="47.25986" lon="-2.32345">
        <ele>16</ele>
        <time>2022-01-09T11:30:20.000Z</time>
      </trkpt>
      <trkpt lat="47.2599" lon="-2.3234">
        <ele>16.39999961853</ele>
        <time>2022-01-09T11:30:21.000Z</time>
      </trkpt>
      <trkpt lat="47.25994" lon="-2.32334">
        <ele>16.799999237061</ele>
        <time>2022-01-09T11:30:22.000Z</time>
      </trkpt>
      <trkpt lat="47.26017" lon="-2.32303">
        <ele>16.799999237061</ele>
        <time>2022-01-09T11:30:28.000Z</time>
      </trkpt>
      <trkpt lat="47.26026" lon="-2.32294">
        <ele>16.799999237061</ele>
        <time>2022-01-09T11:30:30.000Z</time>
      </trkpt>
      <trkpt lat="47.26044" lon="-2.32275">
        <ele>16.799999237061</ele>
        <time>2022-01-09T11:30:34.000Z</time>
      </trkpt>
      <trkpt lat="47.26079" lon="-2.32237">
        <ele>16.799999237061</ele>
        <time>2022-01-09T11:30:42.000Z</time>
      </trkpt>
      <trkpt lat="47.261" lon="-2.32204">
        <ele>16.799999237061</ele>
        <time>2022-01-09T11:30:48.000Z</time>
      </trkpt>
      <trkpt lat="47.26103" lon="-2.32197">
        <ele>16.799999237061</ele>
        <time>2022-01-09T11:30:49.000Z</time>
      </trkpt>
      <trkpt lat="47.26124" lon="-2.3215">
        <ele>16.799999237061</ele>
        <time>2022-01-09T11:30:56.000Z</time>
      </trkpt>
      <trkpt lat="47.26135" lon="-2.32106">
        <ele>16.799999237061</ele>
        <time>2022-01-09T11:31:02.000Z</time>
      </trkpt>
      <trkpt lat="47.26146" lon="-2.32069">
        <ele>17.200000762939</ele>
        <time>2022-01-09T11:31:07.000Z</time>
      </trkpt>
      <trkpt lat="47.26148" lon="-2.32061">
        <ele>17.60000038147</ele>
        <time>2022-01-09T11:31:08.000Z</time>
      </trkpt>
      <trkpt lat="47.2615" lon="-2.32053">
        <ele>18</ele>
        <time>2022-01-09T11:31:09.000Z</time>
      </trkpt>
      <trkpt lat="47.26152" lon="-2.32046">
        <ele>18.39999961853</ele>
        <time>2022-01-09T11:31:10.000Z</time>
      </trkpt>
      <trkpt lat="47.26154" lon="-2.32039">
        <ele>18.799999237061</ele>
        <time>2022-01-09T11:31:11.000Z</time>
      </trkpt>
      <trkpt lat="47.26159" lon="-2.32026">
        <ele>18.799999237061</ele>
        <time>2022-01-09T11:31:13.000Z</time>
      </trkpt>
      <trkpt lat="47.26163" lon="-2.32022">
        <ele>18.799999237061</ele>
        <time>2022-01-09T11:31:14.000Z</time>
      </trkpt>
      <trkpt lat="47.26177" lon="-2.32021">
        <ele>18.799999237061</ele>
        <time>2022-01-09T11:31:17.000Z</time>
      </trkpt>
      <trkpt lat="47.26184" lon="-2.32023">
        <ele>18.799999237061</ele>
        <time>2022-01-09T11:31:19.000Z</time>
      </trkpt>
      <trkpt lat="47.26188" lon="-2.32025">
        <ele>18.799999237061</ele>
        <time>2022-01-09T11:31:21.000Z</time>
      </trkpt>
      <trkpt lat="47.26198" lon="-2.3202">
        <ele>18.799999237061</ele>
        <time>2022-01-09T11:31:26.000Z</time>
      </trkpt>
      <trkpt lat="47.26199" lon="-2.32017">
        <ele>18.799999237061</ele>
        <time>2022-01-09T11:31:27.000Z</time>
      </trkpt>
      <trkpt lat="47.26202" lon="-2.32007">
        <ele>18.799999237061</ele>
        <time>2022-01-09T11:31:30.000Z</time>
      </trkpt>
      <trkpt lat="47.26205" lon="-2.32003">
        <ele>18.799999237061</ele>
        <time>2022-01-09T11:31:32.000Z</time>
      </trkpt>
      <trkpt lat="47.2621" lon="-2.31996">
        <ele>18.799999237061</ele>
        <time>2022-01-09T11:31:35.000Z</time>
      </trkpt>
      <trkpt lat="47.26223" lon="-2.31981">
        <ele>18.799999237061</ele>
        <time>2022-01-09T11:31:40.000Z</time>
      </trkpt>
      <trkpt lat="47.26241" lon="-2.3196">
        <ele>18.799999237061</ele>
        <time>2022-01-09T11:31:46.000Z</time>
      </trkpt>
      <trkpt lat="47.26251" lon="-2.31947">
        <ele>18.799999237061</ele>
        <time>2022-01-09T11:31:51.000Z</time>
      </trkpt>
      <trkpt lat="47.26259" lon="-2.31929">
        <ele>18.799999237061</ele>
        <time>2022-01-09T11:31:57.000Z</time>
      </trkpt>
      <trkpt lat="47.26271" lon="-2.31908">
        <ele>18.799999237061</ele>
        <time>2022-01-09T11:32:02.000Z</time>
      </trkpt>
      <trkpt lat="47.26287" lon="-2.31889">
        <ele>19.200000762939</ele>
        <time>2022-01-09T11:32:08.000Z</time>
      </trkpt>
      <trkpt lat="47.26288" lon="-2.31884">
        <ele>19.60000038147</ele>
        <time>2022-01-09T11:32:09.000Z</time>
      </trkpt>
      <trkpt lat="47.26289" lon="-2.3188">
        <ele>20.39999961853</ele>
        <time>2022-01-09T11:32:10.000Z</time>
      </trkpt>
      <trkpt lat="47.26291" lon="-2.31873">
        <ele>20.799999237061</ele>
        <time>2022-01-09T11:32:11.000Z</time>
      </trkpt>
      <trkpt lat="47.26292" lon="-2.31868">
        <ele>20.799999237061</ele>
        <time>2022-01-09T11:32:12.000Z</time>
      </trkpt>
      <trkpt lat="47.26297" lon="-2.31842">
        <ele>20.799999237061</ele>
        <time>2022-01-09T11:32:18.000Z</time>
      </trkpt>
      <trkpt lat="47.26297" lon="-2.31817">
        <ele>20.799999237061</ele>
        <time>2022-01-09T11:32:23.000Z</time>
      </trkpt>
      <trkpt lat="47.26302" lon="-2.31783">
        <ele>20.799999237061</ele>
        <time>2022-01-09T11:32:29.000Z</time>
      </trkpt>
      <trkpt lat="47.263" lon="-2.31742">
        <ele>20.799999237061</ele>
        <time>2022-01-09T11:32:36.000Z</time>
      </trkpt>
      <trkpt lat="47.26306" lon="-2.31724">
        <ele>20.799999237061</ele>
        <time>2022-01-09T11:32:40.000Z</time>
      </trkpt>
      <trkpt lat="47.26322" lon="-2.31711">
        <ele>20.799999237061</ele>
        <time>2022-01-09T11:32:46.000Z</time>
      </trkpt>
      <trkpt lat="47.26332" lon="-2.31695">
        <ele>20.799999237061</ele>
        <time>2022-01-09T11:32:50.000Z</time>
      </trkpt>
      <trkpt lat="47.26335" lon="-2.3169">
        <ele>20.799999237061</ele>
        <time>2022-01-09T11:32:51.000Z</time>
      </trkpt>
      <trkpt lat="47.2634" lon="-2.31687">
        <ele>20.799999237061</ele>
        <time>2022-01-09T11:32:53.000Z</time>
      </trkpt>
      <trkpt lat="47.26346" lon="-2.31682">
        <ele>20.799999237061</ele>
        <time>2022-01-09T11:32:55.000Z</time>
      </trkpt>
      <trkpt lat="47.26355" lon="-2.31678">
        <ele>20.799999237061</ele>
        <time>2022-01-09T11:32:58.000Z</time>
      </trkpt>
      <trkpt lat="47.26374" lon="-2.3167">
        <ele>20.799999237061</ele>
        <time>2022-01-09T11:33:04.000Z</time>
      </trkpt>
      <trkpt lat="47.26394" lon="-2.31659">
        <ele>20.799999237061</ele>
        <time>2022-01-09T11:33:11.000Z</time>
      </trkpt>
      <trkpt lat="47.26399" lon="-2.31656">
        <ele>21.200000762939</ele>
        <time>2022-01-09T11:33:13.000Z</time>
      </trkpt>
      <trkpt lat="47.26402" lon="-2.31654">
        <ele>21.60000038147</ele>
        <time>2022-01-09T11:33:14.000Z</time>
      </trkpt>
      <trkpt lat="47.26405" lon="-2.31652">
        <ele>22</ele>
        <time>2022-01-09T11:33:15.000Z</time>
      </trkpt>
      <trkpt lat="47.26409" lon="-2.31649">
        <ele>22.39999961853</ele>
        <time>2022-01-09T11:33:16.000Z</time>
      </trkpt>
      <trkpt lat="47.2641" lon="-2.31645">
        <ele>22.799999237061</ele>
        <time>2022-01-09T11:33:17.000Z</time>
      </trkpt>
      <trkpt lat="47.2641" lon="-2.31629">
        <ele>22.799999237061</ele>
        <time>2022-01-09T11:33:21.000Z</time>
      </trkpt>
      <trkpt lat="47.26407" lon="-2.31608">
        <ele>22.799999237061</ele>
        <time>2022-01-09T11:33:26.000Z</time>
      </trkpt>
      <trkpt lat="47.26403" lon="-2.31599">
        <ele>22.799999237061</ele>
        <time>2022-01-09T11:33:29.000Z</time>
      </trkpt>
      <trkpt lat="47.26398" lon="-2.31598">
        <ele>22.799999237061</ele>
        <time>2022-01-09T11:33:31.000Z</time>
      </trkpt>
      <trkpt lat="47.26395" lon="-2.316">
        <ele>22.799999237061</ele>
        <time>2022-01-09T11:33:33.000Z</time>
      </trkpt>
      <trkpt lat="47.26393" lon="-2.31599">
        <ele>22.799999237061</ele>
        <time>2022-01-09T11:33:35.000Z</time>
      </trkpt>
      <trkpt lat="47.26393" lon="-2.31599">
        <ele>22.799999237061</ele>
        <time>2022-01-09T11:33:36.000Z</time>
      </trkpt>
      <trkpt lat="47.26398" lon="-2.31595">
        <ele>22</ele>
        <time>2022-01-09T11:34:11.000Z</time>
      </trkpt>
      <trkpt lat="47.264" lon="-2.31594">
        <ele>21.60000038147</ele>
        <time>2022-01-09T11:34:12.000Z</time>
      </trkpt>
      <trkpt lat="47.26402" lon="-2.31592">
        <ele>21.200000762939</ele>
        <time>2022-01-09T11:34:13.000Z</time>
      </trkpt>
      <trkpt lat="47.26404" lon="-2.31589">
        <ele>20.799999237061</ele>
        <time>2022-01-09T11:34:14.000Z</time>
      </trkpt>
      <trkpt lat="47.26406" lon="-2.31581">
        <ele>20.799999237061</ele>
        <time>2022-01-09T11:34:16.000Z</time>
      </trkpt>
      <trkpt lat="47.26405" lon="-2.31572">
        <ele>20.799999237061</ele>
        <time>2022-01-09T11:34:18.000Z</time>
      </trkpt>
      <trkpt lat="47.26405" lon="-2.3156">
        <ele>20.799999237061</ele>
        <time>2022-01-09T11:34:21.000Z</time>
      </trkpt>
      <trkpt lat="47.26405" lon="-2.31547">
        <ele>20.799999237061</ele>
        <time>2022-01-09T11:34:26.000Z</time>
      </trkpt>
      <trkpt lat="47.26407" lon="-2.31548">
        <ele>20.799999237061</ele>
        <time>2022-01-09T11:34:27.000Z</time>
      </trkpt>
      <trkpt lat="47.26416" lon="-2.31552">
        <ele>20.799999237061</ele>
        <time>2022-01-09T11:34:31.000Z</time>
      </trkpt>
      <trkpt lat="47.26417" lon="-2.31551">
        <ele>20.799999237061</ele>
        <time>2022-01-09T11:34:33.000Z</time>
      </trkpt>
    </trkseg>
  </trk>
</gpx>